﻿ProjectID	SampleID	SampleType	TaxonomyID	UniqCodeType	UniqCode	SampleName	ScientificName	CommonName	CollectionYear	CollectionMonth	CollectionDay	SamplingTimeStartEnd	SamplingTimeAMPM	SamplingDuration	WeatherStartEnd	CollectionRegion	CollectionCountry	CollectionArea	CollectionLatitudeFrom	CollectionLatitudeTo	CollectionLongitudeFrom	CollectionLongitudeTo	Sex	TissueOrgan	TissueLipid	TissueMoist	Weight	WeightUnit	Length	LengthUnit	LengthType	GrowthStage	Age	Disease	TemperatureStartEnd	WaterTemperatureStartEnd	pH	DO	EC	EC_temp	Salinity	SS	WaterDepthM	TransparencyM	WaterColor	SedimentTemperatureStartEnd	SedimentDepthM	SedimentAppearance	SedimentColor	SedimentSurfaceColor	SedimentOdor	SedimentImpurities	SedimentMoistureOnSiteAnalysis	IgnitionLossOnSiteAnalysis	SoilDepthM	FlowRate	MeanPM10	MeanTotalSuspendedParticles	HumidityStartEnd	WindDirectionStartEnd	WindSpeedMSStartEnd	AmountOfCollectedAirStartEnd	Remarks	RegisterDate	UpdateDate
PRA000008	SAA000324	ST003	34880	es-BANK	ET00656	E-2	"Nyctereutes procyonoides"	"Raccoon dog"	2000	12	26					Asia	Japan	Ehime	33.88141111	34.01356111	133.39135	133.6865194	Male	Liver	3.39																																							2016/10/5	2016/10/11
PRA000008	SAA000325	ST003	34880	es-BANK	"ET00659 "	E-5	"Nyctereutes procyonoides"	"Raccoon dog"	2001	2	21					Asia	Japan	Ehime	33.83600556	33.86477222	133.3492389	133.4008778	Male	Liver	3.45																																							2016/10/5	2016/10/11
PRA000008	SAA000326	ST003	34880	es-BANK	ET00661	E-7	"Nyctereutes procyonoides"	"Raccoon dog"	2001	3	10					Asia	Japan	Ehime	33.75333333	33.98555833	132.9744417	133.2908333	Female	Liver	4.26																																							2016/10/5	2016/10/11
PRA000008	SAA000327	ST003	34880	es-BANK	ET00666	E-12	"Nyctereutes procyonoides"	"Raccoon dog"	2001	3	16					Asia	Japan	Ehime	33.75333333	33.98555833	132.9744417	133.2908333	Male	Liver	4.98																																							2016/10/5	2016/10/11
PRA000008	SAA000328	ST003	34880	es-BANK	"ET00667 "	E-13	"Nyctereutes procyonoides"	"Raccoon dog"	2001	3	16					Asia	Japan	Ehime	33.75333333	33.98555833	132.9744417	133.2908333	Female	Liver	4.22																																							2016/10/5	2016/10/11
PRA000008	SAA000329	ST003	34880	es-BANK	"ET00668 "	E-14	"Nyctereutes procyonoides"	"Raccoon dog"	2001	3	16					Asia	Japan	Ehime	33.83600556	33.86477222	133.3492389	133.4008778	Female	Liver	3.64																																							2016/10/5	2016/10/11
PRA000008	SAA000330	ST003	34880	es-BANK	"ET00669 "	E-15	"Nyctereutes procyonoides"	"Raccoon dog"	2000	12	2					Asia	Japan	Ehime	33.82055556	33.85694444	132.8847222	132.9741667	Female	Liver	3.39		2.7	kg																																				2016/10/5	2016/10/11
PRA000008	SAA000331	ST003	34880	es-BANK	"ET00670 "	E-16	"Nyctereutes procyonoides"	"Raccoon dog"	2001	2	25					Asia	Japan	Ehime	33.68444167	33.75722222	132.9105556	133.2069444	Male	Liver	3.58		2.1	kg																																				2016/10/5	2016/10/11
PRA000008	SAA000332	ST003	34880	es-BANK	"ET00671 "	E-17	"Nyctereutes procyonoides"	"Raccoon dog"	2001	2	26					Asia	Japan	Ehime	33.83600556	33.86477222	133.3492389	133.4008778	Male	Liver	3.56																																							2016/10/5	2016/10/11
PRA000008	SAA000333	ST003	34880	es-BANK	ET00673	E-19	"Nyctereutes procyonoides"	"Raccoon dog"	2001	2	27					Asia	Japan	Ehime	33.75333333	33.98555833	132.9744417	133.2908333	Female	Liver	4.65																																							2016/10/5	2016/10/11
PRA000008	SAA000334	ST003	34880	es-BANK	"ET00674 "	E-20	"Nyctereutes procyonoides"	"Raccoon dog"	2001	3	17					Asia	Japan	Ehime	33.75333333	33.98555833	132.9744417	133.2908333	Male	Liver	2.56																																							2016/10/5	2016/10/11
PRA000008	SAA000335	ST003	34880	es-BANK	ET00675	E-21	"Nyctereutes procyonoides"	"Raccoon dog"	2001	3	18					Asia	Japan	Ehime	33.75333333	33.98555833	132.9744417	133.2908333	Male	Liver	3.65																																							2016/10/5	2016/10/11
PRA000008	SAA000336	ST003	34880	es-BANK	ET00678	E-24	"Nyctereutes procyonoides"	"Raccoon dog"	2001	1	18					Asia	Japan	Ehime	33.33055556	33.42916667	132.4830556	132.6438889	Female	Liver	4.08																																							2016/10/5	2016/10/11
PRA000008	SAA000337	ST003	34880	es-BANK	ET00679	E-25	"Nyctereutes procyonoides"	"Raccoon dog"	2002	2	7					Asia	Japan	Ehime	33.68444167	33.75722222	132.9105556	133.2069444	Female	Liver	3.66																																							2016/10/5	2016/10/11
PRA000008	SAA000338	ST003	34880	es-BANK	ET00680	E-26	"Nyctereutes procyonoides"	"Raccoon dog"	2002	2						Asia	Japan	Ehime	33.68444167	33.75722222	132.9105556	133.2069444	Male	Liver	5																																							2016/10/5	2016/10/11
PRA000008	SAA000339	ST003	34880	es-BANK	ET00681	E-27	"Nyctereutes procyonoides"	"Raccoon dog"	2002	3	12					Asia	Japan	Ehime	33.59805556	33.70472222	132.8675	133.0338889	Male	Liver	5.06																																							2016/10/5	2016/10/11
PRA000008	SAA000340	ST003	34880	es-BANK	ET00682	E-28	"Nyctereutes procyonoides"	"Raccoon dog"	2002	3	14					Asia	Japan	Ehime	33.83600556	33.86477222	133.3492389	133.4008778	Male	Liver	3.55																																							2016/10/5	2016/10/11
PRA000008	SAA000341	ST003	34880	es-BANK	ET00683	E-29	"Nyctereutes procyonoides"	"Raccoon dog"	2002	4	25					Asia	Japan	Ehime	33.84333333	33.94944444	133.2388889	133.3538889	Male	Liver	4.18																																							2016/10/5	2016/10/11
PRA000008	SAA000342	ST003	34880	es-BANK	ET00685	E-31	"Nyctereutes procyonoides"	"Raccoon dog"	2001	12	23					Asia	Japan	Ehime	33.05083333	33.33611111	132.2252778	132.6852778	Female	Liver	4.06		3.65	kg																																				2016/10/5	2016/10/11
PRA000008	SAA000343	ST003	34880	es-BANK	"ET00686 "	E-32	"Nyctereutes procyonoides"	"Raccoon dog"	2003	11	7					Asia	Japan	Ehime	33.75333333	33.98555833	132.9744417	133.2908333	Male	Liver	4.19																																							2016/10/5	2016/10/11
PRA000008	SAA000344	ST003	34880	es-BANK	"ET00687 "	E-33	"Nyctereutes procyonoides"	"Raccoon dog"	2003	11	7					Asia	Japan	Ehime	33.75333333	33.98555833	132.9744417	133.2908333	Female	Liver	4.02																																							2016/10/5	2016/10/11
PRA000008	SAA000345	ST003	34880	es-BANK	ET00489	O-1	"Nyctereutes procyonoides"	"Raccoon dog"	2004	10	8					Asia	Japan	Osaka	34.305	34.97166667	135.135	135.7883333	Male	Liver	5.75		3	kg																																				2016/10/5	2016/10/11
PRA000008	SAA000346	ST003	34880	es-BANK	"ET00501 "	O-2	"Nyctereutes procyonoides"	"Raccoon dog"	2004	10	13					Asia	Japan	Osaka	34.305	34.97166667	135.135	135.7883333	Male	Liver	3.11		3.5	kg																																				2016/10/5	2016/10/11
PRA000008	SAA000347	ST003	34880	es-BANK	"ET00502 "	O-3	"Nyctereutes procyonoides"	"Raccoon dog"	2004	10	13					Asia	Japan	Osaka	34.305	34.97166667	135.135	135.7883333	Female	Liver	2.8		2.8	kg																																				2016/10/5	2016/10/11
PRA000008	SAA000348	ST003	34880	es-BANK	ET00503	O-4	"Nyctereutes procyonoides"	"Raccoon dog"	2004							Asia	Japan	Osaka	34.305	34.97166667	135.135	135.7883333	Male	Liver	3.17		3.6	kg																																				2016/10/5	2016/10/11
PRA000008	SAA000349	ST003	34880	es-BANK	ET00504	O-5	"Nyctereutes procyonoides"	"Raccoon dog"	2004							Asia	Japan	Osaka	34.305	34.97166667	135.135	135.7883333	Male	Liver	3.93		4.5	kg				Matured																																2016/10/5	2016/10/11
PRA000008	SAA000350	ST003	34880	es-BANK	"ET00723 "	O-6	"Nyctereutes procyonoides"	"Raccoon dog"	2005							Asia	Japan	Osaka	34.305	34.97166667	135.135	135.7883333	Female	Liver	5.51		4.98	kg				Matured																																2016/10/5	2016/10/11
PRA000008	SAA000351	ST003	34880	es-BANK	ET00728	O-9	"Nyctereutes procyonoides"	"Raccoon dog"	2005							Asia	Japan	Osaka	34.305	34.97166667	135.135	135.7883333	Male	Liver	3.11		2.5	kg				Matured																																2016/10/5	2016/10/11
PRA000008	SAA000352	ST003	34880	es-BANK	ET00703	O-11	"Nyctereutes procyonoides"	"Raccoon dog"	2005							Asia	Japan	Osaka	34.305	34.97166667	135.135	135.7883333	Female	Liver	3.25		4.34	kg				Matured																																2016/10/5	2016/10/11
PRA000008	SAA000353	ST003	34880	es-BANK	ET00442		"Nyctereutes procyonoides"	"Raccoon dog"	2001	1	18					Asia	Japan	Kanagawa	35.31583333	35.53805833	139.1144417	139.6652778	Male	Liver	3.44																																							2016/10/5	2016/10/11
PRA000008	SAA000354	ST003	34880	es-BANK	ET00443		"Nyctereutes procyonoides"	"Raccoon dog"	2001	1	24					Asia	Japan	Kanagawa	35.31583333	35.53805833	139.1144417	139.6652778	Male	Liver	4.01																																							2016/10/5	2016/10/11
PRA000008	SAA000355	ST003	34880	es-BANK	ET00765		"Nyctereutes procyonoides"	"Raccoon dog"	2001	2	6					Asia	Japan	Kanagawa	35.31583333	35.53805833	139.1144417	139.6652778	Female	Liver	3.68																																							2016/10/5	2016/10/11
PRA000008	SAA000356	ST003	34880	es-BANK	ET00444		"Nyctereutes procyonoides"	"Raccoon dog"	2001	2	7					Asia	Japan	Kanagawa	35.31583333	35.53805833	139.1144417	139.6652778	Female	Liver	5.45																																							2016/10/5	2016/10/11
PRA000008	SAA000357	ST003	34880	es-BANK	ET00446		"Nyctereutes procyonoides"	"Raccoon dog"	2001	3	21					Asia	Japan	Kanagawa	35.31583333	35.53805833	139.1144417	139.6652778	Male	Liver	3.32																																							2016/10/5	2016/10/11
PRA000008	SAA000358	ST003	34880	es-BANK	ET00448		"Nyctereutes procyonoides"	"Raccoon dog"	2001	4	10					Asia	Japan	Kanagawa	35.31583333	35.53805833	139.1144417	139.6652778	Male	Liver	3.19																																							2016/10/5	2016/10/11
PRA000008	SAA000359	ST003	34880	es-BANK	ET00451		"Nyctereutes procyonoides"	"Raccoon dog"	2001	8	22					Asia	Japan	Kanagawa	35.31583333	35.53805833	139.1144417	139.6652778	Female	Liver	3.66																																							2016/10/5	2016/10/11
PRA000008	SAA000360	ST003	34880	es-BANK	ET00454		"Nyctereutes procyonoides"	"Raccoon dog"	2001	9	19					Asia	Japan	Kanagawa	35.31583333	35.53805833	139.1144417	139.6652778	Male	Liver	4.36																																							2016/10/5	2016/10/11
PRA000008	SAA000361	ST003	34880	es-BANK	ET00455		"Nyctereutes procyonoides"	"Raccoon dog"	2001	10	29					Asia	Japan	Kanagawa	35.31583333	35.53805833	139.1144417	139.6652778	Female	Liver	3.23																																							2016/10/5	2016/10/11
PRA000008	SAA000362	ST003	34880	es-BANK	ET00458		"Nyctereutes procyonoides"	"Raccoon dog"	2001	11	15					Asia	Japan	Kanagawa	35.31583333	35.53805833	139.1144417	139.6652778	Female	Liver	3.49																																							2016/10/5	2016/10/11
PRA000008	SAA000363	ST003	34880	es-BANK	ET00489	O-1	"Nyctereutes procyonoides"	"Raccoon dog"	2004	10	8					Asia	Japan	Osaka	34.305	34.97166667	135.135	135.7883333	Male	Adipose	57.68		3	kg																																				2016/10/5	2016/10/11
PRA000008	SAA000364	ST003	34880	es-BANK	"ET00501 "	O-2	"Nyctereutes procyonoides"	"Raccoon dog"	2004	10	13					Asia	Japan	Osaka	34.305	34.97166667	135.135	135.7883333	Male	Adipose	67.68		3.5	kg																																				2016/10/5	2016/10/11
PRA000008	SAA000365	ST003	34880	es-BANK	"ET00502 "	O-3	"Nyctereutes procyonoides"	"Raccoon dog"	2004	10	13					Asia	Japan	Osaka	34.305	34.97166667	135.135	135.7883333	Female	Adipose	75.87		2.8	kg																																				2016/10/5	2016/10/11
PRA000008	SAA000366	ST003	34880	es-BANK	ET00503	O-4	"Nyctereutes procyonoides"	"Raccoon dog"	2004							Asia	Japan	Osaka	34.305	34.97166667	135.135	135.7883333	Male	Adipose	75.1		3.6	kg																																				2016/10/5	2016/10/11
PRA000008	SAA000367	ST003	34880	es-BANK	ET00504	O-5	"Nyctereutes procyonoides"	"Raccoon dog"	2004							Asia	Japan	Osaka	34.305	34.97166667	135.135	135.7883333	Male	Adipose	79.41		4.5	kg				Matured																																2016/10/5	2016/10/11
PRA000008	SAA000368	ST003	34880	es-BANK	"ET00723 "	O-6	"Nyctereutes procyonoides"	"Raccoon dog"	2005							Asia	Japan	Osaka	34.305	34.97166667	135.135	135.7883333	Female	Adipose	88.03		4.98	kg				Matured																																2016/10/5	2016/10/11
PRA000008	SAA000369	ST003	34880	es-BANK	ET00728	O-9	"Nyctereutes procyonoides"	"Raccoon dog"	2005							Asia	Japan	Osaka	34.305	34.97166667	135.135	135.7883333	Male	Adipose	75.79		2.5	kg				Matured																																2016/10/5	2016/10/11
PRA000008	SAA000370	ST003	34880	es-BANK	ET00703	O-11	"Nyctereutes procyonoides"	"Raccoon dog"	2005							Asia	Japan	Osaka	34.305	34.97166667	135.135	135.7883333	Female	Adipose	82.14		4.34	kg				Matured																																2016/10/5	2016/10/11
PRA000009	SAA000371	ST005	54021	es-BANK	EB02698	BfA-794	"Phoebastria nigripes"	"Black-footed albatross (BfA) "	1998	2	22					"Pacific Ocean"			24.81666667	24.81666667	171.0666667	171.0666667	Male	"Pectoral muscle"	4.4		3100	g	61.1	cm	"Total length"	Subadult																																2016/10/11	2016/10/17
PRA000009	SAA000372	ST005	54021	es-BANK	EB02704	BfA-958	"Phoebastria nigripes"	"Black-footed albatross (BfA) "	1998	2	25					"Pacific Ocean"			24.5	24.5	169.6166667	169.6166667	Female	"Pectoral muscle"	5.4		3650	g	78.6	cm	"Total length"	Adult																																2016/10/11	2016/10/17
PRA000009	SAA000373	ST005	54021	es-BANK	EB02708	BfA-66	"Phoebastria nigripes"	"Black-footed albatross (BfA) "	1999	2	16					Asia	Japan	"Off coast of Ogasawara Islands, Tokyo"	27.03098889	27.11305556	142.1775	142.2380333	Male	"Pectoral muscle"	2.9		4000	g	83.7	cm	"Total length"	Adult																																2016/10/11	2016/10/17
PRA000009	SAA000374	ST005	54021	es-BANK	EB02712	BfA-69	"Phoebastria nigripes"	"Black-footed albatross (BfA) "	1999	3	7					Asia	Japan	"Off coast of Ogasawara Islands, Tokyo"	27.03098889	27.11305556	142.1775	142.2380333	Male	"Pectoral muscle"	3.8		4100	g	82.1	cm	"Total length"	Adult																																2016/10/11	2016/10/17
PRA000009	SAA000375	ST005	54021	es-BANK	EB02710	BfA-72	"Phoebastria nigripes"	"Black-footed albatross (BfA) "	1999	3						Asia	Japan	"Off coast of Ogasawara Islands, Tokyo"	27.01916667	27.18666667	142.1627778	142.2583333	Male	"Pectoral muscle"	4		4200	g	83.5	cm	"Total length"	Adult																																2016/10/11	2016/10/17
PRA000009	SAA000376	ST005	54020	es-BANK	EB03051	Lay-A3	"Phoebastria immutabilis"	"Laysan Albatross"	1998	3	16					"Pacific Ocean"			33.48333333	33.48333333	142.1	142.1	Female	"Pectoral muscle"	1.7		2000	g	77.6	cm	"Total length"	Adult																																2016/10/11	2016/10/17
PRA000009	SAA000377	ST005	54020	es-BANK	EB03043	Lay-419	"Phoebastria immutabilis"	"Laysan Albatross"	1998	2	12					"Pacific Ocean"			24.06666667	24.06666667	177.9833333	177.9833333	Male	"Pectoral muscle"	5.8		2900	g	80.3	cm	"Total length"	Adult																																2016/10/11	2016/10/17
PRA000009	SAA000378	ST005	54020	es-BANK	"EB03044 "	Lay-424	"Phoebastria immutabilis"	"Laysan Albatross"	1998	2	12					"Pacific Ocean"			24.06666667	24.06666667	177.9833333	177.9833333	Female	"Pectoral muscle"	3.9		2500	g	75.8	cm	"Total length"	Adult																																2016/10/11	2016/10/17
PRA000009	SAA000379	ST005	54020	es-BANK	EB03048	Lay-463	"Phoebastria immutabilis"	"Laysan Albatross"	1998	2	14					"Pacific Ocean"			24.06666667	24.58333333	171.5166667	171.5166667	Female	"Pectoral muscle"	0.97		2600	g	75.8	cm	"Total length"	Adult																																2016/10/11	2016/10/17
PRA000009	SAA000380	ST005	54020	es-BANK	"EB03050 "	Lay-950	"Phoebastria immutabilis"	"Laysan Albatross"	1998	2	25					"Pacific Ocean"			24.5	24.5	169.6166667	169.6166667	Male	"Pectoral muscle"	2.9		3300	g	82.2	cm	"Total length"	Adult																																2016/10/11	2016/10/17
PRA000009	SAA000381	ST005	30455	es-BANK	EB04992	741	"Fulmarus glacialis"	"Northern Fulmar"	1999	6	30					"Pacific Ocean"			51.5	51.5	180	180	Female	"Pectoral muscle"	3.3		590	g				Adult																																2016/10/11	2016/10/17
PRA000009	SAA000382	ST005	30455	es-BANK	EB04993	742	"Fulmarus glacialis"	"Northern Fulmar"	1999	6	30					"Pacific Ocean"			51.5	51.5	180	180	Female	"Pectoral muscle"	3.5		540	g				Adult																																2016/10/11	2016/10/17
PRA000009	SAA000383	ST005	30455			745	"Fulmarus glacialis"	"Northern Fulmar"	1999							"Pacific Ocean"			51.5	51.5	180	180	Male	"Pectoral muscle"	5.5		650	g				Adult																																2016/10/11	2016/10/17
PRA000009	SAA000384	ST005	30455	es-BANK	"EB05001 "	774	"Fulmarus glacialis"	"Northern Fulmar"	1999	7	14					"Pacific Ocean"			56.48333333	56.48333333	178.9833333	178.9833333	Male	"Pectoral muscle"	2.2		650	g				Adult																																2016/10/11	2016/10/17
PRA000009	SAA000385	ST005	30455	es-BANK	EB05002	775	"Fulmarus glacialis"	"Northern Fulmar"	1999	7	14					"Pacific Ocean"			56.48333333	56.48333333	178.9833333	178.9833333	Female	"Pectoral muscle"	1.9		600	g				Adult																																2016/10/11	2016/10/17
PRA000009	SAA000386	ST005	52647	es-BANK	EB01799	SSE-2	"Haliaeetus pelagicus"	"Stellers sea-Eagle"	1994	2	16					Asia	Japan	Hokkaido	43.93083333	43.94222222	144.3861111	144.4088889	Male	"Pectoral muscle"	0.81		4200	g				Adult																																2016/10/11	2016/10/17
PRA000009	SAA000387	ST005	179808	es-BANK	EB01059	99BTG-505	"Larus crassirostris"	"Black-tailed Gull"	1999	6	12					Asia	Japan	"Rishiri Island, Hokkaido"	45.10055556	45.25694444	141.135	141.3447222	Female	"Pectoral muscle"	5.3		550	g				Adult																																2016/10/11	2016/10/17
PRA000009	SAA000388	ST005	179808	es-BANK	EB01196	00BTG-557	"Larus crassirostris"	"Black-tailed Gull"	2000	6	5					Asia	Japan	"Rishiri Island, Hokkaido"	45.10055556	45.25694444	141.135	141.3447222	Female	"Pectoral muscle"	3.3		461	g	49.5	cm	"Total length"	Adult																																2016/10/11	2016/10/17
PRA000009	SAA000389	ST005	179808	es-BANK	EB01206	00BTG-558	"Larus crassirostris"	"Black-tailed Gull"	2000	6	6					Asia	Japan	"Rishiri Island, Hokkaido"	45.10055556	45.25694444	141.135	141.3447222	Female	"Pectoral muscle"	7.7		487	g	50	cm	"Total length"	Adult																																2016/10/11	2016/10/17
PRA000009	SAA000390	ST005	179808	es-BANK	EB01312	01BTG-518	"Larus crassirostris"	"Black-tailed Gull"	2001	6	9					Asia	Japan	"Rishiri Island, Hokkaido"	45.10055556	45.25694444	141.135	141.3447222	Female	"Pectoral muscle"	5.6		509	g				Adult																																2016/10/11	2016/10/17
PRA000009	SAA000391	ST005	179808	es-BANK	EB01351	01BTG-527	"Larus crassirostris"	"Black-tailed Gull"	2001	6	11					Asia	Japan	"Rishiri Island, Hokkaido"	45.10055556	45.25694444	141.135	141.3447222	Female	"Pectoral muscle"	5		485	g				Adult																																2016/10/11	2016/10/17
PRA000009	SAA000392	ST005	8957	es-BANK	EB01630	09-B110	"Accipiter gentilis"	Goshawk	1997	10	22					Asia	Japan	Tochigi	36.78722222	36.925	139.9286111	140.2588889	Male	"Pectoral muscle"	1.1		389	g	49.8	cm	"Total length"	Adult																																2016/10/11	2016/10/17
PRA000009	SAA000393	ST005	8962	es-BANK	EB00504	IPMA-165	"Aquila chrysaetos"	"Golden Eagle"	1994	10	3					Asia	Japan	Iwate	39.71075	40.04565278	141.47375	142.0098889	Female	"Pectoral muscle"	2.3		4100	g	85	cm	"Total length"	Adult																																2016/10/11	2016/10/17
PRA000009	SAA000394	ST005	8962	es-BANK	EB00508	IPMA-166	"Aquila chrysaetos"	"Golden Eagle"	1995	7	6					Asia	Japan	Iwate	38.85111111	38.97888889	141.4886111	141.5761111	Male	"Pectoral muscle"	0.96		2300	g	78	cm	"Total length"	Subadult																																2016/10/11	2016/10/17
PRA000009	SAA000395	ST005	36249	es-BANK	EB04543	981101O-JC1	"Corvus macrorhynchos"	"Jungle Crow"	1998	11	1					Asia	Japan	Osaka	34.305	34.97166667	135.135	135.7883333	Male	"Pectoral muscle"	0.91		465	g	58.1	cm	"Total length"	Adult																																2016/10/11	2016/10/17
PRA000009	SAA000396	ST005	36249	es-BANK	"EB04544 "	981101O-JC2	"Corvus macrorhynchos"	"Jungle Crow"	1998	11	1					Asia	Japan	Osaka	34.305	34.97166667	135.135	135.7883333	Male	"Pectoral muscle"	1.1		614	g	59.2	cm	"Total length"	Adult																																2016/10/11	2016/10/17
PRA000009	SAA000397	ST005	36249	es-BANK	"EB04545 "	981101O-JC4	"Corvus macrorhynchos"	"Jungle Crow"	1998	11	1					Asia	Japan	Osaka	34.305	34.97166667	135.135	135.7883333	Male	"Pectoral muscle"	1.8		610	g	60.1	cm	"Total length"	Adult																																2016/10/11	2016/10/17
PRA000009	SAA000398	ST005	36249	es-BANK	"EB04547 "	981101O-JC6	"Corvus macrorhynchos"	"Jungle Crow"	1998	11	1					Asia	Japan	Osaka	34.305	34.97166667	135.135	135.7883333	Male	"Pectoral muscle"	1.4		518	g	55.6	cm	"Total length"	Adult																																2016/10/11	2016/10/17
PRA000009	SAA000399	ST005	36249	es-BANK	"EB04549 "	981101O-JC8	"Corvus macrorhynchos"	"Jungle Crow"	1998	11	1					Asia	Japan	Osaka	34.305	34.97166667	135.135	135.7883333	Male	"Pectoral muscle"	0.92		528	g	56.6	cm	"Total length"	Adult																																2016/10/11	2016/10/17
PRA000009	SAA000400	ST005	9209			"01BLC04 (B-24)"	"Phalacrocorax carbo"	"Common Cormorant"	2001							Asia	Japan	"Lake Biwa, Shiga"	34.97222222	35.55222222	135.8594417	136.2613889	Male	"Pectoral muscle"	2.9		2370	g	78.2	cm	"Total length"	Adult																																2016/10/11	2016/10/17
PRA000009	SAA000401	ST005	9209			"01BLC06 (B-14)"	"Phalacrocorax carbo"	"Common Cormorant"	2001							Asia	Japan	"Lake Biwa, Shiga"	34.97222222	35.55222222	135.8594417	136.2613889	Male	"Pectoral muscle"	3.9		2140	g	76.5	cm	"Total length"	Adult																																2016/10/11	2016/10/17
PRA000009	SAA000402	ST005	9209			"01BLC08 (B-2)"	"Phalacrocorax carbo"	"Common Cormorant"	2001							Asia	Japan	"Lake Biwa, Shiga"	34.97222222	35.55222222	135.8594417	136.2613889	Male	"Pectoral muscle"	3.3		1940	g	80.2	cm	"Total length"	Adult																																2016/10/11	2016/10/17
PRA000009	SAA000403	ST005	9209			"01BLC12 (B-20)"	"Phalacrocorax carbo"	"Common Cormorant"	2001							Asia	Japan	"Lake Biwa, Shiga"	34.97222222	35.55222222	135.8594417	136.2613889	Female	"Pectoral muscle"	2		2160	g	75.3	cm	"Total length"	Adult																																2016/10/11	2016/10/17
PRA000016	SAA000533	ST026				Cam1	Soil		1999							Asia	Cambodia	"Phnom Penh"	11.43	11.72	104.8	104.9																																									"Reference site; Sample collected in 1999 or 2000"	2016/12/12	2016/12/12
PRA000016	SAA000534	ST026				RSS1	Soil		1999							Asia	Cambodia	"Phnom Penh"	11.43	11.72	104.8	104.9																																									"Reference site; Sample collected in 1999 or 2000"	2016/12/12	2016/12/12
PRA000016	SAA000535	ST026				RSS2	Soil		1999							Asia	Cambodia	"Phnom Penh"	11.43	11.72	104.8	104.9																																									"Reference site; Sample collected in 1999 or 2000"	2016/12/12	2016/12/12
PRA000016	SAA000536	ST026				RSS3	Soil		1999							Asia	Cambodia	"Phnom Penh"	11.43	11.72	104.8	104.9																																									"Reference site; Sample collected in 1999 or 2000"	2016/12/12	2016/12/12
PRA000016	SAA000537	ST026				RSS4	Soil		1999							Asia	Cambodia	"Phnom Penh"	11.43	11.72	104.8	104.9																																									"Reference site; Sample collected in 1999 or 2000"	2016/12/12	2016/12/12
PRA000016	SAA000538	ST026				St11	Soil		2004							Asia	India	Chennai	12.89	13.25	80.11	80.3																																									"Reference site"	2016/12/12	2016/12/12
PRA000016	SAA000539	ST026				St12	Soil		2004							Asia	India	Chennai	12.89	13.25	80.11	80.3																																									"Reference site"	2016/12/12	2016/12/12
PRA000016	SAA000540	ST026				St16	Soil		2004							Asia	India	Chennai	12.89	13.25	80.11	80.3																																									"Reference site"	2016/12/12	2016/12/12
PRA000016	SAA000541	ST026				St20	Soil		2004							Asia	India	Chennai	12.89	13.25	80.11	80.3																																									"Reference site"	2016/12/12	2016/12/12
PRA000016	SAA000542	ST026				CS5	Soil		2004							Asia	India	Chennai	12.89	13.25	80.11	80.3																																									"Reference site"	2016/12/12	2016/12/12
PRA000016	SAA000543	ST026				VT01	Soil		2004							Asia	Vietnam	"Can Tho"	10.02	10.07	105.72	105.77																																									"Reference site"	2016/12/12	2016/12/12
PRA000016	SAA000544	ST026				VT02	Soil		2004							Asia	Vietnam	"Can Tho"	10.02	10.07	105.72	105.77																																									"Reference site"	2016/12/12	2016/12/12
PRA000016	SAA000545	ST026				VT05	Soil		2004							Asia	Vietnam	"Can Tho"	10.02	10.07	105.72	105.77																																									"Reference site"	2016/12/12	2016/12/12
PRA000016	SAA000546	ST026				VT06	Soil		2004							Asia	Vietnam	"Can Tho"	10.02	10.07	105.72	105.77																																									"Reference site"	2016/12/12	2016/12/12
PRA000016	SAA000547	ST026				VT08	Soil		2004							Asia	Vietnam	"Can Tho"	10.02	10.07	105.72	105.77																																									"Reference site"	2016/12/12	2016/12/12
PRA000016	SAA000548	ST026				CSS-01	Soil		2004							Asia	Vietnam	"Can Tho"	10.02	10.07	105.72	105.77																																									"Reference site"	2016/12/12	2016/12/12
PRA000016	SAA000549	ST026				CSS-03	Soil		2004							Asia	Vietnam	"Can Tho"	10.02	10.07	105.72	105.77																																									"Reference site"	2016/12/12	2016/12/12
PRA000016	SAA000550	ST026				KHB-7	Soil		2003							Asia	Indonesia	Jakarta	-5.4	-5.833333333	106.1166667	107																																									"Reference site"	2016/12/12	2016/12/12
PRA000016	SAA000551	ST026				KHB-8	Soil		2003							Asia	Indonesia	Jakarta	-5.4	-5.833333333	106.1166667	107																																									"Reference site"	2016/12/12	2016/12/12
PRA000016	SAA000552	ST026				CBB5	Soil		2003							Asia	Indonesia	Jakarta	-5.4	-5.833333333	106.1166667	107																																									"Reference site"	2016/12/12	2016/12/12
PRA000016	SAA000553	ST026				CBB6	Soil		2003							Asia	Indonesia	Jakarta	-5.4	-5.833333333	106.1166667	107																																									"Reference site"	2016/12/12	2016/12/12
PRA000016	SAA000554	ST026				BSB9	Soil		2003							Asia	Indonesia	Jakarta	-5.4	-5.833333333	106.1166667	107																																									"Reference site"	2016/12/12	2016/12/12
PRA000016	SAA000555	ST026				TJB19	Soil		2003							Asia	Indonesia	Jakarta	-5.4	-5.833333333	106.1166667	107																																									"Reference site"	2016/12/12	2016/12/12
PRA000016	SAA000556	ST026				SDB21	Soil		2003							Asia	Indonesia	Jakarta	-5.4	-5.833333333	106.1166667	107																																									"Reference site"	2016/12/12	2016/12/12
PRA000016	SAA000557	ST026				BHL23	Soil		2003							Asia	Indonesia	Jakarta	-5.4	-5.833333333	106.1166667	107																																									"Reference site"	2016/12/12	2016/12/12
PRA000016	SAA000558	ST026				LG-8	Soil		2002							Asia	Malaysia	"Kuala Lumpur"	3.05	3.23	101.7	101.6																																									"Reference site"	2016/12/12	2016/12/12
PRA000016	SAA000559	ST026				LG-10	Soil		2002							Asia	Malaysia	"Kuala Lumpur"	3.05	3.23	101.7	101.6																																									"Reference site"	2016/12/12	2016/12/12
PRA000016	SAA000560	ST026				DRS-1	Soil		2000							Asia	Cambodia	"Phnom Penh"	11.43	11.72	104.8	104.9																																									"Dumping site"	2016/12/12	2016/12/12
PRA000016	SAA000561	ST026				DRS8	Soil		2000							Asia	Cambodia	"Phnom Penh"	11.43	11.72	104.8	104.9																																									"Dumping site"	2016/12/12	2016/12/12
PRA000016	SAA000562	ST026				DS1	Soil		1999							Asia	Cambodia	"Phnom Penh"	11.43	11.72	104.8	104.9																																									"Dumping site"	2016/12/12	2016/12/12
PRA000016	SAA000563	ST026				DS2	Soil		1999							Asia	Cambodia	"Phnom Penh"	11.43	11.72	104.8	104.9																																									"Dumping site"	2016/12/12	2016/12/12
PRA000016	SAA000564	ST026				DS3	Soil		1999							Asia	Cambodia	"Phnom Penh"	11.43	11.72	104.8	104.9																																									"Dumping site"	2016/12/12	2016/12/12
PRA000016	SAA000565	ST026				DSS2	Soil		1999							Asia	Cambodia	"Phnom Penh"	11.43	11.72	104.8	104.9																																									"Dumping site"	2016/12/12	2016/12/12
PRA000016	SAA000566	ST026				DS5	Soil		2004							Asia	India	Chennai	12.89	13.25	80.11	80.3																																									"Dumping site"	2016/12/12	2016/12/12
PRA000016	SAA000567	ST026				DS8	Soil		2004							Asia	India	Chennai	12.89	13.25	80.11	80.3																																									"Dumping site"	2016/12/12	2016/12/12
PRA000016	SAA000568	ST026				DS9	Soil		2004							Asia	India	Chennai	12.89	13.25	80.11	80.3																																									"Dumping site"	2016/12/12	2016/12/12
PRA000016	SAA000569	ST026				PDSI-1	Soil		2004							Asia	India	Chennai	12.89	13.25	80.11	80.3																																									"Dumping site"	2016/12/12	2016/12/12
PRA000016	SAA000570	ST026				PDSO-1	Soil		2004							Asia	India	Chennai	12.89	13.25	80.11	80.3																																									"Dumping site"	2016/12/12	2016/12/12
PRA000016	SAA000571	ST026				Moor-Rich2	Soil		2004							Asia	India	Chennai	12.89	13.25	80.11	80.3																																									"Dumping site"	2016/12/12	2016/12/12
PRA000016	SAA000572	ST026				"K-2 India"	Soil		2004							Asia	India	Chennai	12.89	13.25	80.11	80.3																																									"Dumping site"	2016/12/12	2016/12/12
PRA000016	SAA000573	ST026				PDS-2	Soil		2004							Asia	India	Chennai	12.89	13.25	80.11	80.3																																									"Dumping site"	2016/12/12	2016/12/12
PRA000016	SAA000574	ST026				PDS-6	Soil		2004							Asia	India	Chennai	12.89	13.25	80.11	80.3																																									"Dumping site"	2016/12/12	2016/12/12
PRA000016	SAA000575	ST026				PDS-8	Soil		2004							Asia	India	Chennai	12.89	13.25	80.11	80.3																																									"Dumping site"	2016/12/12	2016/12/12
PRA000016	SAA000576	ST026				DSS-02	Soil		2004							Asia	Vietnam	"Can Tho"	10.02	10.07	105.72	105.77																																									"Dumping site"	2016/12/12	2016/12/12
PRA000016	SAA000577	ST026				DSS-03	Soil		2004							Asia	Vietnam	"Can Tho"	10.02	10.07	105.72	105.77																																									"Dumping site"	2016/12/12	2016/12/12
PRA000016	SAA000578	ST026				DSS-04	Soil		2004							Asia	Vietnam	"Can Tho"	10.02	10.07	105.72	105.77																																									"Dumping site"	2016/12/12	2016/12/12
PRA000016	SAA000579	ST026				DSS-08	Soil		2004							Asia	Vietnam	"Can Tho"	10.02	10.07	105.72	105.77																																									"Dumping site"	2016/12/12	2016/12/12
PRA000016	SAA000580	ST026				DSS-09	Soil		2004							Asia	Vietnam	"Can Tho"	10.02	10.07	105.72	105.77																																									"Dumping site"	2016/12/12	2016/12/12
PRA000016	SAA000581	ST026				LDSS001	Soil		2003							Asia	Indonesia	Jakarta	-5.4	-5.833333333	106.1166667	107																																									"Dumping site; Sample collected in 2002 or 2003"	2016/12/12	2016/12/12
PRA000016	SAA000582	ST026				LDSS002	Soil		2003							Asia	Indonesia	Jakarta	-5.4	-5.833333333	106.1166667	107																																									"Dumping site; Sample collected in 2002 or 2003"	2016/12/12	2016/12/12
PRA000016	SAA000583	ST026				LDSS003	Soil		2003							Asia	Indonesia	Jakarta	-5.4	-5.833333333	106.1166667	107																																									"Dumping site; Sample collected in 2002 or 2003"	2016/12/12	2016/12/12
PRA000016	SAA000584	ST026				LDSS004	Soil		2003							Asia	Indonesia	Jakarta	-5.4	-5.833333333	106.1166667	107																																									"Dumping site; Sample collected in 2002 or 2003"	2016/12/12	2016/12/12
PRA000016	SAA000585	ST026				LDSS005	Soil		2003							Asia	Indonesia	Jakarta	-5.4	-5.833333333	106.1166667	107																																									"Dumping site; Sample collected in 2002 or 2003"	2016/12/12	2016/12/12
PRA000016	SAA000586	ST026				ISDS004	Soil		2003							Asia	Indonesia	Jakarta	-5.4	-5.833333333	106.1166667	107																																									"Dumping site; Sample collected in 2002 or 2003"	2016/12/12	2016/12/12
PRA000016	SAA000587	ST026				ISDS005	Soil		2003							Asia	Indonesia	Jakarta	-5.4	-5.833333333	106.1166667	107																																									"Dumping site; Sample collected in 2002 or 2003"	2016/12/12	2016/12/12
PRA000016	SAA000588	ST026				ISDS006	Soil		2003							Asia	Indonesia	Jakarta	-5.4	-5.833333333	106.1166667	107																																									"Dumping site; Sample collected in 2002 or 2003"	2016/12/12	2016/12/12
PRA000016	SAA000589	ST026				ISDS007	Soil		2003							Asia	Indonesia	Jakarta	-5.4	-5.833333333	106.1166667	107																																									"Dumping site; Sample collected in 2002 or 2003"	2016/12/12	2016/12/12
PRA000016	SAA000590	ST026				ISDS009	Soil		2003							Asia	Indonesia	Jakarta	-5.4	-5.833333333	106.1166667	107																																									"Dumping site; Sample collected in 2002 or 2003"	2016/12/12	2016/12/12
PRA000016	SAA000591	ST026				ISDS012	Soil		2003							Asia	Indonesia	Jakarta	-5.4	-5.833333333	106.1166667	107																																									"Dumping site; Sample collected in 2002 or 2003"	2016/12/12	2016/12/12
PRA000016	SAA000592	ST026				ISDS014	Soil		2003							Asia	Indonesia	Jakarta	-5.4	-5.833333333	106.1166667	107																																									"Dumping site; Sample collected in 2002 or 2003"	2016/12/12	2016/12/12
PRA000016	SAA000593	ST026				ISDS018	Soil		2003							Asia	Indonesia	Jakarta	-5.4	-5.833333333	106.1166667	107																																									"Dumping site; Sample collected in 2002 or 2003"	2016/12/12	2016/12/12
PRA000016	SAA000594	ST026				ISDS019	Soil		2003							Asia	Indonesia	Jakarta	-5.4	-5.833333333	106.1166667	107																																									"Dumping site; Sample collected in 2002 or 2003"	2016/12/12	2016/12/12
PRA000016	SAA000595	ST026				ISDS025	Soil		2003							Asia	Indonesia	Jakarta	-5.4	-5.833333333	106.1166667	107																																									"Dumping site; Sample collected in 2002 or 2003"	2016/12/12	2016/12/12
PRA000016	SAA000596	ST026				ISDS028	Soil		2003							Asia	Indonesia	Jakarta	-5.4	-5.833333333	106.1166667	107																																									"Dumping site; Sample collected in 2002 or 2003"	2016/12/12	2016/12/12
PRA000016	SAA000597	ST026				ISDS029	Soil		2003							Asia	Indonesia	Jakarta	-5.4	-5.833333333	106.1166667	107																																									"Dumping site; Sample collected in 2002 or 2003"	2016/12/12	2016/12/12
PRA000016	SAA000598	ST026				INDS1-1	Soil		2007							Asia	Indonesia	Jakarta	-5.4	-5.833333333	106.1166667	107																																									"Dumping site"	2016/12/12	2016/12/12
PRA000016	SAA000599	ST026				INDS1-2	Soil		2007							Asia	Indonesia	Jakarta	-5.4	-5.833333333	106.1166667	107																																									"Dumping site"	2016/12/12	2016/12/12
PRA000016	SAA000600	ST026				INDS1-3	Soil		2007							Asia	Indonesia	Jakarta	-5.4	-5.833333333	106.1166667	107																																									"Dumping site"	2016/12/12	2016/12/12
PRA000016	SAA000601	ST026				INDS2-1	Soil		2007							Asia	Indonesia	Jakarta	-5.4	-5.833333333	106.1166667	107																																									"Dumping site"	2016/12/12	2016/12/12
PRA000016	SAA000602	ST026				INDS2-2	Soil		2007							Asia	Indonesia	Jakarta	-5.4	-5.833333333	106.1166667	107																																									"Dumping site"	2016/12/12	2016/12/12
PRA000016	SAA000603	ST026				INDS2-3	Soil		2007							Asia	Indonesia	Jakarta	-5.4	-5.833333333	106.1166667	107																																									"Dumping site"	2016/12/12	2016/12/12
PRA000016	SAA000604	ST026				INDS2-4	Soil		2007							Asia	Indonesia	Jakarta	-5.4	-5.833333333	106.1166667	107																																									"Dumping site"	2016/12/12	2016/12/12
PRA000016	SAA000605	ST026				INDS2-5	Soil		2007							Asia	Indonesia	Jakarta	-5.4	-5.833333333	106.1166667	107																																									"Dumping site"	2016/12/12	2016/12/12
PRA000016	SAA000606	ST026				INDS3-1	Soil		2007							Asia	Indonesia	Jakarta	-5.4	-5.833333333	106.1166667	107																																									"Dumping site"	2016/12/12	2016/12/12
PRA000016	SAA000607	ST026				INDS3-2	Soil		2007							Asia	Indonesia	Jakarta	-5.4	-5.833333333	106.1166667	107																																									"Dumping site"	2016/12/12	2016/12/12
PRA000016	SAA000608	ST026				INDS3-3	Soil		2007							Asia	Indonesia	Jakarta	-5.4	-5.833333333	106.1166667	107																																									"Dumping site"	2016/12/12	2016/12/12
PRA000016	SAA000609	ST026				INDS4-1	Soil		2007							Asia	Indonesia	Jakarta	-5.4	-5.833333333	106.1166667	107																																									"Dumping site"	2016/12/12	2016/12/12
PRA000016	SAA000610	ST026				INDS4-2	Soil		2007							Asia	Indonesia	Jakarta	-5.4	-5.833333333	106.1166667	107																																									"Dumping site"	2016/12/12	2016/12/12
PRA000016	SAA000611	ST026				INDS4-3	Soil		2007							Asia	Indonesia	Jakarta	-5.4	-5.833333333	106.1166667	107																																									"Dumping site"	2016/12/12	2016/12/12
PRA000016	SAA000612	ST026				INDS5-1	Soil		2007							Asia	Indonesia	Jakarta	-5.4	-5.833333333	106.1166667	107																																									"Dumping site"	2016/12/12	2016/12/12
PRA000016	SAA000613	ST026				INDS5-2	Soil		2007							Asia	Indonesia	Jakarta	-5.4	-5.833333333	106.1166667	107																																									"Dumping site"	2016/12/12	2016/12/12
PRA000016	SAA000614	ST026				INDS5-3	Soil		2007							Asia	Indonesia	Jakarta	-5.4	-5.833333333	106.1166667	107																																									"Dumping site"	2016/12/12	2016/12/12
PRA000016	SAA000615	ST026				TPA2	Soil		2003							Asia	Indonesia	Jakarta	-5.4	-5.833333333	106.1166667	107																																									"Dumping site"	2016/12/12	2016/12/12
PRA000016	SAA000616	ST026				TPA3	Soil		2003							Asia	Indonesia	Jakarta	-5.4	-5.833333333	106.1166667	107																																									"Dumping site"	2016/12/12	2016/12/12
PRA000016	SAA000617	ST026				R-3	Soil		2002							Asia	Malaysia	"Kuala Lumpur"	3.05	3.23	101.6	101.7																																									"Dumping site"	2016/12/12	2016/12/12
PRA000016	SAA000618	ST026				P11	Soil		2002							Asia	Malaysia	"Kuala Lumpur"	3.05	3.23	101.6	101.7																																									"Dumping site"	2016/12/12	2016/12/12
PRA000017	SAA000619	ST003	9606			E-08	"Homo sapiens"	Human	2004							Asia	Japan	Ehime	32.88472222	34.30166667	132.0125	133.6930556	Male	Adipose	73								"25 y.o."	Rhabdomyosarcoma																													"Measenteric fat; Same sample as SAA000652"	2016/11/29	2016/12/5
PRA000017	SAA000620	ST003	9606			E-01	"Homo sapiens"	Human	2003							Asia	Japan	Ehime	32.88472222	34.30166667	132.0125	133.6930556	Male	Adipose	72								"34 y.o."	"Hepatic insufficiency, hepatitis B "																													"Measenteric fat"	2016/11/29	2016/12/5
PRA000017	SAA000621	ST003	9606			E-20	"Homo sapiens"	Human	2004							Asia	Japan	Ehime	32.88472222	34.30166667	132.0125	133.6930556	Male	Adipose	82								"40 y.o."	"Hepatic insufficiency, renal failure "																													"Measenteric fat"	2016/11/29	2016/12/5
PRA000017	SAA000622	ST003	9606			E-16	"Homo sapiens"	Human	2004							Asia	Japan	Ehime	32.88472222	34.30166667	132.0125	133.6930556	Male	Adipose	41								"41 y.o."	"Liposarcoma, liver metastasis, lung metastasis "																													"Measenteric fat; Same sample as SAA000659"	2016/11/29	2016/12/5
PRA000017	SAA000623	ST003	9606			E-02	"Homo sapiens"	Human	2003							Asia	Japan	Ehime	32.88472222	34.30166667	132.0125	133.6930556	Male	Adipose	11								"49 y.o."	"Malignant melanoma "																													"Measenteric fat"	2016/11/29	2016/12/5
PRA000017	SAA000624	ST003	9606			E-09	"Homo sapiens"	Human	2004							Asia	Japan	Ehime	32.88472222	34.30166667	132.0125	133.6930556	Male	Adipose	50								"57 y.o."	Cholangiocarcinoma																													"Measenteric fat; Same sample as SAA000653"	2016/11/29	2016/12/5
PRA000017	SAA000625	ST003	9606			215	"Homo sapiens"	Human	2003							Asia	Japan	Kanto	34.917714	36.28333333	138.7113889	140.857758	Male	Adipose	42								"58 y.o."	"Acute myelocytic leukemia "																													"Measenteric fat; Same sample as SAA000675"	2016/11/29	2016/12/5
PRA000017	SAA000626	ST003	9606			221	"Homo sapiens"	Human	2003							Asia	Japan	Kanto	34.917714	36.28333333	138.7113889	140.857758	Male	Adipose	52								"60 y.o."	"Hepatocellular carcinoma "																													"Measenteric fat; Same sample as SAA000681"	2016/11/29	2016/12/5
PRA000017	SAA000627	ST003	9606			222	"Homo sapiens"	Human	2003							Asia	Japan	Kanto	34.917714	36.28333333	138.7113889	140.857758	Male	Adipose	61								"66 y.o."	"Renal insufficiency "																													"Measenteric fat"	2016/11/29	2016/12/5
PRA000017	SAA000628	ST003	9606			E-04	"Homo sapiens"	Human	2004							Asia	Japan	Ehime	32.88472222	34.30166667	132.0125	133.6930556	Male	Adipose	62								"69 y.o."	"Cervical lymphnode metastatic cancer of unknown origin"																													"Measenteric fat; Same sample as SAA000648"	2016/11/29	2016/12/5
PRA000017	SAA000629	ST003	9606			E-12	"Homo sapiens"	Human	2004							Asia	Japan	Ehime	32.88472222	34.30166667	132.0125	133.6930556	Male	Adipose	75								"70 y.o."	"Perforation of gastro-intestinal tract, pneumocystis carini pneumonia "																													"Measenteric fat; Same sample as SAA000656"	2016/11/29	2016/12/5
PRA000017	SAA000630	ST003	9606			E-13	"Homo sapiens"	Human	2004							Asia	Japan	Ehime	32.88472222	34.30166667	132.0125	133.6930556	Male	Adipose	77								"73 y.o."	"Gastric cancer, malgnant lymphoma "																													"Measenteric fat; Same sample as SAA000657"	2016/11/29	2016/12/5
PRA000017	SAA000631	ST003	9606			E-10	"Homo sapiens"	Human	2004							Asia	Japan	Ehime	32.88472222	34.30166667	132.0125	133.6930556	Male	Adipose	76								"76 y.o."	"Pneumonia, idiopathic interstitial pneumonia "																													"Measenteric fat; Same sample as SAA000654"	2016/11/29	2016/12/5
PRA000017	SAA000632	ST003	9606			E-11	"Homo sapiens"	Human	2004							Asia	Japan	Ehime	32.88472222	34.30166667	132.0125	133.6930556	Male	Adipose	60								"79 y.o."	"Lung cancer "																													"Measenteric fat; Same sample as SAA000655"	2016/11/29	2016/12/5
PRA000017	SAA000633	ST003	9606			219	"Homo sapiens"	Human	2003							Asia	Japan	Kanto	34.917714	36.28333333	138.7113889	140.857758	Male	Adipose	69								"79 y.o."	"Malignant lymphoma "																													"Measenteric fat; Same sample as SAA000679"	2016/11/29	2016/12/5
PRA000017	SAA000634	ST003	9606			E-14	"Homo sapiens"	Human	2004							Asia	Japan	Ehime	32.88472222	34.30166667	132.0125	133.6930556	Male	Adipose	55								"81 y.o."	"Pancreatic cancer "																													"Measenteric fat"	2016/11/29	2016/12/5
PRA000017	SAA000635	ST003	9606			E-15	"Homo sapiens"	Human	2004							Asia	Japan	Ehime	32.88472222	34.30166667	132.0125	133.6930556	Male	Adipose	72								"81 y.o."	"Metastatic liver cancer "																													"Measenteric fat; Same sample as SAA000658"	2016/11/29	2016/12/5
PRA000017	SAA000636	ST003	9606			217	"Homo sapiens"	Human	2003							Asia	Japan	Kanto	34.917714	36.28333333	138.7113889	140.857758	Male	Adipose	72								"81 y.o."	"Cardiac infarction "																													"Measenteric fat; Same sample as SAA000677"	2016/11/29	2016/12/5
PRA000017	SAA000637	ST003	9606			E-03	"Homo sapiens"	Human	2003							Asia	Japan	Ehime	32.88472222	34.30166667	132.0125	133.6930556	Female	Adipose	77								"59 y.o."	"Acute lymphocytic leukemia"																													"Measenteric fat; Same sample as SAA000647"	2016/11/29	2016/12/5
PRA000017	SAA000638	ST003	9606			E-05	"Homo sapiens"	Human	2004							Asia	Japan	Ehime	32.88472222	34.30166667	132.0125	133.6930556	Female	Adipose	70								"53 y.o."	"Acute myelocytic leukemia "																													"Measenteric fat; Same sample as SAA000649"	2016/11/29	2016/12/5
PRA000017	SAA000639	ST003	9606			E-06	"Homo sapiens"	Human	2004							Asia	Japan	Ehime	32.88472222	34.30166667	132.0125	133.6930556	Female	Adipose	50								"69 y.o."	"Carcinoma of the gallbladder "																													"Measenteric fat; Same sample as SAA000650"	2016/11/29	2016/12/5
PRA000017	SAA000640	ST003	9606			E-07	"Homo sapiens"	Human	2004							Asia	Japan	Ehime	32.88472222	34.30166667	132.0125	133.6930556	Female	Adipose	58								"72 y.o."	"Hepatic insufficiency, liver cirrhosis "																													"Measenteric fat; Same sample as SAA000651"	2016/11/29	2016/12/5
PRA000017	SAA000641	ST003	9606			E-17	"Homo sapiens"	Human	2004							Asia	Japan	Ehime	32.88472222	34.30166667	132.0125	133.6930556	Female	Adipose	75								"62 y.o."	"Multiple systemic atrophy "																													"Measenteric fat; Same sample as SAA000660"	2016/11/29	2016/12/5
PRA000017	SAA000642	ST003	9606			212	"Homo sapiens"	Human	2003							Asia	Japan	Kanto	34.917714	36.28333333	138.7113889	140.857758	Female	Adipose	81								"62 y.o."	"Breast cancer"																													"Measenteric fat; Same sample as SAA000674"	2016/11/29	2016/12/5
PRA000017	SAA000643	ST003	9606			E-18	"Homo sapiens"	Human	2004							Asia	Japan	Ehime	32.88472222	34.30166667	132.0125	133.6930556	Female	Adipose	73								"76 y.o."	"Gastric cancer, lung cancer "																													"Measenteric fat; Same sample as SAA000661"	2016/11/29	2016/12/5
PRA000017	SAA000644	ST003	9606			E-19	"Homo sapiens"	Human	2004							Asia	Japan	Ehime	32.88472222	34.30166667	132.0125	133.6930556	Female	Adipose	75								"71 y.o."	"Breast cancer, lymphoangitis carcinomatosa, idiopathic interstitial pneumonia "																													"Measenteric fat; Same sample as SAA000662"	2016/11/29	2016/12/5
PRA000017	SAA000645	ST003	9606			218	"Homo sapiens"	Human	2003							Asia	Japan	Kanto	34.917714	36.28333333	138.7113889	140.857758	Female	Adipose	60								"83 y.o."	"Lung cancer"																													"Measenteric fat; Same sample as SAA000678"	2016/11/29	2016/12/5
PRA000017	SAA000646	ST003	9606			220	"Homo sapiens"	Human	2003							Asia	Japan	Kanto	34.917714	36.28333333	138.7113889	140.857758	Female	Adipose	66								"109 y.o."	"Senile deterioration"																													"Measenteric fat; Same sample as SAA000680"	2016/11/29	2016/12/5
PRA000030	SAA001903	ST004	34892	es-BANK	EW00736	9053	"Neophocaena phocaenoides"	"Finless Porpoise"	1990							Asia	China	Dongshan	23.65352778	23.71171389	117.2606639	117.2949778	Male	Blubber	87		27	kg	121	cm	"Body length"		"1 y.o."																															2017/5/31	2017/5/31
PRA000030	SAA001904	ST004	34892	es-BANK	EW00743	9063	"Neophocaena phocaenoides"	"Finless Porpoise"	1990							Asia	China	Dongshan	23.65352778	23.71171389	117.2606639	117.2949778	Male	Blubber	73		29	kg	126.2	cm	"Body length"		"1 y.o."																															2017/5/31	2017/5/31
PRA000030	SAA001905	ST004	34892	es-BANK	EW00747	9067	"Neophocaena phocaenoides"	"Finless Porpoise"	1990							Asia	China	Dongshan	23.65352778	23.71171389	117.2606639	117.2949778	Male	Blubber	92		52.5	kg	153.2	cm	"Body length"		"6 y.o."																															2017/5/31	2017/5/31
PRA000030	SAA001906	ST004	34892	es-BANK	EW00753	9074	"Neophocaena phocaenoides"	"Finless Porpoise"	1990							Asia	China	Dongshan	23.65352778	23.71171389	117.2606639	117.2949778	Male	Blubber	78		54	kg	158.5	cm	"Body length"		"6 y.o."																															2017/5/31	2017/5/31
PRA000030	SAA001907	ST004	34892	es-BANK	EW00755	9076	"Neophocaena phocaenoides"	"Finless Porpoise"	1990							Asia	China	Dongshan	23.65352778	23.71171389	117.2606639	117.2949778	Male	Blubber	83		57	kg	160.3	cm	"Body length"		"11 y.o."																															2017/5/31	2017/5/31
PRA000030	SAA001908	ST004	34892	es-BANK	EW00758	9079	"Neophocaena phocaenoides"	"Finless Porpoise"	1990							Asia	China	Dongshan	23.65352778	23.71171389	117.2606639	117.2949778	Male	Blubber	91		60	kg	161.7	cm	"Body length"		"5 y.o."																															2017/5/31	2017/5/31
PRA000030	SAA001909	ST004	34892	es-BANK	EW00741	9061	"Neophocaena phocaenoides"	"Finless Porpoise"	1990							Asia	China	Dongshan	23.65352778	23.71171389	117.2606639	117.2949778	Male	Blubber	71		63	kg	167.1	cm	"Body length"		"8 y.o."																															2017/5/31	2017/5/31
PRA000030	SAA001910	ST004	34892	es-BANK	EW00861	NP00-28/12	"Neophocaena phocaenoides"	"Finless Porpoise"	2000	12	28					Asia	China	"Hong Kong"	22.16097222	22.49902222	113.8576722	114.4423972	Male	Blubber	40																																						"Body length: >123 cm"	2017/5/31	2017/5/31
PRA000030	SAA001911	ST004	34892	es-BANK	EW00860	NP00-26/12	"Neophocaena phocaenoides"	"Finless Porpoise"	2000	12	26					Asia	China	"Hong Kong"	22.16097222	22.49902222	113.8576722	114.4423972	Male	Blubber	34				152	cm	"Body length"																																	2017/5/31	2017/5/31
PRA000030	SAA001912	ST004	34892	es-BANK	EW00862	NP01-20/03	"Neophocaena phocaenoides"	"Finless Porpoise"	2001	3	20					Asia	China	"Hong Kong"	22.16097222	22.49902222	113.8576722	114.4423972	Male	Blubber	63				121	cm	"Body length"																																	2017/5/31	2017/5/31
PRA000030	SAA001913	ST004	34892	es-BANK	EW00864	NP01-24/05	"Neophocaena phocaenoides"	"Finless Porpoise"	2001	5	24					Asia	China	"Hong Kong"	22.16097222	22.49902222	113.8576722	114.4423972	Male	Blubber	65				159	cm	"Body length"																																	2017/5/31	2017/5/31
PRA000030	SAA001914	ST004	34892	es-BANK	EW00863	NP01-12/04	"Neophocaena phocaenoides"	"Finless Porpoise"	2001	4	12					Asia	China	"Hong Kong"	22.16097222	22.49902222	113.8576722	114.4423972	Male	Blubber	32				163	cm	"Body length"																																	2017/5/31	2017/5/31
PRA000032	SAA001968	ST004	9737	es-BANK	EW04115		"Stenella coeruleoalba"	"Striped dolphin"	1978	12	19					Asia	Japan	"Taiji, Wakayama"	33.54416667	33.62305833	135.885	136.0180583	Male	Blubber	36.05		132	kg	227	cm	"Body length"	Matured	"11.5 y.o."																															2017/6/9	2017/6/9
PRA000032	SAA001969	ST004	9737	es-BANK	EW04116		"Stenella coeruleoalba"	"Striped dolphin"	1978	12	19					Asia	Japan	"Taiji, Wakayama"	33.54416667	33.62305833	135.885	136.0180583	Male	Blubber	49.24		160	kg	230	cm	"Body length"	Matured	"17.5 y.o."																															2017/6/9	2017/6/9
PRA000032	SAA001970	ST004	9737	es-BANK	EW04157		"Stenella coeruleoalba"	"Striped dolphin"	1979	12	15					Asia	Japan	"Taiji, Wakayama"	33.54416667	33.62305833	135.885	136.0180583	Male	Blubber	55				235	cm	"Body length"	Matured	"19.5 y.o."																															2017/6/9	2017/6/9
PRA000032	SAA001971	ST004	9737	es-BANK	EW04174		"Stenella coeruleoalba"	"Striped dolphin"	1979	12	15					Asia	Japan	"Taiji, Wakayama"	33.54416667	33.62305833	135.885	136.0180583	Male	Blubber	73.54				239	cm	"Body length"	Matured	"18.5 y.o."																															2017/6/9	2017/6/9
PRA000032	SAA001972	ST004	9737	es-BANK	EW04180		"Stenella coeruleoalba"	"Striped dolphin"	1979	12	15					Asia	Japan	"Taiji, Wakayama"	33.54416667	33.62305833	135.885	136.0180583	Male	Blubber	90.98				230	cm	"Body length"	Matured	"18.5 y.o."																															2017/6/9	2017/6/9
PRA000032	SAA001973	ST004	9737	es-BANK	EW04186		"Stenella coeruleoalba"	"Striped dolphin"	1979	12	15					Asia	Japan	"Taiji, Wakayama"	33.54416667	33.62305833	135.885	136.0180583	Male	Blubber	67.17				233	cm	"Body length"	Matured	"19.5 y.o."																															2017/6/9	2017/6/9
PRA000032	SAA001974	ST004	9737	es-BANK	EW04438		"Stenella coeruleoalba"	"Striped dolphin"	1986	12	9					Asia	Japan	"Taiji, Wakayama"	33.54416667	33.62305833	135.885	136.0180583	Male	Blubber	55.93						"Body length"		"20.5 y.o."																															2017/6/9	2017/6/9
PRA000032	SAA001975	ST004	9737	es-BANK	EW04439		"Stenella coeruleoalba"	"Striped dolphin"	1986	12	9					Asia	Japan	"Taiji, Wakayama"	33.54416667	33.62305833	135.885	136.0180583	Male	Blubber	46.75				228	cm	"Body length"		"9.5 y.o."																															2017/6/9	2017/6/9
PRA000032	SAA001976	ST004	9737	es-BANK	EW04500		"Stenella coeruleoalba"	"Striped dolphin"	1986	12	9					Asia	Japan	"Taiji, Wakayama"	33.54416667	33.62305833	135.885	136.0180583	Male	Blubber	54				251	cm	"Body length"		"31.5 y.o."																															2017/6/9	2017/6/9
PRA000032	SAA001977	ST004	9737	es-BANK	EW04534		"Stenella coeruleoalba"	"Striped dolphin"	1992	8	3					"Pacific Ocean"		"Pacific Ocean"	37.2		147.55		Male	Blubber	62.26				226	cm	"Body length"																																	2017/6/9	2017/6/9
PRA000032	SAA001978	ST004	9737	es-BANK	EW04539		"Stenella coeruleoalba"	"Striped dolphin"	1992	8	8					"Pacific Ocean"		"Pacific Ocean"	36.95		151.6666667		Male	Blubber	56.05				231	cm	"Body length"																																	2017/6/9	2017/6/9
PRA000032	SAA001979	ST004	9737	es-BANK	EW04547		"Stenella coeruleoalba"	"Striped dolphin"	1992	8	10					"Pacific Ocean"		"Pacific Ocean"	36.93333333		154.3		Male	Blubber	64.74				226	cm	"Body length"																																	2017/6/9	2017/6/9
PRA000032	SAA001980	ST004	9737	es-BANK	EW04548		"Stenella coeruleoalba"	"Striped dolphin"	1992	8	11					"Pacific Ocean"		"Pacific Ocean"	37.25		154.4833333		Male	Blubber	45.91				226	cm	"Body length"																																	2017/6/9	2017/6/9
PRA000032	SAA001981	ST004	9737	es-BANK	EW04557		"Stenella coeruleoalba"	"Striped dolphin"	1992	11	22					"Pacific Ocean"		"Pacific Ocean"	33.54999		136.0666667		Male	Blubber	28.43				235	cm	"Body length"																																	2017/6/9	2017/6/9
PRA000032	SAA001982	ST004	9737	es-BANK	EW04559		"Stenella coeruleoalba"	"Striped dolphin"	1992	11	23					"Pacific Ocean"		"Pacific Ocean"	33.48333333		136.19999		Male	Blubber	71.5				230	cm	"Body length"																																	2017/6/9	2017/6/9
PRA000032	SAA001983	ST004	9737	es-BANK	EW04566	SD1	"Stenella coeruleoalba"	"Striped dolphin"	2003	3	30					Asia	Japan	"Gogo-shima, Ehime"	33.86462778	33.929025	132.6527333	132.6982167	Male	Blubber	56.2		155	kg	230.8	cm	"Body length"																																	2017/6/9	2017/6/9
PRA000032	SAA001984	ST004	9737	es-BANK	EW04567	SD2	"Stenella coeruleoalba"	"Striped dolphin"	2003	3	30					Asia	Japan	"Gogo-shima, Ehime"	33.86462778	33.929025	132.6527333	132.6982167	Female	Blubber	56.2		105	kg	223	cm	"Body length"																																	2017/6/9	2017/6/9
PRA000032	SAA001985	ST004	9737	es-BANK	EW04568	SD3	"Stenella coeruleoalba"	"Striped dolphin"	2003	4	1					Asia	Japan	"Gogo-shima, Ehime"	33.86462778	33.929025	132.6527333	132.6982167	Male	Blubber	58.4		150	kg	237.6	cm	"Body length"																																	2017/6/9	2017/6/9
PRA000032	SAA001986	ST004	9737	es-BANK	EW04569	SD4	"Stenella coeruleoalba"	"Striped dolphin"	2003	4	1					Asia	Japan	"Gogo-shima, Ehime"	33.86462778	33.929025	132.6527333	132.6982167	Male	Blubber	49.8		155	kg	232	cm	"Body length"																																	2017/6/9	2017/6/9
PRA000032	SAA001987	ST004	9737	es-BANK	EW04570	SD5	"Stenella coeruleoalba"	"Striped dolphin"	2003	4	1					Asia	Japan	"Gogo-shima, Ehime"	33.86462778	33.929025	132.6527333	132.6982167	Male	Blubber	44.1		135	kg	231	cm	"Body length"																																	2017/6/9	2017/6/9
PRA000032	SAA001988	ST004	9737	es-BANK	EW04571	SD6	"Stenella coeruleoalba"	"Striped dolphin"	2003	4	1					Asia	Japan	"Gogo-shima, Ehime"	33.86462778	33.929025	132.6527333	132.6982167	Male	Blubber	54.4		150	kg	236.5	cm	"Body length"																																	2017/6/9	2017/6/9
PRA000032	SAA001989	ST004	9737	es-BANK	EW04567	SD2	"Stenella coeruleoalba"	"Striped dolphin"	2003	3	30					Asia	Japan	"Gogo-shima, Ehime"	33.86462778	33.929025	132.6527333	132.6982167	Female	Brain	9.86		105	kg	223	cm	"Body length"																																	2017/6/9	2017/6/9
PRA000032	SAA001990	ST004	9737	es-BANK	EW04568	SD3	"Stenella coeruleoalba"	"Striped dolphin"	2003	4	1					Asia	Japan	"Gogo-shima, Ehime"	33.86462778	33.929025	132.6527333	132.6982167	Male	Brain	15.47		150	kg	237.6	cm	"Body length"																																	2017/6/9	2017/6/9
PRA000032	SAA001991	ST004	9737	es-BANK	EW04570	SD5	"Stenella coeruleoalba"	"Striped dolphin"	2003	4	1					Asia	Japan	"Gogo-shima, Ehime"	33.86462778	33.929025	132.6527333	132.6982167	Male	Brain	11.57		135	kg	231	cm	"Body length"																																	2017/6/9	2017/6/9
PRA000032	SAA001992	ST004	9737	es-BANK	EW04566	SD1	"Stenella coeruleoalba"	"Striped dolphin"	2003	3	30					Asia	Japan	"Gogo-shima, Ehime"	33.86462778	33.929025	132.6527333	132.6982167	Male	Liver	2.41		155	kg	230.8	cm	"Body length"																																	2017/6/9	2017/6/9
PRA000032	SAA001993	ST004	9737	es-BANK	EW04567	SD2	"Stenella coeruleoalba"	"Striped dolphin"	2003	3	30					Asia	Japan	"Gogo-shima, Ehime"	33.86462778	33.929025	132.6527333	132.6982167	Female	Liver	2.95		105	kg	223	cm	"Body length"																																	2017/6/9	2017/6/9
PRA000032	SAA001994	ST004	9737	es-BANK	EW04568	SD3	"Stenella coeruleoalba"	"Striped dolphin"	2003	4	1					Asia	Japan	"Gogo-shima, Ehime"	33.86462778	33.929025	132.6527333	132.6982167	Male	Liver	2.85		150	kg	237.6	cm	"Body length"																																	2017/6/9	2017/6/9
PRA000032	SAA001995	ST004	9737	es-BANK	EW04569	SD4	"Stenella coeruleoalba"	"Striped dolphin"	2003	4	1					Asia	Japan	"Gogo-shima, Ehime"	33.86462778	33.929025	132.6527333	132.6982167	Male	Liver	3.43		155	kg	232	cm	"Body length"																																	2017/6/9	2017/6/9
PRA000032	SAA001996	ST004	9737	es-BANK	EW04570	SD5	"Stenella coeruleoalba"	"Striped dolphin"	2003	4	1					Asia	Japan	"Gogo-shima, Ehime"	33.86462778	33.929025	132.6527333	132.6982167	Male	Liver	2.55		135	kg	231	cm	"Body length"																																	2017/6/9	2017/6/9
PRA000032	SAA001997	ST004	9737	es-BANK	EW04571	SD6	"Stenella coeruleoalba"	"Striped dolphin"	2003	4	1					Asia	Japan	"Gogo-shima, Ehime"	33.86462778	33.929025	132.6527333	132.6982167	Male	Liver	2.8		150	kg	236.5	cm	"Body length"																																	2017/6/9	2017/6/9
PRA000032	SAA001998	ST004	9737	es-BANK	EW04566	SD1	"Stenella coeruleoalba"	"Striped dolphin"	2003	3	30					Asia	Japan	"Gogo-shima, Ehime"	33.86462778	33.929025	132.6527333	132.6982167	Male	Muscle	0.36		155	kg	230.8	cm	"Body length"																																	2017/6/9	2017/6/9
PRA000032	SAA001999	ST004	9737	es-BANK	EW04567	SD2	"Stenella coeruleoalba"	"Striped dolphin"	2003	3	30					Asia	Japan	"Gogo-shima, Ehime"	33.86462778	33.929025	132.6527333	132.6982167	Female	Muscle	0.5		105	kg	223	cm	"Body length"																																	2017/6/9	2017/6/9
PRA000032	SAA002000	ST004	9737	es-BANK	EW04568	SD3	"Stenella coeruleoalba"	"Striped dolphin"	2003	4	1					Asia	Japan	"Gogo-shima, Ehime"	33.86462778	33.929025	132.6527333	132.6982167	Male	Muscle	0.47		150	kg	237.6	cm	"Body length"																																	2017/6/9	2017/6/9
PRA000032	SAA002001	ST004	9737	es-BANK	EW04569	SD4	"Stenella coeruleoalba"	"Striped dolphin"	2003	4	1					Asia	Japan	"Gogo-shima, Ehime"	33.86462778	33.929025	132.6527333	132.6982167	Male	Muscle	0.54		155	kg	232	cm	"Body length"																																	2017/6/9	2017/6/9
PRA000032	SAA002002	ST004	9737	es-BANK	EW04570	SD5	"Stenella coeruleoalba"	"Striped dolphin"	2003	4	1					Asia	Japan	"Gogo-shima, Ehime"	33.86462778	33.929025	132.6527333	132.6982167	Male	Muscle	0.5		135	kg	231	cm	"Body length"																																	2017/6/9	2017/6/9
PRA000032	SAA002003	ST004	9737	es-BANK	EW04571	SD6	"Stenella coeruleoalba"	"Striped dolphin"	2003	4	1					Asia	Japan	"Gogo-shima, Ehime"	33.86462778	33.929025	132.6527333	132.6982167	Male	Muscle	0.69		150	kg	236.5	cm	"Body length"																																	2017/6/9	2017/6/9
PRA000036	SAA002109	ST004	103596	es-BANK	EW00089	820106-16	"Peponocephala electra"	"Melon-headed whale"	1982	1						Asia	Japan	"Aoshima, Miyazaki"	31.45	32.73333333	131.9163889	132.5502778	Male	Blubber	80		211.7	kg	258	cm	"Body length"	Mature																																2017/5/12	2017/5/12
PRA000036	SAA002110	ST004	103596	es-BANK	EW00090	820106-17	"Peponocephala electra"	"Melon-headed whale"	1982	1						Asia	Japan	"Aoshima, Miyazaki"	31.45	32.73333333	131.9163889	132.5502778	Male	Blubber	54		198.4	kg	251	cm	"Body length"	Mature	"37.5 y.o."																															2017/5/12	2017/5/12
PRA000036	SAA002111	ST004	103596	es-BANK	EW00091	820106-18	"Peponocephala electra"	"Melon-headed whale"	1982	1						Asia	Japan	"Aoshima, Miyazaki"	31.45	32.73333333	131.9163889	132.5502778	Male	Blubber	46		175.6	kg	247.5	cm	"Body length"	Mature	"24.5 y.o."																															2017/05/12	2017/05/12
PRA000036	SAA002112	ST004	103596	es-BANK	EW00093	820106-20	"Peponocephala electra"	"Melon-headed whale"	1982	1						Asia	Japan	"Aoshima, Miyazaki"	31.45	32.73333333	131.9163889	132.5502778	Male	Blubber	64		196.5	kg	247	cm	"Body length"	Mature	"41.5 y.o."																															2017/5/12	2017/5/12
PRA000036	SAA002113	ST004	103596	es-BANK	EW00086	820106-13	"Peponocephala electra"	"Melon-headed whale"	1982	1						Asia	Japan	"Aoshima, Miyazaki"	31.45	32.73333333	131.9163889	132.5502778	Male	Blubber	66		144.2	kg	236	cm	"Body length"	Immature	"12.5 y.o."																															2017/5/12	2017/5/12
PRA000036	SAA002114	ST004	103596	es-BANK	EW00076	820106-03	"Peponocephala electra"	"Melon-headed whale"	1982	1						Asia	Japan	"Aoshima, Miyazaki"	31.45	32.73333333	131.9163889	132.5502778	Female	Blubber	44		165.9	kg	240	cm	"Body length"	Mature	"29.5 y.o."																														"Pregnant: Dam of SAA002118 (EW00094)"	2017/5/12	2017/5/12
PRA000036	SAA002115	ST004	103596	es-BANK	EW00088	820106-15	"Peponocephala electra"	"Melon-headed whale"	1982	1						Asia	Japan	"Aoshima, Miyazaki"	31.45	32.73333333	131.9163889	132.5502778	Female	Blubber	66		172.8	kg	235	cm	"Body length"	Mature	"25.5 y.o."																														"Pregnant: Dam of SAA002117(EW00095)"	2017/5/12	2017/5/12
PRA000036	SAA002116	ST004	103596	es-BANK	EW00101	820109-52	"Peponocephala electra"	"Melon-headed whale"	1982	1						Asia	Japan	"Aoshima, Miyazaki"	31.45	32.73333333	131.9163889	132.5502778	Male	Blubber	44		12.2	kg	101	cm	"Body length"	Fetus																															"Fetus of EW00098"	2017/5/12	2017/5/12
PRA000036	SAA002117	ST004	103596	es-BANK	EW00095	820106-22	"Peponocephala electra"	"Melon-headed whale"	1982	1						Asia	Japan	"Aoshima, Miyazaki"	31.45	32.73333333	131.9163889	132.5502778	Male	Blubber	44		9.26	kg	92	cm	"Body length"	Fetus																															"Fetus of SAA002115 (EW00088)"	2017/5/12	2017/5/12
PRA000036	SAA002118	ST004	103596	es-BANK	EW00094	820106-21	"Peponocephala electra"	"Melon-headed whale"	1982	1						Asia	Japan	"Aoshima, Miyazaki"	31.45	32.73333333	131.9163889	132.5502778	Male	Blubber	39		7.26	kg	80	cm	"Body length"	Fetus																															"Fetus of SAA002114 (EW00076)"	2017/5/12	2017/5/12
PRA000036	SAA002119	ST004	103596	es-BANK	EW00113	M32623	"Peponocephala electra"	"Melon-headed whale"	2001	2	12					Asia	Japan	"Hasaki, Ibaraki"	35.73184444	35.82913333	140.7697722	140.8939278	Male	Blubber	63				270	cm	"Body length"	Mature																																2017/5/12	2017/5/12
PRA000036	SAA002120	ST004	103596	es-BANK	EW00127	M32677	"Peponocephala electra"	"Melon-headed whale"	2001	3	12					Asia	Japan	"Tanegashima, Kagoshima"	30.28055556	30.89444444	130.8252778	131.2708333	Male	Blubber	63				261	cm	"Body length"	Immature																																2017/5/12	2017/5/12
PRA000036	SAA002121	ST004	103596	es-BANK	EW04690	M32818	"Peponocephala electra"	"Melon-headed whale"	2002	2	25					Asia	Japan	"Hasaki, Ibaraki"	35.73184444	35.82913333	140.7697722	140.8939278	Male	Blubber	30				255	cm	"Body length"	Immature	"11.5 y.o."																															2017/5/12	2017/5/12
PRA000036	SAA002122	ST004	103596	es-BANK	EW00125	M32655	"Peponocephala electra"	"Melon-headed whale"	2001	3	12					Asia	Japan	"Tanegashima, Kagoshima"	30.28055556	30.89444444	130.8252778	131.2708333	Male	Blubber	73				253	cm	"Body length"	Mature																																2017/5/12	2017/5/12
PRA000036	SAA002123	ST004	103596	es-BANK	EW00121	M32632	"Peponocephala electra"	"Melon-headed whale"	2001	2	14					Asia	Japan	"Hasaki, Ibaraki"	35.73184444	35.82913333	140.7697722	140.8939278	Male	Blubber	67				249	cm	"Body length"	Unknown																																2017/5/12	2017/5/12
PRA000036	SAA002124	ST004	103596	es-BANK	EW00124	M32654	"Peponocephala electra"	"Melon-headed whale"	2001	3	12					Asia	Japan	"Tanegashima, Kagoshima"	30.28055556	30.89444444	130.8252778	131.2708333	Male	Blubber	74				245.5	cm	"Body length"	Mature																																2017/05/12	2017/05/12
PRA000036	SAA002125	ST004	103596	es-BANK	EW00134	M32774	"Peponocephala electra"	"Melon-headed whale"	2002	2	25					Asia	Japan	"Hasaki, Ibaraki"	35.73184444	35.82913333	140.7697722	140.8939278	Male	Blubber	39				243	cm	"Body length"	Mature	"15.5 y.o."																															2017/5/12	2017/5/12
PRA000036	SAA002126	ST004	103596	es-BANK	EW04669	M32785	"Peponocephala electra"	"Melon-headed whale"	2002	2	25					Asia	Japan	"Hasaki, Ibaraki"	35.73184444	35.82913333	140.7697722	140.8939278	Male	Blubber	72				243	cm	"Body length"	Mature	"16.5 y.o."																															2017/5/12	2017/5/12
PRA000036	SAA002127	ST004	103596	es-BANK	EW04676	M32798	"Peponocephala electra"	"Melon-headed whale"	2002	2	25					Asia	Japan	"Hasaki, Ibaraki"	35.73184444	35.82913333	140.7697722	140.8939278	Male	Blubber	41				234	cm	"Body length"	Immature	"10.5 y.o."																															2017/5/12	2017/5/12
PRA000036	SAA002128	ST004	103596	es-BANK	EW00132	M32770	"Peponocephala electra"	"Melon-headed whale"	2002	2	25					Asia	Japan	"Hasaki, Ibaraki"	35.73184444	35.82913333	140.7697722	140.8939278	Male	Blubber	69				222	cm	"Body length"	Immature																																2017/5/12	2017/5/12
PRA000036	SAA002129	ST004	103596	es-BANK	EW00130	M32768	"Peponocephala electra"	"Melon-headed whale"	2002	2	25					Asia	Japan	"Hasaki, Ibaraki"	35.73184444	35.82913333	140.7697722	140.8939278	Male	Blubber	58				219	cm	"Body length"	Immature	"5.5 y.o."																															2017/5/12	2017/5/12
PRA000036	SAA002130	ST004	103596	es-BANK	EW04667	M32780	"Peponocephala electra"	"Melon-headed whale"	2002	2	25					Asia	Japan	"Hasaki, Ibaraki"	35.73184444	35.82913333	140.7697722	140.8939278	Male	Blubber	63				214	cm	"Body length"	Immature	"2 y.o."																															2017/5/12	2017/5/12
PRA000036	SAA002131	ST004	103596	es-BANK	EW00137	M32814	"Peponocephala electra"	"Melon-headed whale"	2002	2	25					Asia	Japan	"Hasaki, Ibaraki"	35.73184444	35.82913333	140.7697722	140.8939278	Male	Blubber	54				211	cm	"Body length"	Immature																																2017/5/12	2017/5/12
PRA000036	SAA002132	ST004	103596	es-BANK	EW00138	M32815	"Peponocephala electra"	"Melon-headed whale"	2001	2	25					Asia	Japan	"Hasaki, Ibaraki"	35.73184444	35.82913333	140.7697722	140.8939278	Female	Blubber	63				250	cm	"Body length"	Mature	"30.5 y.o."																															2017/5/12	2017/5/12
PRA000036	SAA002133	ST004	103596	es-BANK	EW00123	M32637	"Peponocephala electra"	"Melon-headed whale"	2001	3	12					Asia	Japan	"Tanegashima, Kagoshima"	30.28055556	30.89444444	130.8252778	131.2708333	Female	Blubber	74				248	cm	"Body length"	Mature																																2017/5/12	2017/5/12
PRA000036	SAA002134	ST004	103596	es-BANK	EW04689	M32816	"Peponocephala electra"	"Melon-headed whale"	2002	2	25					Asia	Japan	"Hasaki, Ibaraki"	35.73184444	35.82913333	140.7697722	140.8939278	Female	Blubber	50				248	cm	"Body length"	Mature	"20.5 y.o."																														Pregnant	2017/5/12	2017/5/12
PRA000036	SAA002135	ST004	103596	es-BANK	EW04661	M32771	"Peponocephala electra"	"Melon-headed whale"	2002	2	25					Asia	Japan	"Hasaki, Ibaraki"	35.73184444	35.82913333	140.7697722	140.8939278	Female	Blubber	62				246	cm	"Body length"	Mature	"13.5 y.o."																															2017/5/12	2017/5/12
PRA000036	SAA002136	ST004	103596	es-BANK	EW04682	M32805	"Peponocephala electra"	"Melon-headed whale"	2002	2	25					Asia	Japan	"Hasaki, Ibaraki"	35.73184444	35.82913333	140.7697722	140.8939278	Female	Blubber	76				246	cm	"Body length"	Mature	"35.5 y.o."																															2017/5/12	2017/5/12
PRA000036	SAA002137	ST004	103596	es-BANK	EW00114	M32624	"Peponocephala electra"	"Melon-headed whale"	2001	2	12					Asia	Japan	"Hasaki, Ibaraki"	35.73184444	35.82913333	140.7697722	140.8939278	Female	Blubber	59				245	cm	"Body length"	Mature																																2017/5/12	2017/5/12
PRA000036	SAA002138	ST004	103596	es-BANK	EW00133	M32772	"Peponocephala electra"	"Melon-headed whale"	2002	2	25					Asia	Japan	"Hasaki, Ibaraki"	35.73184444	35.82913333	140.7697722	140.8939278	Female	Blubber	47				242	cm	"Body length"	Mature																																2017/5/12	2017/5/12
PRA000036	SAA002139	ST004	103596	es-BANK	EW04681	M32804	"Peponocephala electra"	"Melon-headed whale"	2002	2	25					Asia	Japan	"Hasaki, Ibaraki"	35.73184444	35.82913333	140.7697722	140.8939278	Female	Blubber	54				241	cm	"Body length"	Mature	"9.5 y.o."																															2017/5/12	2017/5/12
PRA000036	SAA002140	ST004	103596	es-BANK	EW00126	M32660	"Peponocephala electra"	"Melon-headed whale"	2001	3	12					Asia	Japan	"Tanegashima, Kagoshima"	30.28055556	30.89444444	130.8252778	131.2708333	Female	Blubber	77				236	cm	"Body length"	Mature																																2017/5/12	2017/5/12
PRA000036	SAA002141	ST004	103596	es-BANK	EW00142	M32830	"Peponocephala electra"	"Melon-headed whale"	2002	2	25					Asia	Japan	"Hasaki, Ibaraki"	35.73184444	35.82913333	140.7697722	140.8939278	Female	Blubber	54				236	cm	"Body length"	Mature																																2017/5/12	2017/5/12
PRA000036	SAA002142	ST004	103596	es-BANK	EW00140	M32826	"Peponocephala electra"	"Melon-headed whale"	2002	2	25					Asia	Japan	"Hasaki, Ibaraki"	35.73184444	35.82913333	140.7697722	140.8939278	Female	Blubber	47				231	cm	"Body length"	Mature																																2017/5/12	2017/5/12
PRA000036	SAA002143	ST004	103596	es-BANK	EW00141	M32828	"Peponocephala electra"	"Melon-headed whale"	2002	2	25					Asia	Japan	"Hasaki, Ibaraki"	35.73184444	35.82913333	140.7697722	140.8939278	Female	Blubber	63				231	cm	"Body length"	Mature																																2017/5/12	2017/5/12
PRA000036	SAA002144	ST004	103596	es-BANK	EW00104	020225-81	"Peponocephala electra"	"Melon-headed whale"	2002	2	25					Asia	Japan	"Hasaki, Ibaraki"	35.73184444	35.82913333	140.7697722	140.8939278	Female	Blubber	51				230	cm	"Body length"	Mature																																2017/5/12	2017/5/12
PRA000036	SAA002145	ST004	103596	es-BANK	EW00110	M32800	"Peponocephala electra"	"Melon-headed whale"	2002	2	25					Asia	Japan	"Hasaki, Ibaraki"	35.73184444	35.82913333	140.7697722	140.8939278	Female	Blubber	62				230	cm	"Body length"	Immature																																2017/5/12	2017/5/12
PRA000036	SAA002146	ST004	103596	es-BANK	EW04684	M32808	"Peponocephala electra"	"Melon-headed whale"	2002	2	25					Asia	Japan	"Hasaki, Ibaraki"	35.73184444	35.82913333	140.7697722	140.8939278	Female	Blubber	60				229	cm	"Body length"	Mature	"32.5 y.o."																															2017/5/12	2017/5/12
PRA000036	SAA002147	ST004	103596	es-BANK	EW04668	M32783	"Peponocephala electra"	"Melon-headed whale"	2002	2	25					Asia	Japan	"Hasaki, Ibaraki"	35.73184444	35.82913333	140.7697722	140.8939278	Female	Blubber	66				228	cm	"Body length"	Mature	"21.5 y.o."																														Pregnant	2017/5/12	2017/5/12
PRA000036	SAA002148	ST004	103596	es-BANK	EW00136	M32811	"Peponocephala electra"	"Melon-headed whale"	2002	2	25					Asia	Japan	"Hasaki, Ibaraki"	35.73184444	35.82913333	140.7697722	140.8939278	Female	Blubber	63				228	cm	"Body length"	Immature																																2017/5/12	2017/5/12
PRA000036	SAA002149	ST004	103596	es-BANK	EW04673	M32791	"Peponocephala electra"	"Melon-headed whale"	2002	2	25					Asia	Japan	"Hasaki, Ibaraki"	35.73184444	35.82913333	140.7697722	140.8939278	Female	Blubber	24				226	cm	"Body length"	Immature	"6.5 y.o."																															2017/5/12	2017/5/12
PRA000036	SAA002150	ST004	103596	es-BANK	EW00108	020225-32	"Peponocephala electra"	"Melon-headed whale"	2002	2	25					Asia	Japan	"Hasaki, Ibaraki"	35.73184444	35.82913333	140.7697722	140.8939278	Female	Blubber	65				223	cm	"Body length"	Mature																																2017/5/12	2017/5/12
PRA000036	SAA002151	ST004	103596	es-BANK	EW04678	M32801	"Peponocephala electra"	"Melon-headed whale"	2002	2	25					Asia	Japan	"Hasaki, Ibaraki"	35.73184444	35.82913333	140.7697722	140.8939278	Female	Blubber	63				222	cm	"Body length"	Mature	"25.5 y.o."																															2017/5/12	2017/5/12
PRA000036	SAA002152	ST004	103596	es-BANK	EW04679	M32802	"Peponocephala electra"	"Melon-headed whale"	2002	2	25					Asia	Japan	"Hasaki, Ibaraki"	35.73184444	35.82913333	140.7697722	140.8939278	Female	Blubber	80				210	cm	"Body length"	Immature	"1.5 y.o."																															2017/5/12	2017/5/12
PRA000036	SAA002153	ST004	103596	es-BANK	EW04671	M32789	"Peponocephala electra"	"Melon-headed whale"	2002	2	25					Asia	Japan	"Hasaki, Ibaraki"	35.73184444	35.82913333	140.7697722	140.8939278	Female	Blubber	73				208	cm	"Body length"	Immature	"1.5 y.o."																															2017/5/12	2017/5/12
PRA000036	SAA002154	ST004	103596	es-BANK	EW04680	M32803	"Peponocephala electra"	"Melon-headed whale"	2002	2	25					Asia	Japan	"Hasaki, Ibaraki"	35.73184444	35.82913333	140.7697722	140.8939278	Female	Blubber	49				201	cm	"Body length"	Immature	"2 y.o."																															2017/5/12	2017/5/12
PRA000036	SAA002155	ST004	103596	es-BANK	EW04764	M34076	"Peponocephala electra"	"Melon-headed whale"	2006	1	23					Asia	Japan	"Asahi, Chiba"	35.70111111		140.7113889		Male	Blubber	50		229.05	kg	255.6	cm	"Body length"	Mature																																2017/05/12	2017/05/12
PRA000036	SAA002156	ST004	103596	es-BANK	EW04762	M34077	"Peponocephala electra"	"Melon-headed whale"	2006	1	23					Asia	Japan	"Asahi, Chiba"	35.70111111		140.7113889		Male	Blubber	32		137.5	kg	234	cm	"Body length"	Mature																																2017/5/12	2017/5/12
PRA000036	SAA002157	ST004	103596	es-BANK	EW04766	M34072	"Peponocephala electra"	"Melon-headed whale"	2006	1	23					Asia	Japan	"Asahi, Chiba"	35.70111111		140.7113889		Male	Blubber	47		224.05	kg	249	cm	"Body length"	Mature																																2017/5/12	2017/5/12
PRA000036	SAA002158	ST004	103596	es-BANK	EW04772	060301-6	"Peponocephala electra"	"Melon-headed whale"	2006	2	28					Asia	Japan	"Torami Coast, Torami, Ichinomiya, Chiba"	35.33	35.35972222	140.3919417	140.3979167	Male	Blubber	45				239	cm	"Body length"	Mature																															M34090	2017/05/12	2020/12/25
PRA000036	SAA002159	ST004	103596	es-BANK	EW04779	060301-1	"Peponocephala electra"	"Melon-headed whale"	2006	2	28					Asia	Japan	"Torami Coast, Torami, Ichinomiya, Chiba"	35.33	35.35972222	140.3919417	140.3979167	Male	Blubber	81				260	cm	"Body length"	Mature																															M34085	2017/05/12	2020/12/25
PRA000042	SAA002341	ST009	73031			"Preab Island"	"Perna viridis"	"Asian green mussel"	2004							Asia	Cambodia	"Preab Island"	10.559482	11.93609	102.787446	103.74339		"Whole soft tissue"	1.4				92	mm	"Shell length"																																"n=34 Pooled; Harbor"	2017/9/27	2017/9/27
PRA000042	SAA002342	ST009	73031			"Koh Kchorng"	"Perna viridis"	"Asian green mussel"	2004							Asia	Cambodia	"Koh Kchorng"	10.559482	11.93609	102.787446	103.74339		"Whole soft tissue"	1.6				80	mm	"Shell length"																																"n=45 Pooled; Rural area"	2017/9/27	2017/9/27
PRA000042	SAA002343	ST009	73031			Xiamen_Haichang	"Perna viridis"	"Asian green mussel"	2004							Asia	China	Xiamen	24.419248	24.546729	118.002245	118.087732		"Whole soft tissue"	0.45				"60 - 90"	mm	"Shell length"																																"n=108 Pooled; Commercial area"	2017/9/27	2017/9/27
PRA000042	SAA002344	ST009	73031			Qingzhou	"Perna viridis"	"Asian green mussel"	2004							Asia	China	Qingzhou	36.416263	36.954784	118.182408	118.77155		"Whole soft tissue"	0.76				"60 - 90"	mm	"Shell length"																																"n=178 Pooled; Small Town"	2017/9/27	2017/9/27
PRA000042	SAA002345	ST009	73031			"Fuzhou_Ming Jian"	"Perna viridis"	"Asian green mussel"	2004							Asia	China	Fuzhou	25.413261	25.572156	119.223735	119.879002		"Whole soft tissue"	0.7				"40 - 70"	mm	"Shell length"																																"n=218 Pooled; Agriculture, Residential area"	2017/9/27	2017/9/27
PRA000042	SAA002346	ST009	73031			"Beihai "	"Perna viridis"	"Asian green mussel"	2004							Asia	China	"Beihai "	21.403842	21.738972	108.855005	109.7707		"Whole soft tissue"	0.91				"60 - 90"	mm	"Shell length"																																"n=156 Pooled; Small city"	2017/9/27	2017/9/27
PRA000042	SAA002347	ST009	73031			Shantau_Lauping	"Perna viridis"	"Asian green mussel"	2004							Asia	China	"Shantau "	23.102299	23.602755	116.53924	116.909923		"Whole soft tissue"	0.99				"60 - 90"	mm	"Shell length"																																"n=104 Pooled; Residnetial area"	2017/9/27	2017/9/27
PRA000042	SAA002349	ST009	6550			Dalian	"Mytilus edulis"	"Blue mussel"	2004							Asia	China	Dalian	38.752184	40.181599	121.158975	123.492628		"Whole soft tissue"	0.67				"30 - 75"	mm	"Shell length"																																"n=69 Pooled; Aquaculture"	2017/9/27	2017/9/27
PRA000042	SAA002350	ST009	6550			"Chong Ming Dao_Shanghai"	"Mytilus edulis"	"Blue mussel"	2004							Asia	China	"Chong Ming Dao, Shanghai"	31.441648	31.863894	121.171316	121.990437		"Whole soft tissue"	0.79				"30 - 75"	mm	"Shell length"																																"n=79 Pooled; Industrial, Commercial area"	2017/9/27	2017/9/27
PRA000042	SAA002351	ST009	6550			"Lian Yun  Gang"	"Mytilus edulis"	"Blue mussel"	2004							Asia	China	"Lian Yun  Gang"	34.386956	35.105406	119.210949	119.794567		"Whole soft tissue"	1.2				"40 - 75"	mm	"Shell length"																																"n=50 Pooled; Aquaculture"	2017/9/27	2017/9/27
PRA000042	SAA002352	ST009	6550			"Jiao Zhou Wan_Qingdao"	"Mytilus edulis"	"Blue mussel"	2004							Asia	China	"Jiao Zhou Wan, Qingdao"	36.129984	36.181752	120.102721	120.144207		"Whole soft tissue"	0.78				"30 - 75"	mm	"Shell length"																																"n=72 Pooled; Industrial area"	2017/9/27	2017/9/27
PRA000042	SAA002353	ST009	73031			"Tsim sha Tsui"	"Perna viridis"	"Asian green mussel"	2004							Asia	China	"Hong Kong"	22.294251	22.300955	114.164788	114.176306		"Whole soft tissue"	1.3																																						"Pooled; Commercial area"	2017/9/27	2017/9/27
PRA000042	SAA002354	ST009	73031			"Kat O"	"Perna viridis"	"Asian green mussel"	2004							Asia	China	"Hong Kong"	22.532001	22.555097	114.286212	114.316531		"Whole soft tissue"	1																																						"Pooled; Aquaculture area"	2017/9/27	2017/9/27
PRA000042	SAA002355	ST009	73031			"Cheung Chau"	"Perna viridis"	"Asian green mussel"	2004							Asia	China	"Hong Kong"	22.196039	22.223074	114.017302	114.040874		"Whole soft tissue"	1.3																																						"Pooled; Residential area"	2017/9/27	2017/9/27
PRA000042	SAA002356	ST009	73031			"Sai Wan Ho"	"Perna viridis"	"Asian green mussel"	2004							Asia	China	"Hong Kong"	22.279392	22.284328	114.217802	114.223317		"Whole soft tissue"	1.3																																						"Pooled; Residential area"	2017/9/27	2017/9/27
PRA000042	SAA002357	ST009	73031			"Ma Liu Shui"	"Perna viridis"	"Asian green mussel"	2004							Asia	China	"Hong Kong"	22.41	22.428766	114.194339	114.214945		"Whole soft tissue"	1.4																																						"Pooled; Residential area"	2017/9/27	2017/9/27
PRA000042	SAA002358	ST009	73031			"Lung Kwu Tan"	"Perna viridis"	"Asian green mussel"	2004							Asia	China	"Hong Kong"	22.359504	22.425725	113.901442	113.947694		"Whole soft tissue"	0.64																																						"Pooled; Power station"	2017/9/27	2017/9/27
PRA000042	SAA002359	ST009	73031			"Ma Wan"	"Perna viridis"	"Asian green mussel"	2004							Asia	China	"Hong Kong"	22.343159	22.355759	114.05414	114.065204		"Whole soft tissue"	1.2																																						"Pooled; Aquaculture area"	2017/9/27	2017/9/27
PRA000042	SAA002360	ST009	73031			"Ma On Shan"	"Perna viridis"	"Asian green mussel"	2004							Asia	China	"Hong Kong"	22.408943	22.437196	114.219959	114.275565		"Whole soft tissue"	1.1																																						"Pooled; Residential area"	2017/9/27	2017/9/27
PRA000042	SAA002361	ST009	73031			"Sha Tau Kok"	"Perna viridis"	"Asian green mussel"	2004							Asia	China	"Hong Kong"	22.525595	22.544371	114.208345	114.227575		"Whole soft tissue"	1.6																																						"Pooled; Aquaculture area"	2017/9/27	2017/9/27
PRA000042	SAA002362	ST009	73031			"Lamma Island"	"Perna viridis"	"Asian green mussel"	2004							Asia	China	"Hong Kong"	22.177826	22.240926	114.104338	114.159322		"Whole soft tissue"	1.7																																						Pooled	2017/9/27	2017/9/27
PRA000042	SAA002363	ST009	73031			Pondicherry	"Perna viridis"	"Asian green mussel"	2004							Asia	India	Pondicherry	11.899741	11.972989	79.78589	79.840221		"Whole soft tissue"	0.37				"98 - 124"	mm	"Shell length"																																"n=35 Pooled; Industry, small harbor"	2017/9/27	2017/9/27
PRA000042	SAA002364	ST009	73031			Kakinada	"Perna viridis"	"Asian green mussel"	2004							Asia	India	Kakinada	16.916843	17.036695	82.203802	82.283624		"Whole soft tissue"	2.4				"88 - 129"	mm	"Shell length"																																"n=18 Pooled; Aqua-and agriculture, harbor"	2017/9/27	2017/9/27
PRA000042	SAA002365	ST009	73031			Kasimedu	"Perna viridis"	"Asian green mussel"	2004							Asia	India	Kasimedu	13.123868	13.126898	80.294433	80.297587		"Whole soft tissue"	0.95				"87 - 105"	mm	"Shell length"																																"n=20 Pooled; Fishing harbor"	2017/9/27	2017/9/27
PRA000042	SAA002366	ST009	73031			"Muara Angek_A"	"Perna viridis"	"Asian green mussel"	2003							Asia	Indonesia	"Muara Angek, Jakarta Bay"	-6.103269	-6.105417	106.774504	106.777027		"Whole soft tissue"	0.6				"58 - 86"	mm	"Shell length"																																"n=31 Pooled; Urban, fishing port, polluted"	2017/9/27	2017/9/27
PRA000042	SAA002367	ST009	73031			"Muara Angek_B"	"Perna viridis"	"Asian green mussel"	2003							Asia	Indonesia	"Muara Angek, Jakarta Bay"	-6.103269	-6.105417	106.774504	106.777027		"Whole soft tissue"	0.93				"52 - 65"	mm	"Shell length"																																"n=27 Pooled; Urban, fishing port, polluted"	2017/9/27	2017/9/27
PRA000042	SAA002368	ST009	73031			Cilincing_A	"Perna viridis"	"Asian green mussel"	2003							Asia	Indonesia	"Cilincing, Jakarta Bay"	-6.091834	-6.126882	106.908371	106.970887		"Whole soft tissue"	0.9				"52 - 73"	mm	"Shell length"																																"n=22 Pooled; Urban, industrial, polluted"	2017/9/27	2017/9/27
PRA000042	SAA002369	ST009	73031			Cilincing_B	"Perna viridis"	"Asian green mussel"	2003							Asia	Indonesia	"Cilincing, Jakarta Bay"	-6.091834	-6.126882	106.908371	106.970887		"Whole soft tissue"	0.86				"70 - 88"	mm	"Shell length"																																"n=20 Pooled; Urban, industrial, polluted"	2017/9/27	2017/9/27
PRA000042	SAA002370	ST009	6550			Osaka	"Mytilus edulis"	"Blue mussel"	2003							Asia	Japan	Osaka	34.27194444	35.05138889	135.0919444	135.7466667		"Whole soft tissue"	1.9				"47 - 66"	mm	"Shell length"																																"n=29 Pooled; Urban area"	2017/9/27	2017/9/27
PRA000042	SAA002371	ST009	6550	es-BANK	EF04157	Hokkaido	"Mytilus edulis"	"Blue mussel"	2003	6	13					Asia	Japan	Hokkaido	43.72472222	43.8225	141.1436111	141.3319444		"Whole soft tissue"	0.49																																						"Pooled; Rural area"	2017/9/27	2017/9/27
PRA000042	SAA002372	ST009	6550	es-BANK	EF04158	Fukui	"Mytilus edulis"	"Blue mussel"	2003	7	8					Asia	Japan	Fukui	35.65083333	35.80722222	135.9586111	136.1111111		"Whole soft tissue"	0.56																																						"Pooled; Rural area"	2017/9/27	2017/9/27
PRA000042	SAA002373	ST009	6550	es-BANK	EF04155	Mie	"Mytilus edulis"	"Blue mussel"	2003							Asia	Japan	Mie	33.6975	34.78638889	136.2413889	136.925		"Whole soft tissue"	0.74																																						"Pooled; Aquaculture"	2017/9/27	2017/9/27
PRA000042	SAA002374	ST009	6550			Miyagi	"Mytilus edulis"	"Blue mussel"	2004							Asia	Japan	Miyagi	37.77333333	39.00277778	140.275	141.6752778		"Whole soft tissue"	1.6																																						"Pooled; Fishing harbor"	2017/9/27	2017/9/27
PRA000042	SAA002375	ST009	6550			"Uljin A"	"Mytilus edulis"	"Blue mussel"	2005							Asia	Korea	Uljin	36.648131	37.145258	129.36385	129.477521		"Whole soft tissue"	0.78				"45 - 70"	mm	"Shell length"																																"n=36 Pooled; Less industrial activity"	2017/9/27	2017/9/27
PRA000042	SAA002376	ST009	6550			"Ganggu_Yandok M-3"	"Mytilus edulis"	"Blue mussel"	2005							Asia	Korea	"Ganggu, Yandok"	36.355654	36.363704	129.380696	129.393991		"Whole soft tissue"	1.7				"35 - 46"	mm	"Shell length"																																"n=10 Pooled; Less industrial activity"	2017/9/27	2017/9/27
PRA000042	SAA002377	ST009	6550			"Yeongil Bay_Pohang M-2"	"Mytilus edulis"	"Blue mussel"	2005							Asia	Korea	"Yeongil Bay, Pohang"	35.991998	36.105747	129.383822	129.551267		"Whole soft tissue"	0.93				"42 - 52"	mm	"Shell length"																																"n=50 Pooled; Industrial complex"	2017/9/27	2017/9/27
PRA000042	SAA002378	ST009	6550			Guryongpo	"Mytilus edulis"	"Blue mussel"	2005							Asia	Korea	Guryongpo	35.982171	35.99088	129.552113	129.567192		"Whole soft tissue"	1.5				"45 - 58"	mm	"Shell length"																																"n=58 Pooled; Less industrial activity"	2017/9/27	2017/9/27
PRA000042	SAA002379	ST009	6550			"Welseong B"	"Mytilus edulis"	"Blue mussel"	2005							Asia	Korea	Welseong	35.71249	35.744088	129.473832	129.480208		"Whole soft tissue"	1.8				"53 - 68"	mm	"Shell length"																																"n=49 Pooled; Nuclear power plant"	2017/9/27	2017/9/27
PRA000042	SAA002380	ST009	6550			"Ulsan Bay_M-8"	"Mytilus edulis"	"Blue mussel"	2005							Asia	Korea	"Ulsan Bay"	35.471723	35.543636	129.356992	129.412547		"Whole soft tissue"	1				"54 - 77"	mm	"Shell length"																																"n=42 Pooled; Industrial complex"	2017/9/27	2017/9/27
PRA000042	SAA002381	ST009	6550			"Ulsan Bay_M-6"	"Mytilus edulis"	"Blue mussel"	2005							Asia	Korea	"Ulsan Bay"	35.471723	35.543636	129.356992	129.412547		"Whole soft tissue"	2.1				"45 - 65"	mm	"Shell length"																																"n=42 Pooled; Industrial complex"	2017/9/27	2017/9/27
PRA000042	SAA002382	ST009	6550			"Onsan Bay_M-1"	"Mytilus edulis"	"Blue mussel"	2005							Asia	Korea	"Onsan Bay"	35.438997	35.469979	129.341166	129.370395		"Whole soft tissue"	0.81				"55 - 71"	mm	"Shell length"																																"n=49 Pooled; Industrial complex"	2017/9/27	2017/9/27
PRA000042	SAA002383	ST009	6550			"Onsan Bay_M-2"	"Mytilus edulis"	"Blue mussel"	2005							Asia	Korea	"Onsan Bay"	35.438997	35.469979	129.341166	129.370395		"Whole soft tissue"	1.8				"50 - 70"	mm	"Shell length"																																"n=43 Pooled; Industrial complex"	2017/9/27	2017/9/27
PRA000042	SAA002384	ST009	6550			"Kori_Ulju County A"	"Mytilus edulis"	"Blue mussel"	2005							Asia	Korea	"Kori, Ulju County"	35.318071	35.331722	129.28175	129.312848		"Whole soft tissue"	2.1				"45 - 65"	mm	"Shell length"																																"n=44 Pooled; Nuclear power plant"	2017/9/27	2017/9/27
PRA000042	SAA002385	ST009	6550			"Busan Bay_M-1"	"Mytilus edulis"	"Blue mussel"	2005							Asia	Korea	"Busan Bay"	35.031915	35.129124	128.946326	129.126502		"Whole soft tissue"	2.3				"40 - 55"	mm	"Shell length"																																"n=10 Pooled; Industrial complex"	2017/9/27	2017/9/27
PRA000042	SAA002386	ST009	6550			Wonmunnpo_M-1	"Mytilus edulis"	"Blue mussel"	2005							Asia	Korea	Wonmunnpo	34.762668	34.970661	128.310296	128.477854		"Whole soft tissue"	2				"46 - 82"	mm	"Shell length"																																"n=32 Pooled; Farming areas"	2017/9/27	2017/9/27
PRA000042	SAA002387	ST009	6550			"Kohyonsong Bay_Geoje M-3"	"Mytilus edulis"	"Blue mussel"	2005							Asia	Korea	"Kohyonsong Bay, Geoje"	34.825577	35.033289	128.463717	128.750763		"Whole soft tissue"	1.4				"53 - 62"	mm	"Shell length"																																"n=37 Pooled; Shipyard, Farming areas"	2017/9/27	2017/9/27
PRA000042	SAA002388	ST009	6550			"Okpo Bay_M-2"	"Mytilus edulis"	"Blue mussel"	2005							Asia	Korea	"Okpo Bay"	34.883997	34.904103	128.696106	128.720357		"Whole soft tissue"	1.2				"51 - 81"	mm	"Shell length"																																"n=22 Pooled; Repairing shipyard"	2017/9/27	2017/9/27
PRA000042	SAA002389	ST009	6550			"Masan Bay_M-2"	"Mytilus edulis"	"Blue mussel"	2005							Asia	Korea	"Masan Bay"	35.137817	35.211717	128.587008	128.607937		"Whole soft tissue"	0.75				"38 - 62"	mm	"Shell length"																																"n=32 Pooled; Industrial complex"	2017/9/27	2017/9/27
PRA000042	SAA002390	ST009	6550			"Haengam Bay_Jinhae"	"Mytilus edulis"	"Blue mussel"	2005							Asia	Korea	"Haengam Bay, Jinhae"	35.096831	35.12546	128.67755	128.702301		"Whole soft tissue"	1.2				"41 - 58"	mm	"Shell length"																																"n=39 Pooled; Industrial area"	2017/9/27	2017/9/27
PRA000042	SAA002391	ST009	6550			"Gwangyang Bay"	"Mytilus edulis"	"Blue mussel"	2005							Asia	Korea	"Gwangyang Bay"	34.901103	34.965817	127.578645	127.76671		"Whole soft tissue"	0.86				"46 - 66"	mm	"Shell length"																																"n=44 Pooled; Industrial complex"	2017/9/27	2017/9/27
PRA000042	SAA002392	ST009	6550			"Gamak Bay_Yeosu"	"Mytilus edulis"	"Blue mussel"	2005							Asia	Korea	"Gamak Bay, Yeosu"	34.404401	34.888577	127.511499	127.802703		"Whole soft tissue"	1.3				"33 - 57"	mm	"Shell length"																																"n=10 Pooled; Coastal protected area"	2017/9/27	2017/9/27
PRA000042	SAA002393	ST009	6550			"Sacheon Bay_Sacheon"	"Mytilus edulis"	"Blue mussel"	2005							Asia	Korea	"Sacheon Bay, Sacheon"	35.023727	35.079191	128.019806	128.059989		"Whole soft tissue"	0.72				"37 - 55"	mm	"Shell length"																																"n=75 Pooled; Thermoelectric power plant"	2017/9/27	2017/9/27
PRA000042	SAA002394	ST009	6550			"Shihwa Lake_Incheon"	"Mytilus edulis"	"Blue mussel"	2005							Asia	Korea	"Shihwa Lake, Incheon"	37.253175	37.329087	126.578865	126.744541		"Whole soft tissue"	1.3				"35 - 67"	mm	"Shell length"																																"n=10 Pooled; Industrial area"	2017/9/27	2017/9/27
PRA000042	SAA002395	ST009	6550			"Garorim Bay_Dangjin"	"Mytilus edulis"	"Blue mussel"	2005							Asia	Korea	"Garorim Bay, Dangjin"	36.795087	37.060206	126.413168	126.856741		"Whole soft tissue"	1.2				"50 - 87"	mm	"Shell length"																																"n=17 Pooled; Farming area"	2017/9/27	2017/9/27
PRA000042	SAA002396	ST009	6550			"Chunsu Bay_Hongseong"	"Mytilus edulis"	"Blue mussel"	2005							Asia	Korea	"Chunsu Bay, Hongseong"	36.520935	36.591548	126.456191	126.49465		"Whole soft tissue"	0.95				"46 - 64"	mm	"Shell length"																																"n=46 Pooled; Influx of migratory birds"	2017/9/27	2017/9/27
PRA000042	SAA002397	ST009	73031			"Port Dicknon"	"Perna viridis"	"Asian green mussel"	2004							Asia	Malaysia	"Port Dicknon"	2.440408	2.603669	101.743455	101.856744		"Whole soft tissue"	0.28																																						"Pooled; Old port and refinery"	2017/9/27	2017/9/27
PRA000042	SAA002398	ST009	73031			"Pantai Lido_Johor Bahru"	"Perna viridis"	"Asian green mussel"	2004							Asia	Malaysia	"Pantai Lido, Johor Bahru"	1.457054		103.74703			"Whole soft tissue"	0.71																																						"Pooled; Port, Indusrial and urban area"	2017/9/27	2017/9/27
PRA000042	SAA002399	ST009	73031			"Pasir Puteh"	"Perna viridis"	"Asian green mussel"	2004							Asia	Malaysia	"Pasir Puteh"	5.890881	5.917307	102.469272	102.487977		"Whole soft tissue"	1.5																																						"Pooled; Port, Indusrial and urban area"	2017/9/27	2017/9/27
PRA000042	SAA002400	ST009	73031			"Sebatu "	"Perna viridis"	"Asian green mussel"	2004							Asia	Malaysia	"Sebatu "	2.109479	2.113466	102.461977	102.464577		"Whole soft tissue"	1.8																																						"Pooled; Rural area"	2017/9/27	2017/9/27
PRA000042	SAA002401	ST009	73031			Penang	"Perna viridis"	"Asian green mussel"	2005							Asia	Malaysia	Penang	5.230033	5.473407	100.177071	100.423838		"Whole soft tissue"	0.95																																						"Pooled; Port, Indusrial and urban area"	2017/9/27	2017/9/27
PRA000042	SAA002402	ST009	73031			Bacoor_Cavite	"Perna viridis"	"Asian green mussel"	2004							Asia	Philippines	"Bacoor, Cavite"	14.452118	14.475175	120.925641	120.970036		"Whole soft tissue"	0.85																																						"Pooled; Highly urbanized area"	2017/9/27	2017/9/27
PRA000042	SAA002403	ST009	73031			"Naic Cavite"	"Perna viridis"	"Asian green mussel"	2004							Asia	Philippines	"Naic Cavite"	14.309938	14.347352	120.730489	120.780857		"Whole soft tissue"	0.6																																						"Pooled; Suburban area"	2017/9/27	2017/9/27
PRA000042	SAA002404	ST009	73031			"Hai Phong"	"Perna viridis"	"Asian green mussel"	2004							Asia	Vietnam	"Hai Phong"	20.814166	20.875376	106.637402	106.759742		"Whole soft tissue"	0.8				"60 - 75"	mm	"Shell length"																																"n=103 Pooled; Harbor"	2017/9/27	2017/9/27
PRA000042	SAA002405	ST009	73031			"Quang Binh"	"Perna viridis"	"Asian green mussel"	2004							Asia	Vietnam	"Quang Binh"	17.166083	17.952169	106.445203	106.98831		"Whole soft tissue"	1.2				"45 - 90"	mm	"Shell length"																																"n=136 Pooled; Beach and tourist area"	2017/9/27	2017/9/27
PRA000042	SAA002406	ST009	73031			"Thanh Hoa"	"Perna viridis"	"Asian green mussel"	2004							Asia	Vietnam	"Thanh Hoa"	19.296326	19.966096	105.786765	106.021406		"Whole soft tissue"	1				"35 - 80"	mm	"Shell length"																																"n=123 Pooled; Beach and tourist area"	2017/9/27	2017/9/27
PRA000042	SAA002407	ST009	73031			"Hue "	"Perna viridis"	"Asian green mussel"	2004							Asia	Vietnam	"Hue "	16.209137	16.73985	107.392383	108.187518		"Whole soft tissue"	0.52				"75 - 110"	mm	"Shell length"																																"n=18 Pooled; Shrimp farming"	2017/9/27	2017/9/27
PRA000042	SAA002408	ST009	73031			"Nha Trang"	"Perna viridis"	"Asian green mussel"	2004							Asia	Vietnam	"Nha Trang"	12.143691	12.374175	109.196031	109.33564		"Whole soft tissue"	0.35				"85 - 95"	mm	"Shell length"																																"n=44 Pooled; Shrimp farming"	2017/9/27	2017/9/27
PRA000068	SAA003775	ST015				Hokkaido_w2_2015	Water	"River water"	2015	10	22	2015-10-22T10:20			Fair	Asia	Japan	"Suzuran-ohashi Bridge, Riv. Tokachi (Obihiro City), Hokkaido"	42.94583333		143.1855556														10.9	9.4	7.7	11				4			Clear																			2018/05/08	2019/07/19
PRA000068	SAA003776	ST015				Hokkaido_w3_2015	Water	"River water"	2015	11	10	2015-11-10T10:23			Cloudy	Asia	Japan	"Ishikarikako-kyo Bridge, Mouth of Riv. Ishikari (Ishikari City), Hokkaido"	43.22861111		141.3519444														2	6.9	8.1	11				1			Brown																			2018/05/08	2019/07/19
PRA000068	SAA003779	ST015				Iwate_w1_2015	Water	"River water"	2015	10	14	2015-10-14T10:12			Cloudy	Asia	Japan	"Riv. Toyosawa (Hanamaki City), Iwate"	39.38166667		141.1191667														11.1	13.3	7.3	10	9			2			Clear																			2018/05/08	2019/07/19
PRA000068	SAA003920	ST014				Miyagi_w3_2015	Water	"Sea water"	2015	10	19	2015-10-19T10:10			Fair	Asia	Japan	"Sendai Bay (Matsushima Bay), Miyagi"	38.35333333		141.0975														19.3	17.2	8	8	4200			3		2.5	Brown																			2018/5/11	2019/8/5
PRA000068	SAA003921	ST015				Akita_w3_2015	Water	"Lake water"	2015	10	16	2015-10-16T10:27			Fair	Asia	Japan	"Lake Hachiro, Akita"	39.92277778		139.9988889														22.8	14.6	8.9		239			21		0.5	"Grayish green"																			2018/5/11	2019/8/5
PRA000068	SAA003783	ST015				Yamagata_w1_2015	Water	"River water"	2015	11	19	2015-11-19T09:10			Cloudy	Asia	Japan	"Mouth of Riv. Mogami, Yamagata"	38.88722222		139.8433333														10.5	12.3	7	10.3	12			5			"Light brown"																			2018/5/8	2019/7/19
PRA000068	SAA003922	ST014				Fukushima_w1_2015	Water	"Sea water"	2015	11	12	2015-11-12T10:15			Fair	Asia	Japan	"Onahama Port, Fukushima"	36.92472222		140.8752778														13.7	16.7	8.1	7.5	4470			3		2	"Greenish brown"																			2018/5/11	2019/8/5
PRA000068	SAA003786	ST015				Ibaraki_w2_2015	Water	"River water"	2015	11	17	2015-11-17T10:48			Fair	Asia	Japan	"Kamome-ohasi Bridge, Mouth of Riv. Tone (Kamisu City), Ibaraki"	35.77638889		140.7569444														21.5	17.5	7.8	8.1	250			7		0.8	Clear																			2018/05/08	2019/07/19
PRA000068	SAA003923	ST015				Tochigi_w1-2_2015	Water	"River water"	2015	10	14	2015-10-14T10:40			Fair	Asia	Japan	"Tagawa area-Toshuko Weir (Utsunomiya City), Tochigi"	36.52805556		139.8855556														17.5	16.5	7.8	11	18			3			Clear																			2018/05/11	2019/08/05
PRA000068	SAA003836	ST015				Saitama_w2_2015	Water	"River water"	2015	11	11	2015-11-11T11:30			Cloudy	Asia	Japan	"Akigase-Shusuizeki Weir, Riv. Ara (Shiki City), Saitama"	35.84055556		139.6044444														18.3	16.6	7.6	8.4	25			4			"Grayish yellow_light"																			2018/05/08	2019/08/02
PRA000068	SAA003924	ST015				ChibaCity_w1_2015	Water	"River water"	2015	10	22	2015-10-22T10:40			Fair	Asia	Japan	"Mouth of Riv. Hanami (Chiba City), Chiba"	35.63472222		140.04694440														22	21.4	8.1	7.2	3840			4			Clear																			2018/05/11	2019/08/05
PRA000068	SAA003790	ST015				Tokyo_w1_2015	Water	"River water"	2015	11	12	2015-11-12T10:25			Fair	Asia	Japan	"Mouth of Riv. Arakawa (Koto Ward), Tokyo"	35.64583333		139.8463889														15.1	17.8	7.6	5.1	3,380			19		0.7	"Greenish brown"																			2018/05/08	2019/07/19
PRA000068	SAA003791	ST015				Tokyo_w2_2015	Water	"River water"	2015	11	12	2015-11-12T12:45			Fair	Asia	Japan	"Mouth of Riv. Sumida (Minato Ward), Tokyo"	35.66		139.7705556														16	19.2	7.5	3.3	2,710			5		2	"Dark green"																			2018/05/08	2019/07/19
PRA000068	SAA003794	ST014				YokohamaCity_w3_2015	Water	"Sea water"	2015	10	22	2015-10-22T09:50			Fair	Asia	Japan	"Yokohama Port, Kanagawa"	35.45555556		139.6636111														21.3	23.4	8.1	11.6				3		1.3	"Light brown"																			2018/5/8	2019/7/19
PRA000068	SAA003839	ST014				KawasakiCity_w2_2015	Water	"Sea water"	2015	11	17	2015-11-17T11:54			Fair	Asia	Japan	"Keihin Canal, Kawasaki Port, Kanagawa (front of Ogimachi)"	35.49527778		139.7277778														22.4	19.3	8	5.7	4500			4		7.5	"Blue green"																			2018/05/08	2019/09/02
PRA000068	SAA003796	ST015				Niigata_w2_2015	Water	"River water"	2015	10	14	2015-10-14T09:55			Fair	Asia	Japan	"Downstream of Riv. Shinano (Niigata City), Niigata"	37.88305556		139.0155556														18.5	15.9	7.5	9.3	16			15			"Grayish green"																			2018/05/08	2019/07/19
PRA000068	SAA003925	ST015				Toyama_w2_2015	Water	"River water"	2015	10	21	2015-10-21T10:15			Fair	Asia	Japan	"Hagiura-bashi Bridge, Mouth of Riv. Jintsu (Toyama City), Toyama"	36.745		137.2180556														20	15.5	7.5	9.1				1			Clear																			2018/05/11	2019/08/05
PRA000068	SAA003798	ST015				Ishikawa_w1_2015	Water	"River water"	2015	11	5	2015-11-05T10:05			Fair	Asia	Japan	"Mouth of Riv. Sai (Kanazawa City), Ishikawa"	36.60027778		136.5888889														21	15.4	7.2	8.8	189			10			Clear																			2018/05/08	2019/07/19
PRA000068	SAA003926	ST015				Fukui_w1_2015	Water	"River water"	2015	11	11	2015-11-11T10:50			Fair	Asia	Japan	"Mishima-bashi Bridge, Riv. Shono (Tsuruga City), Fukui"	35.6475		136.0627778														17	19	7.4	11	8.3			1			Clear																			2018/05/11	2019/08/05
PRA000068	SAA003927	ST015				Nagano_w2_2015	Water	"Lake water"	2015	11	5	2015-11-05T10:15			Fair	Asia	Japan	"Center of Lake Suwa, Nagano"	36.05		138.0861111														14.5	13.3	7.5	8.3	19.5			8			"Greenish brown_light"																			2018/5/11	2019/8/5
PRA000068	SAA003800	ST015				Shizuoka_w1_2015	Water	"River water"	2015	10	27	2015-10-27T13:00			Fair	Asia	Japan	"Riv. Tenryu (Iwata City), Shizuoka"	34.67916667		137.7961111														25.8	19.1	7.6	11.6	12			5			Clear																			2018/05/08	2019/07/19
PRA000068	SAA003802	ST014				Aichi_w2_2015	Water	"Sea water"	2015	10	27	2015-10-27T12:26			Cloudy	Asia	Japan	"Nagoya Port, West of Shiomi Wharf, Aichi"	35.07111111		136.8691667														22.6	24.3	7.7	4.9	4,100			4		2.5	"Light green"																			2018/5/8	2019/7/19
PRA000068	SAA003805	ST014				Mie_w1_2015	Water	"Sea water"	2015	10	21	2015-10-21T10:30			Fair	Asia	Japan	"Yokkaichi Port, Mie"	34.94944444		136.6530556														26	20.8	8.3	9.6	3,980			1		2	"Blue green_dark"																			2018/5/8	2019/7/19
PRA000068	SAA003928	ST015				Shiga_w3_2015	Water	"River water"	2015	10	20	2015-10-20T11:10			Fair	Asia	Japan	"Lake Biwa (center, offshore of Karasaki), Shiga"	35.04611111		135.8955556														23.6	20.5	8	9.7	113.8			1		3	Green_dark																			2018/05/11	2019/08/05
PRA000068	SAA003808	ST014				Kyoto_w1_2015	Water	"Sea water"	2015	10	23	2015-10-23T10:13			Fair	Asia	Japan	"Miyazu Port, Kyoto"	35.58305556		135.2138889														18.6	20.9	8.5	7.3				5		10	Clear																			2018/5/8	2019/7/19
PRA000068	SAA003929	ST015				KyotoCity_w1_2015	Water	"River water"	2015	11	30	2015-11-30T10:00			Fair	Asia	Japan	"Miyamae-bashi Bridge, Riv. Katsura (Kyoto City), Kyoto"	34.905		135.7125														11	9	7.2	9.5	20.5			1			Clear																			2018/05/11	2019/08/05
PRA000068	SAA003809	ST015				Osaka_w1_2015	Water	"River water"	2015	11	19	2015-11-19T09:35			Cloudy	Asia	Japan	"Mouth of Riv. Yamato (Sakai City), Osaka"	34.60833333		135.4325														17.3	17.1	7.8	7.8				14		0.7	"Yellowish brown"																			2018/05/08	2019/08/02
PRA000068	SAA003811	ST014				OsakaCity_w2_2015	Water	"Sea water"	2015	10	27	2015-10-27T09:00			Fair	Asia	Japan	"Osaka Port, Osaka"	34.65861111		135.4313889														23	20.6	8.1	6.8	3,110			0		3.3	"Light grayish yellow"																			2018/5/8	2019/7/19
PRA000068	SAA003814	ST014				Hyogo_w3_2015	Water	"Sea water"	2015	10	22	2015-10-22T11:20			Cloudy	Asia	Japan	"Offshore of Himeji, Hyogo"	34.76194444		134.6697222														21.3	23.3	8.2	7.2	4,480			9		3.8	"Greenish brown"																			2018/5/8	2019/7/19
PRA000068	SAA003844	ST014				Kobe_w1_2015	Water	"Sea water"	2015	11	20	2015-11-20T09:46			Fair	Asia	Japan	"Center of Kobe Port, Hyogo"	34.66444444		135.1944444														17	18.5	7.9	7.6				1		7.5	Green																			2018/5/8	2019/8/2
PRA000068	SAA003815	ST015				Wakayama_w1_2015	Water	"River water"	2015	11	16	2015-11-16T12:30			Fair	Asia	Japan	"Kinokawa-ohashi Bridge, Mouth of Riv. Kinokawa (Wakayama City), Wakayama"	34.23		135.1561111														23.4	20.8	7.6	8.5	1,900			"<1 "		1.2	"Grayish yellow green"																			2018/5/8	2019/7/19
PRA000068	SAA003817	ST014				Okayama_w2_2015	Water	"Sea water"	2015	11	4	2015-11-04T10:00			Fair	Asia	Japan	"Offshore of Mizushima, Okayama"	34.48055556		133.665														18.5	19.5	7.9	7.3				2		5	"Dark green"																			2018/5/8	2019/7/19
PRA000068	SAA003930	ST014				Hiroshima_w2_2015	Water	"Sea water"	2015	11	4	2015-11-04T09:51			Fair	Asia	Japan	"Kure Port, Hiroshima"	34.23361111		132.5391667														17.5	20.2	8	6.7				2		7	Verdigris_dark																			2018/5/11	2019/8/5
PRA000068	SAA003931	ST014				Hiroshima_w3_2015	Water	"Sea water"	2015	11	4	2015-11-04T11:26			Fair	Asia	Japan	"Hiroshima Bay (Hiroshima City), Hiroshima"	34.34833333		132.4225														18.7	20.2	8	6.8				2		6	Verdigris_dark																			2018/05/11	2019/08/05
PRA000068	SAA003820	ST014				Yamagachi_w1_2015	Water	"Sea water"	2015	10	7	2015-10-07T10:41			Fair	Asia	Japan	"Tokuyama Bay, Yamaguchi"	33.99361111		131.7505556														24.9	23.4	8.2	8				0		5	"Blue green"																			2018/5/8	2019/7/19
PRA000068	SAA003932	ST014				Yamaguchi_w3_2015	Water	"Sea water"	2015	11	16	2015-11-16T12:50			Fair	Asia	Japan	"Offshore of Ube, Yamaguchi"	33.915		131.1975														19.4	18.9	8.2	7.5				2		3	Green_dark																			2018/5/11	2019/8/5
PRA000068	SAA003821	ST014				Yamaguchi_w2_2015	Water	"Sea water"	2015	10	22	2015-10-22T10:30			Cloudy	Asia	Japan	"Offshore of Hagi, Yamaguchi"	34.43805556		131.3794444														21	21.5	8.2	7				1		13	"Blue green"																			2018/5/8	2019/7/19
PRA000068	SAA003933	ST015				Tokushima_w1_2015	Water	"River water"	2015	10	27	2015-10-27T09:48			Fair	Asia	Japan	"Mouth of Riv. Yoshino (Tokushima City), Tokushima"	34.085		134.5913889														21.4	20	8	7.2	4100			7		2.5	Green_light																			2018/05/11	2019/08/05
PRA000068	SAA003822	ST014				Kagawa_w1_2015	Water	"Sea water"	2015	10	13	2015-10-13T09:05			Fair	Asia	Japan	"Takamatsu Port, Kagawa"	34.34972222		134.0788889														21.7	22.7	8	6.2				2		2	Green																			2018/5/8	2019/7/19
PRA000068	SAA003934	ST015				Kochi_w2_2015	Water	"River water"	2015	10	14	2015-10-14T08:24			Fair	Asia	Japan	"Mouth of Riv. Shimanto (Shimanto City), Kochi"	32.93777778		132.8441667														17	17.3	7.5	7.9	2890			5		4	Clear																			2018/05/11	2019/08/05
PRA000068	SAA003826	ST014				KitakyushuCity_w1_2015	Water	"Sea water"	2015	10	20	2015-10-20T09:20			Fair	Asia	Japan	"Dokai Bay, Fukuoka"	33.90388889		130.8158333														22.2	21.4	8.2	9.6	4,660			1		3.5	Clear																			2018/5/8	2019/7/19
PRA000068	SAA003935	ST014				Saga_w1_2015	Water	"Sea water"	2015	10	29	2015-10-29T10:23			Fair	Asia	Japan	"Imari Bay, Saga"	33.34		129.8208333														20	20.5	8.1	7.5				37		2.7	"Grayish green"																			2018/5/11	2019/8/5
PRA000068	SAA003936	ST014				Nagasaki_w1_2015	Water	"Sea water"	2015	12	2	2015-12-02T09:15			Cloudy	Asia	Japan	"Omura Bay, Nagasaki"	32.98833333		129.8522222														14.5	18.1	5.2	8.2				5		5.2	"Blue green"																			2018/5/11	2019/8/5
PRA000068	SAA003937	ST015				Kumamoto_w1_2015	Water	"River water"	2015	11	26	2015-11-26T14:33			Cloudy	Asia	Japan	"Hiraki-bashi Bridge, Riv. Midori (Uto City), Kumamoto"	32.71638889		130.6422222														9.8	15.2	7.4	9.1	290			22			Brown_light																			2018/05/11	2019/08/05
PRA000068	SAA003938	ST015				Miyazaki_w3_2015	Water	"River water"	2015	10	14	2015-10-14T11:58			Fair	Asia	Japan	"Mouth of Riv. Oyodo (Miyazaki City), Miyazaki"	31.89611111		131.4402778														24.5	21.6	7.8	8.2				<1			Clear																			2018/05/11	2019/08/05
PRA000068	SAA003939	ST015				Kagoshima_w1_2015	Water	"River water"	2015	11	10	2015-11-10T12:20			Fair	Asia	Japan	"Shinkawa-bashi Bridge, Riv. Amori (Kirishima City), Kagoshima"	31.7225		130.7416667														20.4	18	7.7	9.4				3			Clear																			2018/05/11	2019/08/05
PRA000068	SAA003940	ST015				Kagoshima_w2_2015	Water	"River water"	2015	11	12	2015-11-12T11:40			Cloudy	Asia	Japan	"Gotanda-bashi Bridge, Riv. Gotanda (Ichikikushikino City), Kagoshima"	31.72583333		130.2769444														22.1	18.1	7.6	9.4				7			Clear																			2018/05/11	2019/08/05
PRA000068	SAA003941	ST014				Okinawa_w1_2015	Water	"Sea water"	2015	10	29	2015-10-29T09:50			Fair	Asia	Japan	"Naha Port, Okinawa"	26.21222222		127.665														24.8	25.8	8	6.1	5200			1			Clear																			2018/5/11	2019/8/5
PRA000068	SAA003942	ST024				Hokkaido_sed1-123_2015	Sediment	"River sediment"	2015	9	15	"2015-09-15T12:40; T12:40; T12:40"			Fair	Asia	Japan	"Onnnenai-ohashi Bridge, Riv. Teshio (BifukaTown), Hokkaido"	44.59138889		142.3063889														"20.0; 20.0; 20.0"											"22.0; 22.0; 22.0"	"0.2; 0.2; 0.2"		Brown		Odorless	None	"42.6; 55.6; 25.4 (Each) / 37.5 (Mixed)"	"7.3; 9.2; 3.2 (Each) / 4.2 (Mixed)"									"n=3 pooled"	2018/05/11	2019/08/08
PRA000068	SAA003943	ST024				Hokkaido_sed2-123_2015	Sediment	"River sediment"	2015	11	10	"2015-11-10T10:10; T10:23; T10:45"			Cloudy	Asia	Japan	"Ishikarikakokyo Bridge, Mouth of Riv. Ishikari (Ishikari City), Hokkaido"	43.22861111		141.3519444														"1.4; 2.0; 0.7"	"6.9; 6.9; 6.9"										"10.0; 12.0; 12.0"	"4.9; 5.0; 5.0"		Brown		Odorless		"63.8; 31.0; 57.9 (Each) / 49.6 (Mixed)"	"11.2; 4.8; 10.0 (Each) / 6.9 (Mixed)"									"n=3 pooled"	2018/05/11	2019/08/08
PRA000068	SAA003944	ST023				Hokkaido_sed3-123_2015	Sediment	"Marine sediment"	2015	9	17	"2015-09-17T11:10; T10:50; T11:00"			Fair	Asia	Japan	"Tomakomai Port, Hokkaido"	42.63138889		141.6288889														"23.5; 23.5; 22.9"											"20.0; 18.0; 20.0"	"13.7; 14.0; 14.6"		Black		"Hydrogen sulfide odor_Strong"		"51.6; 61.9; 48.9 (Each) / 48.8 (Mixed)"	"6.6; 9.2; 6.4 (Each) / 4.8 (Mixed)"									"n=3 pooled"	2018/5/11	2019/8/8
PRA000068	SAA003945	ST024				Iwate_sed1-123_2015	Sediment	"River sediment"	2015	10	14	"2015-10-14T10:12; T11:30; T11:30"			Cloudy	Asia	Japan	"Riv. Toyosawa (Hanamaki City), Iwate"	39.38166667		141.1191667														"11.1; 12.7; 12.7"	"13.3; 13.2; 13.2"										"14.2; 12.6; 12.6"	"0.2; 0.2; 0.2"	Sandy	Brown_light		Odorless	"Vegetative pieces"	"21.5; 20.8; 23.0 (Each) / 16.7 (Mixed)"	"1.4; 1.3; 1.5 (Each) / 1.5 (Mixed)"									"n=3 pooled: SAA003848, SAA003849 and SAA003850"	2018/05/11	2019/08/08
PRA000068	SAA003946	ST023				Miyagi_sed1_123_2015	Sediment	"Marine sediment"	2015	10	19	"2015-10-19T10:10; T10:40; T11:00"			Fair	Asia	Japan	"Sendai Bay (Matsushima Bay), Miyagi"	38.35333333		141.0975														"19.3; 19.4; 19.7"	"17.2; 16.8; 16.9"								"2.5; 2.5; 2.5"		"17.1; 16.8; 172"	"5.8; 6.4; 4.7"	Muddy	"Grayish green"		Odorless	"None; None; Shell"	"NA / 70.3 (Mixed)"	"NA / 9.9 (Mixed)"									"n=3 pooled"	2018/5/11	2019/8/8
PRA000068	SAA003947	ST024				Sendai_sed1_123_2015	Sediment	"River sediment"	2015	11	11	"2015-11-11T10:40; 10:10; 10:25"			Fair	Asia	Japan	"Hirose-ohashi Bridge, Riv. Hirose (Sendai City), Miyagi"	38.21333333		140.9088889														"14.8; 14.8; 14.8"	"12.9; 12.9; 12.9"										"13.0; 14.0; 13.0"	"0.2; 0.3; 0.4"	Sandy	Brown_light		"Swampy odor_Faint"	None	"12.8; 13.8; 13.0 (Each) / 12.2 (Mixed)"	"1.4; 1.6; 1.2 (Each) / 0.7 (Mixed)"									"n=3 pooled"	2018/05/11	2019/08/08
PRA000068	SAA003948	ST024				Akita_sed2-123_2015	Sediment	"Lake sediment"	2015	10	16	"2015-10-16T10:29; T10:18; T10:50"			Fair	Asia	Japan	"Lake Hachiro, Akita"	39.92277778		139.9988889														"22.8; 17.2; 19.2"	"14.6; 14.3; 14.4"								"0.5; 0.5; 0.6"		"14.7; 14.5; 14.7"	"8.4; 7.9; 3.4"	Muddy	"Grayish black_light"		"Hydrogen sulfide odor_Faint"	None	"81.0; 59.1; 80.3 (Each) / 10.9; 43; 11.2 (Mixed)"	"10.9; 4.3; 11.2 (Each) / 5.5 (Mixed)"									"n=3 pooled"	2018/5/11	2019/8/8
PRA000068	SAA003949	ST024				Yamagata_sed1-123_2015	Sediment	"River sediment"	2015	11	19	"2015-11-19T09:50; T09:50; T09:50"			Cloudy	Asia	Japan	"Mouth of Riv. Mogami (Sakata City), Yamagata"	38.88722222		139.8433333														"11.6; 11.6; 11.6"	"14.0; 14.0; 14.0"										"12.2; 12.2; 12.2"	"0.3; 0.3; 0.3"	Muddy	"Grayish black"		"Swampy odor_Faint"	"Leaf; Tree branch"	"34.6; 34.6; 34.6 (Each) / 36.6 (Mixed)"	"4.2; 4.2; 4.2 (Each) / 3.1 (Mixed)"									"n=3 pooled"	2018/05/11	2019/08/08
PRA000068	SAA003950	ST023				Fukushima_sed1-123_2015	Sediment	"Marine sediment"	2015	11	12	"2015-11-12T10:15; T10:55; T11:10"			Fair	Asia	Japan	"Onahama Port, Fukushima"	36.92472222		140.8752778														"13.7; 14.5; 13.5"	"16.7; 16.0; 17.3"								"2.0; 2.0; 2.9"		"15.7; 16.5; 16.2"	"11.7; 12.8; 12.7"	Muddy	"Grayish green"		"Seaweed odor"	None	"46.5; 52.5; 52.5 (Each) / 55.8 (Mixed)"	"8.0; 10.8; 10.9 (Each) / 7.8 (Mixed)"									"n=3 pooled"	2018/5/11	2019/8/8
PRA000068	SAA003951	ST024				Ibaraki_sed1-123_2015	Sediment	"River sediment"	2015	11	17	"2015-11-17T10:30; T10;48; T11:20"			Fair	Asia	Japan	"Kamome-ohashi Bridge, Mouth of Riv. Tone (Kamisu City), Ibaraki"	35.77638889		140.7569444														"22.8; 21.5; 23.0"	"18.0; 17.5; 17.5"								"0.5; 0.8; 0.8"			"1.5; 5.4; 2.4"	"Sandy mud; Mud; Sand"	Black		"Swampy odor;"	"Reed; None; Shellfish"	"33.0; 47.0; 16.0 (Each) / 34.5 (Mixed)"	"4.0; 7.8; 1.1 (Each) / 2.8 (Mixed)"									"n=3 pooled: SAA003854, SAA003855 and SAA003856"	2018/05/11	2019/08/08
PRA000068	SAA003952	ST024				Tochigi_sed1-123_2015	Sediment	"River sediment"	2015	10	14	"2015-10-14T10:10; T11:20; T11:45"			Fair	Asia	Japan	"Tagawa area-Toshuko Weir (Utsunomiya City), Tochigi"	36.52805556		139.8855556														"18.0; 17.5; 19.0"	"16.0; 16.5; 17.5"										"17.0; 17.0; 17.0"	"0.2; 0.4; 0.2"	Pebbles	Brown		"River weed odor"		"NA / 19.1 (Mixed)"	"NA / 1.0 (Mixed)"									"n=3 pooled"	2018/05/11	2019/08/08
PRA000068	SAA003953	ST023				Chiba_sed1-123_2015	Sediment	"Marine sediment"	2015	10	29	"2015-10-29T09:38; T09:54; T10:08"			Drizzle	Asia	Japan	"Ichihara-Anesaki Coast, Chiba"	35.52166667		140.0283333														"17.4; 17.2; 17.4"	"19.8; 19.8; 20.1"								"4.9; 5.1; 5.2"		"19.1; 19.1; 19.2"	"14.9; 15.8; 16.6"	Silt	"Grayish black; Grayish green"		"Hydrogen sulfide odor_Strong"	"None; Shell; None"	"72.6; 47.1; 75.3 (Each) / 74.7 (Mixed)"	"12.5; 6.8; 13.5 (Each) / 8.2 (Mixed)"									"n=3 pooled: SAA003857, SAA003858 and SAA003859"	2018/5/11	2019/8/8
PRA000068	SAA003954	ST024				ChibaCity_sed1-123_2015	Sediment	"River sediment"	2015	10	22	"2015-10-22T11:10; T11:40; T10:10"			Fair	Asia	Japan	"Mouth of Riv. Hanami (Chiba City), Chiba"	35.63472222		140.04694440														"22.0; 22.0; 20.8"	"21.4; 21.0; 21.5"										"21.0; 21.0; 20.8"	"1.8; 1.8; 1.3"	Muddy	"Grayish black_dark"		"seaweed odor"	"Shellfish; Leaf"	"35.8; 27.5; 28.2 (Each) / 26.9 (Mixed)"	"4.9; 2.3; 2.9 (Each) / 2.2 (Mixed)"									"n=3 pooled"	2018/05/11	2019/08/08
PRA000068	SAA003955	ST024				Tokyo_sed1-123_2015	Sediment	"River sediment"	2015	11	12	"2015-11-12T10:25; T11:10; T11:40"			Fair	Asia	Japan	"Mouth of Riv. Arakawa (Koto Ward), Tokyo"	35.64583333		139.8463889														"15.1; 14.7; 14.8"	"17.8; 18.0; 18.0"								"0.7; 0.8; 0.9"		"18.5; 18.2; 18.2"	"2.8; 2.5; 2.0"	Silt	Black		Odorless	"Hard clam; Shell"	"46.2; 40.8; 51.4 (Each) / 54.3 (Mixed)"	"7.9; 7.2; 9.0 (Each) / 7.3 (Mixed)"									"n=3 pooled: SAA003860, SAA003861 and SAA003862"	2018/05/11	2019/08/08
PRA000068	SAA003956	ST024				Tokyo_sed2-123_2015	Sediment	"River sediment"	2015	11	12	"2015-11-12T12:45; T13:25; T13:45"			Fair	Asia	Japan	"Mouth of Riv. Sumida (Minato Ward), Tokyo"	35.66		139.7705556														"16.0; 15.0; 14.7"	"19.2; 19.6; 19.4"								"2.0; 2.0; 2.0"		"20.0; 19.8; 19.8"	"6.7; 5.1; 3.7"	Silt	Black		"Hydrogen sulfide odor"	"Shell; Vegetative pieces; None"	"64.1; 46.4; 58.0 (Each) / 13.6; 8.6; 11.3 (Mixed)"	"13.6; 8.6; 11.3 (Each) / 10.4 (Mixed)"									"n=3 pooled: SAA003863, SAA003864 and SAA003865"	2018/05/11	2019/08/08
PRA000068	SAA003957	ST023				Yokohama_sed1-123_2015	Sediment	"Marine sediment"	2015	10	22	"2015-10-22T10:50; T09:50; T11:10"			Fair	Asia	Japan	"Yokohama Port, Kanagawa"	35.45555556		139.6636111														"25.0; 21.3; 24.0"	"24.5; 23.4; 21.5"								"1.0; 1.3; 2.8"		"19.0; 19.0; 19.0"	"12.0; 12.0; 11.5"	Sludge	Black		"Hydrogen sulfide odor_Faint"	None	"75.0; 78.0; 65.2 (Each) / 69.3 (Mixed)"	"10.7; 11.6; 7.9 (Each) / 8.5 (Mixed)"									"n=3 pooled: SAA003866, SAA003867 and SAA003868"	2018/5/11	2019/8/8
PRA000068	SAA003958	ST024				KawasakiCity_sed1-123_2015	Sediment	"River sediment"	2015	11	17	"2015-11-17T11:24; T10:48; T11:08"			Fair	Asia	Japan	"Mouth of Riv. Tama (Kawasaki City), Kanagawa"	35.53		139.7836111														"23.2; 24.2; 22.2"	"18.6; 18.4; 18.5"								"3.4; 2.3; 3.1"		"19.1; 19.2; 19.1"	"5.0; 3.1; 2.8"	Mud	"Black; Greenish black; Grayish green"		"Hydrogen sulfide odor_Faint"	"Vegetative pieces; Shellfish; Shell"	"42.9; 32.2; 42.5 (Each) / 49.7 (Mixed)"	"10.4; 6.5; 11.3 (Each) / 7.5 (Mixed)"									"n=3 pooled"	2018/05/11	2019/08/08
PRA000068	SAA003959	ST023				KawasakiCity_sed2-123_2015	Sediment	"Marine sediment"	2015	11	17	"2015-11-17T11:54; T12;19; T12:35"			Fair	Asia	Japan	"Keihin Canal, Kawasaki Port, Kanagawa  (front of Ogimachi)"	35.49527778		139.7277778														"22.4; 22.5; 22.7"	"19.3; 19.2; 19.1"								"7.5; 6.3; 6.0"		"19.2; 19.2; 18.9"	"15.6; 14.7; 14.0"	"Clay; Mud; Sandy mud"	"Grayish green_Dark; Greenish black; Grayish green"		"Odorless; Hydrogen sulfide odor"	"Shellfish; Pebble; vinyl; Vegetative pieces"	"44.1; 65.1; 55.3 (Each) / 64.6 (Mixed)"	"7.2; 13.0; 10.3 (Each) / 7.3 (Mixed)"									"n=3 pooled"	2018/05/11	2019/08/08
PRA000068	SAA003960	ST024				Niigata_sed1-123_2015	Sediment	"River sediment"	2015	10	14	"2015-10-14T10:30; T10:30; T10:15"			Fair	Asia	Japan	"Downstream of Riv. Shinano (Niigata City), Niigata"	37.88305556		139.0155556														"18.5; 18.5; 18.5"	"15.9; 15.9; 15.9"										"16.2; 15.7; 15.5"	"2.4; 4.8; 3.8"	"Muddy; Sandy mud"	"Grayish brown"		"Odorless; Odorless; Earthy odor_Faint"	"Leaf; Tree branch"	"68.6; 34.3; 27.6 (Each) / 32.8 (Mixed)"	"10.1; 2.6; 1.8 (Each) / 3.1 (Mixed)"									"n=3 pooled: SAA003869, SAA003870 and SAA003871"	2018/05/11	2019/08/08
PRA000068	SAA003961	ST024				Toyama_sed1-123_2015	Sediment	"River sediment"	2015	10	21	"2015-10-21T09:26; T10:08; T10:53"			Cloudy	Asia	Japan	"Hagiura-bashi Bridge, Mouth of Riv. Jintsu (Toyama City), Toyama"	36.745		137.2180556														"18.3; 18.3; 18.3"	"16.0; 16.0; 16.0"										"15.6; 16.0; 16.0"	"0.8; 0.4; 1.0"	"Sandy mud; Sandy mud; Sandy"	"Grayish black; Brown; Brown"		"Hydrogen sulfide odor_Faint; Hydrogen sulfide odor_Faint; Odorless"	"Stem; Leaf; Stick; Pebble"	"33.0; 29.0; 18.0 (Each) / 36.7 (Mixed)"	"4.4; 3.0; 1.0 (Each) / 3.7 (Mixed)"									"n=3 pooled"	2018/05/11	2019/08/08
PRA000068	SAA003962	ST024				Ishikawa_sed1-123_2015	Sediment	"River sediment"	2015	11	5	"2015-11-05T10:30; T11:20; T12:15"			Fair	Asia	Japan	"Mouth of Riv. Sai (Kanazawa City), Ishikawa"	36.60027778		136.5888889														"21.0; 21.5; 23.2"	"15.4; 15.5; 16.8"											"3.1; 1.7; 0.5"	"Silt; Sand"	"Grayish green; Grayish green; Backish brown"		"Fish rotten odor_Faint; Fish rotten odor_Faint; Earthy odor_Faint"	"Pebble; Shell"	"32.5; 34.3; 23.5 (Each) / 31.3 (Mixed)"	"4.9; 5.2; 2.3 (Each) / 3.0 (Mixed)"									"n=3 pooled"	2018/05/11	2019/08/08
PRA000068	SAA003963	ST024				Fukui_sed1-123_2015	Sediment	"River sediment"	2015	11	11	"2015-11-11T11:10; T11:10; T11:10"			Fair	Asia	Japan	"Mishima-bashi Bridge, Riv. Shono (Tsuruga City), Fukui"	35.6475		136.0627778														"17.0; 17.0; 17.0"	"19.0; 19.0; 19.0"										"13.0; 13.0; 13.0"	"0.2; 0.2; 0.2"	Sandy	Brown		Odorless	Pebble	"20.1; 20.6; 19.2 (Each) / 20.0 (Mixed)"	"0.9; 0.8; 1.0 (Each) / 0.5 (Mixed)"									"n=3 pooled"	2018/05/11	2019/08/08
PRA000068	SAA003964	ST024				Yamanashi_sed1-123_2015	Sediment	"River sediment"	2015	10	19	"2015-10-19T10:30; T10:00; T09:30"			Fair	Asia	Japan	"Chiaki-bashi Bridge, Riv. Ara (Kofu City), Yamanashi"	35.6475		138.5655556														"20.0; 21.5; 19.5"	"16.2; 17.6; 18.4"										"17.5; 18.0; 18.8"	"0.6; 0.3; 0.3"	"Sand; Pebble; Sand"	Gray		"River weed odor"	"None; Sand; Pebble"	"20.3; 12.6; 18.3 (Each) / 15.5 (Mixed)"	"5.4; 1.0; 1.0 (Each) / 0.7 (Mixed)"									"n=3 pooled"	2018/05/11	2019/08/08
PRA000068	SAA003965	ST024				Nagano_sed1-123_2015	Sediment	"Lake sediment"	2015	11	5	"2015-11-05T10:15; T11:10; T11:55"			Fair	Asia	Japan	"Center of Lake Suwa, Nagano"	36.05		138.0861111														"14.5; 15.9; 18.0"	"13.3; 13.5; 13.6"								"0.9; 1.1; 0.9"		"13.0; 13.0; 13.2"	"6.3; 5.9; 6.0"	Muddy	"Blackish brown_Dark"		"Swampy odor_Faint"	None	"NA / 86.6 (Mixed)"	"NA / 11.6 (Mixed)"									"n=3 pooled: SAA003872, SAA003873 and SAA003874 "	2018/5/11	2019/8/8
PRA000068	SAA003966	ST023				Shizuoka_sed1-123_2015	Sediment	"Marine sediment"	2015	10	1	"2015-10-01T09:40; T10:00; T10:15"			Cloudy	Asia	Japan	"Shimizu Port, Shizuoka"	35.02416667		138.5161111														"20.0; 21.0; 21.0"	"22.7; NA; NA"								"2.5; NA; NA"		"23.1; 23.4; 23.6"	"25.6; 17.7; 16.3"	"Sand; Clay"	"Grayish black_dark"		"Seaweed odor"	Shellfish	"40.4; 30.8; 33.3 (Each) / 31.6 (Mixed)"	"7.1; 5.6; 5.8 (Each) / 3.8 (Mixed)"									"n=3 pooled: SAA003875, SAA003876 and SAA003877"	2018/5/11	2019/8/8
PRA000068	SAA003967	ST024				Shizuoka_sed3-123_2015	Sediment	"River sediment"	2015	10	27	"2015-10-27T13:30; T14:00; T14:30"			Fair	Asia	Japan	"Riv. Tenryu (Iwata City), Shizuoka"	34.67916667		137.7961111														"27.8; 25.9; 25.4"	"19.1; NA; NA"										"18.0; 20.0; 18.8"	"0.3; 0.2; 0.4"	"Clay & Sand; Sand; Sand"	"Grayish black"		Odorless	"Pebble; Humic substance"	"26.3; 18.2; 24.9 (Each) / 19.9 (Mixed)"	"2.5; 1.0; 2.2 (Each) / 1.5 (Mixed)"									"n=3 pooled"	2018/05/11	2019/08/16
PRA000068	SAA003968	ST023				Aichi_sed2-123_2015	Sediment	"Marine sediment"	2015	10	27	"2015-10-27T10:00; T10:05; T10:10"			Cloudy	Asia	Japan	"Kinuura Port, Aichi"	34.84166667		136.9486111														"19.5; 19.5; 19.5"	"21.9; 21.9; 21.9"								"3.0; 3.0; 3.0"		"21.0; 21.0; 21.0"	"13.5; 13.5; 13.5"	Muddy	"Grayish black"		"Hydrogen sulfide odor"	None	"56.4; 56.7; 57.9 (Each) / 65.1 (Mixed)"	"9.9; 10.1; 10.2 (Each) / 8.8 (Mixed)"									"n=3 pooled"	2018/5/11	2019/8/16
PRA000068	SAA003969	ST023				Aichi_sed2-123_2015	Sediment	"Marine sediment"	2015	10	27	"2015-10-27T12:02; T12:07; T12:12"			Cloudy	Asia	Japan	"Nagoya Port, Aichi"	35.07111111		136.8691667														"21.8; 21.8; 21.8"	"22.3; 22.3; 22.3"								"2.5; 2.5; 2.5"		"22.0; 22.0; 22.0"	"15.0; 15.0; 15.0"	Muddy	"Grayish black"		"Hydrogen sulfide odor"	None	"42.6; 42.7; 42.9 (Each) / 57.8 (Mixed0"	"6.9; 7.0; 6.9 (Each) / 6.1 (Mixed)"									"n=3 pooled"	2018/5/11	2019/8/16
PRA000068	SAA003970	ST023				Mie_sed1-123_2015	Sediment	"Marine sediment"	2015	10	21	"2015-10-21T10:30; T10:50; T11:10"			Fair	Asia	Japan	"Yokkaichi Port, Mie"	34.94944444		136.6530556														"26.0; 23.0; 24.1"	"20.8; 20.8; 20.8"								"2.0; 2.0; 2.0"		"22.0; 22.0; 22.0"	"12.8; 11.2; 7.4"	Muddy	"Grayish black"		"Hydrogen sulfide odor_Faint"	None	"59.0; 56.0; 47.0 (Each) / 61.7 (Mixed)"	"10.0; 9.8; 7.7 (Each) / 6.8 (Mixed)"									"n=3 pooled: SAA003884, SAA003885 and SAA003886"	2018/5/11	2019/8/16
PRA000068	SAA003971	ST023				Mie_sed2-123_2015	Sediment	"Marine sediment"	2015	10	27	"2015-10-27T10:30; T10:50; T11:30"			Fair	Asia	Japan	"Toba Port, Mie"	34.48083333		136.8486111														"21.0; 21.5; 22.0"	"19.2; 20.0; 20.0"								"3.5; 2.8; 3.5"		"20.0; 20.0; 20.0"	"7.0; 6.0; 5.3"	"Muddy; Sandy mud; Sandy mud"	"Yellowish brown"		"Smell of the sea"	"None; Shell; Shell"	"53.0; 37.0; 36.0 (Each) / 48.0 (Mixed)"	"16.0; 8.1; 7.7 (Each) / 8.9 (Mixed)"									"n=3 pooled"	2018/5/11	2019/8/16
PRA000068	SAA003972	ST024				Shiga_sed1-123_2015	Sediment	"Lake sediment"	2015	10	20	"2015-10-20T09:45; T10:00; T10:10"			Fair	Asia	Japan	"Lake Biwa (center, offshore of Minamihira), Shiga"	35.18527778		135.9733333														"20.7; 20.7; 20.8"	"19.9; 20.3; 19.8"								"5.8; 5.9; 4.1"		"8.5; 9.1; 9.0"	"58.6; 52.2; 49.0"	Muddy	"Grayish black"		"Swampy odor"	None	"72.5; 70.5; 69.6 (Each) / 80.5 (Mixed)"	"10.7; 10.5; 10.5 (Each) / 9.8 (Mixed)"									"n=3 pooled: SAA003887, SAA003888 and SAA003889"	2018/05/11	2019/08/16
PRA000068	SAA003973	ST024				Shiga_sed2-123_2015	Sediment	"Lake sediment"	2015	10	20	"2015-10-20T11:00; T11:10; T11:40"			Fair	Asia	Japan	"Lake Biwa (center, offshore of Karasaki), Shiga"	35.04611111		135.8955556														"19.7; 23.6; 24.0"	"20.0; 20.5; 19.6"								"2.7; 3.0; 2.7"		"20.4; 20.9; 20.6"	"2.7; 3.0; 2.7"	Muddy	"Grayish black"		"Swampy odor"	waterweed	"67.3; 70.3; 64.6 (Each) / 76.7 (Mixed)"	"10.3; 11.1; 9.8 (Each) / 9.7 (Mixed)"									"n=3 pooled"	2018/5/11	2019/8/16
PRA000068	SAA003974	ST023				Kyoto_sed1-123_2015	Sediment	"Marine sediment"	2015	10	23	"2015-10-23T09:52; T10:13; T10:43"			Fair	Asia	Japan	"Miyazu Port, Kyoto"	35.58305556		135.2138889														"19.5; 18.6; 20.7"	"20.9; 20.9; 20.7"								"9.0; 10.0; 9.0"		"20.0; 20.5; 20.0"	"12.0; 22.6; 22.2"	Muddy	"Grayish black"		"Seaweed odor"	None	"25.6; 52.8; 56.3 (Each) / 2.5; 9.0; 9.3 (Mixed)"	"2.5; 9.0; 9.3 (Each) / 4.8 (Mixed)"									"n=3 pooled: SAA003890, SAA003891 and SAA003892"	2018/5/11	2019/8/16
PRA000068	SAA003975	ST024				KyotoCity_sed1-123_2015	Sediment	"River sediment"	2015	11	30	"2015-11-30T10:20; T10:40; T11:00"			Fair	Asia	Japan	"Miyamae-bashi Bridge, Riv. Katsura (Kyoto City), Kyoto"	34.905		135.7125														"11.0; 11.0; 11.0"	"9.0; 9.0; 9.0"										"9.5; 9.0; 10.0"	"0.7; 0.7; 0.6"	Sandy	"Grayish brown"		Odorless	None	"18.2; 14.4; 17.6 (Each) / 16.4 (Mixed)"	"0.9; 1.0; 1.0 (Each) / 0.8 (Mixed)"									"n=3 pooled"	2018/05/11	2019/08/16
PRA000068	SAA003976	ST024				Osaka_sed1-123_2015	Sediment	"River sediment"	2015	11	19	"2015-11-19T08:58; T09:35; T10:25"			Cloudy	Asia	Japan	"Mouth of Riv. Yamato (Sakai City), Osaka"	34.60833333		135.4325														"17.3; 17.3; 17.4"	"17.2; 17.1; 17.9"								"0.7; 0.7; 0.7"		"20.5; 20.1; 20.7"	"3.7; 3.3; 3.5"	Mud	Black		"Hydrogen sulfide odor_Strong"	"Vegetative pieces"	"74.9; 76.4; 63.7 (Each) / 69.8 (Mixed)"	"14.6; 15.1; 9.6 (Each) / 11.9 (Mixed)"									"n=3 pooled: SAA003893, SAA003894 and SAA003895"	2018/05/11	2019/08/16
PRA000068	SAA003977	ST024				OsakaCity_sed2-123_2015	Sediment	"River sediment"	2015	10	28	"2015-10-28T09:30; T10:26; T09:55"			Fair	Asia	Japan	"Kema-bashi Bridge, Riv. Oh (Osaka City), Osaka"	34.717760		135.519610														"21.4; 22.0; 22.0"	"18.7; 18.7; 19.0"										"18.9; 19.0; 18.9"	"2.7; 2.3; 3.8"	"Sludge (Clay)"	"Grayish brown"		"Sewage odor_Faint; Sewage odor; Sewage odor_Faint"	"Pond snail; Pond snail & Bivalves; Bivalves"	"43.8; 47.5; 44.6 (Each) / 57.2 (Mixed)"	"7.7; 9.0; 8.5 (Each) / 8.4 (Mixed)"									"n=3 pooled"	2018/05/11	2019/08/16
PRA000068	SAA003978	ST024				OsakaCity_sed3-123_2015	Sediment	"River sediment"	2015	10	27	"2015-10-27T10:15; T10:05; T09:56"			Fair	Asia	Japan	"Mouth of Riv. Yodo, Osaka"	34.67638889		135.3975														"25.0; 26.0; 25.0"	"21.3; 21.0; 21.2"								"2.7; 3.1; 3.0"		"22.0; 22.0; 22.0"	"6.9; 5.6; 4.9"	"Sludge (Clay)"	Black		"Sewage odor; Sewage odor_Faint; Sewage odor_Faint"	"None; Sticks; None"	"37.0; 40.2; 31.2 (Each) / 49.5 (Mixed)"	"7.6; 8.1; 5.6 (Each) / 7.3 (Mixed)"									"n=3 pooled"	2018/5/11	2019/8/16
PRA000068	SAA003979	ST023				OsakaCity_sed1-123_2015	Sediment	"Marine sediment"	2015	10	27	"2015-10-27T09:23; T09:00; T09:30"			Fair	Asia	Japan	"Osaka Port, Osaka"	34.65861111		135.4313889														"23.0; 23.0; 22.1"	"20.1; 20.6; 20.4"								"3.8; 3.3; 3.9"		"21.8; 22.2; 22.0"	"12.2; 13.0; 13.1"	"Sludge (Clay); Sludge (Clay); Sludge"	Black		"Hydrogen sulfide odor_Faint; Hydrogen sulfide odor_Faint; Hydrogen sulfide odor"	None	"38.7; 39.4; 57.5 (Each) / 64.8 (Mixed)"	"6.8; 7.0; 10.7 (Each) / 8.9 (Mixed)"									"n=3 pooled: SAA003896, SAA003897 and SAA003898"	2018/5/11	2019/8/16
PRA000068	SAA003980	ST023				OsakaCity_sed4-123_2015	Sediment	"Marine sediment"	2015	10	27	"2015-10-27T10:52; T10:43; T10:35"			Fair	Asia	Japan	"Outside of Osaka Port, Osaka"	34.64027778		135.3858333														"24.0; 24.7; 25.0"	"21.1; 21.6; 21.6"								"3.5; 3.2; 3.1"		"20.0; 22.0; 22.4"	"17.1; 12.4; 14.0"	"Sludge (Clay)"	"Grayish black"		"Hydrogen sulfide odor_Faint"	"None; Shell; None"	"52.9; 55.1; 33.8 (Each) / 59.6 (Mixed)"	"8.4; 9.9; 4.6 (Each) / 7.1 (Mixed)"									"n=3 pooled"	2018/5/11	2019/8/16
PRA000068	SAA003981	ST023				Hyogo_sed1-123_2015	Sediment	"Marine sediment"	2015	10	22	"2015-10-22T11:35; T11:04; T10:50"			Cloudy	Asia	Japan	"Offshore of Himeji, Hyogo"	34.76194444		134.6697222														"21.3; 21.5; 22.0"	"23.3; 22.9; 23.1"								"3.8; 3.9; 3.2"		"23.0; 23.5; 23.0"	"9.2; 9.6; 10.7"	Silt	"Grayish green"		"Muddy odor"	None	"NA / 69.2 (Mixed)"	"NA / 9.1 (Mixed)"									"n=3 pooled"	2018/5/11	2019/8/16
PRA000068	SAA003982	ST023				Hyogo_sed2-123_2015	Sediment	"Marine sediment"	2015	11	20	"2015-11-20T09:46; T10:24; T10:43"			Fair	Asia	Japan	"Center of Kobe Port, Hyogo"	34.66444444		135.1944444														"17.0; 16.0; 17.5"	"18.5; 18.5; 18.1"								"7.5; 7.5; 7.5"		"20.0; 19.8; 20.0"	"10.7; 10.4; 13.3"	Silt	"Grayish black"		"Hydrogen sulfide odor_Faint"	None	"48.0; 37.0; 51.0 (Each) / 62.9 (Mixed)"	"9.1; 7.4; 9.0 (Each) / 7.9 (Mixed)"									"n=3 pooled"	2018/5/11	2019/8/16
PRA000068	SAA003983	ST024				Nara_sed1_123_2015	Sediment	"River sediment"	2015	10	19	"2015-10-19T10:30; T10:35; T10:40"			Fair	Asia	Japan	"Taisho-bashi Bridge, Riv. Yamato (Oji town), Nara"	34.58583333		135.6833333														"23.5; 23.5; 23.5"	"20.5; 21.0; 20.5"										"20.0; 21.2; 20.8"	"0.2; 0.1; 0.1"	"Muddy; Sandy; Sandy"	"Blackish brown; Brown; Brown"		"Sewage odor"	None	"24.0; 20.0; 22.0 (Each) / 21.9 (Mixed)"	"1.2; 0.5; 0.6 (Each) / 0.7 (Mixed)"									"n=3 pooled"	2018/05/11	2019/08/16
PRA000068	SAA003984	ST024				Wakayama_sed1-123_2015	Sediment	"River sediment"	2015	11	16	"2015-11-16T13:00; T12:40; T13:10"			Fair	Asia	Japan	"Kinokawa-ohashi Bridge, Mouth of Riv. Kinokawa (Wakayama City), Wakayama"	34.23		135.1561111														"24.3; 23.4; 24.1"	"24.5; 20.8; 20.8"								"1.2; 1.2; 1.2"		"21.3; 23.4; 21.0"	"3.0; 3.2; 3.7"	"Sandy; Sandy; Muddy"	"Gray; Gray; Grayish black"		"Seaweed odor_Faint; Seaweed odor_Faint; Odorless"	"Shellfish; None; None"	"19.7; 21.1; 26.6 (Each) / 25.0 (Mixed)"	"1.9; 2.3; 3.9 (Each) / 2.3 (Mixed)"									"n=3 pooled: SAA003899, SAA003900 and SAA003901"	2018/5/11	2019/8/16
PRA000068	SAA003985	ST023				Okayama_sed1-123_2015	Sediment	"Marine sediment"	2015	11	4	"2015-11-04T11:07; T10:50; T11:32"			Fair	Asia	Japan	"Offshore of Mizushima, Okayama"	34.48055556		133.665														"18.5; 17.0; 18.2"	"20.0; 19.5; 20.0"								"3.0; 3.0; 3.0"		"19.5; 19.8; 19.5"	"8.8; 9.3; 8.1"	"Soft mud"	"Grayish green"		"Earthy odor"	"Small pieces of shell"	"46.9; 48.3; 49.9 (Each) / 47.4 (Mixed)"	"6.2; 6.7; 7.4 (Each) / 5.3 (Mixed)"									"n=3 pooled: SAA003902, SAA003903 and SAA003904"	2018/5/11	2019/8/16
PRA000068	SAA003986	ST023				Hiroshima_sed1-123_2015	Sediment	"Marine sediment"	2015	11	4	"2015-11-04T09:51; T10:20; T10:35"			Fair	Asia	Japan	"Kure Port, Hiroshima"	34.23361111		132.5391667														"17.5; 18.0; 18.5"	"20.2; 20.5; 20.5"								"7.0; 7.5; 7.5"		"20.3; 20.8; 20.2"	"18.0; 18.0; 16.0"	Silt	"Grayish green"		"Hydrogen sulfide odor_Faint; Hydrogen sulfide odor; Hydrogen sulfide odor"	None	"61.3; 55.9; 57.9 (Each) / 70.4 (Mixed)"	"11.4; 11.0; 11.7 (Each) / 9.3 (Mixed)"									"n=3 pooled"	2018/5/11	2019/8/16
PRA000068	SAA003987	ST023				Hiroshima_sed2-123_2015	Sediment	"Marine sediment"	2015	11	4	"2015-11-04T11:26; T11:46; T11:55"			Fair	Asia	Japan	"Hiroshima Bay (Hiroshima City), Hiroshima"	34.34833333		132.4225														"18.7; 22.0; 20.6"	"20.2; 20.3; 20.6"								"6.0; 3.5; 4.0"		"20.9; 21.0; 21.0"	"11.0; 11.0; 13.0"	Silt	"Grayish green"		"Odorless; Odorless; Hydrogen sulfide odor"	None	"56.8; 55.7; 54.7 (Each) / 69.5 (Mixed)"	"11.7; 10.8; 11.2 (Each) / 9.4 (Mixed)"									"n=3 pooled"	2018/05/11	2019/08/16
PRA000068	SAA003988	ST023				Yamaguchi_sed1-123_2015	Sediment	"Marine sediment"	2015	10	7	"2015-10-07T10:41; T10:46; T10:51"			Fair	Asia	Japan	"Tokuyama Bay, Yamaguchi"	33.99361111		131.7505556														"23.0; 23.0; 23.0"	"23.2; 23.2; 23.2"								"4.5; 4.5; 4.5"			"26.2; 29.2; 29.3"		Gray		"Hydrogen sulfide odor_Faint"	None	"55.5; 56.2; 56.4 (Each) / 66.3 (Mixed)"	"10.3; 10.3; 10.4 (Each) / 8.3 (Mixed)"									"n=3 pooled: SAA003905, SAA003906 and SAA003907"	2018/5/11	2019/8/16
PRA000068	SAA003989	ST023				Yamaguchi_sed2-123_2015	Sediment	"Marine sediment"	2015	11	16	"2015-11-16T12:50; T12:55; T13:00"			Fair	Asia	Japan	"Offshore of Ube, Yamaguchi"	33.915		131.1975														"19.4; 19.4; 19.4"	"18.9; 18.9; 18.9"								"3.0; 3.0; 3.0"			"8.5; 8.5; 8.5"		Gray		Odorless	None	"32.8; 32.5; 32.0 (Each) / 37.5 (Mixed)"	"6.0; 6.0; 5.7 (Each) / 3.7 (Mixed)"									"n=3 pooled"	2018/5/11	2019/8/16
PRA000068	SAA003990	ST023				Yamaguchi_sed3-123_2015	Sediment	"Marine sediment"	2015	10	22	"2015-10-22T10:30; T10:35; T10:40"			Cloudy	Asia	Japan	"Offshore of Hagi, Yamaguchi"	34.43805556		131.3794444														"21.0; 21.0; 21.0"	"21.5; 21.5; 21.5"								"13.0; 13.0; 13.0"			"33.0; 33.0; 33.0"		Gray_light		Odorless	None	"28.9; 30.0; 30.8 (Each) / 28.8 (Mixed)"	"5.9; 6.3; 6.3 (Each) / 3.7 (Mixed)"									"n=3 pooled"	2018/5/11	2019/8/16
PRA000068	SAA003991	ST024				Tokushima_sed1-123_2015	Sediment	"River sediment"	2015	10	27	"2015-10-27T09:29; T09:48; T10:20"			Fair	Asia	Japan	"Mouth of Riv. Yoshino (Tokushima City), Tokushima"	34.085		134.5913889														"20.7; 21.4; 22.7"	"19.8; 20.0; 19.7"								"2.5; 2.5; 2.0"		"20.1; 20.8; 20.5"	"6.0; 6.3; 3.0"	"Sandy; Sandy & Clay; Sandy"	"Grayish black"		Odorless	None	"23.0; 26.0; 21.0 (Each) / 21.9 (Mixed)"	"1.5; 2.7; 1.3 (Each) / 1.6 (Mixed)"									"n=3 pooled"	2018/05/11	2019/08/16
PRA000068	SAA003992	ST023				Kagawa_sed1-123_2015	Sediment	"Marine sediment"	2015	10	13	"2015-10-13T09:05; T09:20; T09:45"			Fair	Asia	Japan	"Takamatsu Port, Kagawa"	34.34972222		134.0788889														"21.7; 20.7; 21.2"	"22.7; 22.7; 22.7"								"2.0; 2.8; 2.9"		"23.1; 22.4; 22.7"	"2.4; 5.0; 5.1"	"Muddy; Sandy mud; Muddy"	Black		"Hydrogen sulfide odor & Turpentine-like odor_Faint"	"Bentos; Shell"	"48.6; 25.9; 48.9 (Each) / 39.8 (Mixed)"	"11.4; 2.8; 9.8 (Each) / 6.6 (Mixed)"									"n=3 pooled: SAA003908, SAA003909 and SAA003910"	2018/5/11	2019/8/16
PRA000068	SAA003993	ST023				Ehime_sed1-123_2015	Sediment	"Marine sediment"	2015	10	30	"2015-10-30T09:50; T10:05; T10:20"			Cloudy	Asia	Japan	"Niihama Port, Ehime"	33.98777778		133.3144444														"19.3; 19.8; 19.5"	"20.8; 20.8; 20.9"								"3.5; 3.5; 3.5"		"20.8; 20.7; 20.6"	"11.1; 11.1; 11.0"	Silt	"Grayish green"		Odorless	"Vegetative pieces"	"68.7; 70.1; 70.8 (Each) / 57.7 (Mixed)"	"10.4; 10.7; 11.0 (Each) / 5.3 (Mixed)"									"n=3 pooled"	2018/5/11	2019/8/16
PRA000068	SAA003994	ST024				Kochi_sed1-123_2015	Sediment	"River sediment"	2015	10	14	"2015-10-14T09:00; T09:55; T11:25"			Fair	Asia	Japan	"Mouth of Riv. Shimanto (Shimanto City), Kochi"	32.93777778		132.8441667														"17.0; 21.2; 23.1"	"17.3; NA; NA"								"4.0; NA; NA"		"24.5; 26.0; 26.0"	"6.9; 5.5; 0.5"	Muddy	"Grayish black"		"Swampy odor"	None	"9.4; 33.2; 21.0 (Each) / 39.6 (Mixed)"	"15.1; 6.6; 3.3 (Each) / 4.9 (Mixed)"									"n=3 pooled"	2018/05/11	2019/08/16
PRA000068	SAA003995	ST023				KitakyushuCity_sed1-123_2015	Sediment	"Marine sediment"	2015	10	20	"2015-10-20T10:05; T09:50; T09:40"			Fair	Asia	Japan	"Dokai Bay (Kitakyushu City), Fukuoka"	33.90388889		130.8158333														"22.2; 22.2; 22.2"	"21.4; 21.4; 21.4"								"3.5; 3.5; 3.5"			"9.6; 11.1; 7.8"	Muddy	"Blackish brown"		Odorless	None	"NA / 50.1 (Mixed)"	"NA / 9.3 (Mixed)"									"n=3 pooled"	2018/05/11	2019/08/16
PRA000068	SAA003996	ST023				FukuokaCity_sed1-123_2015	Sediment	"Marine sediment"	2015	11	30	"2015-11-30T08:53; T09:29; T09:44"			Fair	Asia	Japan	"Hakata Bay, Fukuoka"	33.60833333		130.3297222														"13.5; 14.5; 14.5"	"14.5; 15.0; 15.5"								"2.0; 2.5; 2.5"		"16.5; 16.5; 16.0"	"8.2; 7.7; 8.0"	Silt	"Gray_dark; Grayish yellow green_dark; Grayish yellow green_dark"		Odorless	None	"45.0; 41.0; 43.0 (Each) / 53.4 (Mixed)"	"9.2; 8.6; 8.9 (Each) / 8.4 (Mixed)"									"n=3 pooled: SAA003911, SAA003912 and SAA003913"	2018/5/11	2019/8/16
PRA000068	SAA003997	ST023				Saga_sed1-123_2015	Sediment	"Marine sediment"	2015	10	29	"2015-10-29T10:50; T11:16; T11:47"			Fair	Asia	Japan	"Imari Bay, Saga"	33.34		129.8208333														"20.0; 18.0; 19.5"	"20.5; 20.5; 20.5"								"2.7; 2.5; 2.8"		"21.0; 21.0; 20.5"	"15.2; 15.3; 15.5"	Muddy	"Grayish black"		Odorless	None	"59.8; 60.8; 59.9 (Each) / 64.3 (Mixed)"	"21.1; 18.5; 20.3 (Each) / 8.8 (Mixed)"									"n=3 pooled: SAA003914, SAA003915 and SAA003916"	2018/5/11	2019/8/16
PRA000068	SAA003998	ST023				Nagasaki_sed1-123_2015	Sediment	"Marine sediment"	2015	12	2	"2015-12-02T09:31; T09:45; T10:03"			Cloudy	Asia	Japan	"Omura Bay, Nagasaki"	32.98833333		129.8522222														"14.5; 14.5; 14.8"	"18.1; NA; NA"								"5.2; NA; NA"		"17.8; 18.0; 18.2"	"19.2; 19.1; 19.3"	Silt	"Grayish brown"		Odorless	Shell	"57.0; 58.8; 59.1 (Each) / 67.1 (Mixed)"	"12.9; 12.6; 12.7 (Each) / 12.4 (Mixed)"									"n=3 pooled"	2018/5/11	2019/8/16
PRA000068	SAA003999	ST024				Oita_sed1-123_2015	Sediment	"River sediment"	2015	12	8	"2015-12-08T12:27; T11:42; T10:48"			Fair	Asia	Japan	"Mouth of Riv. Oita, Oita"	33.25722222		131.6175														"15.1; 18.0; 14.7"	"15.5; 15.3; 13.4"											"2.9; 3.0; 2.3"	"Sandy; Sandy; Muddy"	"Blackish brown_light; Brown_dark; Blackish brown_dark"		"Odorless; Odorless; Hydrogen sulfide odor"	"Shell; Shell & Stones; Sticks & Shell"	"13.8; 14.8; 33.6 (Each) / 26.1 (Mixed)"	"1.4; 1.6; 5.1 (Each) / 2.0 (Mixed)"									"n=3 pooled: SAA003917, SAA003918 and SAA003919"	2018/5/11	2019/8/16
PRA000068	SAA004000	ST024				Miyazaki_sed1-123_2015	Sediment	"River sediment"	2015	10	14	"2015-10-14T12:25; T12:07; T12:18"			Fair	Asia	Japan	"Mouth of Riv. Oyodo (Miyazaki City), Miyazaki"	31.89611111		131.4402778														"24.5; 24.5; 24.5"	"21.6; 21.6; 21.6"										"21.6; 21.6; 21.6"	"0.5; 0.5; 0.5"	"Pebbles & Sand"	"Grayish black_light"		Odorless	None	"20.1; 21.1; 20.7 (Each) / 20.0 (Mixed)"	"1.4; 1.7; 1.5 (Each) / 1.1 (Mixed)"									"n=3 pooled"	2018/05/11	2019/08/16
PRA000068	SAA004001	ST024				Kagoshima_sed1-123_2015	Sediment	"River sediment"	2015	11	10	"2015-11-10T11:50; T11:08; T10:30"			Fair	Asia	Japan	"Riv. Amori (Kirishima City), Kagoshima"	31.7225		130.7416667														"20.4; 19.4; 19.4"	"18.5; 18.3; 18.4"										"18.7; 19.1; 18.8"	"0.1; 0.1; 0.1"	Gravelly	"Blackish brown"		Odorless	Pebble	"18.1; 18.3; 22.4 (Each) / 17.4 (Mixed)"	"1.2; 0.7; 1.1 (Each) / 0.8 (Mixed)"									"n=3 pooled"	2018/05/11	2019/08/16
PRA000068	SAA004002	ST024				Kagoshima_sed2-123_2015	Sediment	"River sediment"	2015	11	12	"2015-11-12T11:40; T11:00; T10:15"			Cloudy	Asia	Japan	"Gotanda-bashi Bridge, Riv. Gotanda (Ichikikushikino City), Kagoshima"	31.72583333		130.2769444														"22.1; 20.8; 21.3"	"18.1; 17.7; 17.4"										"18.0; 17.8; 17.7"	"0.1; 0.1; 0.1"	Gravelly	"Blackish brown"		Odorless	Pebble	"22.6; 24.7; 19.0 (Each) / 20.8 (Mixed)"	"1.5; 1.7; 1.9 (Each) / 1.3 (Mixed)"									"n=3 pooled"	2018/05/11	2019/08/16
PRA000068	SAA004003	ST023				Okinawa_sed1-123_2015	Sediment	"Marine sediment"	2015	10	29	"2015-10-29T09:50; T11:00; T10:30"			Fair	Asia	Japan	"Naha Port, Okinawa"	26.21222222		127.665														"24.8; 25.2; 24.8"	"25.8; 26.6; 26.0"								"1.7; 2.6; 3.3"			"8.8; 9.9; 7.1"	Sludge	"Grayish black"		"Hydrogen sulfide odor & Sewage odor"	"Pebble; Vegetative pieces; Pieces of plastic"	"41.8; 48.1; 37.3 (Each) / 46.6 (Mixed)"	"13.5; 18.5; 13.6 (Each) / 10.6 (Mixed)"									"n=3 pooled"	2018/5/11	2019/8/16
PRA000076	SAA004037	ST015				Hokkaido_w3_2016	Water	"River water"	2016	11	2	2016-11-02T10:30			Fair	Asia	Japan	"Ishikarikakokyo Bridge, Mouth of Riv. Ishikari (Ishikari City), Hokkaido"	43.22861111		141.3519444														4.4	4.6	8	11	18.4			13			"Dark brown"																			2018/09/07	2018/09/07
PRA000076	SAA004038	ST015				Hokkaido_w2_2016	Water	"River water"	2016	10	19	2016-10-19T10:30			Fair	Asia	Japan	"Suzuran-ohashi Bridge, Riv. Tokachi (Obihiro City), Hokkaido"	42.94583333		143.1855556														13.8	11	8	12	13.8			12			"Grayish brown"																			2018/09/07	2018/09/07
PRA000076	SAA004040	ST015				Iwate_w1_2016	Water	"River water"	2016	10	12	2016-10-12T10:50			"Cloudy with occasional rain"	Asia	Japan	"Riv. Toyosawa (Hanamaki City), Iwate"	39.38166667		141.1191667														18	14	7.3	10	6.35			3			"Light dark brown"																			2018/09/07	2018/09/07
PRA000076	SAA004216	ST014				Miyagi_w3_2016	Water	"Sea water"	2016	10	18	2016-10-18T10:15			Fair	Asia	Japan	"Sendai Bay (Matsushima Bay), Miyagi"	38.35333333		141.0975														24.6	18.7	8	9.3	4100			1		1.9	Clear																			2018/10/5	2018/10/5
PRA000076	SAA004219	ST015				Akita_w3_2016-3	Water	"Lake water"	2016	9	7	2016-09-07T10:46			Cloudy	Asia	Japan	"Lake Hachiro, Akita"	39.92277778		139.9988889														27.7	26.8	9.1	9	263			21		0.6	"Dark yellowish green"																			2018/10/5	2018/10/5
PRA000076	SAA004127	ST015				Yamagata_w1_2016	Water	"River water"	2016	10	28	2016-10-28T09:20			Cloudy	Asia	Japan	"Mouth of Riv. Mogami (Sakata City), Yamagata"	38.88722222		139.8433333														13.1	12.6	7.5	10	15.6			5			"Light yellow"																			2018/09/20	2018/09/20
PRA000076	SAA004220	ST014				Fukushima_w1_2016	Water	"Sea water"	2016	10	18	2016-10-18T10:05			Fair	Asia	Japan	"Onahama Port, Fukushima"	36.92472222		140.8752778														24.5	21.5	8.3	6.6	4,500			6		4.7	"Bluish green"																			2018/10/5	2018/10/5
PRA000076	SAA004129	ST015				Ibaraki_w2_2016	Water	"River water"	2016	11	2	2016-11-02T10:10			Cloudy	Asia	Japan	"Kamome-ohashi Bridge, Mouth of Riv. Tone (Kamisu City), Ibaraki"	35.77638889		140.7569444														13.1	16	7.7	9.2	550			14			"Light yellowish green"																			2018/09/20	2018/09/20
PRA000076	SAA004130	ST015				Tochigi_w1_2016-1	Water	"River water"	2016	10	12	2016-10-12T11:03			Fair	Asia	Japan	"Tagawa area-Toshuko Weir (Utsunomiya City), Tochigi"	36.52805556		139.8855556														23.2	18.6	7.9	11	21			4			Clear																			2018/09/20	2018/09/20
PRA000076	SAA004044	ST015				Saitama_w2_2016	Water	"River water"	2016	11	2	2016-11-02T11:55			Cloudy	Asia	Japan	"Akigase-Shusuizeki Weir, Riv. Ara (Shiki City), Saitama"	35.84055556		139.6044444														11.6	14.4	7.8	9.9				4			"Light yellow"																			2018/09/07	2018/09/07
PRA000076	SAA004221	ST015				ChibaCity_w1_2016	Water	"River water"	2016	11	10	2016-11-10T10:18			Cloudy	Asia	Japan	"Mouth of Riv. Hanami (Chiba City), Chiba"	35.63472222		140.04694440														11.2	17	7.6	7.5	3750			2			Clear																			2018/10/05	2018/10/05
PRA000076	SAA004047	ST015				Tokyo_w1_2016	Water	"River water"	2016	11	1	2016-11-01T09:55			Rain	Asia	Japan	"Mouth of Riv. Arakawa (Koto Ward), Tokyo"	35.64583333		139.8463889														12.2	18.2	7.5	5.1	3100					0.8	"Grayish yellow green"																			2018/09/07	2018/09/07
PRA000076	SAA004048	ST015				Tokyo_w2_2016	Water	"River water"	2016	11	1	2016-11-01T12:10			Cloudy	Asia	Japan	"Mouth of Riv. Sumida (Minato Ward), Tokyo"	35.66		139.7705556														14.4	19.2	7.4	2.9	3430					2.2	"Dark green"																			2018/09/07	2018/09/07
PRA000076	SAA004049	ST014				YokohamaCity_w3_2016	Water	"Sea water"	2016	10	13	2016-10-13T09:50			Cloudy	Asia	Japan	"Yokohama Port, Kanagawa"	35.45555556		139.6636111														19.5	21	8.1	7.7				9		2.3	Clear																			2018/10/5	2018/10/5
PRA000076	SAA004137	ST014				KawasakiCity_w2_2016	Water	"Sea water"	2016	10	13	2016-10-13T09:40			Cloudy	Asia	Japan	"Keihin Canal, Kawasaki Port, Kanagawa (front of Ogimachi)"	35.49527778		139.7277778														18.6	22.3	8.2	7	4,100			7.2		2.3	"Dark greenish brown"																			2018/09/20	2019/09/02
PRA000076	SAA004052	ST015				Niigata_w2_2016	Water	"River water"	2016	10	19	2016-10-19T09:50			Fair	Asia	Japan	"Downstream of Riv. Shinano (Niigata City), Niigata"	37.88305556		139.0155556														19.7	16.5	7.5	9.4	7			5			Clear																			2018/09/07	2018/09/07
PRA000076	SAA004141	ST015				Toyama_w2_2016	Water	"River water"	2016	10	19	2016-10-19T09:25			Fair	Asia	Japan	"Hagiura-bashi Bridge, Mouth of Riv. Jintsu (Toyama City), Toyama"	36.745		137.2180556														21	16.5	7.4	9.2	100			1			Clear																			2018/09/20	2018/09/20
PRA000076	SAA004053	ST015				Ishikawa_w1_2016-1	Water	"River water"	2016	11	2	2016-11-02T09:30			Fair	Asia	Japan	"Mouth of Riv. Sai (Kanazawa City), Ishikawa"	36.60027778		136.5888889														16.9	13	7.3	9.3	83			4			Clear																			2018/09/07	2018/09/07
PRA000076	SAA004222	ST015				Fukui_w1_2016	Water	"River water"	2016	11	2	2016-11-02T10:30			Fair	Asia	Japan	"Mishima-bashi Bridge, Riv. Shono (Tsuruga City), Fukui"	35.6475		136.0627778														16	16	7.3	11	8.2			<1			Clear																			2018/10/05	2018/10/05
PRA000076	SAA004055	ST015				Nagano_w2_2016	Water	"Lake water"	2016	11	2	2016-11-02T10:30			Cloudy	Asia	Japan	"Center of Lake Suwa, Nagano"	36.05		138.0861111														8.6	12	9.1	11	14.4			18		0.8	"Dark brown"																			2018/10/5	2018/10/5
PRA000076	SAA004148	ST015				Shizuoka_w1_2016	Water	"River water"	2016	10	25	2016-10-25T11:10			Cloudy	Asia	Japan	"Riv. Tenryu (Iwata City), Shizuoka"	34.67916667		137.7961111														18.7	16.9	7.9	11	11.56			5			Clear																			2018/09/20	2018/09/20
PRA000076	SAA004223	ST014				Aichi_w2_2016-2	Water	"Sea water"	2016	10	25	2016-10-25T12:15			Rain	Asia	Japan	"Nagoya Port, West of Shiomi Wharf, Aichi"	35.07111111		136.8691667														14	21	7.4	4.9	4,280			7		3.5	"Light green"																			2018/10/5	2018/10/5
PRA000076	SAA004058	ST014				Mie_w1_2016	Water	"Sea water"	2016	10	25	2016-10-25T10:00			Cloudy	Asia	Japan	"Yokkaichi Port, Mie"	34.94944444		136.6530556														15	20	8	6.2	4,320			3.6		2.5	"Dark greenish brown"																			2018/10/5	2018/10/5
PRA000076	SAA004224	ST015				Shiga_w2_2016-2	Water	"Lake water"	2016	10	21	2016-10-21T11:50			Fair	Asia	Japan	"Lake Biwa (center, offshore of Karasaki), Shiga"	35.04611111		135.8955556														22.2	21.6	8.1	4.6	118.6			3		2.8	"Dark green"																			2018/10/05	2018/10/05
PRA000076	SAA004061	ST014				Kyoto_w1_2016	Water	"Sea water"	2016	10	25	2016-10-25T10:06			Cloudy	Asia	Japan	"Miyazu Port, Kyoto"	35.58305556		135.2138889														17.5	19.7	8.7	7.2				3.3		5.5	Clear																			2018/10/5	2018/10/5
PRA000076	SAA004062	ST015				KyotoCity_w1_2016	Water	"River water"	2016	10	28	2016-10-28T10:10			Cloudy	Asia	Japan	"Miyamae-bashi Bridge, Riv. Katsura (Kyoto City), Kyoto"	34.905		135.7125														20	19	7.4	8.8	16.8			2			Clear																			2018/09/07	2018/09/07
PRA000076	SAA004063	ST015				Osaka_w1_2016	Water	"River water"	2016	11	9	2016-11-09T08:58			"Cloudy with occasional rain"	Asia	Japan	"Mouth of Riv. Yamato (Sakai City), Osaka"	34.60833333		135.4325														14.6	18.1	7.8	11				10		0.8	"Light yellowish green"																			2018/09/07	2018/09/07
PRA000076	SAA004065	ST014				OsakaCity_w2_2016	Water	"Sea water"	2016	10	25	2016-10-25T08:55			Cloudy	Asia	Japan	"Osaka Port, Osaka"	34.65861111		135.4313889														18.5	22	8	5.6	3,030			1.8		2.9	"Light grayish yellow"																			2018/10/5	2018/10/5
PRA000076	SAA004066	ST014				Hyogo_w3_2016	Water	"Sea water"	2016	10	18	2016-10-18T11:17			Fair	Asia	Japan	"Offshore of Himeji, Hyogo"	34.76194444		134.6697222														25.9	24.6	8.1	7.7	2,510			5.5		2.9	"Greenish brown"																			2018/10/5	2018/10/5
PRA000076	SAA004155	ST014				Kobe_w1_2016	Water	"Sea water"	2016	11	1	2018-11-01T10:05			Fair	Asia	Japan	"Center of Kobe Port, Hyogo"	34.66444444		135.1944444														19.5	21.8	7.8	6.5				4		2.8	"Dark greenish brown"																			2018/10/5	2018/10/5
PRA000076	SAA004067	ST015				Wakayama_w1_2016	Water	"River water"	2016	10	19	2016-10-19T12:25			Cloudy	Asia	Japan	"Kinokawa-ohashi Bridge, Mouth of Riv. Kinokawa (Wakayama City), Wakayama"	34.23		135.1561111														26.1	23.5	7.7	7.7	2,200			6		2	"Dark green"																			2018/10/5	2018/10/5
PRA000076	SAA004068	ST014				Okayama_w2_2016	Water	"Sea water"	2016	10	26	2016-10-26T10:10			Cloudy	Asia	Japan	"Offshore of Mizushima, Okayama"	34.48055556		133.665														21.2	23	8.1	8.1				3		2.5	"Dark green"																			2018/10/5	2018/10/5
PRA000076	SAA004225	ST014				Hiroshima_w2_2016	Water	"Sea water"	2016	11	7	2016-11-07T09:56			Fair	Asia	Japan	"Kure Port, Hiroshima"	34.23361111		132.5391667														15.5	20.8	8.2	7				2		9	"Dark greenish  blue"																			2018/10/5	2018/10/5
PRA000076	SAA004226	ST014				Hiroshima_w3_2016	Water	"Sea water"	2016	11	7	2016-11-07T11:26			Fair	Asia	Japan	"Hiroshima Bay (Hiroshima City), Hiroshima"	34.34833333		132.4225														16.1	20.4	8.1	7.7				2		5.5	"Dark greenish  blue"																			2018/10/05	2018/10/05
PRA000076	SAA004070	ST014				Yamaguchi_w1_2016	Water	"Sea water"	2016	10	14	2016-10-14T09:20			Cloudy	Asia	Japan	"Tokuyama Bay, Yamaguchi"	33.99361111		131.7505556														20.6	23.6	8	9				2.5		3.5	"Bluish green"																			2018/10/5	2018/10/5
PRA000076	SAA004227	ST014				Yamaguchi_w3_2016	Water	"Sea water"	2016	11	21	2016-11-21T11:55			Fair	Asia	Japan	"Offshore of Ube, Yamaguchi"	33.915		131.1975														19.9	18.5	8.3	7.1				2		4	"Grayish green"																			2018/10/5	2018/10/5
PRA000076	SAA004159	ST014				Yamaguchi_w2_2016	Water	"Sea water"	2016	11	4	2016-11-04T11:20			Fair	Asia	Japan	"Offshore of Hagi, Yamaguchi"	34.43805556		131.3794444														18	21	8.1	7				1.3		9.5	"Bluish green"																			2018/10/5	2018/10/5
PRA000076	SAA004228	ST015				Tokushima_w1_2016	Water	"River water"	2016	10	19	2016-10-19T10:44			Cloudy	Asia	Japan	"Mouth of Riv. Yoshino (Tokushima City), Tokushima"	34.085		134.5913889														23.1	22.7	7.9	7.8	2500			2		2.5	Green																			2018/10/05	2018/10/05
PRA000076	SAA004071	ST014				Kagawa_w1_2016	Water	"Sea water"	2016	10	4	2016-10-04T08:55			Cloudy	Asia	Japan	"Takamatsu Port, Kagawa"	34.34972222		134.0788889														27.6	27.3	6.6	4.2				5		1.8	Green																			2018/10/5	2018/10/5
PRA000076	SAA004229	ST015				Kochi_w2_2016	Water	"River water"	2016	10	14	2016-10-14T08:03			Cloudy	Asia	Japan	"Mouth of Riv. Shimanto (Shimanto City), Kochi"	32.93777778		132.8441667														18.2	19.8	7.6	8.2	1262			3		2.5	Clear																			2018/10/05	2018/10/05
PRA000076	SAA004074	ST014				KitakyushuCity_w1_2016	Water	"Sea water"	2016	10	18	2016-10-18T09:20			Fair	Asia	Japan	"Dokai Bay, Fukuoka"	33.90388889		130.8158333														25.7	23.2	7.9	6.9	4,200			4		2.5	Clear																			2018/10/5	2018/10/5
PRA000076	SAA004163	ST014				Saga_w1_2016	Water	"Sea water"	2016	10	26	2016-10-26T10:50			Cloudy	Asia	Japan	"Imari Bay, Saga"	33.34		129.8208333														21.8	22.5	8.1	7.6	4,700			34		2.5	"Grayish green"																			2018/10/5	2018/10/5
PRA000076	SAA004230	ST014				Nagasaki_w1_2016	Water	"Sea water"	2016	12	15	2016-12-15T11:30			Cloudy	Asia	Japan	"Omura Bay, Nagasaki"	32.98833333		129.8522222														7.7	15.3	8.1	7.9				2		4.5	"Greenish blue"																			2018/10/5	2018/10/5
PRA000076	SAA004231	ST015				Kumamoto_w1_2016	Water	"River water"	2016	11	15	2016-11-15T14:50			Fair	Asia	Japan	"Hiraki-bashi Bridge, Riv. Midori (Uto City), Kumamoto"	32.71638889		130.6422222														24	19	7.4	7.9	240			29			"Light brown"																			2018/10/05	2018/10/05
PRA000076	SAA004232	ST015				Miyazaki_w3_2016	Water	"River water"	2016	10	31	2016-10-31T11:40			Cloudy	Asia	Japan	"Mouth of Riv. Oyodo (Miyazaki City), Miyazaki"	31.89611111		131.4402778														20.5	19.8	7.3	8.3	110			3			Clear																			2018/10/05	2018/10/05
PRA000076	SAA004233	ST015				Kagoshima_w1_2016	Water	"River water"	2016	11	17	2016-11-17T12:00			Fair	Asia	Japan	"Shinkawa-bashi Bridge, Riv. Amori (Kirishima City), Kagoshima"	31.7225		130.7416667														21	17.1	7.7	9.4				4			Clear																			2018/10/05	2018/10/05
PRA000076	SAA004234	ST015				Kagoshima_w2_2016	Water	"River water"	2016	10	31	2016-10-31T11:50			Cloudy	Asia	Japan	"Gotanda-bashi Bridge, Riv. Gotanda (Ichikikushikino City), Kagoshima"	31.72583333		130.2769444														19.3	18.3	7.4	8.7				3			Clear																			2018/10/05	2018/10/05
PRA000076	SAA004239	ST024				Hokkaido_sed1-123_2016	Sediment	"River sediment"	2016	9	13	2016-09-13T09:30			Fair	Asia	Japan	"Onnnenai-ohashi Bridge, Riv. Teshio (BifukaTown), Hokkaido"	44.59138889		142.3063889														15.1																												"n=3 pooled:SAA004236, SAA004237 and SAA004238"	2018/10/05	2018/10/05
PRA000076	SAA004243	ST024				Hokkaido_sed2-123_2016	Sediment	"River sediment"	2016	11	2				Fair	Asia	Japan	"Ishikarikakokyo Bridge, Mouth of Riv. Ishikari (Ishikari City), Hokkaido"	43.22861111		141.3519444																																										"n=3 pooled: SAA004240, SAA004241and SAA004242"	2018/10/05	2018/10/05
PRA000076	SAA004247	ST023				Hokkaido_sed3-123_2016	Sediment	"Marine sediment"	2016	9	14				Fair	Asia	Japan	"Tomakomai Port, Hokkaido"	42.63138889		141.6288889																																										"n=3 pooled: SAA004244, SAA004245 and SAA004246"	2018/10/5	2018/10/5
PRA000076	SAA004248	ST024				Iwate_sed1-123_2016	Sediment	"River sediment"	2016	10	12					Asia	Japan	"Riv. Toyosawa (Hanamaki City), Iwate"	39.38166667		141.1191667																																										"n=3 pooled: SAA004077, SAA004078 and SAA004079"	2018/10/05	2018/10/05
PRA000076	SAA004249	ST023				Miyagi_sed1_1_2016	Sediment	"Marine sediment"	2016	10	18	2016-10-18T10:15			Fair	Asia	Japan	"Sendai Bay (Matsushima Bay), Miyagi"	38.35333333		141.0975														24.6	18.7								1.9		20.9	4.1	Muddy	"Grayish green"	Clear	Odorless	None	53.5/65.6	10.2/9.5										2018/10/5	2018/10/5
PRA000076	SAA004250	ST024				Sendai_sed1_123_2016	Sediment	"River sediment"	2016	11	16				Fair	Asia	Japan	"Hirose-ohashi Bridge, Riv. Hirose (Sendai City), Miyagi"	38.21333333		140.9088889																																										"n=3 pooled: SAA004166, SAA004167 and SAA004165"	2018/10/05	2018/10/05
PRA000076	SAA004254	ST024				Akita_sed2-123_2016	Sediment	"Lake sediment"	2016	9	7				Cloudy	Asia	Japan	"Lake Hachiro, Akita"	39.92277778		139.9988889																																										"n=3 pooled: SAA004251, SAA004252 and SAA004253"	2018/10/5	2018/10/5
PRA000076	SAA004258	ST024				Yamagata_sed1-123_2016	Sediment	"River sediment"	2016	10	28	2016-10-28T09:50			Cloudy	Asia	Japan	"Mouth of Riv. Mogami (Sakata City), Yamagata"	38.88722222		139.8433333																																										"n=3 pooled: SAA004255, SAA004256 and SAA004257"	2018/10/05	2018/10/05
PRA000076	SAA004262	ST023				Fukushima_sed1-123_2016	Sediment	"Marine sediment"	2016	10	18				Fair	Asia	Japan	"Onahama Port, Fukushima"	36.92472222		140.8752778																																										"n=3 pooled: SAA004259, SAA004260 and SAA004261"	2018/10/5	2018/10/5
PRA000076	SAA004266	ST024				Ibaraki_sed1-123_2016	Sediment	"River sediment"	2016	11	2				Cloudy	Asia	Japan	"Kamome-ohasi Bridge, Mouth of Riv. Tone (Kamisu City), Ibaraki"	35.77638889		140.7569444																																										"n=3 pooled: SAA004263, SAA004264 and SAA004265"	2018/10/05	2018/10/05
PRA000076	SAA004270	ST024				Tochigi_sed1-123_2016	Sediment	"River sediment"	2016	10	12				Fair	Asia	Japan	"Tagawa area-Toshuko Weir (Utsunomiya City), Tochigi"	36.52805556		139.8855556																																										"n=3 pooled: SAA004166, SAA004167 and SAA004165"	2018/10/05	2018/10/05
PRA000076	SAA004271	ST023				Chiba_sed1-123_2016	Sediment	"Marine sediment"	2016	10	19				Cloudy	Asia	Japan	"Ichihara-Anesaki Coast, Chiba"	35.52166667		140.0283333																																										"n=3 pooled: SAA004171, SAA004172 and SAA004173"	2018/10/5	2018/10/5
PRA000076	SAA004275	ST024				ChibaCity_sed1-123_2016	Sediment	"River sediment"	2016	11	10				Cloudy	Asia	Japan	"Mouth of Riv. Hanami (Chiba City), Chiba"	35.63472222		140.04694440																																										"n=3 pooled: SAA004272, SAA004273 and SAA004274"	2018/10/05	2018/10/05
PRA000076	SAA004276	ST024				Tokyo_sed1-123_2016	Sediment	"River sediment"	2016	11	1					Asia	Japan	"Mouth of Riv. Arakawa (Koto Ward), Tokyo"	35.64583333		139.8463889																																										"n=3 pooled: SAA004083, SAA004084 and SAA004085"	2018/10/05	2018/10/05
PRA000076	SAA004277	ST024				Tokyo_sed2-123_2016	Sediment	"River sediment"	2016	11	1					Asia	Japan	"Mouth of Riv. Sumida (Minato Ward), Tokyo"	35.66		139.7705556																																										"n=3 pooled: SAA004086, SAA004087 and SAA004088"	2018/10/05	2018/10/05
PRA000076	SAA004278	ST023				Yokohama_sed1-123_2016	Sediment	"Marine sediment"	2016	10	13				Cloudy	Asia	Japan	"Yokohama Port, Kanagawa"	35.45555556		139.6636111																																										"n=3 pooled: SAA004089, SAA004090 and SAA004091"	2018/10/5	2018/10/5
PRA000076	SAA004279	ST024				KawasakiCity_sed1-123_2016	Sediment	"River sediment"	2016	10	13				Cloudy	Asia	Japan	"Mouth of Riv. Tama (Kawasaki City), Kanagawa"	35.53		139.7836111																																										"n=3 pooled: SAA004092, SAA004093 and SAA004094"	2018/10/05	2018/10/05
PRA000076	SAA004280	ST023				KawasakiCity_sed2-123_2016	Sediment	"Marine sediment"	2016	10	13				Cloudy	Asia	Japan	"Keihin Canal, Kawasaki Port, Kanagawa (front of Ogimachi)"	35.49527778		139.7277778																																										"n=3 pooled: SAA004174, SAA004175 and SAA004176"	2018/10/05	2018/10/05
PRA000076	SAA004281	ST024				Niigata_sed1-123_2016	Sediment	"River sediment"	2016	10	19				Fair	Asia	Japan	"Downstream of Riv. Shinano (Niigata City), Niigata"	37.88305556		139.0155556																																										"n=3 pooled: SAA004177, SAA004178 and SAA004179"	2018/10/05	2018/10/05
PRA000076	SAA004282	ST024				Toyama_sed1-123_2016	Sediment	"River sediment"	2016	10	19				Fair	Asia	Japan	"Hagiura-bashi Bridge, Mouth of Riv. Jintsu (Toyama City), Toyama"	36.745		137.2180556																																										"n=3 pooled: SAA004180, SAA004181 and SAA004182"	2018/10/05	2018/10/05
PRA000076	SAA004283	ST024				Ishikawa_sed1-123_2016	Sediment	"River sediment"	2016	11	2				Fair	Asia	Japan	"Mouth of Riv. Sai (Kanazawa City), Ishikawa"	36.60027778		136.5888889																																										"n=3 pooled: SAA004183, SAA004184 and SAA004185"	2018/10/05	2018/10/05
PRA000076	SAA004287	ST024				Fukui_sed1-123_2016	Sediment	"River sediment"	2016	11	2	2016-11-02T10:50			Fair	Asia	Japan	"Mishima-bashi Bridge, Riv. Shono (Tsuruga City), Fukui"	35.6475		136.0627778																																										"n=3 pooled: SAA004284, SAA004285 and SAA004286"	2018/10/05	2018/10/05
PRA000076	SAA004291	ST024				Yamanashi_sed1-123_2016	Sediment	"River sediment"	2016	10	21				Cloudy	Asia	Japan	"Chiaki-bashi Bridge, Riv. Ara (Kofu City), Yamanashi"	35.6475		138.5655556																																										"n=3 pooled: SAA004288, SAA004289 and SAA004290"	2018/10/05	2018/10/05
PRA000076	SAA004292	ST024				Nagano_sed1-123_2016	Sediment	"Lake sediment"	2016	11	2				Cloudy	Asia	Japan	"Center of Lake Suwa, Nagano"	36.05		138.0861111																																										"n=3 pooled: SAA004095, SAA004096 and SAA004097"	2018/10/5	2018/10/5
PRA000076	SAA004296	ST023				Shizuoka_sed1-123_2016	Sediment	"Marine sediment"	2016	10	13				Cloudy	Asia	Japan	"Shimizu Port, Shizuoka"	35.02416667		138.5161111																																										"n=3 pooled: SAA004293, SAA004294 and SAA004295"	2018/10/5	2018/10/5
PRA000076	SAA004300	ST024				Shizuoka_sed3-123_2016	Sediment	"River sediment"	2016	10	25				Cloudy	Asia	Japan	"Riv. Tenryu (Iwata City), Shizuoka"	34.67916667		137.7961111																																										"n=3 pooled: SAA004297, SAA004298 and SAA004299"	2018/10/05	2018/10/05
PRA000076	SAA004304	ST023				Aichi_sed2-123_2016	Sediment	"Marine sediment"	2016	10	25				Rain	Asia	Japan	"Kinuura Port, Aichi"	34.84166667		136.9486111																																										"n=3 pooled: SAA004301, SAA004302 and SAA004303"	2018/10/5	2018/10/5
PRA000076	SAA004308	ST023				Aichi_sed1-456_2016	Sediment	"Marine sediment"	2016	10	25				Rain	Asia	Japan	"Nagoya Port, West of Shiomi Wharf, Aichi"	35.07111111		136.8691667																																										"n=3 pooled: SAA004305, SAA004306 and SAA004307"	2018/10/5	2018/10/5
PRA000076	SAA004309	ST023				Mie_sed1-123_2016	Sediment	"Marine sediment"	2016	10	25				Cloudy	Asia	Japan	"Yokkaichi Port, Mie"	34.94944444		136.6530556																																										"n=3 pooled: SAA004104, SAA004105 and SAA004106"	2018/10/5	2018/10/5
PRA000076	SAA004313	ST023				Mie_sed2-123_2016	Sediment	"Marine sediment"	2016	10	18				Fair	Asia	Japan	"Toba Port, Mie"	34.48083333		136.8486111																																										"n=3 pooled: SAA004310, SAA004311 and SAA004312"	2018/10/5	2018/10/5
PRA000076	SAA004314	ST024				Shiga_sed1-123_2016	Sediment	"Lake sediment"	2016	10	21					Asia	Japan	"Lake Biwa (center, offshore of Minamihira), Shiga"	35.18527778		135.9733333																																										"n=3 pooled: SAA004189, SAA004190 and SAA004191"	2018/10/05	2018/10/05
PRA000076	SAA004315	ST024				Shiga_sed2-123_2016	Sediment	"Lake sediment"	2016	11	28				Cloudy	Asia	Japan	"Lake Biwa (center, offshore of Karasaki), Shiga"	35.04611111		135.8955556																																										"n=3 pooled: SAA004192, SAA004193 and SAA004194"	2018/10/5	2018/10/5
PRA000076	SAA004319	ST023				Kyoto_sed1-123_2016	Sediment	"Marine sediment"	2016	10	25				Cloudy	Asia	Japan	"Miyazu Port, Kyoto"	35.58305556		135.2138889																																										"n=3 pooled: SAA004316, SAA004317 and SAA004318"	2018/10/5	2018/10/5
PRA000076	SAA004320	ST024				KyotoCity_sed1-123_2016	Sediment	"River sediment"	2016	10	28				Cloudy	Asia	Japan	"Miyamae-bashi Bridge, Riv. Katsura (Kyoto City), Kyoto"	34.905		135.7125																																										"n=3 pooled: SAA004195, SAA004196 and SAA004197"	2018/10/05	2018/10/05
PRA000076	SAA004321	ST024				Osaka_sed1-123_2016	Sediment	"River sediment"	2016	11	9				"Cloudy with occasional rain"	Asia	Japan	"Mouth of Riv. Yamato (Sakai City), Osaka"	34.60833333		135.4325																																										"n=3 pooled: SAA004107, SAA004108 and SAA004109"	2018/10/05	2018/10/05
PRA000076	SAA004325	ST024				OsakaCity_sed2-123_2016	Sediment	"River sediment"	2016	10	26					Asia	Japan	"Kema-bashi Bridge, Riv. Oh (Osaka City), Osaka"	34.717760		135.519610																																										"n=3 pooled: SAA004322, SAA004323 and SAA004324"	2018/10/05	2018/10/05
PRA000076	SAA004329	ST024				OsakaCity_sed3-123_2016	Sediment	"River sediment"	2016	10	25				Cloudy	Asia	Japan	"Mouth of Riv. Yodo, Osaka"	34.67638889		135.3975																																										"n=3 pooled: SAA004326, SAA004327 and SAA004328"	2018/10/5	2018/10/5
PRA000076	SAA004330	ST023				OsakaCity_sed1-123_2016	Sediment	"Marine sediment"	2016	10	25				Cloudy	Asia	Japan	"Osaka Port, Osaka"	34.65861111		135.4313889																																										"n=3 pooled: SAA004110, SAA004111 and SAA004112"	2018/10/5	2018/10/5
PRA000076	SAA004334	ST023				OsakaCity_sed4-123_2016	Sediment	"Marine sediment"	2016	10	25				Cloudy	Asia	Japan	"Outside of Osaka Port, Osaka"	34.64027778		135.3858333																																										"n=3 pooled: SAA004331, SAA004332 and SAA004333"	2018/10/5	2018/10/5
PRA000076	SAA004335	ST023				Hyogo_sed1-123_2016	Sediment	"Marine sediment"	2016	10	18				Fair	Asia	Japan	"Offshore of Himeji, Hyogo"	34.76194444		134.6697222																																										"n=3 pooled: SAA004198, SAA004199 and SAA004200"	2018/10/5	2018/10/5
PRA000076	SAA004336	ST023				Hyogo_sed2-123_2016	Sediment	"Marine sediment"	2016	11	1				Fair	Asia	Japan	"Center of Kobe Port, Hyogo"	34.66444444		135.1944444																																										"n=3 pooled: SAA004201, SAA004202 and SAA004203"	2018/10/5	2018/10/5
PRA000076	SAA004340	ST024				Nara_sed1_123_2016	Sediment	"River sediment"	2016	10	19				Fair	Asia	Japan	"Taisho-bashi Bridge, Riv. Yamato (Oji town), Nara"	34.58583333		135.6833333																																										"n=3 pooled: SAA004337, SAA004338 and SAA004339"	2018/10/05	2018/10/05
PRA000076	SAA004344	ST024				Wakayama_sed1-123_2016	Sediment	"River sediment"	2016	10	19				Cloudy	Asia	Japan	"Kinokawa-ohashi Bridge, Mouth of Riv. Kinokawa (Wakayama City), Wakayama"	34.23		135.1561111																																										"n=3 pooled: SAA004341, SAA004342 and SAA004343"	2018/10/5	2018/10/5
PRA000076	SAA004345	ST023				Okayama_sed1-123_2016	Sediment	"Marine sediment"	2016	10	26				Cloudy	Asia	Japan	"Offshore of Mizushima, Okayama"	34.48055556		133.665																																										"n=3 pooled: SAA004113, SAA004114 and SAA004115"	2018/10/5	2018/10/5
PRA000076	SAA004349	ST023				Hiroshima_sed1-123_2016	Sediment	"Marine sediment"	2016	11	7				Fair	Asia	Japan	"Kure Port, Hiroshima"	34.23361111		132.5391667																																										"n=3 pooled: SAA004346, SAA004347 and SAA004348"	2018/10/5	2018/10/5
PRA000076	SAA004353	ST023				Hiroshima_sed2-123_2016	Sediment	"Marine sediment"	2016	11	7				Fair	Asia	Japan	"Hiroshima Bay (Hiroshima City), Hiroshima"	34.34833333		132.4225																																										"n=3 pooled: SAA004350, SAA004351 and SAA004352"	2018/10/05	2018/10/05
PRA000076	SAA004354	ST023				Yamaguchi_sed1-123_2016	Sediment	"Marine sediment"	2016	10	14				Cloudy	Asia	Japan	"Tokuyama Bay, Yamaguchi"	33.99361111		131.7505556																																										"n=3 pooled: SAA004204, SAA004205 and SAA004206"	2018/10/5	2018/10/5
PRA000076	SAA004358	ST023				Yamaguchi_sed2-123_2016	Sediment	"Marine sediment"	2016	11	16				Fair	Asia	Japan	"Offshore of Ube, Yamaguchi"	33.915		131.1975																																										"n=3 pooled: SAA004355, SAA004356 and SAA004357"	2018/10/5	2018/10/5
PRA000076	SAA004359	ST023				Yamaguchi_sed3-123_2016	Sediment	"Marine sediment"	2016	11	4				Fair	Asia	Japan	"Offshore of Hagi, Yamaguchi"	34.43805556		131.3794444																																										"n=3 pooled:SAA004207, SAA004208 and SAA004209"	2018/10/5	2018/10/5
PRA000076	SAA004363	ST024				Tokushima_sed1-123_2016	Sediment	"River sediment"	2016	10	19				"Slightly cloudy"	Asia	Japan	"Mouth of Riv. Yoshino (Tokushima City), Tokushima"	34.085		134.5913889																																										"n=3 pooled: SAA004360, SAA004361 and SAA004362"	2018/10/05	2018/10/05
PRA000076	SAA004364	ST023				Kagawa_sed1-123_2016	Sediment	"Marine sediment"	2016	10	4				Cloudy	Asia	Japan	"Takamatsu Port, Kagawa"	34.34972222		134.0788889																																										"n=3 pooled: SAA004210, SAA004211 and SAA004212"	2018/10/5	2018/10/5
PRA000076	SAA004368	ST023				Ehime_sed1-123_2016	Sediment	"Marine sediment"	2016	10	25				Fair	Asia	Japan	"Niihama Port, Ehime"	33.98777778		133.3144444																																										"n=3 pooled: SAA004365, SAA004366 and SAA004367"	2018/10/5	2018/10/5
PRA000076	SAA004372	ST024				Kochi_sed1-123_2016	Sediment	"River sediment"	2016	10	14				Cloudy	Asia	Japan	"Mouth of Riv. Shimanto (Shimanto City), Kochi"	32.93777778		132.8441667																																										"n=3 pooled: SAA004369, SAA004370 and SAA004371"	2018/10/05	2018/10/05
PRA000076	SAA004376	ST023				KitakyushuCity_sed1-123_2016	Sediment	"Marine sediment"	2016	10	18				Fair	Asia	Japan	"Dokai Bay (Kitakyushu City), Fukuoka"	33.90388889		130.8158333																																										"n=3 pooled: SAA004373, SAA004374 and SAA004375"	2018/10/05	2018/10/05
PRA000076	SAA004377	ST023				FukuokaCity_sed1-123_2016	Sediment	"Marine sediment"	2016	10	18				Fair	Asia	Japan	"Hakata Bay, Fukuoka"	33.60833333		130.3297222																																										"n=3 pooled: SAA004119, SAA004120 and SAA004121"	2018/10/5	2018/10/5
PRA000076	SAA004381	ST023				Saga_sed1-123_2016	Sediment	"Marine sediment"	2016	10	26				Cloudy	Asia	Japan	"Imari Bay, Saga"	33.34		129.8208333																																										"n=3 pooled: SAA004378, SAA004379 and SAA004380"	2018/10/5	2018/10/5
PRA000076	SAA004385	ST023				Nagasaki_sed1-123_2016	Sediment	"Marine sediment"	2016	12	15				Cloudy	Asia	Japan	"Omura Bay, Nagasaki"	32.98833333		129.8522222																																										"n=3 pooled: SAA004382, SAA004383 and SAA004384"	2018/10/5	2018/10/5
PRA000076	SAA004215	ST024				Oita_sed1-3_2016	Sediment	"River sediment"	2016	10	31	2016-10-31T10:00			Cloudy	Asia	Japan	"Mouth of Riv. Oita, Oita"	33.25722222		131.6175														18.1	17.5										22.4	2.9	Sandy	Black	"Greenish brown"	Odorless	"Shell; Small pieces of shell; Stone"	15.1/21.6	1.3/NA									"Monitoring: This sample was used as the pooled sample:SAA004386 for chemical analysis; Sediment Moisture(%):15.1/21.5;  Ignition Loss(%)1.3/1.0"	2018/10/5	2018/10/5
PRA000076	SAA004386	ST024				Oita_sed1-123_2016	Sediment	"River sediment"	2016	10	31				Cloudy	Asia	Japan	"Mouth of Riv. Oita, Oita"	33.25722222		131.6175																																										"n=3 pooled: SAA004213, SAA004214 and SAA004215"	2018/10/5	2018/10/5
PRA000076	SAA004390	ST024				Miyazaki_sed1-123_2016	Sediment	"River sediment"	2016	10	31				Cloudy	Asia	Japan	"Mouth of Riv. Oyodo (Miyazaki City), Miyazaki"	31.89611111		131.4402778																																										"n=3 pooled: SAA004387, SAA004388 and SAA004389"	2018/10/05	2018/10/05
PRA000076	SAA004394	ST024				Kagoshima_sed1-123_2016	Sediment	"River sediment"	2016	11	17				Fair	Asia	Japan	"Riv. Amori (Kirishima City), Kagoshima"	31.7225		130.7416667																																										"n=3 pooled: SAA004391, SAA004392 and SAA004393"	2018/10/05	2018/10/05
PRA000076	SAA004398	ST024				Kagoshima_sed2-123_2016	Sediment	"River sediment"	2016	10	31				Cloudy	Asia	Japan	"Gotanda-bashi Bridge, Riv. Gotanda (Ichikikushikino City), Kagoshima"	31.72583333		130.2769444																																										"n=3 pooled: SAA004395, SAA004396 and SAA004397"	2018/10/05	2018/10/05
PRA000076	SAA004402	ST023				Okinawa_sed1-123_2016	Sediment	"Marine sediment"	2016	10	27				Fair	Asia	Japan	"Naha Port, Okinawa"	26.21222222		127.665																																										"n=3 pooled: SAA004399, SAA004400 and SAA004401"	2018/10/5	2018/10/5
PRA000079	SAA004498	ST023				TP-1_53	Sediment	"Sediment Core"	2002	6	6					Asia	Japan	"Tokyo Bay"	35.58666667		139.8783333						17.65	"g wet"															13				"0 - 0.05"						81	12.3									"Ignition loss(%):at 600 ℃, 2h; Depositional age (year)(by <sup>210</sup>Pb method): 1998; Bulk dens(g/cm3): 1.11"	2018/11/8	2018/11/8
PRA000079	SAA004499	ST023				TP-1_56	Sediment	"Sediment Core"	2002	6	6					Asia	Japan	"Tokyo Bay"	35.58666667		139.8783333						15.86	"g wet"															13				"0.05 - 0.1"						73.8	11.3									"Ignition loss(%):at 600 ℃, 2h; Depositional age (year)(by <sup>210</sup>Pb method): 1989; Bulk dens(g/cm3): 11.16"	2018/11/8	2018/11/8
PRA000079	SAA004500	ST023				TP-1_59	Sediment	"Sediment Core"	2002	6	6					Asia	Japan	"Tokyo Bay"	35.58666667		139.8783333						15.7	"g wet"															13				"0.1 - 0.15"						73.9	10.8									"Ignition loss(%):at 600 ℃, 2h; Depositional age (year)(by <sup>210</sup>Pb method): 1979; Bulk dens(g/cm3): 11.17"	2018/11/8	2018/11/8
PRA000079	SAA004501	ST023				TP-1_62	Sediment	"Sediment Core"	2002	6	6					Asia	Japan	"Tokyo Bay"	35.58666667		139.8783333						16.7	"g wet"															13				"0.15 - 0.2"						70.9	9.7									"Ignition loss(%):at 600 ℃, 2h; Depositional age (year)(by <sup>210</sup>Pb method): 1968; Bulk dens(g/cm3): 11.19"	2018/11/8	2018/11/8
PRA000079	SAA004502	ST023				TP-1_67	Sediment	"Sediment Core"	2002	6	6					Asia	Japan	"Tokyo Bay"	35.58666667		139.8783333						16.36	"g wet"															13				"0.25 - 0.3"						67.9	8.2									"Ignition loss(%):at 600 ℃, 2h; Depositional age (year)(by <sup>210</sup>Pb method): 1943; Bulk dens(g/cm3): 11.22"	2018/11/8	2018/11/8
PRA000079	SAA004503	ST023				TP-1_69	Sediment	"Sediment Core"	2002	6	6					Asia	Japan	"Tokyo Bay"	35.58666667		139.8783333						16	"g wet"															13				"0.3 - 0.35"						66.5	7.8									"Ignition loss(%):at 600 ℃, 2h; Depositional age (year)(by <sup>210</sup>Pb method): 1930; Bulk dens(g/cm3): 11.23"	2018/11/8	2018/11/8
PRA000079	SAA004504	ST023				TP-1_71	Sediment	"Sediment Core"	2002	6	6					Asia	Japan	"Tokyo Bay"	35.58666667		139.8783333						17.25	"g wet"															13				"0.35 - 0.4"						65.4	7.8									"Ignition loss(%):at 600 ℃, 2h; Depositional age (year)(by <sup>210</sup>Pb method): 1915; Bulk dens(g/cm3): 11.23"	2018/11/8	2018/11/8
PRA000079	SAA004505	ST023				TP-4_106	Sediment	"Sediment Core"	2002	6	6					Asia	Japan	"Tokyo Bay"	35.545		139.9133333																						20				"0 - 0.05"						84.5	13.8									"Ignition loss(%):at 600 ℃, 2h; Depositional age (year)(by <sup>210</sup>Pb method): 2000; Bulk dens(g/cm3): 11.09"	2018/11/8	2018/11/8
PRA000079	SAA004506	ST023				TP-4_109	Sediment	"Sediment Core"	2002	6	6					Asia	Japan	"Tokyo Bay"	35.545		139.9133333																						20				"0.05 - 0.1"						77.9	12.5									"Ignition loss(%):at 600 ℃, 2h; Depositional age (year)(by <sup>210</sup>Pb method): 1995; Bulk dens(g/cm3): 11.14"	2018/11/8	2018/11/8
PRA000079	SAA004507	ST023				TP-4_111	Sediment	"Sediment Core"	2002	6	6					Asia	Japan	"Tokyo Bay"	35.545		139.9133333																						20				"0.1 - 0.15"						77.4	12.2									"Ignition loss(%):at 600 ℃, 2h; Depositional age (year)(by <sup>210</sup>Pb method): 1988; Bulk dens(g/cm3): 11.14"	2018/11/8	2018/11/8
PRA000079	SAA004508	ST023				TP-4_116	Sediment	"Sediment Core"	2002	6	6					Asia	Japan	"Tokyo Bay"	35.545		139.9133333																						20				"0.15 - 0.2"						77.3	11.9									"Ignition loss(%):at 600 ℃, 2h; Depositional age (year)(by <sup>210</sup>Pb method): 1982; Bulk dens(g/cm3): 11.14"	2018/11/8	2018/11/8
PRA000079	SAA004509	ST023				TP-4_118	Sediment	"Sediment Core"	2002	6	6					Asia	Japan	"Tokyo Bay"	35.545		139.9133333																						20				"0.2 - 0.25"						76.4	10.7									"Ignition loss(%):at 600 ℃, 2h; Depositional age (year)(by <sup>210</sup>Pb method): 1975; Bulk dens(g/cm3): 11.15"	2018/11/8	2018/11/8
PRA000079	SAA004510	ST023				TP-4_119	Sediment	"Sediment Core"	2002	6	6					Asia	Japan	"Tokyo Bay"	35.545		139.9133333																						20				"0.25 - 0.3"						76.6	11									"Ignition loss(%):at 600 ℃, 2h; Depositional age (year)(by <sup>210</sup>Pb method): 1968; Bulk dens(g/cm3): 11.15"	2018/11/8	2018/11/8
PRA000079	SAA004511	ST023				TP-4_121	Sediment	"Sediment Core"	2002	6	6					Asia	Japan	"Tokyo Bay"	35.545		139.9133333																						20				"0.3 - 0.35"						73.8	10.1									"Ignition loss(%):at 600 ℃, 2h; Depositional age (year)(by <sup>210</sup>Pb method): 1961; Bulk dens(g/cm3): 11.18"	2018/11/8	2018/11/8
PRA000079	SAA004512	ST023				TP-4_126	Sediment	"Sediment Core"	2002	6	6					Asia	Japan	"Tokyo Bay"	35.545		139.9133333																						20				"0.4 - 0.45"						75.3	9.9									"Ignition loss(%):at 600 ℃, 2h; Depositional age (year)(by <sup>210</sup>Pb method): 1945; Bulk dens(g/cm3): 11.16"	2018/11/8	2018/11/8
PRA000079	SAA004513	ST023				TP-5_29	Sediment	"Sediment Core"	2002	6	5					Asia	Japan	"Tokyo Bay"	35.52833333		139.9783333						15.25	"g wet"															19				"0 - 0.05"						81.9	12.4									"Ignition loss(%):at 600 ℃, 2h; Depositional age (year)(by <sup>210</sup>Pb method): 1999; Bulk dens(g/cm3): 11.12"	2018/11/8	2018/11/8
PRA000079	SAA004514	ST023				TP-5_30	Sediment	"Sediment Core"	2002	6	5					Asia	Japan	"Tokyo Bay"	35.52833333		139.9783333						15.03	"g wet"															19				"0.05 - 0.1"						76.2	12.2									"Ignition loss(%):at 600 ℃, 2h; Depositional age (year)(by <sup>210</sup>Pb method): 1992; Bulk dens(g/cm3): 11.16"	2018/11/8	2018/11/8
PRA000079	SAA004515	ST023				TP-5_35	Sediment	"Sediment Core"	2002	6	5					Asia	Japan	"Tokyo Bay"	35.52833333		139.9783333						15.16	"g wet"															19				"0.1 - 0.15"						75.1	11.3									"Ignition loss(%):at 600 ℃, 2h; Depositional age (year)(by <sup>210</sup>Pb method): 1984; Bulk dens(g/cm3): 11.17"	2018/11/8	2018/11/8
PRA000079	SAA004516	ST023				TP-5_36	Sediment	"Sediment Core"	2002	6	5					Asia	Japan	"Tokyo Bay"	35.52833333		139.9783333						15.12	"g wet"															19				"0.15 - 0.2"						74.6	11.2									"Ignition loss(%):at 600 ℃, 2h; Depositional age (year)(by <sup>210</sup>Pb method): 1975; Bulk dens(g/cm3): 11.17"	2018/11/8	2018/11/8
PRA000079	SAA004517	ST023				TP-5_39	Sediment	"Sediment Core"	2002	6	5					Asia	Japan	"Tokyo Bay"	35.52833333		139.9783333						15.92	"g wet"															19				"0.2 - 0.25"						71.1	9.9									"Ignition loss(%):at 600 ℃, 2h; Depositional age (year)(by <sup>210</sup>Pb method): 1966; Bulk dens(g/cm3): 11.2"	2018/11/8	2018/11/8
PRA000079	SAA004518	ST023				TP-5_43	Sediment	"Sediment Core"	2002	6	5					Asia	Japan	"Tokyo Bay"	35.52833333		139.9783333						15.41	"g wet"															19				"0.3 - 0.35"						67.9	9									"Ignition loss(%):at 600 ℃, 2h; Depositional age (year)(by <sup>210</sup>Pb method): 1945; Bulk dens(g/cm3): 11.24"	2018/11/8	2018/11/8
PRA000079	SAA004519	ST023				TP-5_45	Sediment	"Sediment Core"	2002	6	5					Asia	Japan	"Tokyo Bay"	35.52833333		139.9783333						15.22	"g wet"															19				"0.35 - 0.4"						66.7	8.5									"Ignition loss(%):at 600 ℃, 2h; Depositional age (year)(by <sup>210</sup>Pb method): 1933; Bulk dens(g/cm3): 11.25"	2018/11/8	2018/11/8
PRA000080	SAA004526	ST009	6564	es-BANK	EF05630	St.1_Oys-37	"Crassostrea sp."	Oyster	2005	5	14					Asia	Japan	"Ishikari-gawa River mouth, Hokkaido"	43.25803333	43.27386389	141.3631639	141.3721861		"Whole soft tissue"	1.2				"0.9 - 10.2 "	cm	"Shell length"																																"Pooled; Sampling location: St. 1"	2018/11/19	2018/11/19
PRA000080	SAA004527	ST009	29158	es-BANK	EF04165	St.1_Mus-03	"Mytilus galloprovincialis"	"Blue mussel"	2005	5	14					Asia	Japan	"Ishikari-gawa River, Hokkaido"	43.20676667	43.52913889	141.3299361	141.8824194		"Whole soft tissue"	1.1				"1.4 - 6.4"	cm	"Shell length"																																"Pooled; Sampling location: St. 1"	2018/11/19	2018/11/19
PRA000080	SAA004528	ST009	6564	es-BANK	EF05641	St.2_Oys-48	"Crassostrea sp."	Oyster	2005	11	10					Asia	Japan	"Aomori Port, Aomori"	40.83063333	40.86621111	140.6878139	140.837075		"Whole soft tissue"	1				"4 - 7.6 "	cm	"Shell length"																																"Pooled; Sampling location: St. 2"	2018/11/19	2018/11/19
PRA000080	SAA004529	ST009	6564	es-BANK	EF05637	St.3_Oys-44	"Crassostrea sp."	Oyster	2005	11	8					Asia	Japan	"Kamaishi Port, Iwate"	39.26333333	39.28611111	141.8983333	141.9038889		"Whole soft tissue"	1.4				"6.9 - 14.6 "	cm	"Shell length"																																"Pooled; Sampling location: St. 3"	2018/11/19	2018/11/19
PRA000080	SAA004530	ST009	6564	es-BANK	EF05636	St.4_Oys-43	"Crassostrea sp."	Oyster	2005	11	8					Asia	Japan	"Kesennuma Port, Miyagi"	38.90527778	38.90666667	141.5766667	141.5766667		"Whole soft tissue"	1.7				"4.3 - 8.9 "	cm	"Shell length"																																"Pooled; Sampling location: St. 4"	2018/11/19	2018/11/19
PRA000080	SAA004531	ST009	29158	es-BANK	EF06324	St.4_Mus-06	"Mytilus galloprovincialis"	"Blue mussel"	2005	11	8					Asia	Japan	"Kesennuma Port, Miyagi"	38.90527778	38.90666667	141.5766667	141.5766667		"Whole soft tissue"	2.4				"2.7 - 6.2"	cm	"Shell length"																																"Pooled; Sampling location: St. 4"	2018/11/19	2018/11/19
PRA000080	SAA004532	ST009	6564	es-BANK	EF05600	St.5_Oys-07	"Crassostrea sp."	Oyster	2005	8	6					Asia	Japan	"Toyama Port, Toyama"	36.76083333	36.77861111	137.1911111	137.2647222		"Whole soft tissue"	2.6				"2.3 - 8.2 "	cm	"Shell length"																																"Pooled; Sampling location: St. 5"	2018/11/19	2018/11/19
PRA000080	SAA004533	ST009	6564	es-BANK	EF05604	St.6_Oys-11	"Crassostrea sp."	Oyster	2005	8	7					Asia	Japan	"Tsuruga, Fukui"	35.65083333	35.80722222	135.9586111	136.1111111		"Whole soft tissue"	2.7				"1.6 - 6.5 "	cm	"Shell length"																																"Pooled; Sampling location: St. 6"	2018/11/19	2018/11/19
PRA000080	SAA004534	ST009	6564	es-BANK	EF05603	St.7_Oys-10	"Crassostrea sp."	Oyster	2005	6	29					Asia	Japan	"Tokyo Bay, Odaiba, Tokyo"	35.58166667	35.6375	139.7597222	139.855		"Whole soft tissue"	1.3				"1.6 - 6.5 "	cm	"Shell length"																																"Pooled; Sampling location: St. 7"	2018/11/19	2018/11/19
PRA000080	SAA004535	ST009	6564	es-BANK	EF05612	St.8_Oys-19	"Crassostrea sp."	Oyster	2005	8	6					Asia	Japan	"Ota-gawa River Mouth, Shizuoka"	34.65722222	34.68888889	137.8836111	137.9130556		"Whole soft tissue"	2				"1.6 - 6.7 "	cm	"Shell length"																																"Pooled; Sampling location: St. 8"	2018/11/19	2018/11/19
PRA000080	SAA004536	ST009	6564	es-BANK	EF05602	St.9_Oys-09	"Crassostrea sp."	Oyster	2005	8	8					Asia	Japan	"Nagoya Port, Aichi"	35.07444444	35.08638889	136.8711111	136.8886111		"Whole soft tissue"	1.7				"2.4 - 7.6 "	cm	"Shell length"																																"Pooled; Sampling location: St. 9"	2018/11/19	2018/11/19
PRA000080	SAA004537	ST009	6564	es-BANK	EF05610	St.10_Oys-17	"Crassostrea sp."	Oyster	2005	6	14					Asia	Japan	"Osaka South Port, Osaka"	34.60666667	34.67138889	135.3105556	135.4486111		"Whole soft tissue"	2.8				"0.7 - 6.7 "	cm	"Shell length"																																"Pooled; Sampling location: St. 10"	2018/11/19	2018/11/19
PRA000080	SAA004538	ST009	6564	es-BANK	EF05616	St.11_Oys-23	"Crassostrea sp."	Oyster	2005	6	14					Asia	Japan	"Front of Kaiyukan, Osaka"	34.63943333	34.672325	135.3870278	135.4400861		"Whole soft tissue"	2				"0.9 - 6.9 "	cm	"Shell length"																																"Pooled; Sampling location: St. 11"	2018/11/19	2018/11/19
PRA000080	SAA004539	ST009	6564	es-BANK	EF05595	St.12_Oys-02	"Crassostrea sp."	Oyster	2005	5	30					Asia	Japan	"Kobe Port, Hyogo"	34.56083333	34.62083333	135.0525	135.3125		"Whole soft tissue"	3.4				"2.8 - 8.7 "	cm	"Shell length"																																"Pooled; Sampling location: St. 12"	2018/11/19	2018/11/19
PRA000080	SAA004540	ST009	6564	es-BANK	EF05617	St.13_Oys-24	"Crassostrea sp."	Oyster	2005	6	18					Asia	Japan	"Himeji, Hyogo"	34.713075	34.77719722	134.5728972	134.7587194		"Whole soft tissue"	3.3				"1.3 - 10.7 "	cm	"Shell length"																																"Pooled; Sampling location: St. 13"	2018/11/19	2018/11/19
PRA000080	SAA004541	ST009	29158	es-BANK	EF04166	St.13_Mus-01	"Mytilus galloprovincialis"	"Blue mussel"	2005	6	18					Asia	Japan	"Himeji, Hyogo"	34.713075	34.77719722	134.5728972	134.7587194		"Whole soft tissue"	1.9				"6.6 - 9.3"	cm	"Shell length"																																"Pooled; Sampling location: St. 13"	2018/11/19	2018/11/19
PRA000080	SAA004542	ST009	6564	es-BANK	EF05618	St.14_Oys-25	"Crassostrea sp."	Oyster	2005	6	25					Asia	Japan	"Ujina Port, Hiroshima"	34.33361111	34.36138889	132.3836111	132.4969444		"Whole soft tissue"	3.2				"2.2 - 7.9 "	cm	"Shell length"																																"Pooled; Sampling location: St. 14"	2018/11/19	2018/11/19
PRA000080	SAA004543	ST009	6564	es-BANK	EF05628	St.15_Oys-35	"Crassostrea sp."	Oyster	2005	6	24					Asia	Japan	"Kure Port, Hiroshima"	34.23583333	34.23972222	132.5455556	132.5569444		"Whole soft tissue"	2.7				"3 - 8.1 "	cm	"Shell length"																																"Pooled; Sampling location: St. 15"	2018/11/19	2018/11/19
PRA000080	SAA004544	ST009	6564	es-BANK	EF05625	St.16_Oys-32	"Crassostrea sp."	Oyster	2005	6	26					Asia	Japan	"Edomari Port, Hofu, Yamaguchi"	34.03217778	34.04163333	131.5970333	131.6019		"Whole soft tissue"	2.9				"1.2 - 8.3 "	cm	"Shell length"																																"Pooled; Sampling location: St. 16"	2018/11/19	2018/11/19
PRA000080	SAA004545	ST009	6564	es-BANK	EF05623	St.17_Oys-30	"Crassostrea sp."	Oyster	2005	6	26					Asia	Japan	"Hagi Port, Yamagichi"	34.41831667	34.42974722	131.3650889	131.4070722		"Whole soft tissue"	3.1				"2.6 - 9 "	cm	"Shell length"																																"Pooled; Sampling location: St. 17"	2018/11/19	2018/11/19
PRA000080	SAA004546	ST009	29158	es-BANK	EF04167	St.17_Mus-02	"Mytilus galloprovincialis"	"Blue mussel"	2005	6	26					Asia	Japan	"Hagi Port, Yamagichi"	34.41831667	34.42974722	131.3650889	131.4070722		"Whole soft tissue"	1.1				"4.3 - 8.7"	cm	"Shell length"																																"Pooled; Sampling location: St. 17"	2018/11/19	2018/11/19
PRA000080	SAA004547	ST009	6564	es-BANK	EF05615	St.18_Oys-22	"Crassostrea sp."	Oyster	2005	6	25					Asia	Japan	"Horie Port, Ehime"	33.9206	33.93695	132.7529972	132.7605028		"Whole soft tissue"	2.7				"3.7 - 7.5 "	cm	"Shell length"																																"Pooled; Sampling location: St. 18"	2018/11/19	2018/11/19
PRA000080	SAA004548	ST009	6564	es-BANK	EF05605	St.19_Oys-12	"Crassostrea sp."	Oyster	2005	6	24					Asia	Japan	"Kochi Port, Kochi"	33.45055556	33.48083333	133.5405556	133.615		"Whole soft tissue"	3.5				"1.9 - 7.1 "	cm	"Shell length"																																"Pooled; Sampling location: St. 19"	2018/11/19	2018/11/19
PRA000080	SAA004549	ST009	6564	es-BANK	EF05594	St.20_Oys-01	"Crassostrea sp."	Oyster	2005	7	13					Asia	Japan	"Front of Fukuoka Dome, Fukuoka"	33.59751111	33.59799444	130.3552306	130.3633833		"Whole soft tissue"	2.6				"2.8 - 5.7 "	cm	"Shell length"																																"Pooled; Sampling location: St. 20"	2018/11/19	2018/11/19
PRA000080	SAA004550	ST009	6564	es-BANK	EF05627	St.21_Oys-34	"Crassostrea sp."	Oyster	2005	7	31					Asia	Japan	"Minamata Bay, Kumamoto"	32.14694444	32.24333333	130.2266667	130.3525		"Whole soft tissue"	2.2				"1 - 8.3 "	cm	"Shell length"																																"Pooled; Sampling location: St. 21"	2018/11/19	2018/11/19
PRA000080	SAA004551	ST009	6564	es-BANK	EF05633	St.22_Oys-40	"Crassostrea sp."	Oyster	2005	10	11					Asia	Japan	"Okutakejima Port, Okinawa"	26.12583333	26.13194444	127.7691667	127.7797222		"Whole soft tissue"	2.2				"2.2 - 6.5 "	cm	"Shell length"																																"Pooled; Sampling location: St. 22"	2018/11/19	2018/11/19
PRA000086	SAA004921	ST026				GH13-1-2	Soil	"Surface soil (e-waste burning spot/open-burning area)"	2013	8						Africa	Ghana	"Agbogbloshie e-waste site"	5.5519917		-0.2283139						0.61	g																											0-0.02									2019/4/11	2019/4/11
PRA000086	SAA004922	ST026				GH13-1-6	Soil	"Surface soil (e-waste burning spot/open-burning area)"	2013	8						Africa	Ghana	"Agbogbloshie e-waste site"	5.5522944		-0.2280222						0.95	g																											0-0.02									2019/4/11	2019/4/11
PRA000086	SAA004923	ST026				GH13-1-10	Soil	"Surface soil (e-waste burning spot/open-burning area)"	2013	8						Africa	Ghana	"Agbogbloshie e-waste site"	5.5521194		-0.22815						1.09	g																											0-0.02									2019/4/11	2019/4/11
PRA000086	SAA004924	ST026				GH13-2-5	Soil	"Surface soil (e-waste burning spot/open-burning area)"	2013	8						Africa	Ghana	"Agbogbloshie e-waste site"	5.5517222		-0.2277556						0.64	g																											0-0.02									2019/4/11	2019/4/11
PRA000086	SAA004925	ST026				GH13-2-8	Soil	"Surface soil (e-waste burning spot/open-burning area)"	2013	8						Africa	Ghana	"Agbogbloshie e-waste site"	5.5514417		-0.2280528						0.53	g																											0-0.02									2019/4/11	2019/4/11
PRA000086	SAA004926	ST026				GH13-2-10	Soil	"Surface soil (e-waste burning spot/open-burning area)"	2013	8						Africa	Ghana	"Agbogbloshie e-waste site"	5.5516778		-0.2279028						1	g																											0-0.02									2019/4/11	2019/4/11
PRA000086	SAA004927	ST026				GH13-3-1	Soil	"Surface soil (e-waste burning spot/open-burning area)"	2013	8						Africa	Ghana	"Agbogbloshie e-waste site"	5.550925		-0.2264861						0.86	g																											0-0.02									2019/4/11	2019/4/11
PRA000086	SAA004928	ST026				GH13-3-6	Soil	"Surface soil (e-waste burning spot/open-burning area)"	2013	8						Africa	Ghana	"Agbogbloshie e-waste site"	5.5508333		-0.2261222						0.52	g																											0-0.02									2019/4/11	2019/4/11
PRA000086	SAA004929	ST026				GH13-3-9	Soil	"Surface soil (e-waste burning spot/open-burning area)"	2013	8						Africa	Ghana	"Agbogbloshie e-waste site"	5.5512694		-0.2262194						0.53	g																											0-0.02									2019/4/11	2019/4/11
PRA000086	SAA004930	ST026				GH13-4-1	Soil	"Surface soil (e-waste burning spot/open-burning area)"	2013	8						Africa	Ghana	"Agbogbloshie e-waste site"	5.5509722		-0.2253361						0.57	g																											0-0.02									2019/4/11	2019/4/11
PRA000086	SAA004931	ST026				GH13-4-3	Soil	"Surface soil (e-waste burning spot/open-burning area)"	2013	8						Africa	Ghana	"Agbogbloshie e-waste site"	5.5513417		-0.2252583						0.31	g																											0-0.02									2019/4/11	2019/4/11
PRA000086	SAA004932	ST026				GH13-4-8	Soil	"Surface soil (e-waste burning spot/open-burning area)"	2013	8						Africa	Ghana	"Agbogbloshie e-waste site"	5.5503333		-0.225325						0.83	g																											0-0.02									2019/4/11	2019/4/11
PRA000086	SAA004933	ST026				GH13-5-6	Soil	"Surface soil (common solid waste burning spot)"	2013	8						Africa	Ghana	"Agbogbloshie e-waste site"	5.554225		-0.2287972						0.71	g																											0-0.02									2019/4/11	2019/4/11
PRA000086	SAA004934	ST026				GH13-5-8	Soil	"Surface soil (common solid waste burning spot)"	2013	8						Africa	Ghana	"Agbogbloshie e-waste site"	5.5540417		-0.2285306						0.59	g																											0-0.02									2019/4/11	2019/4/11
PRA000086	SAA004935	ST026				GH13-5-10	Soil	"Surface soil (common solid waste burning spot)"	2013	8						Africa	Ghana	"Agbogbloshie e-waste site"	5.5539556		-0.228775						0.61	g																											0-0.02									2019/4/11	2019/4/11
PRA000086	SAA004936	ST026				GH13-6-1	Soil	"Surface soil (dismantling area)"	2013	8						Africa	Ghana	"Agbogbloshie e-waste site"	5.5540167		-0.2250833						1.06	g																											0-0.02									2019/4/11	2019/4/11
PRA000086	SAA004937	ST026				GH13-6-2	Soil	"Surface soil (dismantling area)"	2013	8						Africa	Ghana	"Agbogbloshie e-waste site"	5.5539056		-0.2249972						1.08	g																											0-0.02									2019/4/11	2019/4/11
PRA000086	SAA004938	ST026				GH13-6-3	Soil	"Surface soil (dismantling area)"	2013	8						Africa	Ghana	"Agbogbloshie e-waste site"	5.5537222		-0.2247944						1.9	g																											0-0.02									2019/4/11	2019/4/11
PRA000086	SAA004939	ST026				GH13-6-4	Soil	"Surface soil (dismantling area)"	2013	8						Africa	Ghana	"Agbogbloshie e-waste site"	5.55355		-0.224725						1.08	g																											0-0.02									2019/4/11	2019/4/11
PRA000086	SAA004940	ST026				GH13-6-6	Soil	"Surface soil (dismantling area)"	2013	8						Africa	Ghana	"Agbogbloshie e-waste site"	5.5535389		-0.2250806						1.06	g																											0-0.02									2019/4/11	2019/4/11
PRA000086	SAA004941	ST026				GH13-6-7	Soil	"Surface soil (dismantling area)"	2013	8						Africa	Ghana	"Agbogbloshie e-waste site"	5.5534		-0.2252806						1.08	g																											0-0.02									2019/4/11	2019/4/11
PRA000086	SAA004942	ST026				GH13-6-8	Soil	"Surface soil (dismantling area)"	2013	8						Africa	Ghana	"Agbogbloshie e-waste site"	5.5532167		-0.2255861						1.1	g																											0-0.02									2019/4/11	2019/4/11
PRA000086	SAA004943	ST026				GH13-6-10	Soil	"Surface soil (dismantling area)"	2013	8						Africa	Ghana	"Agbogbloshie e-waste site"	5.5527861		-0.2254028						0.45	g																											0-0.02									2019/4/11	2019/4/11
PRA000086	SAA004944	ST026				GH13-6-14	Soil	"Surface soil (dismantling area)"	2013	8						Africa	Ghana	"Agbogbloshie e-waste site"	5.5521333		-0.22605						0.49	g																											0-0.02									2019/4/11	2019/4/11
PRA000086	SAA004945	ST026				GH13-6-15	Soil	"Surface soil (dismantling area)"	2013	8						Africa	Ghana	"Agbogbloshie e-waste site"	5.5524361		-0.2264417						1.04	g																											0-0.02									2019/4/11	2019/4/11
PRA000086	SAA004946	ST026				GH13-7-2	Soil	"Surface soil (dismantling area)"	2013	8						Africa	Ghana	"Agbogbloshie e-waste site"	5.5533306		-0.226825						1.1	g																											0-0.02									2019/4/11	2019/4/11
PRA000086	SAA004947	ST026				GH13-7-5	Soil	"Surface soil (dismantling area)"	2013	8						Africa	Ghana	"Agbogbloshie e-waste site"	5.5539361		-0.2266694						1.02	g																											0-0.02									2019/4/11	2019/4/11
PRA000086	SAA004948	ST026				GH13-7-7	Soil	"Surface soil (dismantling area)"	2013	8						Africa	Ghana	"Agbogbloshie e-waste site"	5.5544		-0.2266306						1.13	g																											0-0.02									2019/4/11	2019/4/11
PRA000086	SAA004949	ST026				GH13-7-9	Soil	"Surface soil (Other area)"	2013	8						Africa	Ghana	"Agbogbloshie e-waste site"	5.5546167		-0.22615						1.22	g																											0-0.02									2019/4/11	2019/4/11
PRA000086	SAA004950	ST026				GH13-102	Soil	"Surface soil (dismantling area)"	2013	8						Africa	Ghana	"Agbogbloshie e-waste site"	5.5527972		-0.2262111						1.1	g																											0-0.02									2019/4/11	2019/4/11
PRA000086	SAA004951	ST026				GH13-109	Soil	"Surface soil (e-waste burning spot/open-burning area)"	2013	8						Africa	Ghana	"Agbogbloshie e-waste site"	5.5520278		-0.2250028						0.45	g																											0-0.02									2019/4/11	2019/4/11
PRA000086	SAA004952	ST026				GH13-110	Soil	"Surface soil (Other area)"	2013	8						Africa	Ghana	"Agbogbloshie e-waste site"	5.5500056		-0.2256389						0.56	g																											0-0.02									2019/4/11	2019/4/11
PRA000086	SAA004953	ST026				GH13-113	Soil	"Surface soil (Other area)"	2013	8						Africa	Ghana	"Agbogbloshie e-waste site"	5.5489194		-0.2252556						0.79	g																											0-0.02									2019/4/11	2019/4/11
PRA000086	SAA004954	ST026				GH13-114	Soil	"Surface soil (Other area)"	2013	8						Africa	Ghana	"Agbogbloshie e-waste site"	5.5499139		-0.2261417						0.41	g																											0-0.02									2019/4/11	2019/4/11
PRA000086	SAA004955	ST026				GH13-116	Soil	"Surface soil (Other area)"	2013	8						Africa	Ghana	"Agbogbloshie e-waste site"	5.5504083		-0.2264917						0.75	g																											0-0.02									2019/4/11	2019/4/11
PRA000086	SAA004956	ST026				GH13-119	Soil	"Surface soil (e-waste burning spot/open-burning area)"	2013	8						Africa	Ghana	"Agbogbloshie e-waste site"	5.5515778		-0.226775						1.03	g																											0-0.02									2019/4/11	2019/4/11
PRA000086	SAA004957	ST026				GH13-123	Soil	"Surface soil (Other area)"	2013	8						Africa	Ghana	"Agbogbloshie e-waste site"	5.5523111		-0.2287444						0.96	g																											0-0.02									2019/4/11	2019/4/11
PRA000086	SAA004958	ST026				GH13-125	Soil	"Surface soil (Other area)"	2013	8						Africa	Ghana	"Agbogbloshie e-waste site"	5.5527778		-0.2292556						0.64	g																											0-0.02									2019/4/11	2019/4/11
PRA000086	SAA004959	ST026				GH13-126	Soil	"Surface soil (Other area)"	2013	8						Africa	Ghana	"Agbogbloshie e-waste site"	5.55405		-0.2293278						0.52	g																											0-0.02									2019/4/11	2019/4/11
PRA000086	SAA004960	ST026				GH13-128	Soil	"Surface soil (Other area)"	2013	8						Africa	Ghana	"Agbogbloshie e-waste site"	5.5540528		-0.227775						0.79	g																											0-0.02									2019/4/11	2019/4/11
PRA000086	SAA004961	ST026				GH13-129	Soil	"Surface soil (Other area)"	2013	8						Africa	Ghana	"Agbogbloshie e-waste site"	5.5544083		-0.2273972						0.58	g																											0-0.02									2019/4/11	2019/4/11
PRA000099	SAA006282	ST015				Hokkaido_w3_2017	Water	"River water"	2017	11	10	2017-11-10T13:40			Cloudy	Asia	Japan	"Ishikarikako-kyo Bridge, Mouth of Riv. Ishikari (Ishikari City), Hokkaido"	43.22861111		141.3519444														8.8	6.8	6.3	9.2	37			12			"Grayish brown"																			2019/09/13	2019/09/13
PRA000099	SAA006289	ST015				Iwate_w1_2017	Water	"River water"	2017	10	4	2017-10-04T10:20			Cloudy	Asia	Japan	"Riv. Toyosawa (Hanamaki City), Iwate"	39.38166667		141.1191667														15	14.2	7.2	11	7.1			1			"Light Greenish brown"																			2019/09/13	2019/09/13
PRA000099	SAA006605	ST014				Miyagi_w3_2017	Water	"Sea water"	2017	10	17	2017-10-17T10:20			Fair	Asia	Japan	"Sendai Bay (Matsushima Bay), Miyagi"	38.35333333		141.0975														21.4	16.4	7.9	6.7	4,200			2		1	Clear																			2019/11/28	2019/11/28
PRA000099	SAA006606	ST015				Akita_w3_2017	Water	"Lake water"	2017	9	22	2017-09-22T09:53			Fair	Asia	Japan	"Lake Hachiro, Akita"	39.92277778		139.9988889														21.3	21.3	8.2	10	18			21		0.4	"Light Greenish brown"																			2019/11/28	2019/11/28
PRA000099	SAA006294	ST015				Yamagata_w1-1_2017	Water	"River water"	2017	10	18	2017-10-18T09:30			Fair	Asia	Japan	"Mouth of Riv. Mogami, Yamagata"	38.88722222		139.8433333														17.2	14.3	7	9.8	17			2			"Light Yellow"																			2019/9/18	2019/11/28
PRA000099	SAA006607	ST014				Fukushima_w1_2017	Water	"Sea water"	2017	10	11	2017-10-11T10:10			Cloudy	Asia	Japan	"Onahama Port, Fukushima"	36.92472222		140.8752778														19.8	20.5	8.1	7.3	4,800			2		6	"Bluish green"																			2019/11/28	2019/11/28
PRA000099	SAA006298	ST015				Ibaraki_w2_2017	Water	"River water"	2017	11	17	2017-11-17T10:17			Fair	Asia	Japan	"Kamome-ohasi Bridge, Mouth of Riv. Tone (Kamisu City), Ibaraki"	35.77638889		140.7569444														14.9	13	7.7	9.6	540			1.6			Clear																		"SS: 2 mg/L (for Monitoring)"	2019/09/13	2019/09/13
PRA000099	SAA006299	ST015				Tochigi_w1_2017	Water	"River water"	2017	10	18	2017-10-18T11:10			Fair	Asia	Japan	"Tagawa area-Toshuko Weir (Utsunomiya City), Tochigi"	36.52805556		139.8855556														17	16	7.4	11	19			3			Clear																		"DO: 10.7 mg/L (for Monitoring)"	2019/09/13	2019/09/13
PRA000099	SAA006300	ST015				Saitama_w2_2017	Water	"River water"	2017	11	8	2017-11-08T10:15			Cloudy	Asia	Japan	"Akigase-Shusuizeki Weir, Riv. Ara (Shiki City), Saitama"	35.84055556		139.6044444														14.1	13.4	7.7	9.7	25			7			"Grayish green"																			2019/09/13	2019/09/13
PRA000099	SAA006608	ST015				ChibaCity_w1_2017	Water	"River water"	2017	11	13	2017-11-13T10:25			Fair	Asia	Japan	"Mouth of Riv. Hanami (Chiba City), Chiba"	35.63472222		140.04694440														13.5	17.5	8.1	7.9	3,400			3			Clear																			2019/11/28	2019/11/28
PRA000099	SAA006305	ST015				Tokyo_w1_2017	Water	"River water"	2017	11	15	2017-11-15T10:35			Cloudy	Asia	Japan	"Mouth of Riv. Arakawa (Koto Ward), Tokyo"	35.64583333		139.8463889														15.2	14.4	7.8	8.8	1,500			19		1.3	"Grayish yellow green"																			2019/09/13	2019/09/13
PRA000099	SAA006306	ST015				Tokyo_w2_2017	Water	"River water"	2017	11	15	2017-11-15T12:55			Fair	Asia	Japan	"Mouth of Riv. Sumida (Minato Ward), Tokyo"	35.66		139.7705556														18.3	18.6	8.2	5.4	4,000			4		2.9	"Dark green"																			2019/09/13	2019/09/13
PRA000099	SAA006307	ST014				YokohamaCity_w3_2017	Water	"Sea water"	2017	11	6	2017-11-06T09:50			Fair	Asia	Japan	"Yokohama Port, Kanagawa"	35.45555556		139.6636111														19	16.7	8	6.9				7.8		12	Clear																		"SS: 8.0 mg/L (for Monitoring)"	2019/9/18	2019/11/28
PRA000099	SAA006310	ST014				Kawasaki_w2_2017	Water	"Sea water"	2017	11	13	2017-11-13T10:30			Fair	Asia	Japan	"Keihin Canal, Kawasaki Port, Kanagawa (front of Ogimachi)"	35.49527778		139.7277778														18	18.6	8	5	4,500			3.5		5	"Greenish blue"																		"SS: 4 mg/L (for Monitoring)"	2019/9/18	2019/11/28
PRA000099	SAA006312	ST015				Niigata_w2_2017	Water	"River water"	2017	10	11	2017-10-11T09:20			Cloudy	Asia	Japan	"Downstream of Riv. Shinano (Niigata City), Niigata"	37.88305556		139.0155556														23	19	7	8.8	16			26			"Light Gray"																			2019/09/13	2019/09/13
PRA000099	SAA006315	ST015				Toyama_w2_2017	Water	"River water"	2017	11	9	2017-11-09T11:30			Fair	Asia	Japan	"Hagiura-bashi Bridge, Mouth of Riv. Jintsu (Toyama City), Toyama"	36.745		137.2180556														18	13	7.4	10	58			2			Clear																			2019/09/13	2019/09/13
PRA000099	SAA006316	ST015				Ishikawa_w1_2017	Water	"River water"	2017	10	11	2017-10-11T09:50			Cloudy	Asia	Japan	"Mouth of Riv. Sai (Kanazawa City), Ishikawa"	36.60027778		136.5888889														25.7	21.8	7.3	7.3	200			1			Clear																			2019/09/13	2019/09/13
PRA000099	SAA006609	ST015				Fukui_w1_2017	Water	"River water"	2017	11	2	2017-11-02T10:30			Fair	Asia	Japan	"Mishima-bashi Bridge, Riv. Shono (Tsuruga City), Fukui"	35.6475		136.0627778														17	14	7.2	10	8			5			Clear																			2019/11/28	2019/11/28
PRA000099	SAA006317	ST015				Nagano_w2_2017	Water	"Lake water"	2017	11	13	2017-11-13T10:27			Fair	Asia	Japan	"Center of Lake Suwa, Nagano"	36.05		138.0861111														12.3	10.4	7.1	11	14			8		1.02	"Light Yellow green"																			2019/9/18	2019/11/28
PRA000099	SAA006320	ST015				Shizuoka_w1_2017	Water	"River water"	2017	10	5	2017-10-05T10:55			Cloudy	Asia	Japan	"Riv. Tenryu (Iwata City), Shizuoka"	34.67916667		137.7961111														20.6	19.8	7.3	9.8	12			7			Clear																			2019/09/13	2019/09/13
PRA000099	SAA006610	ST014				Aichi_w2-2_2017	Water	"Sea water"	2017	11	13	2017-11-13T11:50			Cloudy	Asia	Japan	"Nagoya Port, West of Shiomi Wharf, Aichi"	35.07111111		136.8691667														14.6	18.5	8.1	5	4,100			8		2.1	"Light Green"																			2019/11/28	2019/11/28
PRA000099	SAA006326	ST014				Mie_w1_2017	Water	"Sea water"	2017	10	24	2017-10-24T10:20			Cloudy	Asia	Japan	"Yokkaichi Port, Mie"	34.94944444		136.6530556														17	16	7.7	7.8	1,600			5		1.2	"Grayish green"																			2019/9/18	2019/11/28
PRA000099	SAA006330	ST015				Shiga_w2-2_2017	Water	"Lake water"	2017	12	18	2017-12-18T13:40			Fair	Asia	Japan	"Lake Biwa (center, offshore of Karasaki), Shiga"	35.04611111		135.8955556														7.8	6.7	7.7	13	12			4.3		2.3	"Dark Yellow green"																			2019/09/13	2019/09/13
PRA000099	SAA006331	ST014				Kyoto_w1_2017	Water	"Sea water"	2017	10	19	2017-10-19T10:15			"Cloudy with occasional rain"	Asia	Japan	"Miyazu Port, Kyoto"	35.58305556		135.2138889														17.7	21.5	8.5	7.5				2		6	Clear																			2019/9/18	2019/11/28
PRA000099	SAA006464	ST015				Kyoto_w2_2017	Water	"River water"	2017	11	29	2017-11-29T09:58			Cloudy	Asia	Japan	"Miyamae-bashi Bridge, Riv. Katsura (Kyoto City), Kyoto"	34.905		135.7125														13.3	12.7	7.3	9.4	17			3.5			Clear																		"SS: 4 mg/L (for Monitoring)"	2019/9/18	2019/11/28
PRA000099	SAA006332	ST015				Osaka_w1_2017	Water	"River water"	2017	11	7	2017-11-07T09:40			Fair	Asia	Japan	"Mouth of Riv. Yamato (Sakai City), Osaka"	34.60833333		135.4325														18.5	18.7	7.8	9.6				3		1.5	Clear																		"DO: 10 mg/L (for Monitoring)"	2019/09/13	2019/09/13
PRA000099	SAA006334	ST014				OsakaCity_w2_2017	Water	"Sea water"	2017	12	20	2017-12-20T08:10			Fair	Asia	Japan	"Osaka Port, Osaka"	34.65861111		135.4313889														8	9.2	7.8	9.9	1,800			2		3.5	"Grayish yellow"																			2019/9/18	2019/11/28
PRA000099	SAA006335	ST014				Hyogo_w3_2017	Water	"Sea water"	2017	10	11	2017-10-11T10:27			Cloudy	Asia	Japan	"Offshore of Himeji, Hyogo"	34.76194444		134.6697222														25.4	25.5	8.2	7.2	4			5.8		5.1	"Greenish brown"																		"SS: 6.0 mg/L (for Monitoring)"	2019/9/18	2019/11/28
PRA000099	SAA006337	ST014				Kobe_w1_2017	Water	"Sea water"	2017	11	1	2017-11-01T10:16			Fair	Asia	Japan	"Center of Kobe Port, Hyogo"	34.66444444		135.1944444														17	18.5	8	8				1		2.5	"Greenish brown"																			2019/9/18	2019/11/28
PRA000099	SAA006338	ST015				Wakayama_w1_2017	Water	"River water"	2017	11	7	2017-11-07T12:56			Cloudy	Asia	Japan	"Kinokawa-ohashi Bridge, Mouth of Riv. Kinokawa (Wakayama City), Wakayama"	34.23		135.1561111														21.7	18	7	8.4	1,500			7		1.2	"Yellow green"																			2019/9/18	2019/11/28
PRA000099	SAA006340	ST014				Okayama_w2_2017	Water	"Sea water"	2017	10	31	2017-10-31T10:15			Fair	Asia	Japan	"Offshore of Mizushima, Okayama"	34.48055556		133.665														18.8	19.5	8	6.8	5,800			2		2.3	"Dark Green"																			2019/9/18	2019/11/28
PRA000099	SAA006611	ST014				Hiroshima_w2_2017	Water	"Sea water"	2017	11	8	2017-11-08T09:45			Cloudy	Asia	Japan	"Kure Port, Hiroshima"	34.23361111		132.5391667														18.2	20.4	8.3	8.5				3		6	"Dark Bluish green"																			2019/11/28	2019/11/28
PRA000099	SAA006612	ST014				Hiroshima_w3_2017	Water	"Sea water"	2017	11	8	2017-11-08T12:15			Rain	Asia	Japan	"Hiroshima Bay (Hiroshima City), Hiroshima"	34.34833333		132.4225														20.2	18.7	8.4	11				3		3	"Dark Bluish green"																			2019/11/28	2019/11/28
PRA000099	SAA006342	ST014				Yamagachi_w1_2017	Water	"Sea water"	2017	10	5	2017-10-05T10:56			Fair	Asia	Japan	"Tokuyama Bay, Yamaguchi"	33.99361111		131.7505556														22	23	8.2	6.2				3.2		5.5	"Bluish green"																		"SS: 3 mg/L (for Monitoring)"	2019/9/18	2019/11/28
PRA000099	SAA006613	ST014				Yamaguchi_w3_2017	Water	"Sea water"	2017	10	13	2017-10-13T11:55			Cloudy	Asia	Japan	"Offshore of Ube, Yamaguchi"	33.915		131.1975														21.9	21.5	8.2	7.2				4		4	"Grayish green"																			2019/11/28	2019/11/28
PRA000099	SAA006343	ST014				Yamaguchi_w2_2017	Water	"Sea water"	2017	11	10	2017-11-10T10:17			Fair	Asia	Japan	"Offshore of Hagi, Yamaguchi"	34.43805556		131.3794444														15	20	8.4	7.6				1.4		9.5	"Bluish green"																		"SS: 1 mg/L (for Monitoring)"	2019/9/18	2019/11/28
PRA000099	SAA006614	ST015				Tokushima_w1_2017	Water	"River water"	2017	11	2	2017-11-02T09:12			Fair	Asia	Japan	"Mouth of Riv. Yoshino (Tokushima City), Tokushima"	34.085		134.5913889														14	14.8	7.5	9.8	550			5		2	"Grayish green"																			2019/11/28	2019/11/28
PRA000099	SAA006345	ST014				Kagawa_w1_2017	Water	"Sea water"	2017	10	4	2017-10-04T08:55			Fair	Asia	Japan	"Takamatsu Port, Kagawa"	34.34972222		134.0788889														20.5	21.2	7.8	7.1				5		0.5	"Greenish brown"																			2019/9/18	2019/11/28
PRA000099	SAA006615	ST015				Kochi_w2_2017	Water	"River water"	2017	11	2	2017-11-02T09:05			Fair	Asia	Japan	"Mouth of Riv. Shimanto (Shimanto City), Kochi"	32.93777778		132.8441667														21.2	16.8	7.1	9.2	210			2			Clear																			2019/11/28	2019/11/28
PRA000099	SAA006349	ST014				KitakyushuCity_w1_2017	Water	"Sea water"	2017	10	17	2017-10-17T09:25			Cloudy	Asia	Japan	"Dokai Bay (Kitakyushu City), Fukuoka"	33.90388889		130.8158333														18.4	21.3	7.8	6	4,300			2		3	Clear																			2019/09/13	2019/09/13
PRA000099	SAA006351	ST014				Saga_w1_2017	Water	"Sea water"	2017	11	1	2017-11-01T10:30			Fair	Asia	Japan	"Imari Bay, Saga"	33.34		129.8208333														16.5	17.8	8.3	6.4	4,200			4		2.8	Green																			2019/9/18	2019/11/28
PRA000099	SAA006616	ST014				Nagasaki_w1_2017	Water	"Sea water"	2017	11	10	2017-11-10T10:15			Cloudy	Asia	Japan	"Omura Bay, Nagasaki"	32.98833333		129.8522222														19	20.4	8.2	7.7				5		5.4	"Light Greenish blue"																			2019/11/28	2019/11/28
PRA000099	SAA006352	ST015				Kumamoto_w1_2017	Water	"River water"	2017	11	1	2017-11-01T13:25			Fair	Asia	Japan	"Hiraki-bashi Bridge, Riv. Midori (Uto City), Kumamoto"	32.71638889		130.6422222														23.3	18.6	7.7	8.1	110			40			"Light Brown"																			2019/09/13	2019/09/13
PRA000099	SAA006472	ST015				Miyazaki_w3_2017	Water	"River water"	2017	10	4	2017-10-04T10:37			Fair	Asia	Japan	"Mouth of Riv. Oyodo (Miyazaki City), Miyazaki"	31.89611111		131.4402778														24.5	22.2	7.5	8.2	460			25			Clear																			2019/9/18	2019/11/28
PRA000099	SAA006617	ST015				Kagoshima_w1_2017	Water	"River water"	2017	9	26	2017-09-26T12:31			Cloudy	Asia	Japan	"Shinkawa-bashi Bridge, Riv. Amori (Kirishima City), Kagoshima"	31.7225		130.7416667														27.7	22.3	7.5	8.4				4			Clear																			2019/11/28	2019/11/28
PRA000099	SAA006618	ST015				Kagoshima_w2_2017	Water	"River water"	2017	9	28	2017-09-28T12:21			Fair	Asia	Japan	"Gotanda-bashi Bridge, Riv. Gotanda (Ichikikushikino City), Kagoshima"	31.72583333		130.2769444														24.8	23.8	7.5	8.2				8			"Light Grayish green"																			2019/11/28	2019/11/28
PRA000099	SAA006619	ST014				Okinawa_w1_2017	Water	"Sea water"	2017	10	3	2017-10-03T11:00			Fair	Asia	Japan	"Naha Port, Okinawa"	26.21222222		127.665														29	30.2	8.1	6.1	4600			4		1.5	Clear																			2019/11/28	2019/11/28
PRA000099	SAA006620	ST024				Hokkaido_sed1-123_2017	Sediment	"River sediment"	2017	9	26	2017-09-26T09:50			Fair	Asia	Japan	"Onnnenai-ohashi Bridge, Riv. Teshio (BifukaTown), Hokkaido"	44.59138889		142.3063889														17.3												0.2		"Blackish brown"		Odorless	None	22.1/22.7	1.4/2.3									"n=3 pooled:"	2019/12/16	2019/12/16
PRA000099	SAA006621	ST024				Hokkaido_sed2-123_2017	Sediment	"River sediment"	2017	11	10				Cloudy	Asia	Japan	"Ishikarikakokyo Bridge, Mouth of Riv. Ishikari (Ishikari City), Hokkaido"	43.22861111		141.3519444																																"35.1; 56.0; 50.5 (Each) / 39.7 (Mixed)"	"5.9; 16.0; 11.0 (Each) / 4.7 (Mixed)"									"n=3 pooled:SAA006355, SAA006356, SAA006357"	2019/12/16	2019/12/16
PRA000099	SAA006622	ST023				Hokkaido_sed3-123_2017	Sediment	"Marine sediment"	2017	9	11				Fair	Asia	Japan	"Tomakomai Port, Hokkaido"	42.63138889		141.6288889																																"59.6; 36.2; 42.9 (Each) / 49.7 (Mixed)"	"6.2; 2.5; 3.2 (Each) / 5.2 (Mixed)"									"n=3 pooled: SAA006358, SAA006359, SAA006360"	2019/12/16	2019/12/16
PRA000099	SAA006623	ST024				Iwate_sed1-123_2017	Sediment	"River sediment"	2017	10	4				"Cloudy & Fair"	Asia	Japan	"Riv. Toyosawa (Hanamaki City), Iwate"	39.38166667		141.1191667																																"23.2; 22.1; 25.6 (Each) / 25.5 (Mixed)"	"1.9; 1.9; 2.2 (Each) / 2.1 (Mixed)"									"n=3 pooled: SAA006363, SAA006364, SAA006365"	2019/12/16	2019/12/16
PRA000099	SAA006627	ST023				Miyagi_sed1_123_2017	Sediment	"Marine sediment"	2017	10	17				Fair	Asia	Japan	"Sendai Bay (Matsushima Bay), Miyagi"	38.35333333		141.0975																																"61.8; 71.5; 67.8 (Each) / 68.9 (Mixed)"	"11.3; 13.7; 12.9(Each) / 9.1 (Mixed)"									"n=3 pooled: SAA006624, SAA006625, SAA006626"	2019/12/16	2019/12/16
PRA000099	SAA006628	ST024				Sendai_sed1_123_2017	Sediment	"River sediment"	2017	11	14				Cloudy	Asia	Japan	"Hirose-ohashi Bridge, Riv. Hirose (Sendai City), Miyagi"	38.21333333		140.9088889																																"11.2; 9.5; 16.2 (Each) / 14.1 (Mixed)"	"1.1; 1.0; 1.4 (Each) / 1.0 (Mixed)"									"n=3 pooled: SAA006363, SAA006364, SAA006365"	2019/12/16	2019/12/16
PRA000099	SAA006632	ST024				Akita_sed2-123_2017	Sediment	"Lake Sediment"	2017	9	22				Fair	Asia	Japan	"Lake Hachiro, Akita"	39.92277778		139.9988889																																"80.0; 78.6; 81.5 (Each) / 78.7 (Mixed)"	"11.9; 12.0; 12.2 (Each) / 9.7 (Mixed)"									"n=3 pooled: SAA006358, SAA006359, SAA006360"	2019/12/16	2019/12/16
PRA000099	SAA006633	ST024				Yamagata_sed1-123_2017	Sediment	"River sediment"	2017	10	18				Cloudy	Asia	Japan	"Mouth of Riv. Mogami (Sakata City), Yamagata"	38.88722222		139.8433333																																"33.9; 30.4; 32.9 (Each) / 35.0 (Mixed)"	"4.2; 2.9; 3.8 (Each) / 3.0 (Mixed)"									"n=3 pooled: SAA006479, SAA006480, SAA006481"	2019/12/16	2019/12/16
PRA000099	SAA006637	ST023				Fukushima_sed1-123_2017	Sediment	"Marine sediment"	2017	10	11				Cloudy	Asia	Japan	"Onahama Port, Fukushima"	36.92472222		140.8752778																																"45.7; 44.0; 48.8 (Each) / 55.6 (Mixed)"	"7.6; 8.2; 9.3 (Each) / 8.8 (Mixed)"									"n=3 pooled: SAA006634, SAA006635, SAA006636"	2019/12/16	2019/12/16
PRA000099	SAA006638	ST024				Ibaraki_sed1-123_2017	Sediment	"River sediment"	2017	11	17				Fair	Asia	Japan	"Kamome-ohasi Bridge, Mouth of Riv. Tone (Kamisu City), Ibaraki"	35.77638889		140.7569444																																"29.0; 31.0; 25.0 (Each) / 33.9 (Mixed)"	"3.7; 5.3; 2.0 (Each) / 2.9 (Mixed)"									"n=3 pooled: SAA006482, SAA006483, SAA006484"	2019/12/16	2019/12/16
PRA000099	SAA006642	ST024				Tochigi_sed1-123_2017	Sediment	"River sediment"	2017	10	18				Fair	Asia	Japan	"Tagawa area-Toshuko Weir (Utsunomiya City), Tochigi"	36.52805556		139.8855556																																"NA(Each) /21.1 (Mixed)"	"NA (Each) / 0.7 (Mixed)"									"n=3 pooled: SAA006639, SAA006640, SAA006641"	2019/12/16	2019/12/16
PRA000099	SAA006643	ST023				Chiba_sed1-123_2017	Sediment	"Marine sediment"	2017	10	19				Rain	Asia	Japan	"Ichihara-Anesaki Coast, Chiba"	35.52166667		140.0283333																																"54.0; 50.5; 73.9 (Each) / 69.2 (Mixed)"	"8.5; 7.5; 13.2 (Each) / 7.6 (Mixed)"									"n=3 pooled: SAA006369, SAA006370, SAA006371"	2019/12/16	2019/12/16
PRA000099	SAA006647	ST024				ChibaCity_sed1-123_2017	Sediment	"River sediment"	2017	11	13				Fair	Asia	Japan	"Mouth of Riv. Hanami (Chiba City), Chiba"	35.63472222		140.04694440																																"26.0; 29.8; 22.4 (Each) / 24.7 (Mixed)"	"3.6; 4.3; 2.9 (Each) / 2.2 (Mixed)"									"n=3 pooled: SAA006644, SAA006645, SAA006646"	2019/12/16	2019/12/16
PRA000099	SAA006648	ST024				Tokyo_sed1-123_2017	Sediment	"River sediment"	2017	11	15				"Cloudy & Fair"	Asia	Japan	"Mouth of Riv. Arakawa (Koto Ward), Tokyo"	35.64583333		139.8463889																																"50.3; 49.9; 47.7 (Each) / 53.6 (Mixed)"	"9.9; 9.2; 7.4 (Each) / 7.7 (Mixed)"									"n=3 pooled: SAA006372, SAA006373, SAA006374"	2019/12/16	2019/12/16
PRA000099	SAA006649	ST024				Tokyo_sed2-123_2017	Sediment	"River sediment"	2017	11	15				Fair	Asia	Japan	"Mouth of Riv. Sumida (Minato Ward), Tokyo"	35.66		139.7705556																																"50.6; 60.8; 56.0 (Each) / 66.2 (Mixed)"	"13.0; 13.0; 13.0 (Each) / 10.7 (Mixed)"									"n=3 pooled: SAA006375, SAA006376, SAA006377"	2019/12/16	2019/12/16
PRA000099	SAA006650	ST023				Yokohama_sed1-123_2017	Sediment	"Marine sediment"	2017	11	6				Fair	Asia	Japan	"Yokohama Port, Kanagawa"	35.45555556		139.6636111																																"65.2; 75.1; 66.9 (Each) / 62.5 (Mixed)"	"8.5; 10.6; 8.2 (Each) / 7.8 (Mixed)"									"n=3 pooled: SAA006378, SAA006379, SAA006380"	2019/12/16	2019/12/16
PRA000099	SAA006654	ST024				KawasakiCity_sed1-123_2017	Sediment	"River sediment"	2017	11	13				Fair	Asia	Japan	"Mouth of Riv. Tama (Kawasaki City), Kanagawa"	35.53		139.7836111																																"34.8; 18.9; 34.6 (Each) / 39.9 (Mixed)"	"7.6; 2.8; 7.6 (Each) / 5.1 (Mixed)"									"n=3 pooled: SAA006651, SAA006652, SAA006653"	2019/12/16	2019/12/16
PRA000099	SAA006655	ST023				KawasakiCity_sed2-123_2017	Sediment	"Marine sediment"	2017	11	13				Fair	Asia	Japan	"Keihin Canal, Kawasaki Port, Kanagawa (front of Ogimachi)"	35.49527778		139.7277778																																"52.7; 62.0; 51.1 (Each) / 65.9 (Mixed)"	"10.4; 13.4; 10.1 (Each) / 9.0 (Mixed)"									"n=3 pooled: SAA006485, SAA006486, SAA006487"	2019/12/16	2019/12/16
PRA000099	SAA006656	ST024				Niigata_sed1-123_2017	Sediment	"River sediment"	2017	10	11				Cloudy	Asia	Japan	"Downstream of Riv. Shinano (Niigata City), Niigata"	37.88305556		139.0155556																																"44.8; 18.9; 21.8 (Each) / 23.9 (Mixed)"	"4.1; 1.4; 1.1 (Each) / 1.9 (Mixed)"									"n=3 pooled: SAA006382, SAA006381, SAA006383"	2019/12/16	2019/12/16
PRA000099	SAA006657	ST024				Toyama_sed1-123_2017	Sediment	"River sediment"	2017	11	9				"Fair & Cloudy"	Asia	Japan	"Hagiura-bashi Bridge, Mouth of Riv. Jintsu (Toyama City), Toyama"	36.745		137.2180556																																"40.0; 28.0; 23.0 (Each) / 30.4 (Mixed)"	"5.5; 2.5; 1.7 (Each) / 2.8 (Mixed)"									"n=3 pooled: SAA006488, SAA006489, SAA006490"	2019/12/16	2019/12/16
PRA000099	SAA006658	ST024				Ishikawa_sed1-123_2017	Sediment	"River sediment"	2017	10	11				Cloudy	Asia	Japan	"Mouth of Riv. Sai (Kanazawa City), Ishikawa"	36.60027778		136.5888889																																"20.0; 22.0; 25.0 (Each) / 30.3 (Mixed)"	"2.3; 1.5; 2.0 (Each) / 2.7 (Mixed)"									"n=3 pooled: SAA006384, SAA006385, SAA006386"	2019/12/16	2019/12/16
PRA000099	SAA006662	ST024				Fukui_sed1-123_2017	Sediment	"River sediment"	2017	11	2				Fair	Asia	Japan	"Mishima-bashi Bridge, Riv. Shono (Tsuruga City), Fukui"	35.64694444		136.0630556																																"25.2; 19.7; 19.4 (Each) / 14.1 (Mixed)"	"0.8; 0.9; 0.9 (Each) / 0.5 (Mixed)"									"n=3 pooled: SAA006659, SAA006660, SAA006661"	2019/12/16	2019/12/16
PRA000099	SAA006666	ST024				Yamanashi_sed1-123_2017	Sediment	"River sediment"	2017	11	6				Fair	Asia	Japan	"Chiaki-bashi Bridge, Riv. Ara (Kofu City), Yamanashi"	35.6475		138.5655556																																"20.0; 2.3; 27.0 (Each) / 19.6 (Mixed)"	"1.1; 1.3; 1.1 (Each) / 0.7 (Mixed)"									"n=3 pooled: SAA006663, SAA006664, SAA006665"	2019/12/16	2019/12/16
PRA000099	SAA006667	ST024				Nagano_sed1-123_2017	Sediment	"Lake sediment"	2017	11	13				Fair	Asia	Japan	"Center of Lake Suwa, Nagano"	36.05		138.0861111																																"78.8; 78.3; 78.3 (Each) / 86.3 (Mixed)"	"14.5; 14.7; 15.2 (Each) / 13.4 (Mixed)"									"n=3 pooled: SAA006387, SAA006388, SAA006389"	2019/12/16	2019/12/16
PRA000099	SAA006668	ST023				Shizuoka_sed1-123_2017	Sediment	"Marine sediment"	2017	11	8				Rain	Asia	Japan	"Shimizu Port, Shizuoka"	35.02416667		138.5161111																																"27.2; 25.5; 29.8 (Each) / 35.3 (Mixed)"	"4.4; 4.5; 5.4 (Each) / 4.3 (Mixed)"									"n=3 pooled: SAA006494, SAA006495, SAA006496"	2019/12/16	2019/12/16
PRA000099	SAA006669	ST024				Shizuoka_sed3-123_2017	Sediment	"River sediment"	2017	10	5				Cloudy	Asia	Japan	"Riv. Tenryu (Iwata City), Shizuoka"	34.67916667		137.7961111																																"15.0; 16.0; 20.5 (Each) / 20.2 (Mixed)"	"1.4; 1.1; 1.7 (Each) / 1.2 (Mixed)"									"n=3 pooled: SAA006497, SAA006498, SAA006499"	2019/12/16	2019/12/16
PRA000099	SAA006673	ST023				Aichi_sed2-123_2017	Sediment	"Marine sediment"	2017	11	13				Cloudy	Asia	Japan	"Kinuura Port, Aichi"	34.84166667		136.9486111																																"51.0; 52.2; 51.9 (Each) / 65.4 (Mixed)"	"9.9; 10.8; 13.0 (Each) / 9.5 (Mixed)"									"n=3 pooled: SAA006670, SAA006671, SAA006672"	2019/12/16	2019/12/16
PRA000099	SAA006677	ST023				Aichi_sed1-123_2017	Sediment	"Marine sediment"	2017	11	13				Cloudy	Asia	Japan	"Nagoya Port, West of Shiomi Wharf, Aichi"	35.07111111		136.8691667																																"43.0; 41.5; 47.1 (Each) / 60.1 (Mixed)"	"7.5; 7.3; 8.9 (Each) / 7.2 (Mixed)"									"n=3 pooled: SAA006674, SAA006675, SAA006676"	2019/12/16	2019/12/16
PRA000099	SAA006678	ST023				Mie_sed1-123_2017	Sediment	"Marine sediment"	2017	10	24				Cloudy	Asia	Japan	"Yokkaichi Port, Mie"	34.94944444		136.6530556																																"70.0; 74.0; 57.0 (Each) / 64.4 (Mixed)"	"8.9; 9.8; 5.7 (Each) / 6.8 (Mixed)"									"n=3 pooled: SAA006393, SAA006394, SAA006395"	2019/12/16	2019/12/16
PRA000099	SAA006682	ST023				Mie_sed2-123_2017	Sediment	"Marine sediment"	2017	10	17				Rain	Asia	Japan	"Toba Port, Mie"	34.48083333		136.8486111																																"53.0; 48.0; 55.0 (Each) / 45.3 (Mixed)"	"8.9; 8.1; 9.1 (Each) / 7.3 (Mixed)"									"n=3 pooled: SAA006679, SAA006680, SAA006681"	2019/12/16	2019/12/16
PRA000099	SAA006683	ST024				Shiga_sed1-123_2017	Sediment	"Lake Sediment"	2017	10	11				Fair	Asia	Japan	"Lake Biwa (center, offshore of Minamihira), Shiga"	35.18527778		135.9733333																																"70.2; 69.4; 69.2 (Each) / 80.3 (Mixed)"	"11.2; 11.3; 11.1 (Each) / 10.5 (Mixed)"									"n=3 pooled: SAA006500, SAA006501, SAA006502"	2019/12/16	2019/12/16
PRA000099	SAA006684	ST024				Shiga_sed2-123_2017	Sediment	"Lake Sediment"	2017	10	11				Fair	Asia	Japan	"Lake Biwa (center, offshore of Karasaki), Shiga"	35.04611111		135.8955556																																"66.3; 67.1; 44.1 (Each) / 70.3 (Mixed)"	"10.7; 10.9; 5.3 (Each) / 8.0 (Mixed)"									"n=3 pooled: SAA006503, SAA006504, SAA006505"	2019/12/16	2019/12/16
PRA000099	SAA006685	ST023				Kyoto_sed1-123_2017	Sediment	"Marine sediment"	2017	10	19				"Cloudy with occasional rain"	Asia	Japan	"Miyazu Port, Kyoto"	35.58305556		135.2138889																																"26.1; 49.9; 52.3 (Each) / 47.1 (Mixed)"	"2.4; 8.2; 8.8 (Each) / 6.0 (Mixed)"									"n=3 pooled: SAA006396, SAA006397, SAA006398"	2019/12/16	2019/12/16
PRA000099	SAA006686	ST024				KyotoCity_sed1-123_2017	Sediment	"River sediment"	2017	11	29				Cloudy	Asia	Japan	"Miyamae-bashi Bridge, Riv. Katsura (Kyoto City), Kyoto"	34.905		135.7125																																"20.0; 19.1; 19.5 (Each) / 18.4 (Mixed)"	"0.9; 0.9; 0.9 (Each) / 0.8 (Mixed)"									"n=3 pooled: SAA006506, SAA006507, SAA006508"	2019/12/16	2019/12/16
PRA000099	SAA006687	ST024				Osaka_sed1-123_2017	Sediment	"River sediment"	2017	11	7				Fair	Asia	Japan	"Mouth of Riv. Yamato (Sakai City), Osaka"	34.60833333		135.4325																																"45.5; 44.6; 45.3 (Each) / 55.1 (Mixed)"	"10.5; 9.0; 11.1 (Each) / 8.9 (Mixed)"									"n=3 pooled: SAA006399, SAA006400, SAA006401"	2019/12/16	2019/12/16
PRA000099	SAA006691	ST024				OsakaCity_sed2-123_2017	Sediment	"River sediment"	2017	12	5				"Cloudy & Fair"	Asia	Japan	"Kema-bashi Bridge, Riv. Oh (Osaka City), Osaka"	34.717760		135.519610																																"42.8; 49.2; 51.5 (Each) / 58.7 (Mixed)"	"7.6; 9.4; 9.7 (Each) / 9.8 (Mixed)"									"n=3 pooled: SAA006688, SAA006689, SAA006690"	2019/12/16	2019/12/16
PRA000099	SAA006695	ST024				OsakaCity_sed3-123_2017	Sediment	"River sediment"	2017	12	20				Fair	Asia	Japan	"Mouth of Riv. Yodo, Osaka"	34.67638889		135.3975																																"44.2; 39.8; 36.2 (Each) / 51.5 (Mixed)"	"9.0; 7.6; 6.7 (Each) / 7.9 (Mixed)"									"n=3 pooled: SAA006692, SAA006693, SAA006694"	2019/12/16	2019/12/16
PRA000099	SAA006696	ST023				OsakaCity_sed1-123_2017	Sediment	"Marine sediment"	2017	12	20				Fair	Asia	Japan	"Osaka Port, Osaka"	34.65861111		135.4313889																																"57.9; 57.4; 60.5 (Each) / 69.2 (Mixed)"	"11.1; 10.5; 10.9 (Each) / 10.5 (Mixed)"									"n=3 pooled: SAA006509, SAA006510, SAA006511"	2019/12/16	2019/12/16
PRA000099	SAA006700	ST023				OsakaCity_sed4-123_2017	Sediment	"Marine sediment"	2017	12	20				Fair	Asia	Japan	"Outside of Osaka Port, Osaka"	34.64027778		135.3858333																																"54.8; 45.5; 54.8 (Each)/ 61.6 (Mixed)"	"9.4; 6.7; 9.1 (Each) / 7.1 (Mixed)"									"n=3 pooled: SAA006697, SAA006698, SAA006699"	2019/12/16	2019/12/16
PRA000099	SAA006701	ST023				Hyogo_sed1-123_2017	Sediment	"Marine sediment"	2017	10	11				"Cloudy & Fair"	Asia	Japan	"Offshore of Himeji, Hyogo"	34.76194444		134.6697222																																"NA (Each) / 70.9 (Mixed)"	"NA (Each) / 9.8 (Mixed)"									"n=3 pooled: SAA006515, SAA006516, SAA006517"	2019/12/16	2019/12/16
PRA000099	SAA006702	ST023				Hyogo_sed2-123_2017	Sediment	"Marine sediment"	2017	11	1				Fair	Asia	Japan	"Center of Kobe Port, Hyogo"	34.66444444		135.1944444																																"53.3; 50.0; 58.3 (Each) / 63.4 (Mixed)"	"8.8; 8.9; 10.0 (Each) / 8.1 (Mixed)"									"n=3 pooled: SAA006402, SAA006403, SAA006404"	2019/12/16	2019/12/16
PRA000099	SAA006703	ST024				Nara_sed1_123_2017	Sediment	"River sediment"	2017	10	12				Rain	Asia	Japan	"Taisho-bashi Bridge, Riv. Yamato (Oji town), Nara"	34.58583333		135.6833333																																"27.0; 9.8; 10.0 (Each) / 17.6 (Mixed)"	"1.6; 0.5; 0.6 (Each) / 0.8 (Mixed)"									"n=3 pooled: SAA006518, SAA006519, SAA006520"	2019/12/16	2019/12/16
PRA000099	SAA006704	ST024				Wakayama_sed1-123_2017	Sediment	"River sediment"	2017	11	7				"Fair & Cloudy"	Asia	Japan	"Kinokawa-ohashi Bridge, Mouth of Riv. Kinokawa (Wakayama City), Wakayama"	34.23		135.1561111																																"20.0; 20.3; 18.4 (Each) / 18.3 (Mixed)"	"1.4; 1.5; 2.4 (Each) / 1.6 (Mixed)"									"n=3 pooled: SAA006405, SAA006407, SAA006406"	2019/12/16	2019/12/16
PRA000099	SAA006705	ST023				Okayama_sed1-123_2017	Sediment	"Marine sediment"	2017	10	31				Fair	Asia	Japan	"Offshore of Mizushima, Okayama"	34.48055556		133.665																																"45.3; 51.0; 44.0 (Each) / 45.3 (Mixed)"	"6.1; 7.0; 5.8 (Each) / 5.4 (Mixed)"									"n=3 pooled: SAA006524, SAA006525, SAA006526"	2019/12/16	2019/12/16
PRA000099	SAA006709	ST023				Hiroshima_sed1-123_2017	Sediment	"Marine sediment"	2017	11	8				Cloudy	Asia	Japan	"Kure Port, Hiroshima"	34.23361111		132.5391667																																"62.0; 62.6; 52.5 (Each) / 70.0 (Mixed)"	"10.5; 10.5; 7.2 (Each) / 9.8 (Mixed)"									"n=3 pooled: SAA006706, SAA006707, SAA006708"	2019/12/16	2019/12/16
PRA000099	SAA006713	ST023				Hiroshima_sed2-123_2017	Sediment	"Marine sediment"	2017	11	8				"Rain & Cloudy"	Asia	Japan	"Hiroshima Bay (Hiroshima City), Hiroshima"	34.34833333		132.4225																																"59.5; 58.9; 58.9 (Each) / 69.5 (Mixed)"	"10.6; 10.7; 10.8 (Each) / 11.3 (Mixed)"									"n=3 pooled: SAA006710, SAA006711, SAA006712"	2019/12/16	2019/12/16
PRA000099	SAA006717	ST023				Yamaguchi_sed1-123_2017	Sediment	"Marine sediment"	2017	10	5				Fair	Asia	Japan	"Tokuyama Bay, Yamaguchi"	33.99361111		131.7505556																																"64.1; 62.6; 62.2 (Each) / 66.9 (Mixed)"	"10.1; 10.0; 10.1 (Each) / 8.0 (Mixed)"									"n=3 pooled: SAA006714, SAA006715, SAA006716"	2019/12/16	2019/12/16
PRA000099	SAA006721	ST023				Yamaguchi_sed2-123_2017	Sediment	"Marine sediment"	2017	10	13				Cloudy	Asia	Japan	"Offshore of Ube, Yamaguchi"	33.915		131.1975																																"31.0; 30.1; 30.0 (Each) / 43.6 (Mixed)"	"7.3; 7.3; 7.3 (Each) / 5.6 (Mixed)"									"n=3 pooled: SAA006718, SAA006719, SAA006720"	2019/12/16	2019/12/16
PRA000099	SAA006722	ST023				Yamaguchi_sed3-123_2017	Sediment	"Marine sediment"	2017	11	10				Fair	Asia	Japan	"Offshore of Hagi, Yamaguchi"	34.43805556		131.3794444																																"35.7; 34.2; 33.7 (Each) / 33.2 (Mixed)"	"5.8; 5.8; 5.7 (Each) / 5.2 (Mixed)"									"n=3 pooled: SAA006527, SAA006528, SAA006529"	2019/12/16	2019/12/16
PRA000099	SAA006726	ST024				Tokushima_sed1-123_2017	Sediment	"River sediment"	2017	11	2				Fair	Asia	Japan	"Mouth of Riv. Yoshino (Tokushima City), Tokushima"	34.085		134.5913889																																"12.0; 16.0; 36.0 (Each) / 23.9 (Mixed)"	"1.0; 1.0; 4.8 (Each) / 1.9 (Mixed)"									"n=3 pooled: SAA006723, SAA006724, SAA006725"	2019/12/16	2019/12/16
PRA000099	SAA006727	ST023				Kagawa_sed1-123_2017	Sediment	"Marine sediment"	2017	10	4				Fair	Asia	Japan	"Takamatsu Port, Kagawa"	34.34972222		134.0788889																																"28.4; 43.9; 47.2 (Each) / 59.9 (Mixed)"	"4.9; 9.6; 10.2 (Each) / 9.4 (Mixed)"									"n=3 pooled: SAA006411, SAA006412, SAA006413"	2019/12/16	2019/12/16
PRA000099	SAA006731	ST023				Ehime_sed1-123_2017	Sediment	"Marine sediment"	2017	11	6				Fair	Asia	Japan	"Niihama Port, Ehime"	33.98777778		133.3144444																																"22.6; 22.6; 22.8 (Each) / 21.6 (Mixed)"	"1.6; 1.5; 1.5 (Each) / 1.5 (Mixed)"									"n=3 pooled: SAA006728, SAA006729, SAA006730"	2019/12/16	2019/12/16
PRA000099	SAA006735	ST024				Kochi_sed1-123_2017	Sediment	"River sediment"	2017	11	2				Fair	Asia	Japan	"Mouth of Riv. Shimanto (Shimanto City), Kochi"	32.93777778		132.8441667																																"43.7; 25.9; 22.1 (Each) / 33.6 (Mixed)"	"9.3; 2.9; 2.5 (Each) / 3.8 (Mixed)"									"n=3 pooled: SAA006732, SAA006733, SAA006734"	2019/12/16	2019/12/16
PRA000099	SAA006736	ST023				KitakyushuCity_sed1-123_2017	Sediment	"Marine sediment"	2017	10	17				Cloudy	Asia	Japan	"Dokai Bay (Kitakyushu City), Fukuoka"	33.90388889		130.8158333																																"78.6; 80.4; 53.6 (Each) / 43.3 (Mixed)"	"7.2; 7.4; 28.9 (Each) / 7.4 (Mixed)"									"n=3 pooled: SAA006414, SAA006415, SAA006416"	2019/12/16	2019/12/16
PRA000099	SAA006737	ST023				FukuokaCity_sed1-123_2017	Sediment	"Marine sediment"	2017	10	31				Fair	Asia	Japan	"Hakata Bay, Fukuoka"	33.60833333		130.3297222																																"40.5; 40.6; 39.3 (Each) / 51.0 (Mixed)"	"9.3; 9.2; 8.9 (Each) / 8.7 (Mixed)"									"n=3 pooled: SAA006530, SAA006531, SAA006532"	2019/12/16	2019/12/16
PRA000099	SAA006738	ST023				Saga_sed1-123_2017	Sediment	"Marine sediment"	2017	11	1				Fair	Asia	Japan	"Imari Bay, Saga"	33.34		129.8208333																																"63.9; 61.4; 63.8 (Each) / 63.4 (Mixed)"	"11.7; 15.8; 12.7 (Each) / 9.8 (Mixed)"									"n=3 pooled: SAA006533, SAA006534, SAA006535"	2019/12/16	2019/12/16
PRA000099	SAA006742	ST023				Nagasaki_sed1-123_2017	Sediment	"Marine sediment"	2017	11	10				Cloudy	Asia	Japan	"Omura Bay, Nagasaki"	32.98833333		129.8522222																																"53.4; 54.6; 58.2 (Each) / 66.5 (Mixed)"	"11.9; 12.2; 12.5 (Each) / 12.9 (Mixed)"									"n=3 pooled: SAA006739, SAA006740, SAA006741"	2019/12/16	2019/12/16
PRA000099	SAA006743	ST024				Oita_sed1-123_2017	Sediment	"River sediment"	2017	11	14				"Light rain"	Asia	Japan	"Mouth of Riv. Oita, Oita"	33.25722222		131.6175																																"22.4; 22.3; 21.6 (Each) / 19.5 (Mixed)"	"0.8; 0.9; 1.5 (Each) / 1.0 (Mixed)"									"n=3 pooled: SAA006536, SAA006537, SAA006538"	2019/12/16	2019/12/16
PRA000099	SAA006744	ST024				Miyazaki_sed1-123_2017	Sediment	"River sediment"	2017	10	4				Fair	Asia	Japan	"Mouth of Riv. Oyodo (Miyazaki City), Miyazaki"	31.89611111		131.4402778																																"20.0; 18.0; 17.0 (Each) / 19.7 (Mixed)"	"1.3; 1.4; 1.4 (Each) / 1.1 (Mixed)"									"n=3 pooled: SAA006539, SAA006540, SAA006541"	2019/12/16	2019/12/16
PRA000099	SAA006748	ST024				Kagoshima_sed1-123_2017	Sediment	"River sediment"	2017	9	26				Cloudy	Asia	Japan	"Riv. Amori (Kirishima City), Kagoshima"	31.7225		130.7416667																																"18.0; 22.0; 20.0 (Each) / 18.5 (Mixed)"	"1.0; 1.0; 0.9 (Each) / 1.0 (Mixed)"									"n=3 pooled: SAA006745, SAA006746, SAA006747"	2019/12/16	2019/12/16
PRA000099	SAA006752	ST024				Kagoshima_sed2-123_2017	Sediment	"River sediment"	2017	9	28				"Fair & Cloudy"	Asia	Japan	"Gotanda-bashi Bridge, Riv. Gotanda (Ichikikushikino City), Kagoshima"	31.72583333		130.2769444																																"22.0; 23.0; 20.0 (Each) / 26.1 (Mixed)"	"1.4; 1.4; 1.7 (Each) / 1.4 (Mixed)"									"n=3 pooled: SAA006749, SAA006750, SAA006751"	2019/12/16	2019/12/16
PRA000099	SAA006756	ST023				Okinawa_sed1-123_2017	Sediment	"Marine sediment"	2017	10	3				Fair	Asia	Japan	"Naha Port, Okinawa"	26.21222222		127.665																																"33.4; 33.2; 32.8 (Each) / 48.3 (Mixed)"	"7.4; 8.1; 8.9 (Each) / 10.1 (Mixed)"									"n=3 pooled: SAA006753, SAA006754, SAA006755"	2019/12/16	2019/12/16
PRA000099	SAA006757	ST029				Hokkaido_air2-1_2017	Air	"Outside air"	2017	10	17	2017-10-10T13:30/2017-10-17T13:30		"7days (Oct. 10_17)"	Cloudy/Fair	Asia	Japan	"Kushiro General Subprefectural Bureau, Kushiro city, Hokkaido"	42.97666667		144.385														13.2/11.4																								70/73	NNE/SW	"7.1/3.6 "	"1008 m^3"	"Air Sampler: Middle Volume; Weather during 7-day sampling:Cloudy, Cloudy, Rain, Fair, Fair, Fair, Fair; Wind direction: NNE, ENE, NNE, SW, S, W, SW, SW; Wind speed: 7.1, 3, 6.4, 8.5, 6.7, 12.5, 9.4, 3.6 "	2020/1/15	2020/1/15
PRA000099	SAA006761	ST029				SapporoCity_air1-123_2017H	Air	"Outside air"	2017	9		"2017-09-12/09-13; 09-13/09-14; 09-14/09-15"				Asia	Japan	"Sapporo Art Park, Sapporo city, Hokkaido"	42.93861111		141.3402778																																										"Air Sampler: High Volume; n=3 pooled: SAA006758, SAA006759, SAA006760"	2020/01/15	2020/01/15
PRA000099	SAA006765	ST029				Iwate_air1-123_2017H	Air	"Outside air"	2017	9		"2017-09-12/09-13; 09-13/09-14; 09-14/09-15"				Asia	Japan	"Sugo Air Pollution Monitoring Station, Takizawa city, Iwate"	39.78194444		141.1405556																																										"Air Sampler: High Volume; n=3 pooled: SAA006762, SAA006763, SAA006764"	2020/1/15	2020/1/15
PRA000099	SAA006766	ST029				Miyagi_air1-1_2017	Air	"Outside air"	2017	9	12	2017-09-05T10:15/2017-09-12T10:15		"7days (Sep. 05_12)"	Fair/Cloudy	Asia	Japan	"Miyagi Prefectural Institute of Public Health and Environment, Sendai City, Miyagi"	38.2775		140.9052778														24.1/23.0																								60/92	/SE	/0.4	"1008 m^3"	"Air Sampler: Middle Volume; Weather during 7-day sampling:Fair, Rain, Rain, Fair, - - Cloudy, Cloudy; Wind direction: -, SSE, NNE, NNW, - - SSE, SE; Wind speed: -, 0.9, 1.2, 1.6, - - 2.2, 0.4"	2020/1/15	2020/1/15
PRA000099	SAA006767	ST029				Yamagata_air1-1_2017	Air	"Outside air"	2017	8	30	2017-08-23T09:55/2017-08-30T09:55		"7days (Aug. 23_30)"	Cloudy/Cloudy	Asia	Japan	"Environmental Science Research Center of Yamagata Prefecture, Murayama city, Yamagata"	38.47361111		140.3988889														26.8/20.5																								70/85	ESE/NNW	1.4/0.8	"1008 m^3"	"Air Sampler: Middle Volume; Weather during 7-day sampling:Cloudy during 7-day sampling; Wind direction: ESE, S, NE, S, SW, SSE, Calm, NNW; Wind speed: 1.4, 3.3, 2.1, 2.0, 1.1, 0.8, 0.1, 0.8"	2020/1/15	2020/1/15
PRA000099	SAA006768	ST029				Ibaraki_air1-4_2017	Air	"Outside air"	2017	9	13	2017-09-06T09:55/2017-09-13T09:55		"7days (Sep. 06_13)"	Rain/Fair	Asia	Japan	"Ibaraki Kasumigaura Environmental Science Center, Tsuchiura city, Ibaraki"	36.07555556		140.2666667														21.4/28.7																								97/61	NNE/ESE	1.8/1.6	"1008 m^3"	"Air Sampler: Middle Volume; Weather during 7-day sampling:Rain, Cloudy, Cloudy, Fair, Cloudy, Fair, Rain, Fair; Wind direction: NNE, S, ENE, S, WSW, S, SW, ESE; Wind speed: 1.8, 2.1, 2.5, 1.5, 2.2, 2.9, 2.6, 1.6"	2020/1/15	2020/1/15
PRA000099	SAA006769	ST029				Chiba_air2-1_2017	Air	"Outside air"	2017	9	20	2017-09-13T10:30/2017-09-20T10:00		"7days (Sep. 13_20)"	Cloudy/Cloudy	Asia	Japan	"Ichiharamatsuzaki air pollution monitoring station, Ichihara city, Chiba"	35.44861111		140.1363889														28.2/24.5																								67/80	ESE/S	3.3/1.0	"1005 m^3"	"Air Sampler: Middle Volume; Weather during 7-day sampling:Cloudy, Fair, Cloudy, Rain, Rain, Fair, Cloudy, Cloudy; Wind direction: ESE, NNE, N, ENE, NE, WSW, ENE, S; Wind speed: 3.3, 2.8, 1.0, 3.0, 3.8, 4.4, 1.5, 1.0"	2020/1/15	2020/1/15
PRA000099	SAA006770	ST029				Tokyo_air1-4_2017	Air	"Outside air"	2017	9	26	2017-09-19T10:00/2017-09-26T10:00		"7days (Sep. 19_26)"	Fair/Fair	Asia	Japan	"Tokyo Metropolitan Research Institute for Environmental Protection, Koto Ward, Tokyo"	35.66833333		139.8241667														26.0/24.4																								60/73	NE/NE	1.2/2.3	"1013 m^3"	"Air Sampler: Middle Volume; Weather during 7-day sampling:Fair, Cloudy, Slightly cloudy, Cloudy, Cloudy, Fair, Fair, Fair; Wind direction: NE, W, NW, E, NE, S, W, NE; Wind speed: 1.2, 2.1, 5.0, 2.2, 2.7, 0.8, 1.0, 2.3"	2020/1/15	2020/1/15
PRA000099	SAA006771	ST029				Tokyo_air2-4_2017	Air	"Outside air"	2017	10	13	2017-10-06T09:50/2017-10-13T09:54		"7days (Oct. 06_13)"	Fair/Fair	Asia	Japan	"Ogasawara Chichijima, Ogasawara Village, Tokyo"	27.09361111		142.2161111														29.4/29.0																								81/76	ENE/SE	3.8/3.9	"1008 m^3"	"Air Sampler: Middle Volume; Weather during 7-day sampling: Fair, Fair, Fair, Cloudy, Fair, Fair, Fair, Fair; Wind direction: ENE, SE, ENE, ENE, NE, NE, E, SE; Wind speed: 3.8, 3.9, 3.2, 4.4, 6.5, 4.2, 2.6, 3.9"	2020/1/15	2020/1/15
PRA000099	SAA006775	ST029				Kanagawa_air1-456_2017H	Air	"Outside air"	2017	9		"2017-09-05/09-06; 09-06/09-07; 09-07/09-08"				Asia	Japan	"Kanagawa Environmental Research Center, Hiratsuka City, Kanagawa"	35.3475		139.3513889																																										"Air Sampler: High Volume; n=3 pooled: SAA006772, SAA006773, SAA006774"	2020/1/15	2020/1/15
PRA000099	SAA006776	ST029				YokohamaCity_air1-4_2017	Air	"Outside air"	2017	9	22	2017-09-15T10:30/2017-09-22T10:30		"7days (Sep. 15_22)"	"Cloudy/Cloudy, occasionally rain"	Asia	Japan	"Yokohama Environmental Research Institute, Yokohama city, Kanagawa"	35.48111111		139.6580556														27.3/24.9																								41/65	NNE/N	3.7/2.8	"1008 m^3"	"Air Sampler: Middle Volume; Weather during 7-day sampling: Cloudy, Rain occasionally cloudy, Rain occasionally rain, Fair& cloudy, Cloudy, Fair & cloudy, Cloudy occasionally fair; Wind direction: NNE, N, N, WSW, ENE, WNW, NNW, N; Wind speed: 3.7, 2.0, 7.1, 6.5, 3.2, 1.7, 2.2, 2.8"	2020/1/15	2020/1/15
PRA000099	SAA006780	ST029				Niigata_air1-123_2017H	Air	"Outside air"	2017	8		"2017-08-22/08-23; 08-23/08-24; 08-24/08-25"				Asia	Japan	"Oyama Air Pollution Monitoring Station, Niigata city, Niigata"	37.93611111		139.0794444																																										"Air Sampler: High Volume; n=3 pooled: SAA006777, SAA006778, SAA006779"	2020/1/15	2020/1/15
PRA000099	SAA006784	ST029				Toyama_air1-123_2017H	Air	"Outside air"	2017	9		"2017-09-19/09-20; 09-20/09-21; 09-21/09-22"				Asia	Japan	"Tonami Air Pollution Monitoring Station, Tonami city, Toyama"	36.62888889		136.9886111																																										"Air Sampler: High Volume; n=3 pooled: SAA006781, SAA006782, SAA006783"	2020/1/15	2020/1/15
PRA000099	SAA006788	ST029				Ishikawa_air1-789_2017H	Air	"Outside air"	2017	9		"2017-09-05/09-06; 09-06/09-07; 09-07/09-08"				Asia	Japan	"Ishikawa Prefectural Institute of Public Health and Environmental Science, Kanazawa City, Ishikawa"	36.52722222		136.7055556																																										"Air Sampler: High Volume; n=3 pooled: SAA006785, SAA006786, SAA006787"	2020/1/15	2020/1/15
PRA000099	SAA006792	ST029				Yamanashi_air1-123_2017H	Air	"Outside air"	2017	9		"2017-09-12/09-13; 09-13/09-14; 09-14/09-15"				Asia	Japan	"Yamanashi Institute of Public Health and Environment, Kofu city, Yamanashi"	35.67194444		138.5497222																																										"Air Sampler: High Volume; n=3 pooled: SAA006789, SAA006790, SAA006791"	2020/1/15	2020/1/15
PRA000099	SAA006793	ST029				Nagano_air1-4_2017	Air	"Outside air"	2017	9	27	2017-09-20T10:02/2017-09-27T10:01		"7days (Sep. 20_27)"	Fair/Fair	Asia	Japan	"Nagano Environmental Conservation Research Institute, Nagano City, Nagano"	36.63555556		138.1786111														19.5/21.8																								72/71	WSW/W	1.7/2.4	"1008 m^3"	"Air Sampler: Middle Volume; Weather during 7-day sampling: Fair, Fair, Cloudy, Fair, Fair, Fair, Fair, Fair; Wind direction: WSW, ENE, W, WSW, SSE, SW, WSW, W; Wind speed: 1.7, 1.7, 2.8, 4.1, 1.8, 1.8, 1.9, 2.4"	2020/1/15	2020/1/15
PRA000099	SAA006797	ST029				Gifu_air1-123_2017H	Air	"Outside air"	2017	9		"2017-09-12/09-13; 09-13/09-14; 09-14/09-15"				Asia	Japan	"Gifu Prefectural Research Institute for Health and Environmental Sciences, Kakamigahara city, Gifu"	35.4075		136.8447222																																										"Air Sampler: High Volume; n=3 pooled: SAA006794, SAA006795, SAA006796"	2020/1/15	2020/1/15
PRA000099	SAA006798	ST029				NagoyaCity_air1-7_2017	Air	"Outside air"	2017	9	5	2017-08-29T10:52/2017-09-05T10:52		"7days (Aug. 29_Sep.05)"	Cloudy/Fair	Asia	Japan	"Chikusa-ku Heiwakoen Park, Nagoya City, Aichi"	35.17055556		136.9788889														28.7/25.0																								74/68	SW/SW	1.9/2.3	"1008 m^3"	"Air Sampler: Middle Volume; Weather during 7-day sampling: Cloudy, Fair, Fair later cloudy, Fair, Fair, Fair, Cloudy, Cloudy occasionally fair; Wind direction: SW, NW, WNW, WNW, WNW, WNW, N, SW; Wind speed: 1.9, 3.0, 4.4, 3.7, 4.0, 3.9, 2.1, 2.3"	2020/1/15	2020/1/15
PRA000099	SAA006802	ST029				Mie_air1-789_2017H	Air	"Outside air"	2017	9		"2017-09-19/09-20; 09-20/09-21; 09-21/09-22"				Asia	Japan	"Mie Prefecture Health and Environment Research Institute, Yokkaichi city, Mie"	34.99166667		136.4855556																																										"Air Sampler: High Volume; n=3 pooled: SAA006799, SAA006800, SAA006801"	2020/1/15	2020/1/15
PRA000099	SAA006806	ST029				Kyoto_air1-456_2017H	Air	"Outside air"	2017	10		"2017-10-03/10-04; 10-04/10-05; 10-05/10-06"				Asia	Japan	"Kyoto Prefectural Joyo High School, Joyo city, Kyoto"	34.85305556		135.79																																										"Air Sampler: High Volume; n=3 pooled: SAA006803, SAA006804, SAA006805"	2020/1/15	2020/1/15
PRA000099	SAA006810	ST029				Osaka_air1-456_2017H	Air	"Outside air"	2017	9		"2017-09-19/09-20; 09-20/09-21; 09-21/09-22"				Asia	Japan	"Osaka Joint government building No.2 Annex, Osaka city, Osaka"	34.6825		135.5191667																																										"Air Sampler: High Volume; n=3 pooled: SAA006807, SAA006808, SAA006809"	2020/1/15	2020/1/15
PRA000099	SAA006814	ST029				Hyogo_air1-123_2017H	Air	"Outside air"	2017	9		"2017-08-29/08-30; 08-30/08-31; 08-31/09-01"				Asia	Japan	"Hyogo Prefectural Institute of Environmental Sciences, Kobe city, Hyogo"	34.64916667		135.1316667																																										"Air Sampler: High Volume; n=3 pooled: SAA006811, SAA006812, SAA006813"	2020/1/15	2020/1/15
PRA000099	SAA006818	ST029				KobeCity_air1-123_2017H	Air	"Outside air"	2017	9		"2017-09-12/09-13; 09-13/09-14; 09-14/09-15"				Asia	Japan	"Kobe City Hall, Kobe city, Hyogo"	34.68972222		135.195																																										"Air Sampler: High Volume; n=3 pooled: SAA006815, SAA006816, SAA006817"	2020/1/15	2020/1/15
PRA000099	SAA006822	ST029				Nara_air1-123_2017H	Air	"Outside air"	2017	8		"2017-08-22/08-23; 08-23/08-24; 08-24/08-25"				Asia	Japan	"Tenri Air Pollution Monitoring Station, Tenri city, Nara"	34.59333333		135.8291667																																										"Air Sampler: High Volume; n=3 pooled: SAA006819, SAA006820, SAA006821"	2020/1/15	2020/1/15
PRA000099	SAA006826	ST029				Shimane_air1-123_2017H	Air	"Outside air"	2017	9		"2017-09-26/09-27; 09-27/9-28; 09-28/09-29"				Asia	Japan	"Oki Acid Rain Monitoring Station, Okinoshima town, Shimane"	36.28833333		133.1825																																										"Air Sampler: High Volume; n=3 pooled: SAA006823, SAA006824, SAA006825"	2020/1/15	2020/1/15
PRA000099	SAA006830	ST029				HiroshimaCity_air1-123_2017H	Air	"Outside air"	2017	9		"2017-09-12/09-13; 09-13/09-14; 09-14/09-15"				Asia	Japan	"Kokutaiji Junior high school, Hiroshima city, Hiroshima"	34.38472222		132.4580556																																										"Air Sampler: High Volume; n=3 pooled: SAA006827, SAA006828, SAA006829"	2020/1/15	2020/1/15
PRA000099	SAA006831	ST029				Yamaguchi_air1-7_2017	Air	"Outside air"	2017	9	26	2017-09-19T10:00/2017-09-26T10:00		"7days (Sep. 19_26)"	Cloudy/Fair	Asia	Japan	"Yamaguchi Prefectural Institute of Public Health and Environment, Yamaguchi City, Yamaguchi"	34.15305556		131.4336111														23.1/23.5																								77/71	ESE/SE	0.5/0.7	"1009 m^3"	"Air Sampler: Middle Volume; Weather during 7-day sampling: Cloudy, Cloudy, Fair, Cloudy, Cloudy, Cloudy, Fair, Fair; Wind direction: ESE, SSE, ESE, SW, S, SE, SE, SE; Wind speed: 0.5, 0.8, 0.8, 1.3, 1.1, 0.9, 0.7, 0.7"	2020/1/15	2020/1/15
PRA000099	SAA006832	ST029				Yamaguchi_air2-1_2017	Air	"Outside air"	2017	9	26	2017-09-19T10:01/2017-09-26T10:07		"7days (Sep. 19_26)"	Cloudy/Fair	Asia	Japan	"Hagi Uragami Museum, Hagi city, Yamaguchi"	34.40888889		131.3938889														25.6/26.2																								71/53	SSW/SSW	1.4/2.1	"1009 m^3"	"Air Sampler: Middle Volume; Weather during 7-day sampling: Cloudy, Cloudy, Fair, Cloudy, Cloudy, Cloudy, Fair, Fair; Wind direction: SSW, S, NNW, S, SW, SSE, SE, SSW; Wind speed: 1.4, 3, 1.9, 2.7, 1.2, 2.4, 1.4, 2.1"	2020/1/15	2020/1/15
PRA000099	SAA006836	ST029				Tokushima_air1-456_2017H	Air	"Outside air"	2017	9		"2017-09-26/09-27; 09-27/9-28; 09-28/09-29"				Asia	Japan	"Tokushima Prefectural Public health, Pharmaceutical and Environmental Sciences Center, Tokushima city, Tokushima"	34.07		134.5608333																																										"Air Sampler: High Volume; n=3 pooled: SAA006833, SAA006834, SAA006835"	2020/1/15	2020/1/15
PRA000099	SAA006837	ST029				Kagawa_air1-7_2017	Air	"Outside air"	2017	10	4	2017-09-27T10:27/2017-10-04T10:26		"7days(Sep. 27_Oct.04)"	"Cloudy occasionally rain/Fair occasionally cloudy"	Asia	Japan	"Kagawa Pref. Synthesis Swimming Pool, Takamatsu City, Kagawa"	34.30861111		133.9802778														26.7/19.3																								57/56	SSE/NNE	2.4/2.6	"1008 m^3"	"Air Sampler: Middle Volume; Weather during 7-day sampling: Coudy occasionally rain, Cloudy occasionally rain, Fair; Fair; Cloudy, Rain, Cloudy, Fair occasionally cloudy; Wind direction: SSE, WSW, N, WSW, E, NE, NNW, NNE; Wind speed: 2.4, 2.3, 1.7, 1.3, 3.2, 0.4, 1.3, 2.6"	2020/1/15	2020/1/15
PRA000099	SAA006841	ST029				Ehime_air1-123_2017H	Air	"Outside air"	2017	8		"2017-08-22/08-23; 08-23/08-24; 08-24/08-25"				Asia	Japan	"Nanyo General Subprefectural Bureau, Uwajima city, Ehime"	33.22722222		132.57																																										"Air Sampler: High Volume; n=3 pooled: SAA006838, SAA006839, SAA006840"	2020/1/15	2020/1/15
PRA000099	SAA006845	ST029				Fukuoka_air1-456_2017H	Air	"Outside air"	2017	9		"2017-09-25/09-26; 09-26/09-27; 09-27/09-28"				Asia	Japan	"Omuta municipal office, Omuta city, Fukuoka"	33.03027778		130.4458333																																										"Air Sampler: High Volume; n=3 pooled: SAA006842, SAA006843, SAA006844"	2020/1/15	2020/1/15
PRA000099	SAA006846	ST029				Saga_air1-4_2017	Air	"Outside air"	2017	9	26	2017-09-19T10:00/2017-09-26T10:00		"7days(Sep. 19_26)"	Cloudy/Fair	Asia	Japan	"Saga Prefectural Environmental Research Center, Saga city, Saga"	33.27333333		130.2727778														23.4/24.1																								81/67	NW/NNE	0.4/2.0	"1008 m^3"	"Air Sampler: Middle Volume; Weather during 7-day sampling: Coudy, Cloudy, Cloudy, Cloudy & Rain, Fair, Cloudy, Fair, Fair; Wind direction: NW, SSE, S, ENE, WNW, SSE, E, NNE; Wind speed: 0.4, 1.6, 1.4, 3.7, 1.8, 0.3, 2.0, 2.0"	2020/1/15	2020/1/15
PRA000099	SAA006850	ST029				Kumamoto_air1-123_2017H	Air	"Outside air"	2017	10		"2017-10-03/10-04; 10-04/10-05; 10-05/10-06"				Asia	Japan	"Kumamoto Prefectural Institute of Public-Health and Environmental Science, Uto city, Kumamoto"	32.66583333		130.6530556																																										"Air Sampler: High Volume; n=3 pooled: SAA006847, SAA006848, SAA006849"	2020/1/15	2020/1/15
PRA000099	SAA006851	ST029				Miyazaki_air1-1_2017	Air	"Outside air"	2017	9	12	2017-09-05T09:55/2017-09-12T09:55		"7days(Sep. 05_12)"	Rain/Cloudy	Asia	Japan	"Miyazaki Prefectural Institute for Public Health and Environment, Miyazaki city, Miyazaki"	31.83305556		131.4152778														22.7/28.2																								96/79	NNE/W	5.3/5.7	"1008 m^3"	"Air Sampler: Middle Volume; Weather during 7-day sampling: Rain, Fair, Thunder, Cloudy, Fair, Fair, Cloudy, Cloudy; Wind direction: NNE, W, WSW, E, ENE, NNW, E, W; Wind speed: 5.3, 2.4, 4.7, 3.6, 3.4, 1.2, 1.6, 5.7"	2020/1/15	2020/1/15
PRA000099	SAA006855	ST029				Kagoshima_air1-123_2017H	Air	"Outside air"	2017			"2017-08-29/08-30; 08-30/08-31; 08-31/09-01"				Asia	Japan	"Kagoshima Prefectural Institute for Environmental Research and Public Health, Kagoshima city, Kagoshima"	31.58444444		130.5644444																																										"Air Sampler: High Volume; n=3 pooled: SAA006852, SAA006853, SAA006854"	2020/1/15	2020/1/15
PRA000099	SAA006859	ST029				Okinawa_air1-123_2017H	Air	"Outside air"	2017	8		"2017-08-28/08-29; 08-29/08-30; 08-30/08-31"				Asia	Japan	"Cape Hedo-misaki, Kunigami villedge, Okinawa"	26.87		128.25																																										"Air Sampler: High Volume; n=3 pooled: SAA006856, SAA006857, SAA006858"	2020/1/15	2020/1/15
PRA000101	SAA007139	ST009	157729			SP-5-O_2017	"Saccostrea mordax"	"Small rock oyster"	2017	8	4					Asia	Japan	"Gusuku, Nago City, Okinawa"	26.58727778		127.9801389			"Whole soft tissues"	2.1																																							2020/6/8	2020/6/8
PRA000101	SAA007140	ST009	157729			SP-7-O_2017	"Saccostrea mordax"	"Small rock oyster"	2017	8	4					Asia	Japan	"Onna Village, Okinawa"	26.50908333		127.8738333			"Whole soft tissues"	2.1																																							2020/6/8	2020/6/8
PRA000101	SAA007141	ST009	157729			SP-8-O_2017	"Saccostrea mordax"	"Small rock oyster"	2017	8	4					Asia	Japan	"Onna Village, Okinawa"	26.44736111		127.8030278			"Whole soft tissues"	1.8																																							2020/6/8	2020/6/8
PRA000101	SAA007142	ST009	157729			SP-9-O_2017	"Saccostrea mordax"	"Small rock oyster"	2017	8	4					Asia	Japan	"Onna Village, Okinawa"	26.438		127.7631667			"Whole soft tissues"	1.9																																							2020/6/8	2020/6/8
PRA000101	SAA007143	ST009	157729			SP-10-O_2017	"Saccostrea mordax"	"Small rock oyster"	2017	8	4					Asia	Japan	"Uruma City, Okinawa"	26.42780556		127.8323333			"Whole soft tissues"	2.5																																							2020/6/8	2020/6/8
PRA000101	SAA007144	ST009	157729			SP-11-O_2017	"Saccostrea mordax"	"Small rock oyster"	2017	8	4					Asia	Japan	"Okinawa City, Okinawa"	26.3235		127.8351111			"Whole soft tissues"	5.1																																							2020/6/8	2020/6/8
PRA000101	SAA007145	ST009	157729			SP-12-O_2017	"Saccostrea mordax"	"Small rock oyster"	2017	8	4					Asia	Japan	"Kadena Town, Okinawa"	26.36238889		127.7468889			"Whole soft tissues"	1.9																																							2020/6/8	2020/6/8
PRA000101	SAA007146	ST009	157729			SP-13-O_2017	"Saccostrea mordax"	"Small rock oyster"	2017	8	4					Asia	Japan	"Chatan Town, Okinawa"	26.32188889		127.755			"Whole soft tissues"	2.1																																							2020/6/8	2020/6/8
PRA000101	SAA007147	ST009	157729			SP-14-O_2017	"Saccostrea mordax"	"Small rock oyster"	2017	8	4					Asia	Japan	"Chatan Town, Okinawa"	26.29711111		127.7576944			"Whole soft tissues"	2.1																																							2020/6/8	2020/6/8
PRA000101	SAA007148	ST009	157729			SP-15-O_2017	"Saccostrea mordax"	"Small rock oyster"	2017	8	4					Asia	Japan	"Urasoe City, Okinawa"	26.27219444		127.7231111			"Whole soft tissues"	1.3																																							2020/6/8	2020/6/8
PRA000101	SAA007149	ST009	157729			SP-16-O_2017	"Saccostrea mordax"	"Small rock oyster"	2017	8	4					Asia	Japan	"Urasoe City, Okinawa"	26.24461111		127.6795			"Whole soft tissues"	1.9																																							2020/6/8	2020/6/8
PRA000101	SAA007150	ST009	157729			SP-17-O_2017	"Saccostrea mordax"	"Small rock oyster"	2017	8	4					Asia	Japan	"Naha City, Okinawa"	26.23080556		127.6803889			"Whole soft tissues"	2.4																																							2020/6/8	2020/6/8
PRA000101	SAA007151	ST009	157729			SP-18-O_2017	"Saccostrea mordax"	"Small rock oyster"	2017	8	4					Asia	Japan	"Naha City, Okinawa"	26.22702778		127.68075			"Whole soft tissues"	1.3																																							2020/6/8	2020/6/8
PRA000101	SAA007152	ST009	157729			SP-19-O_2017	"Saccostrea mordax"	"Small rock oyster"	2017	8	4					Asia	Japan	"Naha City, Okinawa"	26.22719444		127.6808056			"Whole soft tissues"	2.1																																							2020/6/8	2020/6/8
PRA000101	SAA007153	ST009	157729			SP-20-O_2017	"Saccostrea mordax"	"Small rock oyster"	2017	8	4					Asia	Japan	"Naha City, Okinawa"	26.20869444		127.6753889			"Whole soft tissues"	1.8																																							2020/6/8	2020/6/8
PRA000101	SAA007154	ST009	157729			SP-21-O_2017	"Saccostrea mordax"	"Small rock oyster"	2017	8	4					Asia	Japan	"Nanjo City, Okinawa"	26.182		127.7786944			"Whole soft tissues"	2																																							2020/6/8	2020/6/8
PRA000101	SAA007155	ST009	157729			SP-22-O_2017	"Saccostrea mordax"	"Small rock oyster"	2017	8	4					Asia	Japan	"Itoman City, Okinawa"	26.12988889		127.6683056			"Whole soft tissues"	2.2																																							2020/6/8	2020/6/8
PRA000101	SAA007156	ST009	157729			SP-1-O_2018	"Saccostrea mordax"	"Small rock oyster"	2018	5	26					Asia	Japan	"Ginama, Kunigami Village, Okinawa"	26.84938889		128.2525			"Whole soft tissues"	1.2																																							2020/6/8	2020/6/8
PRA000101	SAA007158	ST009	157729			SP-4-O_2018	"Saccostrea mordax"	"Small rock oyster"	2018	5	26					Asia	Japan	"Ada, Kunigami Village, Okinawa"	26.74138889		128.3188056			"Whole soft tissues"	1.5																																							2020/6/8	2020/6/8
PRA000101	SAA007160	ST009	157729			SP-6-O_2018	"Saccostrea mordax"	"Small rock oyster"	2018	5	26					Asia	Japan	"Teima, Nago City, Okinawa"	26.55133333		128.0637222			"Whole soft tissues"	0.53																																							2020/6/8	2020/6/8
PRA000101	SAA007162	ST009	157729			SP-7-O_2018	"Saccostrea mordax"	"Small rock oyster"	2018	5	25					Asia	Japan	"Onna Village, Okinawa"	26.50908333		127.8738333			"Whole soft tissues"	1.4																																							2020/6/8	2020/6/8
PRA000101	SAA007164	ST009	157729			SP-12-O_2018	"Saccostrea mordax"	"Small rock oyster"	2018	5	25					Asia	Japan	"Kadena Town, Okinawa"	26.36238889		127.7468889			"Whole soft tissues"	1.6																																							2020/6/8	2020/6/8
PRA000101	SAA007166	ST009	157729			SP-22-O_2018	"Saccostrea mordax"	"Small rock oyster"	2018	5	25					Asia	Japan	"Kadena Town, Okinawa"	26.12988889		127.6683056			"Whole soft tissues"	1.2																																							2020/6/8	2020/6/8
PRA000101	SAA007168	ST009	157729			SP-2-O_2018	"Saccostrea mordax"	"Small rock oyster"	2018	5	26					Asia	Japan	"Kunigami Village, Okinawa"	26.84980556		128.2533056			"Whole soft tissues"	1.7																																							2020/6/8	2020/6/8
PRA000101	SAA007169	ST009	157729			SP-3-O_2018	"Saccostrea mordax"	"Small rock oyster"	2018	5	26					Asia	Japan	"Hentona, Kunigami Village, Okinawa"	26.74880556		128.1763889			"Whole soft tissues"	0.9																																							2020/6/8	2020/6/8
PRA000101	SAA007170	ST009	157729			SP-1-O_2019	"Saccostrea mordax"	"Small rock oyster"	2019	7	2					Asia	Japan	"Ginama, Kunigami Village, Okinawa"	26.84938889		128.2525			"Whole soft tissues"	2	82																																						2020/6/8	2020/6/8
PRA000101	SAA007174	ST009	157729			SP-20-O_2019	"Saccostrea mordax"	"Small rock oyster"	2019	7	3					Asia	Japan	"Naha City, Okinawa"	26.20869444		127.6753889			"Whole soft tissues"	0.62	90																																						2020/6/8	2020/6/8
PRA000101	SAA007178	ST009	157729			SP-5-O_2019	"Saccostrea mordax"	"Small rock oyster"	2019	7	2					Asia	Japan	"Nago City, Okinawa"	26.58727778		127.9801389			"Whole soft tissues"	1.8	82																																						2020/6/8	2020/6/8
PRA000101	SAA007180	ST009	157729			SP-10-O_2019	"Saccostrea mordax"	"Small rock oyster"	2019	7	2					Asia	Japan	"Uruma City, Okinawa"	26.42780556		127.8323333			"Whole soft tissues"	1.4	86																																						2020/6/8	2020/6/8
PRA000101	SAA007182	ST009	157729			SP-21-O_2019	"Saccostrea mordax"	"Small rock oyster"	2019	7	1					Asia	Japan	"Nanjo City, Okinawa"	26.182		127.7786944			"Whole soft tissues"	1.6	83																																						2020/6/8	2020/6/8
PRA000106	SAA007452	ST033				UI-H1	Air	"Air in an urban house"	2013	3	6			"39 days(Jan. 27_Mar.06)"		Asia	Vietnam	"Linh Dam Urban Area, Hoang Mai, Hanoi City"	20.96311111		105.8321389																																										"Samling: Bedroom of a 9th floor apartment, near window; Average temperature (Jan.-Mar. 2013):20 ℃; "	2020/10/12	2020/10/12
PRA000106	SAA007453	ST033				UI-H2	Air	"Air in an urban house"	2013	2	27			"31 days(Jan. 28_Feb.27)"		Asia	Vietnam	"Co Nhue Urban Area, Bac Tu Liem, Hanoi City"	21.06272222		105.7816389																																										"Sampling spot: Bedroom/living room of a 2nd floor apartment in urban area; Average temperature (Jan.-Mar. 2013):20 ℃"	2020/10/12	2020/10/12
PRA000106	SAA007454	ST033				UI-H3	Air	"Air in an urban house"	2013	2	27			"34 days(Jan. 25_Feb.27)"		Asia	Vietnam	"Van Quan Urban Area, Ha Dong, Hanoi City"	20.96527778		105.7718056																																										"Sampling spot: Living room on 2nd floor of a house in urban area; Average temperature (Jan.-Mar. 2013):20 ℃"	2020/10/12	2020/10/12
PRA000106	SAA007455	ST033				UI-OF	Air	"Air in an urban house"	2013	2	25			"33 days(Jan. 24_Feb.25)"		Asia	Vietnam	"VNU Univ. of Science, Thanh Xuan, Hanoi City"	20.28063889		105.808																																										"Sampling spot: University office on 3rd floor in urban area; Average temperature (Jan.-Mar. 2013):20 ℃"	2020/10/12	2020/10/12
PRA000106	SAA007456	ST029				UO-R	Air	"Air in urban residential area"	2013	2	25			"32 days(Jan. 25_Feb.25)"		Asia	Vietnam	"Le Van Luong Street, Thanh Xuan, Hanoi City"	21.00486111		105.8032222																																										"Sampling spot: Balcony on 4th floor of a house located in residential area with high population density; Average temperature (Jan.-Mar. 2013):20 ℃"	2020/10/12	2020/10/12
PRA000106	SAA007457	ST029				"UO-M "	Air	"Air in urban mixed land-use area"	2015	11	11			"38 days(Sep. 30_Nov.11)"		Asia	Vietnam	"VNU Univ. of Science, Thanh Xuan, Hanoi City"	20.28063889		105.808																																										"Sampling spot: Garden side of 3rd floor located in a mixed land-use area comprising institutional, residential and industrial (tobacco, rubber, soap) uses with high traffic density; Average temperature (Sep.-Nov. 2015):27 ℃"	2020/10/12	2020/10/12
PRA000106	SAA007458	ST029				ELV-0	Air	"Air in rural area"	2015	11	6			"39 days(Sep. 29_Nov.06)"		Asia	Vietnam	"Thuyen Village, Bac Giang City"	21.28063889		106.2333611																																										"Samling spot: Background garden of a rural house, far from ELV processing area; Average temperature (Sep.-Nov. 2015):27 ℃"	2020/10/12	2020/10/12
PRA000106	SAA007459	ST028				ELV-1	Air	"Air in semi-open ELV workshop"	2013	2	26			"48 days(Jan. 10_Feb.26)"		Asia	Vietnam	"Thuyen Village, Bac Giang City"	21.27836667		106.23105																																										"Sampling spot: Background semi-open workshops reinforced by steel frames and corrugated sheets and household backyards with ELV processing activities such as dismantling, metal scrapping, stockpiling vehicular parts, and disposing less valuable materials (e.g. by open burning); Average temperature (Jan.-Mar. 2013):20 ℃"	2020/10/12	2020/10/12
PRA000106	SAA007460	ST028				ELV-2	Air	"Air in semi-open ELV workshop"	2013	2	26			"48 days(Jan. 10_Feb.26)"		Asia	Vietnam	"Thuyen Village, Bac Giang City"	21.27981667		106.23165																																										"Sampling spot: Background semi-open workshops reinforced by steel frames and corrugated sheets and household backyards with ELV processing activities such as dismantling, metal scrapping, stockpiling vehicular parts, and disposing less valuable materials (e.g., by open burning); Average temperature (Jan.-Mar. 2013):20 ℃"	2020/10/12	2020/10/12
PRA000106	SAA007461	ST028				ELV-3	Air	"Air in semi-open ELV workshop"	2013	2	26			"48 days(Jan. 10_Feb.26)"		Asia	Vietnam	"Thuyen Village, Bac Giang City"	21.28038889		106.2339444																																										"Sampling spot: Background semi-open workshops reinforced by steel frames and corrugated sheets and household backyards with ELV processing activities such as dismantling, metal scrapping, stockpiling vehicular parts, and disposing less valuable materials (e.g., by open burning); Average temperature (Jan.-Mar. 2013):20 ℃"	2020/10/12	2020/10/12
PRA000106	SAA007462	ST028				PR	Air	"Air in semi-open plastic recycling facility"	2013	2	26			"49 days(Jan. 09_Feb.26)"		Asia	Vietnam	"Tan Cuong Commune, Thai Nguyen City"	21.53286111		105.7489722																																										"Sampling spot: Semi-open workshop with steel frames and corrugated sheets. Obsolete plastic products were crushed into small pieces by mechanical method and then pressed into a heated extruder for pelletization; Average temperature (Jan.-Mar. 2013):20 ℃"	2020/10/12	2020/10/12
PRA000106	SAA007463	ST028				OR-1	Air	"Air in semi-open oil refining facility"	2013	2	26			"49 days(Jan. 09_Feb.26)"		Asia	Vietnam	"Tan Cuong Commune, Thai Nguyen City"	21.53288889		105.7479167																																										"Sampling spot: Semi-open workshops with steel frames and corrugated sheets. Industrial and vehicular waste oils were collected, classified, and treated by chemical separation to recover original oils or to produce industrial burning oils; Average temperature (Jan.-Mar. 2013):20 ℃"	2020/10/12	2020/10/12
PRA000106	SAA007464	ST028				OR-2	Air	"Air in semi-open oil refining facility"	2013	2	26			"49 days(Jan. 09_Feb.26)"		Asia	Vietnam	"Tan Cuong Commune, Thai Nguyen City"	21.53288889		105.7479167																																										"Sampling spot: Semi-open workshops with steel frames and corrugated sheets. Industrial and vehicular waste oils were collected, classified, and treated by chemical separation to recover original oils or to produce industrial burning oils; Average temperature (Jan.-Mar. 2013):20 ℃"	2020/10/12	2020/10/12
PRA000106	SAA007465	ST028				RM-1	Air	"Air in semi-open rubber melting facility"	2013	2	26			"49 days(Jan. 09_Feb.26)"		Asia	Vietnam	"Tan Cuong Commune, Thai Nguyen City"	21.53216667		105.7494167																																										"Sampling spot: Semi-open workshops with steel frames and corrugated sheets. Rubber tires were pyrolized to recover carbon black and to produce industrial burning oils; Average temperature (Jan.-Mar. 2013):20 ℃"	2020/10/12	2020/10/12
PRA000106	SAA007466	ST028				RM-2	Air	"Air in semi-open rubber melting facility"	2013	2	26			"49 days(Jan. 09_Feb.26)"		Asia	Vietnam	"Tan Cuong Commune, Thai Nguyen City"	21.53216667		105.7494167																																										"Sampling spot: Semi-open workshops with steel frames and corrugated sheets. Rubber tires were pyrolized to recover carbon black and to produce industrial burning oils; Average temperature (Jan.-Mar. 2013):20 ℃"	2020/10/12	2020/10/12
PRA000107	SAA007467	ST031				HN-RD-1	Air	"Road dust (Urban)"	2016	8	10					Asia	Vietnam	"Tran Nhat Duat, Hoan Kiem, Hanoi"	21.03527778	21.03888889	105.8519444	105.8541667																																									"Pooled (n=4); Coodinates: 1_1:N 21.03888889  E 105.8519444; 1_2:N 21.03722222  E 105.8530556; 1_3:N 21.03666667  E 105.8536111; 1_4:N 21.03527778  E 105.8541667; Sampling spot: Residential/Commercial/Motorbikes and car repairing shops; Traffic: Asphalt, High traffic (bus, cars, motorbikes); "	2020/10/26	2020/10/26
PRA000107	SAA007468	ST031				HN-RD-3	Air	"Road dust (Urban)"	2016	8	8					Asia	Vietnam	"Le Thanh Tong (school yard), Hoan Kiem, Hanoi"	21.02083333	21.02416667	105.8575	105.8586111																																									"Pooled (n=4); Coodinates: 3_1:N 21.02416667  E 105.8575; 3_2:N 21.02083333  E 105.8586111; 3_3:N 21.02111111  E 105.8583333; 3_4:N 21.02083333  E 105.8583333; Sampling spot: Universities; Traffic: Concrete, Meium traffic, Car and motorbike park;"	2020/10/26	2020/10/26
PRA000107	SAA007469	ST031				HN-RD-8	Air	"Road dust (Urban)"	2016	9	16					Asia	Vietnam	"Tran Khanh Du, Hai Ba Trung, Hanoi"	21.01916667	21.02555556	105.8597222	105.8619444																																									"Pooled (n=4); Coodinates: 8_1:N 21.02555556  E 105.8597222; 8_2:N 21.02333333  E 105.8608333; 8_3:N 21.02166667  E 105.8613889; 8_4:N 21.01916667  E 105.8619444; Sampling spot: Low residential/Commercial/Constructing; Traffic: High traffic, Car park, Bus station; "	2020/10/26	2020/10/26
PRA000107	SAA007470	ST031				HN-RD-11	Air	"Road dust (Urban)"	2016	9	16					Asia	Vietnam	"Tran Khat Chan, Hai Ba Trung, Hanoi"	21.00861111	21.00916667	105.8533333	105.8561111																																									"Pooled (n=5); Coodinates: 11_1:N 21.00861111  E 105.8533333; 11_2:N 21.00861111  E 105.8536111; 11_3:N 21.00888889  E 105.855; 11_4:N 21.00916667  E 105.8555556; 11_5:N 21.00916667  E 105.8561111; Sampling spot: Residential/Commercial; Traffic: High traffic (bus, cars, motorbikes)/Car park; "	2020/10/26	2020/10/26
PRA000107	SAA007471	ST031				HN-RD-13	Air	"Road dust (Urban)"	2016	8	30					Asia	Vietnam	"Minh Khai, Hai Ba Trung, Hanoi"	20.995	20.99694444	105.8491667	105.8575																																									"Pooled (n=5); Coodinates: 13_1:N 20.99583333  E 105.85; 13_2:N 20.99694444  E 105.8491667; 13_3:N 20.99666667  E 105.8533333; 13_4:N 20.99555556  E 105.8538889; 13_5:N 20.995  E 105.8575; Sampling spot: Commercial/Residential/Schools/Local markets/Wood furniture shops; Traffic: High traffic (bus, cars, motorbikes); "	2020/10/26	2020/10/26
PRA000107	SAA007472	ST031				HN-RD-17	Air	"Road dust (Urban)"	2016	9	14					Asia	Vietnam	"Kim Ma, Ba Dinh, Hanoi"	21.03111111	21.03277778	105.8177778	105.8233333																																									"Pooled (n=5); Coodinates: 17_1:N 21.03166667  E 105.8233333; 17_2:N 21.03277778  E 105.8219444; 17_3:N 21.03111111  E 105.8208333; 17_4:N 21.03111111  E 105.8194444; 17_5:N 21.03111111  E 105.8177778; Sampling spot: Commercial/Residential/Office buildings; Traffic: High traffic (bus, cars, motorbikes); "	2020/10/26	2020/10/26
PRA000107	SAA007473	ST031				HN-RD-20	Air	"Road dust (Urban)"	2016	8	18					Asia	Vietnam	"Ton Duc Thang, Dong Da, Hanoi"	21.01972222	21.02944444	105.8305556	105.8355556																																									"Pooled (n=5); Coodinates: 20_1:N 21.02944444  E 105.8355556; 20_2:N 21.02944444  E 105.835; 20_3:N 21.02805556  E 105.8344444; 20_4:N 21.02138889  E 105.8313889; 20_5:N 21.01972222  E 105.8305556; Sampling spot: Commercial/Residential; Traffic: High traffic (cars, bus, motorbikes); "	2020/10/26	2020/10/26
PRA000107	SAA007474	ST031				HN-RD-22	Air	"Road dust (Urban)"	2016	9	14					Asia	Vietnam	"Nguyen Chi Thanh, Dong Da, Hanoi"	21.02388889	21.02833333	105.8105556	105.8122222																																									"Pooled (n=5); Coodinates: 22_1:N 21.02833333  E 105.8122222; 22_2:N 21.0275  E 105.8119444; 22_3:N 21.02666667  E 105.8116667; 22_4:N 21.02444444  E 105.8108333; 22_5:N 21.02388889  E 105.8105556; Sampling spot: Commercial/Residential; Traffic: High traffic (cars, bus, motorbikes); "	2020/10/26	2020/10/26
PRA000107	SAA007475	ST031				HN-RD-24	Air	"Road dust (Urban)"	2016	8	18					Asia	Vietnam	"Nguyen Luong Bang - Tay Son, Dong Da, Hanoi"	21.02722222	21.03222222	105.825	105.8280556																																									"Pooled (n=5); Coodinates: 24_1:N 21.03222222  E 105.8280556; 24_2:N 21.03083333  E 105.8275; 24_3:N 21.03  E 105.8266667; 24_4:N 21.02805556  E 105.8255556; 24_5:N 21.02722222  E 105.825; Sampling spot: Residential/Commercial/Near universities; Traffic:High traffic(cars, bus, motorbikes)"	2020/10/26	2020/10/26
PRA000107	SAA007476	ST031				HN-RD-26	Air	"Road dust (Urban)"	2016	9	16					Asia	Vietnam	"Giai Phong, Dong Da, Hanoi"	21.00194444	21.00472222	105.8413889	105.8413889																																									"Pooled (n=5); Coodinates: 26_1:N 21.00444444  E 105.8411111; 26_2:N 21.00472222  E 105.8413889; 26_3:N 21.00305556  E 105.8413889; 26_4:N 21.00194444  E 105.8413889; 26_5:N 21.00222222  E 105.8413889; Sampling spot: Residential/Commercial; Traffic:High traffic (bus, cars, motorbikes)/Giap Bat bus station; "	2020/10/26	2020/10/26
PRA000107	SAA007477	ST031				HN-RD-29	Air	"Road dust (Urban)"	2016	9	17					Asia	Vietnam	"Cau Giay, Cau Giay, Hanoi"	21.03333333	21.03694444	105.7894444	105.7922222																																									"Pooled (n=5); Coodinates: 29_1:N 21.03333333  E 105.7905556; 29_2:N 21.03361111  E 105.7894444; 29_3:N 21.03583333  E 105.7913889; 29_4:N 21.03611111  E 105.7919444; 29_5:N 21.03694444  E 105.7922222; Sampling spot: Residential/Commercial/Constructing; Traffic: High traffic (cars, bus, motorbikes); "	2020/10/26	2020/10/26
PRA000107	SAA007478	ST031				HN-RD-30	Air	"Road dust (Urban)"	2016	9	17					Asia	Vietnam	"Pham Van Dong, Cau Giay, Hanoi"	21.04722222	21.05111111	105.7811111	105.7816667																																									"Pooled (n=5); Coodinates: 30_1:N 21.04722222  E 105.7811111; 30_2:N 21.04805556  E 105.7813889; 30_3:N 21.04777778  E 105.7813889; 30_4:N 21.04972222  E 105.7816667; 30_5:N 21.05111111  E 105.7816667; Sampling spot: Residential/Commercial/Constructing; Traffic:High traffic (trucks, cars, motorbikes); "	2020/10/26	2020/10/26
PRA000107	SAA007479	ST031				HN-RD-33	Air	"Road dust (Urban)"	2016	9	17					Asia	Vietnam	"Pham Hung, Cau Giay, Hanoi"	21.03222222	21.03361111	105.7777778	105.78																																									"Pooled (n=5); Coodinates: 33_1:N 21.03361111  E 105.78; 33_2:N 21.03333333  E 105.7777778; 33_3:N 21.03361111  E 105.7780556; 33_4:N 21.03305556  E 105.7777778; 33_5:N 21.03222222  E 105.7797222; Sampling spot: Low residential/Highrise buildings; Traffic: High traffic (bus, cars, motorbikes);  My Dinh bus station; "	2020/10/26	2020/10/26
PRA000107	SAA007480	ST031				HN-RD-34	Air	"Road dust (Urban)"	2016	9	5					Asia	Vietnam	"Tran Duy Hung, Cau Giay, Hanoi"	21.01111111	21.0125	105.8	105.8016667																																									"Pooled (n=5); Coodinates: 34_1:N 21.01111111  E 105.8; 34_2:N 21.01138889  E 105.8002778; 34_3:N 21.0125  E 105.8016667; 34_4:N 21.01222222  E 105.8013889; 34_5:N 21.01166667  E 105.8008333; Sampling spot: Commercial/Residential; Traffic: High traffic (bus, cars, motorbikes); "	2020/10/26	2020/10/26
PRA000107	SAA007481	ST031				HN-RD-37	Air	"Road dust (Urban)"	2016	8	18					Asia	Vietnam	"Nguyen Trai (road), Thanh Xuan, Hanoi"	20.99694444	20.99972222	105.8111111	105.8152778																																									"Pooled (n=5); Coodinates: 37_1:N 20.99972222  E 105.8152778; 37_2:N 20.99861111  E 105.8130556; 37_3:N 20.99833333  E 105.8133333; 37_4:N 20.99722222  E 105.8113889; 37_5:N 20.99694444  E 105.8111111; Sampling spot: Residential/Commercial/Constructing; Traffic: High traffic (cars, bus, motorbikes); "	2020/10/26	2020/10/26
PRA000107	SAA007482	ST031				HN-RD-51	Air	"Road dust (Urban)"	2016	9	17					Asia	Vietnam	"Nguyen Van Cu, Long Bien, Hanoi"	21.04194444	21.04555556	105.8686111	105.8752778																																									"Pooled (n=5); Coodinates: 51_1:N 21.04222222  E 105.8705556; 51_2:N 21.04194444  E 105.8686111; 51_3:N 21.04305556  E 105.8688889; 51_4:N 21.04416667  E 105.8752778; 51_5:N 21.04555556  E 105.875; Sampling spot: Residential/Commercial; Traffic: High traffic (bus, cars, motorbikes); "	2020/10/26	2020/10/26
PRA000107	SAA007483	ST031				TN-RD-1	Air	"Road dust (Industrial zone)"	2016	9	7					Asia	Vietnam	"Cach Mang Thang 10, Thang Loi Ward, Song Cong City, Thai Nguyen province"	21.47583333	21.47638889	105.8311111	105.8319444																																									"Pooled (n=4); Coodinates: 1_1:N 21.47583333  E 105.8311111; 1_2:N 21.47611111  E 105.8313889; 1_3:N 21.47638889  E 105.8316667; 1_4:N 21.47638889  E 105.8319444; Sampling spot: Residential/Industrial (Song Cong I Industrial Park); Traffic: Asphalt (Main road);  Medium traffic (trucks, cars and motorbikes); "	2020/10/26	2020/10/26
PRA000107	SAA007484	ST031				TN-RD-2	Air	"Road dust (Industrial zone)"	2016	9	7					Asia	Vietnam	"Cach Mang Thang 10, Luong Chau Ward, Song Cong City, Thai Nguyen province"	21.47555556	21.47583333	105.8294444	105.8302778																																									"Pooled (n=4); Coodinates: 2_1:N 21.47583333  E 105.8302778; 2_2:N 21.47555556  E 105.83; 2_3:N 21.47555556  E 105.8297222; 2_4:N 21.47555556  E 105.8294444; Sampling spot: Residential/Industrial; Traffic: Medium traffic; "	2020/10/26	2020/10/26
PRA000107	SAA007485	ST031				TN-RD-3	Air	"Road dust (Industrial zone)"	2016	9	7					Asia	Vietnam	"3 Thang 2, Mo Che Ward, Song Cong City, Thai Nguyen province"	21.47388889	21.47388889	105.8277778	105.8283333																																									"Pooled (n=3); Coodinates: 3_1:N 21.47388889  E 105.8277778; 3_2:N 21.47388889  E 105.8280556; 3_3:N 21.47388889  E 105.8283333; Sampling spot: Residential/Industrial; Traffic: Medium traffic; "	2020/10/26	2020/10/26
PRA000107	SAA007486	ST031				TN-RD-4	Air	"Road dust (Industrial zone)"	2016	9	7					Asia	Vietnam	"3 Thang 2, Mo Che Ward, Song Cong City, Thai Nguyen province"	21.47	21.47	105.8277778	105.8280556																																									"Pooled (n=2); Coodinates: 4_1:N 21.47  E 105.8277778; 4_2:N 21.47  E 105.8280556; Sampling spot: Residential/Industrial; Traffic: Medium traffic; "	2020/10/26	2020/10/26
PRA000107	SAA007487	ST031				TN-RD-5	Air	"Road dust (Industrial zone)"	2016	9	7					Asia	Vietnam	"Cach Mang Thang 8, Thang Loi Ward, Song Cong City, Thai Nguyen province"	21.47138889	21.47166667	105.8425	105.8427778																																									"Pooled (n=2); Coodinates: 5_1:N 21.47166667  E 105.8425; 5_2:N 21.47138889  E 105.8427778; Sampling spot: Residential/Industrial; Traffic: Medium traffic; "	2020/10/26	2020/10/26
PRA000107	SAA007488	ST031				TN-RD-6	Air	"Road dust (Industrial zone)"	2016	9	7					Asia	Vietnam	"Cach Mang Thang 10, Bach Quang Ward, Song Cong City, Thai Nguyen province"	21.48222222		105.855																																										"Sampling spot: Residential/Industrial; Traffic: Medium traffic; "	2020/10/26	2020/10/26
PRA000107	SAA007489	ST031				TN-RD-7	Air	"Road dust (Industrial zone)"	2016	9	7					Asia	Vietnam	"Cach Mang Thang 10, Bach Quang Ward, Song Cong City, Thai Nguyen province"	21.48305556		105.8591667																																										"Sampling spot: Residential/Industrial; Traffic: Medium traffic; "	2020/10/26	2020/10/26
PRA000107	SAA007490	ST031				TN-RD-8	Air	"Road dust (Industrial zone)"	2016	9	7					Asia	Vietnam	"Cach Mang Thang 10, Bach Quang Ward, Song Cong City, Thai Nguyen province"	21.48166667	21.48222222	105.8663889	105.8663889																																									"Pooled (n=3); Coodinates: 8_1:N 21.48166667  E 105.8663889; 8_2:N 21.48194444  E 105.8663889; 8_3:N 21.48222222  E 105.8663889; Sampling spot: Residential/Industrial; Traffic: Medium traffic; "	2020/10/26	2020/10/26
PRA000107	SAA007491	ST031				TN-RD-9	Air	"Road dust (Industrial zone)"	2016	9	16					Asia	Vietnam	"Cach Mang Thang 10, Bach Quang Ward, Song Cong City, Thai Nguyen province"	21.48111111		105.8719444																																										"Sampling spot: Residential/Industrial; Traffic: Medium traffic; "	2020/10/26	2020/10/26
PRA000107	SAA007492	ST031				TN-RD-10	Air	"Road dust (Industrial zone)"	2016	9	16					Asia	Vietnam	"Cach Mang Thang 10, Bach Quang Ward, Song Cong City, Thai Nguyen province"	21.48166667		105.8697222																																										"Sampling spot: Residential/Industrial; Traffic: Medium traffic; "	2020/10/26	2020/10/26
PRA000107	SAA007493	ST031				BG-RD-1	Air	"Road dust (Rural)"	2016	8	10					Asia	Vietnam	"Way to rice fields, Mai Dinh Commune, Hiep Hoa District, Bac Giang province"	21.23611111	21.2375	105.9402778	105.9416667																																									"Pooled (n=5); Coodinates: 1_1:N 21.2375  E 105.9416667; 1_2:N 21.23722222  E 105.9413889; 1_3:N 21.23666667  E 105.9408333; 1_4:N 21.23638889  E 105.9408333; 1_5:N 21.23611111  E 105.9402778; Sampling spot: Agricultural/Residential; Traffic: Concrete, Low traffic (motorbikes); "	2020/10/26	2020/10/26
PRA000107	SAA007494	ST031				BG-RD-2	Air	"Road dust (Rural)"	2016	8	19					Asia	Vietnam	"Way to rice fields, Mai Dinh Commune, Hiep Hoa District, Bac Giang province"	21.24027778	21.24083333	105.9408333	105.9427778																																									"Pooled (n=5); Coodinates: 2_1:N 21.24083333  E 105.9427778; 2_2:N 21.24055556  E 105.9422222; 2_3:N 21.24055556  E 105.9416667; 2_4:N 21.24055556  E 105.9413889; 2_5:N 21.24027778  E 105.9408333; Sampling spot: Agricultural/Residential; Traffic: Concrete, Low traffic (motorbikes); "	2020/10/26	2020/10/26
PRA000107	SAA007495	ST031				BG-RD-3	Air	"Road dust (Rural)"	2016	8	19					Asia	Vietnam	"Way on rice fields, Mai Dinh Commune, Hiep Hoa District, Bac Giang province"	21.23583333	21.23694444	105.9444444	105.945																																									"Pooled (n=5); Coodinates: 3_1:N 21.23611111  E 105.945; 3_2:N 21.23583333  E 105.9447222; 3_3:N 21.23638889  E 105.9447222; 3_4:N 21.23666667  E 105.9444444; 3_5:N 21.23694444  E 105.9444444; Sampling spot: Residential, far from rice fields; Traffic: Concrete, Medium traffic (motorbikes);  "	2020/10/26	2020/10/26
PRA000107	SAA007496	ST031				BG-RD-5	Air	"Road dust (Rural)"	2016	8	27					Asia	Vietnam	"Way on rice fields, Mai Dinh Commune, Hiep Hoa District, Bac Giang province"	21.23722222	21.23944444	105.9386111	105.9405556																																									"Pooled (n=5); Coodinates: 5_1:N 21.23777778  E 105.9402778; 5_2:N 21.23722222  E 105.9405556; 5_3:N 21.23861111  E 105.9394444; 5_4:N 21.23888889  E 105.9391667; 5_5:N 21.23944444  E 105.9386111; Sampling spot: Agricultural; Traffic: Land, Low traffic; "	2020/10/26	2020/10/26
PRA000107	SAA007497	ST031				BG-RD-6	Air	"Road dust (Rural)"	2016	8	27					Asia	Vietnam	"Way on rice fields, Mai Dinh Commune, Hiep Hoa District, Bac Giang province"	21.23444444	21.235	105.9552778	105.9580556																																									"Pooled (n=5); Coodinates: 6_1:N 21.23444444  E 105.9561111; 6_2:N 21.23444444  E 105.9552778; 6_3:N 21.23444444  E 105.9569444; 6_4:N 21.23444444  E 105.9577778; 6_5:N 21.235  E 105.9580556; Sampling spot: Agricultural; Traffic: Land, Low traffic; "	2020/10/26	2020/10/26
PRA000111	SAA007595	ST004	103596	es-BANK	EW00086	820106-13	"Peponocephala electra"	"Melon-headed whale"	1982	1						Asia	Japan	"Aoshima, Miyazaki"	31.45	32.73333333	131.9163889	132.5502778	Male	Blubber	58		144.2	kg	236	cm	"Body length"	Immature	"12.5 y.o."																														"This sample is out of the same speciman as SAA002113."	2021/1/4	2021/1/4
PRA000111	SAA007596	ST004	103596	es-BANK	EW00089	820106-16	"Peponocephala electra"	"Melon-headed whale"	1982	1						Asia	Japan	"Aoshima, Miyazaki"	31.45	32.73333333	131.9163889	132.5502778	Male	Blubber	58		211.7	kg	258	cm	"Body length"	Mature																															"This sample is out of the same speciman as SAA002109."	2021/1/4	2021/1/4
PRA000111	SAA007597	ST004	103596	es-BANK	EW00090	820106-17	"Peponocephala electra"	"Melon-headed whale"	1982	1						Asia	Japan	"Aoshima, Miyazaki"	31.45	32.73333333	131.9163889	132.5502778	Male	Blubber	69		198.4	kg	251	cm	"Body length"	Mature	"37.5 y.o."																														"This sample is out of the same speciman as SAA002110."	2021/1/4	2021/1/4
PRA000111	SAA007598	ST004	103596	es-BANK	EW00091	820106-18	"Peponocephala electra"	"Melon-headed whale"	1982	1						Asia	Japan	"Aoshima, Miyazaki"	31.45	32.73333333	131.9163889	132.5502778	Male	Blubber	62		175.6	kg	247.5	cm	"Body length"	Mature	"24.5 y.o."																														"This sample is out of the same speciman as SAA002111."	2021/1/4	2021/1/4
PRA000111	SAA007599	ST004	103596	es-BANK	EW00093	820106-20	"Peponocephala electra"	"Melon-headed whale"	1982	1						Asia	Japan	"Aoshima, Miyazaki"	31.45	32.73333333	131.9163889	132.5502778	Male	Blubber	63		196.5	kg	247	cm	"Body length"	Mature	"41.5 y.o."																														"This sample is out of the same speciman as SAA002112."	2021/1/4	2021/1/4
PRA000111	SAA007600	ST004	103596	es-BANK	EW00113	M32623	"Peponocephala electra"	"Melon-headed whale"	2001	2	12					Asia	Japan	"Hasaki, Ibaraki"	35.73184444	35.82913333	140.7697722	140.8939278	Male	Blubber	70				270	cm	"Body length"	Mature																															"This sample is out of the same speciman as SAA002119."	2021/1/4	2021/1/4
PRA000111	SAA007601	ST004	103596	es-BANK	EW00121	M32632	"Peponocephala electra"	"Melon-headed whale"	2001	2	14					Asia	Japan	"Hasaki, Ibaraki"	35.73184444	35.82913333	140.7697722	140.8939278	Male	Blubber	67				249	cm	"Body length"	Mature																															"This sample is out of the same speciman as SAA002123."	2021/1/4	2021/1/4
PRA000111	SAA007602	ST004	103596	es-BANK	EW00124	M32654	"Peponocephala electra"	"Melon-headed whale"	2001	3	12					Asia	Japan	"Tanegashima, Kagoshima"	30.28055556	30.89444444	130.8252778	131.2708333	Male	Blubber	99				245.5	cm	"Body length"	Mature																															"This sample is out of the same speciman as SAA002124."	2021/1/4	2021/1/4
PRA000111	SAA007603	ST004	103596	es-BANK	EW00125	M32655	"Peponocephala electra"	"Melon-headed whale"	2001	3	12					Asia	Japan	"Tanegashima, Kagoshima"	30.28055556	30.89444444	130.8252778	131.2708333	Male	Blubber	85				253	cm	"Body length"	Mature																															"This sample is out of the same speciman as SAA002122."	2021/1/4	2021/1/4
PRA000111	SAA007604	ST004	103596	es-BANK	EW00127	M32677	"Peponocephala electra"	"Melon-headed whale"	2001	3	12					Asia	Japan	"Tanegashima, Kagoshima"	30.28055556	30.89444444	130.8252778	131.2708333	Male	Blubber	83				261	cm	"Body length"	Mature																															"This sample is out of the same speciman as SAA002120."	2021/1/4	2021/1/4
PRA000111	SAA007605	ST004	103596	es-BANK	EW00134	M32774	"Peponocephala electra"	"Melon-headed whale"	2002	2	25					Asia	Japan	"Hasaki, Ibaraki"	35.73184444	35.82913333	140.7697722	140.8939278	Male	Blubber	44				243	cm	"Body length"	Mature	"15.5 y.o."																														"This sample is out of the same speciman as SAA002125."	2021/1/4	2021/1/4
PRA000111	SAA007606	ST004	103596	es-BANK	EW04669	M32785	"Peponocephala electra"	"Melon-headed whale"	2002	2	25					Asia	Japan	"Hasaki, Ibaraki"	35.73184444	35.82913333	140.7697722	140.8939278	Male	Blubber	69				243	cm	"Body length"	Mature	"16.5 y.o."																														"This sample is out of the same speciman as SAA002126."	2021/1/4	2021/1/4
PRA000111	SAA007607	ST004	103596	es-BANK	EW04676	M32798	"Peponocephala electra"	"Melon-headed whale"	2002	2	25					Asia	Japan	"Hasaki, Ibaraki"	35.73184444	35.82913333	140.7697722	140.8939278	Male	Blubber	43				234	cm	"Body length"	Immature	"10.5 y.o."																														"This sample is out of the same speciman as SAA002127."	2021/1/4	2021/1/4
PRA000111	SAA007608	ST004	103596	es-BANK	EW04690	M32818	"Peponocephala electra"	"Melon-headed whale"	2002	2	25					Asia	Japan	"Hasaki, Ibaraki"	35.73184444	35.82913333	140.7697722	140.8939278	Male	Blubber	40				255	cm	"Body length"	Immature	"11.5 y.o."																														"This sample is out of the same speciman as SAA002121."	2021/1/4	2021/1/4
PRA000111	SAA007609	ST004	103596	es-BANK	EW04766	M34072	"Peponocephala electra"	"Melon-headed whale"	2006	1	23					Asia	Japan	"Asahi, Chiba"	35.70111111		140.7113889		Male	Blubber	66		224.05	kg	249	cm	"Body length"	Mature																															"This sample is out of the same speciman as SAA002157."	2021/1/4	2021/1/4
PRA000111	SAA007610	ST004	103596	es-BANK	EW04764	M34076	"Peponocephala electra"	"Melon-headed whale"	2006	1	23					Asia	Japan	"Asahi, Chiba"	35.70111111		140.7113889		Male	Blubber	49		229.05	kg	255.6	cm	"Body length"	Mature																															"This sample is out of the same speciman as SAA002155."	2021/1/4	2021/1/4
PRA000111	SAA007611	ST004	103596	es-BANK	EW04762	M34077	"Peponocephala electra"	"Melon-headed whale"	2006	1	23					Asia	Japan	"Asahi, Chiba"	35.70111111		140.7113889		Male	Blubber	51		137.5	kg	234	cm	"Body length"	Mature																															"This sample is out of the same speciman as SAA002156."	2021/1/4	2021/1/4
PRA000111	SAA007612	ST004	103596	es-BANK	EW04779	M34085	"Peponocephala electra"	"Melon-headed whale"	2006	2	28					Asia	Japan	"Torami coast, Torami, Ichinomiya, Chiba"	35.33	35.35972222	140.3919417	140.3979167	Male	Blubber	28				260	cm	"Body length"	Mature																															"This sample is out of the same speciman as SAA002159."	2021/1/4	2021/1/4
PRA000111	SAA007613	ST004	103596	es-BANK	EW04772	M34090	"Peponocephala electra"	"Melon-headed whale"	2006	2	28					Asia	Japan	"Torami coast, Torami, Ichinomiya, Chiba"	35.33	35.35972222	140.3919417	140.3979167	Male	Blubber	35				239	cm	"Body length"	Mature																															"This sample is out of the same speciman as SAA002158."	2021/1/4	2021/1/4
PRA000111	SAA007614	ST004	103596	es-BANK	EW04925	M34095	"Peponocephala electra"	"Melon-headed whale"	2006	2	28					Asia	Japan	"Torami coast, Torami, Ichinomiya, Chiba"	35.33	35.35972222	140.3919417	140.3979167	Male	Blubber	45				238	cm	"Body length"	Mature																																2021/1/4	2021/1/4
PRA000111	SAA007615	ST004	103596	es-BANK	EW04926	M34099	"Peponocephala electra"	"Melon-headed whale"	2006	2	28					Asia	Japan	"Torami coast, Torami, Ichinomiya, Chiba"	35.33	35.35972222	140.3919417	140.3979167	Male	Blubber	64				243	cm	"Body length"	Mature																																2021/1/4	2021/1/4
PRA000111	SAA007616	ST004	103596	es-BANK	EW05312	010104-10	"Peponocephala electra"	"Melon-headed whale"	2010	3	10					Asia	Japan	"Yakutsu Nagahama coast, Sakai, Nakatane town, Kumage-gun, Kagoshima"	30.49722222		130.8997222		Male	Blubber	62				237	cm	"Body length"																																	2021/1/4	2021/1/4
PRA000111	SAA007617	ST004	103596	es-BANK	EW05313	010104-11	"Peponocephala electra"	"Melon-headed whale"	2010	3	10					Asia	Japan	"Yakutsu Nagahama coast, Sakai, Nakatane town, Kumage-gun, Kagoshima"	30.49722222		130.8997222		Male	Blubber	66				250	cm	"Body length"																																	2021/1/4	2021/1/4
PRA000111	SAA007618	ST004	103596	es-BANK	EW05314	010104-33	"Peponocephala electra"	"Melon-headed whale"	2010	3	10					Asia	Japan	"Yakutsu Nagahama coast, Sakai, Nakatane town, Kumage-gun, Kagoshima"	30.49722222		130.8997222		Male	Blubber	79				247	cm	"Body length"																																	2021/1/4	2021/1/4
PRA000111	SAA007619	ST004	103596	es-BANK	EW05195	110306-01	"Peponocephala electra"	"Melon-headed whale"	2011	3	6					Asia	Japan	"Oritsu coast, Kashima city, Ibaraki"	35.98201389		140.6644722		Male	Blubber	41				262	cm	"Body length"	Mature																																2021/1/4	2021/1/4
PRA000111	SAA007620	ST004	103596	es-BANK	EW05201	110306-07	"Peponocephala electra"	"Melon-headed whale"	2011	3	6					Asia	Japan	"Oritsu coast, Kashima city, Ibaraki"	35.98201389		140.6644722		Male	Blubber	41				267.5	cm	"Body length"	Mature																																2021/1/4	2021/1/4
PRA000111	SAA007621	ST004	103596	es-BANK	EW05202	110306-08	"Peponocephala electra"	"Melon-headed whale"	2011	3	6					Asia	Japan	"Oritsu coast, Kashima city, Ibaraki"	35.98201389		140.6644722		Male	Blubber	45				256.3	cm	"Body length"	Mature																																2021/1/4	2021/1/4
PRA000111	SAA007622	ST004	103596	es-BANK	EW05179	110306-17	"Peponocephala electra"	"Melon-headed whale"	2011	3	6					Asia	Japan	"Oritsu coast, Kashima city, Ibaraki"	35.98201389		140.6644722		Male	Blubber	61		232.4	kg	259.7	cm	"Body length"	Mature																																2021/1/4	2021/1/4
PRA000111	SAA007623	ST004	103596	es-BANK	EW05183	110306-21	"Peponocephala electra"	"Melon-headed whale"	2011	3	6					Asia	Japan	"Oritsu coast, Kashima city, Ibaraki"	35.98201389		140.6644722		Male	Blubber	53		238	kg	261.8	cm	"Body length"	Mature																																2021/1/4	2021/1/4
PRA000111	SAA007624	ST004	103596	es-BANK	EW05189	110306-27	"Peponocephala electra"	"Melon-headed whale"	2011	3	6					Asia	Japan	"Oritsu coast, Kashima city, Ibaraki"	35.98201389		140.6644722		Male	Blubber	56		249.8	kg	270	cm	"Body length"	Mature																																2021/1/4	2021/1/4
PRA000111	SAA007625	ST004	103596	es-BANK	EW05184	110306-22	"Peponocephala electra"	"Melon-headed whale"	2011	3	6					Asia	Japan	"Oritsu coast, Kashima city, Ibaraki"	35.98201389		140.6644722		Male	Blubber	73		178	kg	263	cm	"Body length"	Mature																																2021/1/4	2021/1/4
PRA000111	SAA007626	ST004	103596	es-BANK	EW05714	Hokota-02	"Peponocephala electra"	"Melon-headed whale"	2015	4	11					Asia	Japan	"Kyochigma coast, Kamizawa, Hokota city, Ibaraki"	36.095289	36.098629	140.603402	140.605157	Male	Blubber	53				254.7	cm	"Body length"																																	2021/1/4	2021/1/4
PRA000111	SAA007627	ST004	103596	es-BANK	EW05717	Hokota-05	"Peponocephala electra"	"Melon-headed whale"	2015	4	11					Asia	Japan	"Kyochigma coast, Kamizawa, Hokota city, Ibaraki"	36.095289	36.098629	140.603402	140.605157	Male	Blubber	52				244	cm	"Body length"																																	2021/1/4	2021/1/4
PRA000111	SAA007628	ST004	103596	es-BANK	EW05725	Hokota-15	"Peponocephala electra"	"Melon-headed whale"	2015	4	11					Asia	Japan	"Kyochigma coast, Kamizawa, Hokota city, Ibaraki"	36.095289	36.098629	140.603402	140.605157	Male	Blubber	48		195.4	kg	255.3	cm	"Body length"																																	2021/1/4	2021/1/4
PRA000111	SAA007629	ST004	103596	es-BANK	EW05726	Hokota-16	"Peponocephala electra"	"Melon-headed whale"	2015	4	11					Asia	Japan	"Kyochigma coast, Kamizawa, Hokota city, Ibaraki"	36.095289	36.098629	140.603402	140.605157	Male	Blubber	49				252	cm	"Body length"																																	2021/1/4	2021/1/4
PRA000111	SAA007630	ST004	103596	es-BANK	EW05727	Hokota-17	"Peponocephala electra"	"Melon-headed whale"	2015	4	11					Asia	Japan	"Kyochigma coast, Kamizawa, Hokota city, Ibaraki"	36.095289	36.098629	140.603402	140.605157	Male	Blubber	62				253	cm	"Body length"																																	2021/1/4	2021/1/4
PRA000111	SAA007631	ST004	103596	es-BANK	EW05736	Hokota-26	"Peponocephala electra"	"Melon-headed whale"	2015	4	11					Asia	Japan	"Kyochigma coast, Kamizawa, Hokota city, Ibaraki"	36.095289	36.098629	140.603402	140.605157	Male	Blubber	50				255	cm	"Body length"																																	2021/1/4	2021/1/4
PRA000111	SAA007632	ST004	103596	es-BANK	EW05741	Hokota-31	"Peponocephala electra"	"Melon-headed whale"	2015	4	11					Asia	Japan	"Kyochigma coast, Kamizawa, Hokota city, Ibaraki"	36.095289	36.098629	140.603402	140.605157	Male	Blubber	53		184.5	kg	252.5	cm	"Body length"																																	2021/1/4	2021/1/4
PRA000116	SAA007535	ST015				Hokkaido_w3_2018	Water	"River water"	2018	11	5	2018-11-05T14:20			Cloudy	Asia	Japan	"Ishikarikako-kyo Bridge, Mouth of Riv. Ishikari (Ishikari City), Hokkaido"	43.22861111		141.3519444														"14.6 "	"9.1 "	"8.3 "	"9.5 "	"65 "			"28 "			Brown																			2021/5/18	2021/5/18
PRA000116	SAA007539	ST015				Iwate_w1-1_2018	Water	"River water"	2018	10	10	2018-10-10T10:05			Cloudy	Asia	Japan	"Riv. Toyosawa (Hanamaki City), Iwate"	39.38166667		141.1191667														"17.9 "	"15.9 "	"7.1 "	"9.9 "	"7.7 "			"5 "			"Light Green"																			2021/5/18	2021/5/18
PRA000116	SAA008014	ST014				Miyagi_w3_2018	Water	"Sea water"	2018	10	16	2018-10-16T10:17			Fair	Asia	Japan	"Sendai Bay (Matsushima Bay), Miyagi"	38.35333333		141.0975														"21.2 "	"18.2 "	"8.0 "	"7.5 "	"4,000 "			"1 "		"2.2 "	Clear																			2021/5/18	2021/5/18
PRA000116	SAA008015	ST015				Akita_w3-123_2018	Water	"Lake water"	2018	9	4	"2018-09-04T10:30; T09:50; T10:51"			Fair	Asia	Japan	"Lake Hachiro, Akita"	39.92277778		139.9988889														"29.0; 29.1; 30.0"	"26.4; 25.9; 26.4"	"9.4; 9.3; 9.3"	"13; 13; 12"	"16; 17; 17"			"15; 15; 15"		"0.6; 0.9; 0.6"	"Light Greenish brown; Dark Yellow green; Dark Yellow green"																		"Pooled (n=3)"	2021/5/18	2021/5/18
PRA000116	SAA007544	ST015				Yamagata_w1_2018	Water	"River water"	2018	10	17	2018-10-17T09:20			Cloudy	Asia	Japan	"Mouth of Riv. Mogami, Yamagata"	38.88722222		139.8433333														"14.3 "	"14.9 "	"7.3 "	"9.4 "	"21 "			"2 "			"Light Yellow"																			2021/5/18	2021/5/18
PRA000116	SAA008016	ST014				Fukushima_w1_2018	Water	"Sea water"	2018	10	24	2018-10-24T10:03			Cloudy	Asia	Japan	"Onahama Port, Fukushima"	36.92472222		140.8752778														"19.5 "	"19.6 "	"8.1 "	"7.0 "	"4,700 "			"5 "		"4.0 "	"Bluish green"																			2021/5/18	2021/5/18
PRA000116	SAA007545	ST015				Ibaraki_w2_2018	Water	"River water"	2018	11	9	2018-11-09T10:29			Cloudy	Asia	Japan	"Kamome-ohasi Bridge, Mouth of Riv. Tone (Kamisu City), Ibaraki"	35.77638889		140.7569444														"17.8 "	"18.0 "	"7.9 "	"9.4 "	"637 "			"4.8 "			Clear																			2021/5/18	2021/5/18
PRA000116	SAA007547	ST015				Tochigi_w1_2018	Water	"River water"	2018	10	18	2018-10-18T11:10			Fair	Asia	Japan	"Tagawa area-Toshuko Weir (Utsunomiya City), Tochigi"	36.52805556		139.8855556														"22.2 "	"18.0 "	"8.3 "	"11.0 "	"20 "			"2 "			Clear																			2021/5/18	2021/5/18
PRA000116	SAA007549	ST015				Saitama_w2_2018	Water	"River water"	2018	10	24	2018-10-24T10:25			Fair	Asia	Japan	"Akigase-Shusuizeki Weir, Riv. Ara (Shiki City), Saitama"	35.84055556		139.6044444														"19.7 "	"17.3 "	"7.7 "	"9.7 "	"25 "			"3 "			"Light Green"																			2021/5/18	2021/5/18
PRA000116	SAA008017	ST015				ChibaCity_w1_2018	Water	"River water"	2018	11	2	2018-11-02T10:30			Fair	Asia	Japan	"Mouth of Riv. Hanami (Chiba City), Chiba"	35.63472222		140.04694440														19.0	19.9	8.0	6.4	3,740			1			Clear																			2021/05/18	2021/05/18
PRA000116	SAA007552	ST015				Tokyo_w1_2018	Water	"River water"	2018	8	23	2018-08-23T10:35			Fair	Asia	Japan	"Mouth of Riv. Arakawa (Koto Ward), Tokyo"	35.64583333		139.8463889														"25.7 "	"25.8 "	"7.7 "	"5.7 "	"1,234 "			"4 "		"1.3 "	"Greenish brown"																			2021/5/18	2021/5/18
PRA000116	SAA007553	ST015				Tokyo_w2_2018	Water	"River water"	2018	8	23	2018-08-23T12:35			Fair	Asia	Japan	"Mouth of Riv. Sumida (Minato Ward), Tokyo"	35.66		139.7705556														"26.3 "	"26.8 "	"7.3 "	"5.4 "	"2,120 "			"3 "		"1.6 "	"Dark Grayish yellow green"																			2021/5/18	2021/5/18
PRA000116	SAA007554	ST014				YokohamaCity_w3_2018	Water	"Sea water"	2018	11	5	2018-11-05T09:50			Cloudy	Asia	Japan	"Yokohama Port, Kanagawa"	35.45555556		139.6636111														"20.2 "	"20.0 "	"8.3 "	"8.7 "				"3.2 "		"5.0 "	Clear																			2021/5/18	2021/5/18
PRA000116	SAA007557	ST014				Kawasaki_w2_2018	Water	"Sea water"	2018	11	5	2018-11-05T11:02			Cloudy/Fair	Asia	Japan	"Keihin Canal, Kawasaki Port, Kanagawa (front of Ogimachi)"	35.49527778		139.7277778														"22.9 "	"20.1 "	"8.2 "	"8.4 "	"4,500 "			"13 "		"2.7 "	"Grayish blue"																			2021/5/18	2021/5/18
PRA000116	SAA007558	ST015				Niigata_w2-1_2018	Water	"River water"	2018	10	3	2018-10-03T09:15			Fair	Asia	Japan	"Downstream of Riv. Shinano (Niigata City), Niigata"	37.88305556		139.0155556														"25.8 "	"19.9 "	"6.8 "	"8.6 "	"9 "			"220 "			Brown																			2021/5/18	2021/5/18
PRA000116	SAA007863	ST015				Toyama_w2_2018	Water	"River water"	2018	10	18	2018-10-18T09:10			Fair	Asia	Japan	"Hagiura-bashi Bridge, Mouth of Riv. Jintsu (Toyama City), Toyama"	36.745		137.2180556														"19.0 "	"14.5 "	"7.5 "	"9.3 "	"14 "			<1			Clear																			2021/5/18	2021/5/18
PRA000116	SAA007559	ST015				Ishikawa_w1_2018	Water	"River water"	2018	10	25	2018-10-25T09:52			Fair	Asia	Japan	"Mouth of Riv. Sai (Kanazawa City), Ishikawa"	36.60027778		136.5888889														"20.5 "	"17.5 "	"7.3 "	"7.9 "	"139 "			"4 "			"Yellow green"																			2021/5/18	2021/5/18
PRA000116	SAA008018	ST015				Fukui_w1_2018	Water	"River water"	2018	11	9	2018-11-09T10:43			Fair	Asia	Japan	"Mishima-bashi Bridge, Riv. Shono (Tsuruga City), Fukui"	35.6475		136.0627778														"20.5 "	"16.5 "	"7.7 "	"9.3 "	"14 "			"1 "			Clear																			2021/5/18	2021/5/18
PRA000116	SAA007560	ST015				Nagano_w2_2018	Water	"Lake water"	2018	10	29	2018-10-29T10:25			Fair	Asia	Japan	"Center of Lake Suwa, Nagano"	36.05		138.0861111														"19.5 "	"15.8 "	"7.7 "	"11 "	"13 "			"11 "		"0.8 "	"Light Yellow green"																			2021/5/18	2021/5/18
PRA000116	SAA007563	ST015				Shizuoka_w1_2018	Water	"River water"	2018	10	24	2018-10-24T13:05			Fair	Asia	Japan	"Riv. Tenryu (Iwata City), Shizuoka"	34.67916667		137.7961111														"24.9 "	"18.1 "	"7.4 "	"9.9 "	"12 "			"22 "			White																			2021/5/18	2021/5/18
PRA000116	SAA008019	ST015				Aichi_w2-2_2018	Water	"Sea water"	2018	10	23	2018-10-23T12:43			Cloudy	Asia	Japan	"Nagoya Port, West of Shiomi Wharf, Aichi"	35.07111111		136.8691667														"18.3 "	"22.5 "	"7.8 "	"3.1 "	"3,470 "			"6 "		"2.2 "	"Light Green"																			2021/5/18	2021/5/18
PRA000116	SAA007567	ST014				Mie_w1_2018	Water	"Sea water"	2018	10	30	2018-10-30T10:00			Fair	Asia	Japan	"Yokkaichi Port, Mie"	34.94944444		136.6530556														"21.9 "	"19.2 "	"8.3 "	"9.6 "	"3,970 "			"4.0 "		"1.5 "	"Greenish brown"																			2021/5/18	2021/5/18
PRA000116	SAA007570	ST015				Shiga_w2-1_2018	Water	"Lake water"	2018	10	10	2018-10-10T10:10			Cloudy	Asia	Japan	"Lake Biwa (center, offshore of Karasaki), Shiga"	35.04611111		135.8955556														"23.1 "	"22.3 "	"8.0 "	"9.1 "	"11.7 "			"3.4 "		"2.3 "	"Dark Yellow green"																			2021/5/18	2021/5/18
PRA000116	SAA007571	ST014				Kyoto_w1_2018	Water	"Sea water"	2018	10	17	2018-10-17T10:40			"Fair with occasional rain"	Asia	Japan	"Miyazu Port, Kyoto"	35.58305556		135.2138889														"18.9 "	"22.9 "	"8.4 "	"4.2 "				"3 "		"7 "	Clear																			2021/5/18	2021/5/18
PRA000116	SAA007573	ST015				KyotoCity_w1_2018	Water	"River water"	2018	11	8	2018-11-08T10:30			Fair	Asia	Japan	"Miyamae-bashi Bridge, Riv. Katsura (Kyoto City), Kyoto"	34.905		135.7125														"19.5 "	"20.5 "	"7.4 "	"9.0 "	"20 "			"1 "			Clear																			2021/5/18	2021/5/18
PRA000116	SAA007574	ST015				Osaka_w1_2018	Water	"River water"	2018	11	13	2018-11-13T09:40			Cloudy	Asia	Japan	"Mouth of Riv. Yamato (Sakai City), Osaka"	34.60833333		135.4325														"17.3 "	"19.6 "	"8.0 "	"6.6 "				"2 "		"1.5 "	Clear																			2021/5/18	2021/5/18
PRA000116	SAA007576	ST014				OsakaCity_w2_2018	Water	"Sea water"	2018	11	12	2018-11-12T11:07			Cloudy	Asia	Japan	"Osaka Port, Osaka"	34.65861111		135.4313889														"18.3 "	"19.6 "	"7.6 "	"7.4 "	"2,220 "			"1.2 "		"3.0 "	"Light Grayish yellow"																			2021/5/18	2021/5/18
PRA000116	SAA007577	ST014				Hyogo_w3_2018	Water	"Sea water"	2018	10	18	2018-10-18T10:29			Fair	Asia	Japan	"Offshore of Himeji, Hyogo"	34.76194444		134.6697222														"22.0 "	"23.3 "	"7.3 "	"6.6 "	"3,930 "			"18.1 "		"2.2 "	"Greenish brown"																			2021/5/18	2021/5/18
PRA000116	SAA007580	ST014				Kobe_w1_2018	Water	"Sea water"	2018	11	1	2018-11-01T10:30			Fair	Asia	Japan	"Center of Kobe Port, Hyogo"	34.66444444		135.1944444														"16.0 "	"21.0 "	"7.9 "	"6.4 "				"2 "		"2.3 "	"Greenish brown"																			2021/5/18	2021/5/18
PRA000116	SAA007582	ST015				Wakayama_w1_2018	Water	"River water"	2018	11	13	2018-11-13T14:40			Cloudy	Asia	Japan	"Kinokawa-ohashi Bridge, Mouth of Riv. Kinokawa (Wakayama City), Wakayama"	34.23		135.1561111														"18.7 "	"20.1 "	"7.8 "	"7.6 "	"3,270 "			"1 "		"2.0 "	"Greenish blue"																			2021/5/18	2021/5/18
PRA000116	SAA007584	ST014				Okayama_w2_2018	Water	"Sea water"	2018	11	13	2018-11-13T10:25			Cloudy	Asia	Japan	"Offshore of Mizushima, Okayama"	34.48055556		133.665														"18.0 "	"19.0 "	"7.9 "	"7.2 "	"7,000 "			"8 "		"1.8 "	"Dark Yellow green"																			2021/5/18	2021/5/18
PRA000116	SAA008020	ST014				Hiroshima_w2_2018	Water	"Sea water"	2018	11	13	2018-11-13T09:53			Fair	Asia	Japan	"Kure Port, Hiroshima"	34.23361111		132.5391667														"16.7 "	"19.8 "	"8.1 "	"6.7 "				"1.2 "		"6.0 "	"Dark Bluish green"																			2021/5/18	2021/5/18
PRA000116	SAA008021	ST014				Hiroshima_w3_2018	Water	"Sea water"	2018	11	13	2018-11-13T13:01			Cloudy	Asia	Japan	"Hiroshima Bay (Hiroshima City), Hiroshima"	34.34833333		132.4225														"17.9 "	"19.9 "	"8.1 "	"6.18 "				"0.5 "		"7.0 "	"Dark Bluish green"																			2021/5/18	2021/5/18
PRA000116	SAA007586	ST014				Yamagachi_w1_2018	Water	"Sea water"	2018	10	19	2018-10-19T13:45			Fair	Asia	Japan	"Tokuyama Bay, Yamaguchi"	33.99361111		131.7505556														"21.5 "	"21.3 "	"8.0 "	"7.9 "				"3.2 "		"6.5 "	"Bluish green"																			2021/5/18	2021/5/18
PRA000116	SAA008022	ST014				Yamaguchi_w3_2018	Water	"Sea water"	2018	10	12	2018-10-12T10:53			Fair	Asia	Japan	"Offshore of Ube, Yamaguchi"	33.915		131.1975														"20.0 "	"21.8 "	"8.3 "	"7.1 "				"2.9 "		"4.0 "	"Grayish green"																			2021/5/18	2021/5/18
PRA000116	SAA007587	ST014				Yamaguchi_w2_2018	Water	"Sea water"	2018	11	1	2018-11-01T11:15			Fair	Asia	Japan	"Offshore of Hagi, Yamaguchi"	34.43805556		131.3794444														"20.0 "	"20.9 "	"8.3 "	"7.3 "				"2.0 "		"9.0 "	"Bluish green"																			2021/5/18	2021/5/18
PRA000116	SAA008023	ST015				Tokushima_w1_2018	Water	"River water"	2018	10	16	2018-10-16T09:30			Cloudy	Asia	Japan	"Mouth of Riv. Yoshino (Tokushima City), Tokushima"	34.085		134.5913889														"19.8 "	"19.5 "	"7.8 "	"7.9 "	"1,800 "			"2 "		"2.0 "	"Dark green"																			2021/5/18	2021/5/18
PRA000116	SAA007588	ST014				Kagawa_w1_2018	Water	"Sea water"	2018	10	23	2018-10-23T08:50			Cloudy	Asia	Japan	"Takamatsu Port, Kagawa"	34.34972222		134.0788889														"20.4 "	"22.3 "	"8.1 "	"7.0 "				"5 "		"2.0 "	Green																			2021/5/18	2021/5/18
PRA000116	SAA008024	ST015				Kochi_w2_2018	Water	"River water"	2018	10	11	2018-10-11T08:23			Cloudy	Asia	Japan	"Mouth of Riv. Shimanto (Shimanto City), Kochi"	32.93777778		132.8441667														"19.8 "	"19.7 "	"6.53 "	"8.06 "	"640 "			"3.33 "			Clear																			2021/5/18	2021/5/18
PRA000116	SAA007591	ST014				KitakyushuCity_w1_2018	Water	"Sea water"	2018	10	30	2018-10-30T09:20			Fair	Asia	Japan	"Dokai Bay (Kitakyushu City), Fukuoka"	33.90388889		130.8158333														"19.1 "	"19.9 "	"7.9 "	"7.4 "	"4,500 "			"3 "		"3.5 "	Clear																			2021/5/18	2021/5/18
PRA000116	SAA007593	ST014				Saga_w1_2018	Water	"Sea water"	2018	10	31	2018-10-31T10:20			Cloudy	Asia	Japan	"Imari Bay, Saga"	33.34		129.8208333														"14.0 "	"18.5 "	"8.4 "	"3.4 "	"4,700 "			"44 "		"2.5 "	Clear																			2021/5/18	2021/5/18
PRA000116	SAA008025	ST014				Nagasaki_w1_2018	Water	"Sea water"	2018	10	22	2018-10-22T13:33			Fair	Asia	Japan	"Omura Bay, Nagasaki"	32.98833333		129.8522222														"24.5 "	"22.8 "	"8.1 "	"7.6 "				<1		"7.0 "	"Light greenish bllue"																			2021/5/18	2021/5/18
PRA000116	SAA007870	ST015				Kumamoto_w1_2018	Water	"River water"	2018	10	23	2018-10-23T13:30			Cloudy	Asia	Japan	"Hiraki-bashi Bridge, Riv. Midori (Uto City), Kumamoto"	32.71638889		130.6422222														"21.1 "	"19.3 "	"7.6 "	"8.0 "	"340 "			"15 "			Brown																			2021/5/18	2021/5/18
PRA000116	SAA008026	ST015				Miyazaki_w3_2018	Water	"River water"	2018	10	24	2018-10-24T11:35			Fair	Asia	Japan	"Mouth of Riv. Oyodo (Miyazaki City), Miyazaki"	31.89611111		131.4402778														"24.0 "	"20.7 "	"7.8 "	"9.5 "	"380 "			"7 "			Clear																			2021/5/18	2021/5/18
PRA000116	SAA008027	ST015				Kagoshima_w1_2018	Water	"River water"	2018	9	25	2018-09-25T11:55			Fair	Asia	Japan	"Shinkawa-bashi Bridge, Riv. Amori (Kirishima City), Kagoshima"	31.7225		130.7416667														"23.7 "	"23.0 "	"7.5 "	"8.5 "				"6 "			Clear																			2021/5/18	2021/5/18
PRA000116	SAA008028	ST015				Kagoshima_w2_2018	Water	"River water"	2018	9	13	2018-09-13T12:18			Fair	Asia	Japan	"Gotanda-bashi Bridge, Riv. Gotanda (Ichikikushikino City), Kagoshima"	31.72583333		130.2769444														"29.3 "	"29.2 "	"7.7 "	"9.4 "				"2 "			Clear																			2021/5/18	2021/5/18
PRA000116	SAA008029	ST014				Okinawa_w1_2018	Water	"Sea water"	2018	11	6	2018-11-06T11:30			Fair	Asia	Japan	"Naha Port, Okinawa"	26.21222222		127.665														"30.0 "	"25.6 "	"8.1 "	"4.7 "	"4,570 "			"13.2 "		"1.5 "	Clear																			2021/5/18	2021/5/18
PRA000116	SAA008030	ST024				Hokkaido_sed2-123_2018	Sediment	"River sediment"	2018	11	5	"2018-11-05T14:33; T14:44; T14:56"			Cloudy	Asia	Japan	"Ishikarikakokyo Bridge, Mouth of Riv. Ishikari (Ishikari City), Hokkaido"	43.22861111		141.3519444														14.6	9.1										"14.1; 13.6;13.7"			Brown	Brown			"38.5; 43.9; 45.9 (Each)/ 52.8 (Mixed)"	"9.8; 14.2; 8.9 (Each)/ 7.1 (Mixed)"									"n=3 pooled: SAA007633, SAA007634, SAA007635"	2021/5/24	2021/5/24
PRA000116	SAA008031	ST023				Hokkaido_sed3-123_2018	Sediment	"Marine sediment"	2018	9	12	"2018-09-12T10:50; T11:05; T11:20"			Fair	Asia	Japan	"Tomakomai Port, Hokkaido"	42.63138889		141.6288889														"19.6; 20.1; 19.9"	19.5								3.5		17	16		Black	"Greenish blue"	"Hydrogen sulfide odor"		"49.0; 35.8; 34.3 (Each)/ 46.9 (Mixed)"	"9.0; 4.6; 4.1 (Each)/ 4.3 (Mixed)"									"n=3 pooled: SAA007636, SAA007637, SAA007638"	2021/5/24	2021/5/24
PRA000116	SAA008032	ST024				Iwate_sed1-123_2018	Sediment	"River sediment"	2018	10	10	"2018-10-10T10:05; T11:00; T11:00"			Cloudy	Asia	Japan	"Riv. Toyosawa (Hanamaki City), Iwate"	39.38166667		141.1191667														"17.9; 18.0; 18.0"	"15.9; 16.0; 16.0"										"15.5; 15.7; 15.5"	0.15	"Sand (Mixed with pebble)"	Brown	Green_Light	"Odorless; River algae smell; River algae smell"	None	"25.3; 23.7; 21.1 (Each)/24.9 (Mixed)"	"2.2; 1.8; 1.6 (Each)/1.5 (Mixed)"									"n=3 pooled: SAA007873; SAA007874; SAA007875"	2021/5/24	2021/5/24
PRA000116	SAA008036	ST023				Miyagi_sed1_123_2018	Sediment	"Marine sediment"	2018	10	16	"2018-10-16T10:17; T10:52; T11:08"			Fair	Asia	Japan	"Sendai Bay (Matsushima Bay), Miyagi"	38.35333333		141.0975														"21.2; 21.0; 19.1"	"18.2; 18.0; 18.0"								"2.2; 2.2; 2.1"		"19.0; 19.0; 19.2"	"4.7; 4.5; 4.6"	Muddy	"Graysih green"	Clear	"Seaweed odor_Faint"	Shell	"57.8; 61.1; 57.2 (Each)/ 67.5 (Mixed)"	"10.7; 11.8; 11.2 (Each)/ 8.7 (Mixed)"									"n=3 pooled: SAA008033, SAA008034, SAA008035"	2021/5/24	2021/5/24
PRA000116	SAA008037	ST024				Sendai_sed1_123_2018	Sediment	"River sediment"	2018	11	5	"2018-11-05T10:30; T09:47; T10:15"			Cloudy	Asia	Japan	"Hirose-ohashi Bridge, Riv. Hirose (Sendai City), Miyagi"	38.21333333		140.9088889														13.7	"12.8; 12.7; 12.7"										14	"0.23; 0.31; 0.75"	Sandy	Brown	Clear	"Swampy odor_Faint"	None	"9.9; 10.4; 16.4 (Each)/ 15.4 (Mixed)"	"1.0; 1.1; 1.3 (Each)/ 0.9 (Mixed)"									"n=3 pooled: SAA007876, SAA007877, SAA007878"	2021/5/24	2021/5/24
PRA000116	SAA008041	ST024				Akita_sed2-123_2018	Sediment	"Lake sediment"	2018	9	4	"2018-09-04T10:32; T10:13; T10:53"			Fair	Asia	Japan	"Lake Hachiro, Akita"	39.92277778		139.9988889														"29.0; 29.1; 30.0"	"26.4; 25.9; 26.4"								"0.6; 0.9; 0.6"		"23.4; 23.3; 22.7"	"6.1; 6.8; 8.3"	"Sandy, mud; Muddy; Muddy"	"Gray black"	"Greenish brown_Light; Yellow green_Dark; Yellow green_Dark"	Odorless	None	"64.0; 75.2; 76.0 (Each)/ 73.6 (Mixed)"	"7.4; 11.6; 12.6 (Each)/ 7.7 (Mixed)"									"n=3 pooled: SAA008038, SAA008039, SAA008040"	2021/5/24	2021/5/24
PRA000116	SAA008042	ST024				Yamagata_sed1-123_2018	Sediment	"River sediment"	2018	10	17	"2018-10-17T10:20; T10:20; T10:20"			Cloudy	Asia	Japan	"Mouth of Riv. Mogami (Sakata City), Yamagata"	38.88722222		139.8433333														15.8	15.2										"14.6; 14.0; 14.5"	0.3	"Fine sand"	"Gray black"	Yellow_Light	"Earthy odor"	"Vegetative pieces"	"33.7; 33.1; 34.6 (Each)/ 33.2 (Mixed)"	"4.2; 4.2; 4.5 (Each)/ 3.1 (Mixed)"									"n=3 pooled: SAA007879, SAA007880, SAA007881"	2021/5/24	2021/5/24
PRA000116	SAA008046	ST023				Fukushima_sed1-123_2018	Sediment	"Marine sediment"	2018	10	24	"2018-10-24T10:03; T11:07; T11:49"			"Cloudy; Fair; Fair"	Asia	Japan	"Onahama Port, Fukushima"	36.92472222		140.8752778														"19.5; 20.1; 20.0"	"19.6; 20.3; 20.5"								"4.0; 3.8; 3.8"		"19.8; 19.8; 19.8"	"14.0; 13.0; 14.0"	Mud	"Grayish green"	"Blue green"	"Seaweed odor_Faint"	None	"44.5; 41.2; 47.1 (Each)/ 58.7 (Mixed)"	"8.1; 7.4; 9.2 (Each)/ 9.1 (Mixed)"									"n=3 pooled: SAA008043, SAA008044, SAA008045"	2021/5/24	2021/5/24
PRA000116	SAA008047	ST024				Ibaraki_sed1-123_2018	Sediment	"River sediment"	2018	11	9	"2018-11-09T09:48; T10:35; T10:50"			"Cloudy; Rain; rain"	Asia	Japan	"Kamome-ohasi Bridge, Mouth of Riv. Tone (Kamisu City), Ibaraki"	35.77638889		140.7569444														"20.1; 17.8; 18.1"	"18.8; 18.0; 18.0"											"0.95; 6.5; 1.8"	"Sandy, mud; Clay; Sandy"	Brown	Clear	Odorless	"None; None; Shellfish"	"26.0; 39.0; 24.0 (Each)/ 33.2 (Mixed)"	"1.8; 5.7; 1.4 (Each)/ 2.3 (Mixed)"									"n=3 pooled: SAA007885, SAA007886, SAA007887"	2021/5/24	2021/5/24
PRA000116	SAA008051	ST024				Tochigi_sed1-123_2018	Sediment	"River sediment"	2018	10	18	"2018-10-18T10:04; T12:00; T12:58"			Fair	Asia	Japan	"Tagawa area-Toshuko Weir (Utsunomiya City), Tochigi"	36.52805556		139.8855556														"20.5; 22.2; 23.8"	"17.2; 18.0; 18.5"										"18.0; 18.0; 19.0"	"0.62; 0.56; 0.26"	Gravel	Brown	Clear	Odorless		"NA (Each)/ 19.3 (Mixed)"	"NA (Each)/ 0.8 (Mixed)"									"n=3 pooled: SAA008048, SAA008049, SAA008050"	2021/5/24	2021/5/24
PRA000116	SAA008052	ST023				Chiba_sed1-123_2018	Sediment	"Marine sediment"	2018	10	16	"2018-10-16T10:20; T10:45; T10:59"			Cloudy	Asia	Japan	"Ichihara-Anesaki Coast, Chiba"	35.52166667		140.0283333														"20.8; 21.0; 21.6"	"21.1; 21.2; 21.2"								"5.5; 5.4; 5.4"		"21.0; 21.0; 21.0"	"18.5; 18.4; 18.4"	Silt	Black	"Dark bluish green"	"Hydrogen sulfide odor"	"Pieces of shell"	"72.9; 75.0; 73.6 (Each)/ 82.3 (Mixed)"	"12.9; 13.3; 12.7 (Each)/ 11.2 (Mixed)"									"n=3 pooled: SAA007900, SAA007901, SAA007902"	2021/5/24	2021/5/24
PRA000116	SAA008056	ST024				ChibaCity_sed1-123_2018	Sediment	"River sediment"	2018	11	2	"2018-11-02T10:52; T11:23; T11:47"			Fair	Asia	Japan	"Mouth of Riv. Hanami (Chiba City), Chiba"	35.63472222		140.04694440														"22.0; 23.5; 22.0"	"19.9; 21.5; 20.3"										"18.0; 21.2; 18.8"	"2.0; 1.7; 1.8"	Muddy	"Gray black"	Clear	"Seaweed odor"	Shellfish	"27.0; 29.0; 26.7 (Each)/ 27.8 (Mixed)"	"3.4; 4.2; 3.7 (Each)/ 2.5 (Mixed)"									"n=3 pooled: SAA008053, SAA008054, SAA008055"	2021/05/24	2021/05/24
PRA000116	SAA008060	ST024				Tokyo_sed1-456_2018	Sediment	"River sediment"	2018	8	23	"2018-08-23T10:35; T11;20; T11:40"			Fair	Asia	Japan	"Mouth of Riv. Arakawa (Koto Ward), Tokyo"	35.64583333		139.8463889														"25.7; 26.1; 25.8"	"25.8; 26.8; 26.6"								"1.3; 1.1; 1.4"		"26.5; 26.7; 26.6"	"3.8; 3.1; 2.8"	Silt	"Olive black"	"Greenish brown; Greenish brown; Grayish yellow green_Dark"	"Odorless; Odorless; Hydrogen sulfide odor_Faint"	"Clam; Shell"	"39.1; 33.1; 39.1 (Each)/ 51.0 (Mixed)"	"7.3; 6.2; 7.7 (Each)/ 6.8 (Mixed)"									"n=3 pooled: SAA008057, SAA008058, SAA008059"	2021/5/24	2021/5/24
PRA000116	SAA008064	ST024				Tokyo_sed2-456_2018	Sediment	"River sediment"	2018	8	23	"2018-08-23T12:35; T13;15; T13:30"			Fair	Asia	Japan	"Mouth of Riv. Sumida (Minato Ward), Tokyo"	35.66		139.7705556														"26.3; 26.1; 27.2"	"26.8; 26.4; 27.0"								"1.6; 1.7; 1.7"		"25.1; 25.3; 25.5"	"5.4; 5.1; 4.0"	Silt	Black	"Grayish yellow green_Dark"	"Hydrogen sulfide odor"	"Vegetative pieces; Shell; Vegetative pieces; Vegetative pieces; Polychaete"	"57.3; 59.0; 52.3 (Each)/ 64.8 (Mixed)"	"10.6; 12.2; 11.1 (Each)/ 9.9 (Mixed)"									"n=3 pooled: SAA008061, SAA008062, SAA008063"	2021/5/24	2021/5/24
PRA000116	SAA008065	ST023				Yokohama_sed1-123_2018	Sediment	"Marine sediment"	2018	11	5	"2018-11-05T10:40；T09:50; T11:20"			Cloudy	Asia	Japan	"Yokohama Port, Kanagawa"	35.45555556		139.6636111														"21.0; 20.2; 21.0"	"20.5; 20.0; 20.5"								"3.0; 5.0; 4.5"		"19.0; 19.2; 19.5"	"11.7; 12.5; 11.5"	Muddy	"Black brown"	Clear	"Hydrogen sulfide odor_Faint"	None	"64.2; 78.5; 75.8 (Each)/ 68.6 (Mixed)"	"8.2; 11.0; 10.5 (Each)/ 9.1 (Mixed)"									"n=3 pooled: SAA007650, SAA007651, SAA007652"	2021/5/24	2021/5/24
PRA000116	SAA008066	ST024				KawasakiCity_sed1-123_2018	Sediment	"River sediment"	2018	11	5	"2018-11-05T11:47; T12:17; T12:05"			Cloudy	Asia	Japan	"Mouth of Riv. Tama (Kawasaki City), Kanagawa"	35.53		139.7836111														"19.7; 18.7; 22.6"	"19.5; 19.7; 19.6"								"2.0; 1.5; 1.6"		"20.0; 19.9; 20.0"	"4.0; 2.1; 2.5"	"Mud, sand; Mud; Mud"	"Blackish brown"	"Greenish blue"	"Seaweed odor; Tar odor; Seaweed odor"	"Vegetative pieces; Shell; Vegetative pieces; Shell; Shell"	"30.5; 28.8; 29.7 (Each)/ 50.8 (Mixed)"	"6.6; 6.1; 5.9 (Each)/ 8.7 (Mixed)"									"n=3 pooled: SAA007903, SAA007904, SAA007905"	2021/5/24	2021/5/24
PRA000116	SAA008067	ST023				KawasakiCity_sed2-123_2018	Sediment	"Marine sediment"	2018	11	5	"2018-11-05T11:02; T10:45; T10:25"			"Cloudy, occasionally fair"	Asia	Japan	"Keihin Canal, Kawasaki Port, Kanagawa (front of Ogimachi)"	35.49527778		139.7277778														"22.9; 21.2; 20.9"	"20.1; 20.3; 20.0"								"2.7; 2.9; 3.0"		"20.0; 20.2; 20.0"	"15.1; 13.8; 13.5"	Mud	"Gray green"	"Grayish blue"	"Hydrogen sulfide odor_Faint"	Shell	"35.1;51.6; 37.1 (Each)/ 67.4 (Mixed)"	"6.9; 10.8; 7.7 (Each)/ 9.0 (Mixed)"									"n=3 pooled: SAA007653, SAA007654, SAA007655"	2021/5/24	2021/5/24
PRA000116	SAA008068	ST024				Niigata_sed1-123_2018	Sediment	"River sediment"	2018	10	3	"2018-10-03T10:10; T10:05; T10:05"			Fair	Asia	Japan	"Downstream of Riv. Shinano (Niigata City), Niigata"	37.88305556		139.0155556														25.8	19.9										19	"0.89; 4.3; 5.1"	"Muddy; Sandy and Muddy; Sandy and Muddy"	"Blackish brown; Light brown; Brown"	Brown	"Earthy odor; Odorless; Odorless"	"None; Leaves; Tree branch; Leaves"	"56.0; 22.1; 17.7 (Each)/ 30.3 (Mixed)"	"6.4; 1.9; 1.4 (Each)/ 2.6 (Mixed)"									"n=3 pooled: SAA007906, SAA007907, SAA007908"	2021/5/24	2021/5/24
PRA000116	SAA008072	ST024				Toyama_sed1-123_2018	Sediment	"River sediment"	2018	10	18	"2018-10-18T09:20; T10:30; T11:00"			Fair	Asia	Japan	"Hagiura-bashi Bridge, Mouth of Riv. Jintsu (Toyama City), Toyama"	36.745		137.2180556														"17.5; 19.0; 21.5"	"15.5; 16.5; 16.5"										"15.5; 18.0; 17.5"	"0.95; 0.63; 0.85"	"Muddy; Muddy; Sandy"	"Gray black"	Clear	"Seaweed odor_Faint; Hydrogen sulfide odor_Faint; Odorless"	"Leaves; Leaves; Leaves; Roots"	"37.0; 36.0; 22.0 (Each)/ 27.9 (Mixed)"	"3.8; 3.7; 1.2 (Each)/ 2.0 (Mixed)"									"n=3 pooled: SAA008069, SAA008070, SAA008071"	2021/5/24	2021/5/24
PRA000116	SAA008073	ST024				Ishikawa_sed1-123_2018	Sediment	"River sediment"	2018	10	25	"2018-10-25T10:23; T12:14; T12:46"			Fair	Asia	Japan	"Mouth of Riv. Sai (Kanazawa City), Ishikawa"	36.60027778		136.5888889														"20.9; 19.7; 21.1"	"17.5; 18.0; 17.6"												"Sandy silt; Sandy silt; Sand"	"Gray black; Gray brown; Blackish brown"	"Yellow green; Green; Green"	"Fish rotten odor_Faint"	"Pebble, Shell; Pebble; Pebble"	"24.0; 29.0; 22.0 (Each)/ 24.6 (Mixed)"	"2.5; 2.7; 1.3 (Each)/ 2.1 (Mixed)"									"n=3 pooled: SAA007656, SAA007657, SAA007658"	2021/5/24	2021/5/24
PRA000116	SAA008077	ST024				Fukui_sed1-123_2018	Sediment	"River sediment"	2018	11	9	"2018-11-09T10:43; T10:43, T10:43"			Fair	Asia	Japan	"Mishima-bashi Bridge, Riv. Shono (Tsuruga City), Fukui"	35.6475		136.0627778														"20.5; 20.5; 20.5"	"16.5; 16.5; 16.5"										"16.5; 16.5; 16.5"	"0.1; 0.1; 0.1"	"Sandy; Sandy; Sandy"	Brown	Clear	Odorless	Stones	"21.8; 22.3; 20.5 (Each)/ 20.9 (Mixed)"	"1.1; 1.1; 1.1 (Each)/ 0.9 (Mixed)"									"n=3 pooled: SAA008074, SAA008075, SAA008076"	2021/5/24	2021/5/24
PRA000116	SAA008081	ST024				Yamanashi_sed1-123_2018	Sediment	"River sediment"	2018	10	22	"2018-10-22T10:50; T10:20; T09:50"			Fair	Asia	Japan	"Chiaki-bashi Bridge, Riv. Ara (Kofu City), Yamanashi"	35.6475		138.5655556														"14.5; 13.5; 13.1"	"14.8; 12.6; 14.9"										"12.6; 12.2; 14.3"	"1.0; 0.28; 0.9"	"Sand; Pebble; Sand"	Gray	Clear	Odorless	"Pebbles; Sand; None"	"20.5; 17.7; 27.0 (Each)/ 21.3 (Mixed)"	"0.9; 1.1; 1.0 (Each)/ 0.8 (Mixed)"									"n=3 pooled: SAA008078, SAA008079, SAA008080"	2021/5/24	2021/5/24
PRA000116	SAA008082	ST024				Nagano_sed1-123_2018	Sediment	"Lake sediment"	2018	10	29	"2018-10-29T10:25; T11:20; T11:30"			Fair	Asia	Japan	"Center of Lake Suwa, Nagano"	36.05		138.0861111														"19.5; 18.0; 17.2"	"15.8; 15.4; 14.9"								"0.8; 1.0; 0.9"		"16.5; 16.5; 15.2"	"5.8; 5.8; 5.8"	Muddy	"Blackish brown_dark"	"Yellow green_Light"	"Swampy odor_Faint"	None	"79.3; 80.6; 80.2 (Each)/ 85.2 (Mixed)"	"15.6; 15.3; 15.2 (Each)/ 13.6 (Mixed)"									"n=3 pooled: SAA007912, SAA007913, SAA007914"	2021/5/24	2021/5/24
PRA000116	SAA008083	ST023				Shizuoka_sed1-123_2018	Sediment	"Marine sediment"	2018	9	27	"2018-09-27T10:05; T10:25; T10:50"			"Light rain"	Asia	Japan	"Shimizu Port, Shizuoka"	35.02416667		138.5161111														"20.5; 20.0; 20.0"	"23.4; 23.9; 23.9"								"2.5; 3.0; 2.5"		"23.4; 25.3; 24.9"	"25.5; 20.1; 16.6"	"Sand. Mud"	"Gray green_dark"	Clear	"Seaweed odor"	Shellfish	"35.9; 29.8; 31.4 (Each)/ 28.8 (Mixed)"	"4.4; 4.3; 4.0 (Each)/ 3.3 (Mixed)"									"n=3 pooled: SAA007659, SAA007660, SAA007661"	2021/5/24	2021/5/24
PRA000116	SAA008084	ST024				Shizuoka_sed3-123_2018	Sediment	"River sediment"	2018	10	24	"2018-10-24T13:30; T14:00; T14:40"			Fair	Asia	Japan	"Riv. Tenryu (Iwata City), Shizuoka"	34.67916667		137.7961111														"24.9; 26.9; 25.8"	"18.1;NA; NA"										"17.5; 18.2; 18.5"	"0.53; 0.29; 0.73"	Sand	"Gray green_dark"	White	"Seaweed odor"	Pebble	"19.4; 17.5; 24.5 (Each)/ 20.3 (Mixed)"	"1.3; 1.1; 2.2 (Each)/ 1.2 (Mixed)"									"n=3 pooled: SAA007915, SAA007916, SAA007917"	2021/5/24	2021/5/24
PRA000116	SAA008088	ST023				Aichi_sed2-123_2018	Sediment	"Marine sediment"	2018	10	23	"2018-10-23T10:56; T11:05; T11:14"			Cloudy	Asia	Japan	"Kinuura Port, Aichi"	34.84166667		136.9486111														"18.4; 18.4; 18.4"	"26.0; 26.0; 26.0"								"2.0; 2.0; 2.0"		"22.7; 22.2; 22.8"	"14.2; 14.2; 14.2"	Muddy	"Gray green"	Green_Light	"Hydrogen sulfide odor"	Shell	"63.5; 65.4; 65.0 (Each)/ 65.2 (Mixed)"	"10.8; 10.4; 10.4 (Each)/ 8.7 (Mixed)"									"n=3 pooled: SAA008085, SAA008086, SAA008087"	2021/5/24	2021/5/24
PRA000116	SAA008092	ST023				Aichi_sed1-456_2018	Sediment	"Marine sediment"	2018	10	23	"2018-10-23T12:43; T12:51; T12:59"			Cloudy	Asia	Japan	"Nagoya Port, Aichi"	35.07111111		136.8691667														"18.3; 18.3; 18.3"	"22.5; 22.5; 22.5"								"2.2; 2.2; 2.2"		"23.6; 23.8; 24.0"	"16.7; 16.7; 16.7"	Muddy	"Gray black"	Green_Light	"Hydrogen sulfide odor"	Shell	"59.2; 56.9; 59.3 (Each)/ 58.3 (Mixed)"	"7.8; 7.6; 7.8 (Each)/ 6.8 (Mixed)"									"n=3 pooled: SAA008089, SAA008090, SAA008091"	2021/5/24	2021/5/24
PRA000116	SAA008093	ST023				Mie_sed1-123_2018	Sediment	"Marine sediment"	2018	10	30	"2018-10-30T10:00; T10:20; T10:35"			Fair	Asia	Japan	"Yokkaichi Port, Mie"	34.94944444		136.6530556														"21.9; 21.0; 21.5"	"19.2; 19.2; 19.0"								"1.5; 1.8; 1.5"		"22.2; 22.0; 22.0"	"13.0; 12.5; 8.0"	Muddy	"Gray black"	"Gray green"	"Hydrogen sulfide odor_Faint"	"Almost none; Almost none; Shell"	"69.0; 72.0; 57.0 (Each)/ 63.5 (Mixed)"	"9.4; 9.9; 7.1 (Each)/ 7.3 (Mixed)"									"n=3 pooled: SAA007663, SAA007664, SAA007665"	2021/5/24	2021/5/24
PRA000116	SAA008094	ST023				Mie_sed2-123_2018	Sediment	"Marine sediment"	2018	10	22	"2018-10-22T09:55; T10:20; T10:30"			Fair	Asia	Japan	"Toba Port, Mie"	34.48083333		136.8486111														"23.5; 22.0; 22.0"	"21.0; 22.0; 22.0"								"3.0; 4.0; 4.0"		"22.5; 22.0; 22.0"	"6.0; 5.6; 5.4"	Muddy	"Gray brown"	"Gray green"	"Mud smell_Faint"	"Shell; pieces of wood, leaves"	"53.0; 52.0; 43.0 (Each)/ 44.2 (Mixed)"	"10.0; 8.8; 6.2 (Each)/ 7.1 (Mixed)"									"n=3 pooled: SAA007666, SAA007667, SAA007668"	2021/5/24	2021/5/24
PRA000116	SAA008095	ST024				Shiga_sed1-123_2018	Sediment	"Lake sediment"	2018	10	22	"2018-10-22T09:25; T10:05; T10:35"			Fair	Asia	Japan	"Lake Biwa (center, offshore of Minamihira), Shiga"	35.18527778		135.9733333														"19.0; 19.0; 20.0"	"18.2; 19.8; 20.1"								"5.4; 4.1; 5.0"		"8.0; 8.2; 8.3"	"59.1; 53.0; 49.0"	Muddy	"Gray black"	Green_Dark	"Swampy odor"	None	"70.0; 67.8; 67.4 (Each)/ 79.5 (Mixed)"	"11.9; 11.4; 11.5 (Each)/ 10.2 (Mixed)"									"n=3 pooled: SAA007926, SAA007927, SAA007928"	2021/5/24	2021/5/24
PRA000116	SAA008096	ST024				Shiga_sed2-123_2018	Sediment	"Lake sediment"	2018	10	10	"2018-10-10T10:10; T10:40; T11:00"			Cloudy	Asia	Japan	"Lake Biwa (center, offshore of Karasaki), Shiga"	35.04611111		135.8955556														"23.1; 22.7; 23.3"	"22.3; 22.4; 22.3"								"2.3; 3.0; 2.9"		"22.2; 22.3; 22.0"	"4.0; 4.0; 3.4"	Muddy	"Gray black"	"Yellow green_Dark"	"Swampy odor"	"Aquatic plants"	"66.1; 67.5; 55.7 (Each)/ 74.4 (Mixed)"	"12.2; 12.8; 8.9 (Each)/ 9.1 (Mixed)"									"n=3 pooled: SAA007929, SAA007930, SAA007931"	2021/5/24	2021/5/24
PRA000116	SAA008097	ST023				Kyoto_sed1-123_2018	Sediment	"Marine sediment"	2018	10	17	"2018-10-17T10:25; T10:40; T11:07"			"Fair, occasionally rain"	Asia	Japan	"Miyazu Port, Kyoto"	35.58305556		135.2138889														"19.3; 18.9; 20.0"	22.9;22.9；22.9								"7.0; 7.0; 8.0"		"20.7; 21.7; 21.5"	"10.0; 22.0; 22.0"	Muddy	"Gray black"	Clear	"Seaweed odor"	None	"28.3; 51.5; 53.9 (Each)/ 45.3 (Mixed)"	"3.2; 9.3; 9.1 (Each)/ 5.2 (Mixed)"									"n=3 pooled: SAA007932, SAA007933, SAA007934"	2021/5/24	2021/5/24
PRA000116	SAA008098	ST024				Kyoto_sed2-123_2018	Sediment	"River sediment"	2018	11	8	"2018-11-08T10:15; T11:00; T11:20"			Fair	Asia	Japan	"Miyamae-bashi Bridge, Riv. Katsura (Kyoto City), Kyoto"	34.905		135.7125														"19.5; 19.5; 19.5"	"20.5; 20.5; 20.5"										"20.0; 20.0; 19.8"	"0.8; 0.8; 0.5"	Sand	"Gray brown"	Clear	Odorless	None	"17.0; 16.6; 20.4 (Each)/ 18.0 (Mixed)"	"1.1; 1.0; 1.2 (Each)/ 0.9 (Mixed)"									"n=3 pooled: SAA007935, SAA007936, SAA007937"	2021/5/24	2021/5/24
PRA000116	SAA008099	ST024				Osaka_sed1-123_2018	Sediment	"River sediment"	2018	11	13	"2018-11-13T11:45; T10:25; T11:05"			Cloudy	Asia	Japan	"Mouth of Riv. Yamato (Sakai City), Osaka"	34.60833333		135.4325														"18.2;17.6; 17.8"	"19.8; 19.6; 19.7"								"2.2; 1.5; 1.2"		"20.5; 20.7; 20.0"	"2.9; 1.5; 1.7"	"Silt; Sandy silt; Silt"	"Black; Blak; Olive black"	Clear	"Tar odor"	"None; Vegetative pieces; Vegetatige pieces"	"40.8; 48.4; 29.4 (Each)/ 45.5 (Mixed)"	"8.2; 12.0; 4.3 (Each)/ 6.9 (Mixed)"									"n=3 pooled: SAA007938, SAA007939, SAA007940"	2021/5/24	2021/5/24
PRA000116	SAA008100	ST023				OsakaCity_sed1-123_2018	Sediment	"Marine sediment"	2018	11	12	"2018-11-12T11:45; T11:07; T12:00"			Cloudy	Asia	Japan	"Osaka Port, Osaka"	34.65861111		135.4313889														"19.6; 18.3; 18.9"	"19.0; 19.6; 19.6"								"3.0; 3.0; 3.1"		"20.4; 20.3; 19.8"	"12.8; 12.9; 12.9"	Sludge	Black	"Grayish yellow_Light"	"Hydrogen sulfide odor"	None	"59.6; 65.1; 57.5 (Each)/ 70.2 (Mixed)"	"11.4; 12.3; 10.8 (Each)/ 9.7 (Mixed)"									"n=3 pooled: SAA007669 SAA007670, SAA007671"	2021/5/24	2021/5/24
PRA000116	SAA008101	ST024				OsakaCity_sed2-123_2018	Sediment	"River sediment"	2018	11	16	"2018-11-16T09:38; T11:05; T10:25"			Fair	Asia	Japan	"Kema-bashi Bridge, Riv. Oh (Osaka City), Osaka"	34.71776		135.51961														"16.0; 16.4; 18.7"	"16.0; 16.0; 16.1"										"15.2; 16.1; 16.2"	"1.95; 1.6; 3.0"	Sludge	Gray	"Grayish yellow_Dark"	Odorless	Shellfish	"47.2; 46.6; 36.7 (Each)/ 56.2 (Mixed)"	"10.0; 8.0; 6.4 (Each)/ 8.7 (Mixed)"									"n=3 pooled: SAA007941, SAA007942, SAA007943"	2021/5/24	2021/5/24
PRA000116	SAA008105	ST023				OsakaCity_sed4-123_2018	Sediment	"Marine sediment"	2018	11	12	"2018-11-12T12:28; T12:45; T12:59"			Cloudy	Asia	Japan	"Outside of Osaka Port, Osaka"	34.64027778		135.3858333														"17.9; 16.5; 17.0"	"19.8; 19.4; 19.8"								"3.3; 3.3; 3.2"		"19.5; 19.8; 19.3"	"17.5; 12.5; 12.8"	Sludge	Gray	"Grayish yellow_Light"	Odorless	"None; Shellfish; None"	"54.7; 48.9; 25.1 (Each)/ 58.5 (Mixed)"	"9.1; 8.5; 3.3 (Each)/ 6.6 (Mixed)"									"n=3 pooled: SAA008102, SAA008103, SAA008104"	2021/5/24	2021/5/24
PRA000116	SAA008109	ST024				OsakaCity_sed3-123_2018	Sediment	"River sediment"	2018	11	12	"2018-11-12T13:23; T13:38; T13:55"			"Rain; Cloudy; Cloudy"	Asia	Japan	"Mouth of Riv. Yodo, Osaka"	34.67638889		135.3975														"16.1; 15.8; 15.7 "	"19.2; 19.8; 19.7"								"2.3; 3.1; 2.9"		"19.0; 20.0; 20.0"	"6.5; 5.2; 4.1"	Sludge	Gray	"Grayish yellow_Light"	Odorless	"Vegetative pieces"	"32.7; 32.0; 50.8 (Each)/ 50.8 (Mixed)"	"6.8; 6.8; 11.9 (Each); 7.9 (Mixed)"									"n=3 pooled: SAA008106, SAA008107, SAA008108"	2021/5/24	2021/5/24
PRA000116	SAA008110	ST023				Hyogo_sed1-123_2018	Sediment	"Marine sediment"	2018	10	18	"2018-10-18T11:29; T11:13; T10:59"			Fair	Asia	Japan	"Offshore of Himeji, Hyogo"	34.76194444		134.6697222														"21.8; 21.8; 22.0"	"23.9; 23.5; 23.3"								"2.0; 2.1; 2.2"		"23.0; 23.1; 23.5"	"11.0; 10.0; 8.0"	Silt	"Gray green"	"Greenish brown"	"Hydrogen sulfide odor_Faint"	None											"n=3 pooled: SAA007672, SAA007673, SAA007674"	2021/5/24	2021/5/24
PRA000116	SAA008114	ST023				Hyogo_sed2-123_2018	Sediment	"Marine sediment"	2018	11	1	"2018-11-01T10:30; T11:05; T11:18"			Fair	Asia	Japan	"Center of Kobe Port, Hyogo"	34.66444444		135.1944444														"16.0; 20.0; 17.0"	"21.0; 19.0; 19.0"								"2.3; 2.7; 2.5"		"20.5; 21.0; 20.5"	"10.7; 10.4; 13.2"	Silt	"Gray black"	"Greenish brown"	"Hydrogen sulfide odor_Faint"	None	"52.6; 46.4; 57.2 (Each)/ 63.5(Mixed)"	"8.7; 8.4; 9.6 (Each)/ 7.9(Mixed)"									"n=3 pooled: SAA008111, SAA008112, SAA008113"	2021/5/24	2021/5/24
PRA000116	SAA008115	ST024				Nara_sed1-123_2018	Sediment	"River sediment"	2018	10	2	"2018-10-02T10:40; T10:40;T10:40"			Fair	Asia	Japan	"Riv. Yamato (Oji Town), Nara"	34.58583333		135.6833333														"24.0; 24.0; 24.0 "	"19.0; 19.0; 19.0"										"19.5; 19.0; 20.0"	0.3	"Muddy; Sandy; Sandy"	"Blackish brown; Brown; Brown"	"Yellowish brown_Light"	"Earthy odor; Sewage odor; Swampy odor"	None	"27.0; 10.0; 10.0 (Each)/ 21.7 (Mixed)"	"1.8; 0.4; 0.4 (Each)/ 0.8 (Mixed)"									"n=3 pooled: SAA007947, SAA007948, SAA007949"	2021/5/24	2021/5/24
PRA000116	SAA008116	ST024				Wakayama_sed1-123_2018	Sediment	"River sediment"	2018	11	13	"2018-11-13T14:40; T13:45; T13:05"			Cloudy	Asia	Japan	"Kinokawa-ohashi Bridge, Mouth of Riv. Kinokawa (Wakayama City), Wakayama"	34.23		135.1561111														"18.7; 19.3; 18.0"	"20.1; 20.8; 20.4"								"2.0; 2.0; 3.0"		"20.8; 20.2; 20.6"	"3.5; 5.3; 3.9"	"Sandy; Sandy; Sandy (partly muddy)"	"Gray; Gray; Gray brown"	"Greenish blue"	"Seaweed odor"	"None; Pebble; Shell"	"20.7; 18.8; 18.7 (Each)/ 20.5 (Mixed)"	"1.8; 1.5; 2.2 (Each)/ 1.5 (Mixed)"									"n=3 pooled: SAA007950, SAA007951, SAA007952"	2021/5/24	2021/5/24
PRA000116	SAA008117	ST023				Okayama_sed1-123_2018	Sediment	"Marine sediment"	2018	11	13	"2018-11-13T11:00; T11:20; T12:05"			Cloudy	Asia	Japan	"Offshore of Mizushima, Okayama"	34.48055556		133.665														"18.0; 18.0; 18.0"	"19.0; 19.0; 19.0"								"1.8; 1.8; 1.8"		"19.7; 19.7; 19.6"	"11.0; 11.4; 9.0"	Ooze	"Gray green"	"Yellow green_Dark"	"Earthy odor"	"Small pieces of shell"	"46.1; 48.9; 48.5 (Each)/ 44.5 (Mixed)"	"5.8; 6.4; 6.3 (Each)/ 5.2 (Mixed)"									"n=3 pooled: SAA007678, SAA007679, SAA007680"	2021/5/24	2021/5/24
PRA000116	SAA008121	ST023				Hiroshima_sed1-123_2018	Sediment	"Marine sediment"	2018	11	13	"2018-11-13T09:53; T10:24; T10:36"			Fair	Asia	Japan	"Kure Port, Hiroshima"	34.23361111		132.5391667														"16.7; 17.6; 17.2"	"19.8; 19.9; 19.9"								"6.0; 6.0; 7.0"		"20.0; 19.8; 20.1"	"19.8; 18.0; 20.0"	Silt	"Gray green_dark"	"Blue green_Dark"	"None; Hydrogen sulfide odor; Hydrogen sulfide odor"	None	"60.2; 61.3; 66.7 (Each)/ 71.6 (Mixed)"	"12.7; 12.3; 12.8 (Each)/ 11.0 (Mixed)"									"n=3 pooled: SAA008118, SAA008119, SAA008120"	2021/5/24	2021/5/24
PRA000116	SAA008125	ST023				Hiroshima_sed2-123_2018	Sediment	"Marine sediment"	2018	11	13	"2018-11-13T13:01; T13:42; T13:52"			Cloudy	Asia	Japan	"Hiroshima Bay (Hiroshima City), Hiroshima"	34.34833333		132.4225														"17.9; 17.8; 17.5"	"19.9; 20.4; 20.2"								"7.0; 3.0; 5.0"		"19.8; 20.0; 20.1"	"13.0; 13.0; 14.0"	Silt	"Gray brown_dark"	"Blue green_Dark"	None	None	"56.5; 56.8; 58.6 (Each)/ 66.8 (Mixed)"	"11.8; 11.8; 12.1 (Each)/ 10.1 (Mixed)"									"n=3 pooled: SAA008122, SAA008123, SAA008124"	2021/5/24	2021/5/24
PRA000116	SAA008126	ST023				Yamaguchi_sed1-123_2018	Sediment	"Marine sediment"	2018	10	19	"2018-10-19T13:45; T13:55; T14:04"			Fair	Asia	Japan	"Tokuyama Bay, Yamaguchi"	33.99361111		131.7505556														"21.5; 21.5; 21.5"	"21.3; 21.3; 21.3"								"6.5; 6.5; 6.5"		"19.0; 19.0; 19.0"	"23.0; 23.0; 23.0"	Silt	"Gray yellow green"	"Blue green"	"Hydrogen sulfide odor_Faint"	None	"61.0; 57.8; 56.7 (Each)/ 66.2 (Mixed)"	"10.7; 10.3; 10.0 (Each)/ 8.1 (Mixed)"									"n=3 pooled: SAA007681, SAA007682, SAA007683"	2021/5/24	2021/5/24
PRA000116	SAA008130	ST023				Yamaguchi_sed2-123_2018	Sediment	"Marine sediment"	2018	10	12	"2018-10-12T10:53; T11:01; T11:10"			Fair	Asia	Japan	"Offshore of Ube, Yamaguchi"	33.915		131.1975														"20.0; 20.0; 20.0"	"21.8; 21.8; 21.8"								"4.0; 4.0; 4.0"		"19.0; 19.0; 19.0"	"9.8; 9.8; 9.8"	Silt	"Gray green"	"Gray green"	None	None	"38.8; 36.3; 32.0 (Each)/ 43.8 (Mixed)"	"7.6; 7.4; 7.2 (Each)/ 6.3 (Mixed)"									"n=3 pooled: SAA008127, SAA008128, SAA008129"	2021/5/24	2021/5/24
PRA000116	SAA008131	ST023				Yamaguchi_sed3-123_2018	Sediment	"Marine sediment"	2018	11	1	"2018-11-01T11:15; T11:25; T11:36"			Fair	Asia	Japan	"Offshore of Hagi, Yamaguchi"	34.43805556		131.3794444														"20.0; 20.0; 20.0"	"20.9; 20.9; 20.9"								"9.0; 9.0; 9.0"		"20.0; 20.0; 20.0"	"26.4; 26.4; 26.4"	"Fine sand"	"Light gray"	"Blue green"	Odorless	None	"35.7; 34.2; 33.7 (Each)/ 30.7 (Mixed)"	"5.8; 5.8; 5.8 (Each)/ 3.9 (Mixed)"									"n=3 pooled: SAA007684, SAA007685, SAA007686"	2021/5/24	2021/5/24
PRA000116	SAA008135	ST024				Tokushima_sed1-123_2018	Sediment	"River sediment"	2018	10	16	"2018-10-16T09:30; T09:00; T09:55"			Cloudy	Asia	Japan	"Mouth of Riv. Yoshino (Tokushima City), Tokushima"	34.085		134.5913889														"19.8; 18.5; 19.0"	"19.5; 19.4; 20.1"								"2.0; 2.5; 2.0"		"19.7; 22.0; 21.2"	"6.3; 4.6; 6.2"	Sandy	"Gray black"	Green_Dark	Odorless	None	"16.0; 17.0; 20.0 (Each)/ 21.4 (Mixed)"	"1.2; 1.3; 1.3 (Each)/ 1.1 (Mixed)"									"n=3 pooled: SAA008132, SAA008133, SAA008134"	2021/5/24	2021/5/24
PRA000116	SAA008136	ST023				Kagawa_sed1-123_2018	Sediment	"Marine sediment"	2018	10	23	"2018-10-23T09:05; T09:20; T09:36"			Cloudy	Asia	Japan	"Takamatsu Port, Kagawa"	34.34972222		134.0788889														"20.8; 21.0; 20.0"	"22.3; 22.2; 22.2"								"2.0; 1.5; 2.0"		"22.2; 22.2; 22.5"	"2.4; 6.1; 5.5"	"Muddy; Sandy; Muddy"	"Black; Olive black; Black"	"Green; Green; Green"	"Hydrogen sulfide odor; Fish odor; Hydrogen sulfide odor"	"Mostly vegetative pieces; partly pieces of plastics and shell; Mostly vegetative pieces; partly pieces of shell; None"	"57.2; 25.1; 36.7 (Each)/ 46.2 (Mixed)"	"14.8; 1.7; 5.9 (Each)/ 5.3 (Mixed)"									"n=3 pooled: SAA007953, SAA007954, SAA007955"	2021/5/24	2021/5/24
PRA000116	SAA008137	ST023				Ehime_sed1-123_2018	Sediment	"Marine sediment"	2018	10	29	"2018-10-29T10:30; T10:40; T10:50"			Fair	Asia	Japan	"Niihama Port, Ehime"	33.98777778		133.3144444														"22.5; 22.5; 22.5"	"21.0; 21.0; 21.0"								"2.0; 2.0; 2.0"		"19.6; 19.6; 19.6"	"7.3; 7.3; 7.3"	"Fine sand"	"Gray green_dark"	"Yellow green_Dark"	Odorless	None	"31.7; 32.6; 31.0 (Each)/ 36.8 (Mixed)"	"2.5; 2.5; 2.5 (Each)/ 3.3 (Mixed)"									"n=3 pooled: SAA007957, SAA007958, SAA007959"	2021/5/24	2021/5/24
PRA000116	SAA008141	ST024				Kochi_sed1-123_2018	Sediment	"River sediment"	2018	10	11	"2018-10-11T08:45; T09:38; T11:05"			Cloudy	Asia	Japan	"Mouth of Riv. Shimanto (Shimanto City), Kochi"	32.93777778		132.8441667														"19.8; 21.2; 18.0"	"19.7; 21.0; 20.0"										"23.2; 22.5; 19.8"	"6.9; 7.0; 0.5"	"Muddy; Muddy; Sandy"	"Blackish brown; Blackish brown; Gray brown"	Clear	"Earthy odor_Faint; Hydrogen sulfide odor_Faint; Odorless"	"branches; Shell; Branches; Pebbles; Pebbles"	"37.7; 32.3; 21.2 (Each)/ 39.0 (Mixed)"	"9.2; 5.5; 2.8 (Each)/ 5.0 (Mixed)"									"n=3 pooled: SAA008138, SAA008139, SAA008140"	2021/5/24	2021/5/24
PRA000116	SAA008142	ST023				KitakyushuCity_sed1-123_2018	Sediment	"Marine sediment"	2018	10	30	"2018-10-30T10:30; T10:10; T09:45"			Fair	Asia	Japan	"Dokai Bay (Kitakyushu City), Fukuoka"	33.90388889		130.8158333														"19.1; 19.1; 19.1"	"19.9; 19.9; 19.9"								"3.5; 3.5; 3.5"		"18.6; 19.1; 19.5"	"9.9; 10.3; 7.2"	Mud	Black	Clear	Odorless	None	"50.8; 55.7; 62.6 (Each)/ 50.2 (Mixed)"	"9.1; 10.2; 20.6 (Each)/ 8.6 (Mixed)"									"n=3 pooled: SAA007687, SAA007688, SAA007689"	2021/5/24	2021/5/24
PRA000116	SAA008143	ST023				FukuokaCity_sed1-123_2018	Sediment	"Marine sediment"	2018	10	16	"2018-10-16T09:05; T09:18; T09:28"			Fair	Asia	Japan	"Hakata Bay, Fukuoka"	33.60833333		130.3297222														"18.9; 19.3; 20.2"	"21.5; 21.5; 21.5"								"3.2; 3.3; 3.5"		"22.0; 23.0; 22.5"	"7.4; 7.7; 7.8"	Silt	Gray	Green_Dark	Odorless	None	"41.0; 43.0; 42.0 (Each)/ 53.7 (Mixed)"	"9.6; 9.1; 9.5 (Each)/ 8.4 (Mixed)"									"n=3 pooled: SAA007960, SAA007961, SAA007962"	2021/5/24	2021/5/24
PRA000116	SAA008144	ST023				Saga_sed1-123_2018	Sediment	"Marine sediment"	2018	10	31	"2018-10-31T11:02; T11:21; T11:40"			Cloudy	Asia	Japan	"Imari Bay, Saga"	33.34		129.8208333														"14.0; 14.0; 14.0"	"18.5; 18.5; 18.5"								"2.5; 2.8; 2.9"		"20.0; 20.0; 20.0"	"13.9; 14.4; 15.3"	Muddy	"Gray black"	Clear	"Earthy odor"	None	"63.3; 64.0; 61.1 (Each)/ 63.9 (Mixed)"	"11.5; 11.3; 10.7 (Each)/ 9.3 (Mixed)"									"n=3 pooled: SAA007963, SAA007964, SAA007965"	2021/5/24	2021/5/24
PRA000116	SAA008148	ST023				Nagasaki_sed1-123_2018	Sediment	"Marine sediment"	2018	10	22	"2018-10-22T14:05; T14:28; T14:40"			Fair	Asia	Japan	"Omura Bay, Nagasaki"	32.98833333		129.8522222														"24.5; 24.5; 24.5"	"22.8; 22.9; 22.8"								"7.0; 7.0; 7.0"		"22.5; 22.5; 22.5"	"19.5; 19.6; 19.5"	Mud	"Gray yellow; Gray black; Gray yellow"	"Greenish blue_Light; Greenish blue_Light; Greenish blue_Light"	"Odorless; Sulfide odor_weak; Odorless"	"None; None; Shell"	"68.0; 68.0; 68.0 (Each)/ 68.4 (Mixed)"	"12.0; 12.0; 12.0 (Each)/ 12.6 (Mixed)"									"n=3 pooled: SAA008145, SAA008146, SAA008147"	2021/5/24	2021/5/24
PRA000116	SAA008149	ST024				Oita_sed1-123_2018	Sediment	"River sediment"	2018	11	19	"2018-11-19T10:15; T09:47; T10:40"			Cloudy	Asia	Japan	"Mouth of Riv. Oita, Oita"	33.25722222		131.6175														"18.1; 15.6; 16.3"	"17.5; 17.4; 16.7"										"19.7; 20.0; 20.0"	"2.6; 3.5; 3.0"	Sandy	Black	"Grayish green_Dark"	Odorless	"Pieces of shell; shell; Gravels; pieces of wood"	"20.1; 21.2; 19.1 (Each)/ 20.5 (Mixed)"	"1.2; 1.2; 1.0 (Each)/ 1.0 (Mixed)"									"n=3 pooled: SAA007966, SAA007967, SAA007968"	2021/5/24	2021/5/24
PRA000116	SAA008153	ST024				Miyazaki_sed1-123_2018	Sediment	"River sediment"	2018	10	24	"2018-10-24T11:40; T11:48; T12:00"			Fair	Asia	Japan	"Mouth of Riv. Oyodo (Miyazaki City), Miyazaki"	31.89611111		131.4402778														"24.0; 24.0; 24.0"	"20.7; 20.0; 21.0"										"20.8; 20.0; 21.0"	"0.3; 0.6; 0.6"	"Sand; Stones; Pebbles; Sand; Pebbles; Sand"	"Gray black_Light"	Clear	Odorless	"None; None; Bubble"	"17.9; 21.0; 19.8 (Each)/ 19.2 (Mixed)"	"1.2; 1.1; 1.3 (Each)/ 1.0 (Mixed)"									"n=3 pooled: SAA008150, SAA008151, SAA008152"	2021/5/24	2021/5/24
PRA000116	SAA008157	ST024				Kagoshima_sed1-123_2018	Sediment	"River sediment"	2018	9	25	"2018-09-25T11:20; T10:40; T10:09"			Fair	Asia	Japan	"Riv. Amori (Kirishima City), Kagoshima"	31.7225		130.7416667														"23.7; 25.8; 26.8"	"23.0; 23.3; 22.8"										"23.4; 24.3; 22.6"	"0.3; 0.5; 0.6"	Gravel	"Blackish brown"	Clear	"Sewage odor_Faint; Earthy odor_Faint; Odorless"	Pebble	"21.0; 15.0; 17.0 (Each)/ 22.5 (Mixed)"	"1.3; 0.7; 1.0 (Each)/ 0.9 (Mixed)"									"n=3 pooled: SAA008154, SAA008155, SAA008156"	2021/5/24	2021/5/24
PRA000116	SAA008161	ST024				Kagoshima_sed2-123_2018	Sediment	"River sediment"	2018	9	13	"2018-09-13T12:00; T11:11; T10:21"			Fair	Asia	Japan	"Gotanda-bashi Bridge, Riv. Gotanda (Ichikikushikino City), Kagoshima"	31.72583333		130.2769444														"29.3; 29.6; 27.8"	"29.2; 27.0; 26.0"										"27.7; 26.9; 25.4"	"0.2; 0.4; 0.2"	Gravel	"Blackish brown"	Clear	"Earthy odor_Faint"	Pebble	"17.0; 16.0; 16.0 (Each)/ 21.9 (Mixed)"	"1.6; 1.3; 2.4 (Each)/ 1.6 (Mixed)"									"n=3 pooled: SAA008158, SAA008159, SAA008160"	2021/5/24	2021/5/24
PRA000116	SAA008165	ST023				Okinawa_sed1-123_2018	Sediment	"Marine sediment"	2018	11	6	"2018-11-06T11:30; T10:40; T12:00"			Fair	Asia	Japan	"Naha Port, Okinawa"	26.21222222		127.665														"30.0; 29.0; 28.0"	"25.6; 26.2; 24.9"								"1.5; 1.5; 4.4"		"26.1; 27.1; 25.5"	"7.3; 7.8; 7.7"	Sludge	"Gray black"	Clear	"Hydrogen sulfide odor; Sewage odor"	"Pieces of wood; Shell; Vinyl pieces; Pieces of wood; Coral pieces; Vinyl pieces; Pieces of wood; Coral pieces"	"44.0; 47.6; 33.5 (Each)/ 48.2 (Mixed)"	"10.5; 12.4; 8.9 (Each)/ 8.7 (Mixed)"									"n=3 pooled: SAA008162, SAA008163, SAA008164"	2021/5/24	2021/5/24
PRA000116	SAA008166	ST029				Hokkaido_air3-1_2018	Air	"Outside air"	2018	10	12	2018-10-05T10:30/2018-10-12T09:40		"7days (Oct. 05_12)"	Fair/Fair	Asia	Japan	"Hokkaido Oshima Subprefecture, Hakodate city, Hokkaido"	41.81944444		140.7527778														22.7/19.3																								52/63	SE/WNW	8.6/7.8	"1007.7 m^3"	"Air Sampler: Middle Volume; Weather during 7-day sampling: Fair, -, -, -, Fair, Cloudy, Cloudy, Fair; Wind direction: SE, -, -, -, NW, NNW, NW, WNW; Wind speed: 8.6, -, -, -, 5.7, 2.4, 3.2, 7.8"	" 2021/6/4"	" 2021/6/4"
PRA000116	SAA008173	ST029				SapporoCity_air1-123_2018	Air	"Outside air"	2018	8						Asia	Japan	"Sapporo Art Park, Sapporo city, Hokkaido"	42.93861111		141.3402778																																										"Air Sampler: High Volume; n=3 pooled: SAA008170, SAA008171, SAA008172"	" 2021/6/4"	" 2021/6/4"
PRA000116	SAA008180	ST029				Iwate_air1-123_2018	Air	"Outside air"	2018	9						Asia	Japan	"Sugo Air Pollution Monitoring Station, Takizawa city, Iwate"	39.78194444		141.1405556																																										"Air Sampler: High Volume; n=3 pooled: SAA008177, SAA008178, SAA008179"	" 2021/6/4"	" 2021/6/4"
PRA000116	SAA008184	ST029				Miyagi_air1-1_2018	Air	"Outside air"	2018	9	14	2018-09-07T10:26/2018-09-14T10:26		"7days (Sep. 07_14)"	"Light rain/ Fair"	Asia	Japan	"Miyagi Prefectural Institute of Public Health and Environment, Sendai City, Miyagi"	38.2775		140.9052778														23.5/24.1																								82/72	SSW/SW	1.6/2.4	"1008 m^3"	"Air Sampler: Middle Volume; Weather during 7-day sampling: Light rain, -, -, Rain, Cloudy, Fair, Fair, Fair; Wind direction: SSW, -, -, NW, N, ESE, S, SW; Wind speed: 1.6, -, -, 1.6,  2.4, 4.2, 1.5, 2.4 "	" 2021/6/4"	" 2021/6/4"
PRA000116	SAA008188	ST029				Yamagata_air1-1_2018	Air	"Outside air"	2018	9	25	2018-09-18T11:16/2018-09-25T11:16		"7days (Sep. 18_25)"	Fair/Rain	Asia	Japan	"Environmental Science Research Center of Yamagata Prefecture, Murayama city, Yamagata"	38.47361111		140.3988889														22.0/15.1																								56/88	W/NE	0.9/1.4	"997.5 m^3"	"Air Sampler: Middle Volume; Weather during 7-day sampling: Fair, Fair, Cloudy, Cloudy, Cloudy, Fair, Cloudy, Rain; Wind direction: W, NE, SW, NE, S, SSW, SE, NE; Wind speed: 0.9, 1.0, 1.0, 1.1, 0.6, 0.5, 0.6, 1.4"	" 2021/6/4"	" 2021/6/4"
PRA000116	SAA008191	ST029				Ibaraki_air1-1_2018	Air	"Outside air"	2018	10	19	2018-10-12T09:30/2018-10-19T09:30		"7days (Oct. 12_19)"	Cloudy/Fair	Asia	Japan	"Ibaraki Kasumigaura Environmental Science Center, Tsuchiura city, Ibaraki"	36.07555556		140.2666667														19.0/19.0																								97/72	NE/NE	1.2/3.5	"1008 m^3"	"Air Sampler: Middle Volume; Weather during 7-day sampling: Coudy, Cloudy, Cloudy, Fair, Cloudy, Fair, Fair, Fair; Wind direction: NE, NNE, N, NE, N, NE, NE, NE; Wind speed: 1.2, 2.6, 2.0, 1.3, 1.0, 2.2, 2.5, 3.5"	" 2021/6/4"	" 2021/6/4"
PRA000116	SAA008195	ST029				Chiba_air2-1_2018	Air	"Outside air"	2018	10	5	2018-09-28T10:00/2018-10-05T10:00		"7days (Sep. 28_Oct. 05)"	Cloudy/Rain	Asia	Japan	"Ichiharamatsuzaki Air Pollution Monitoring Station, Ichihara city, Chiba"	35.44861111		140.1363889														22.3/18.8																								55/97	NNW/N	3.7/3.5	"1008 m^3"	"Air Sampler: Middle Volume; Weather during 7-day sampling: Cloudy, Rain, Rain, Fair, Fair, Cloudy, Cloudy, Rain; Wind direction: NNW, SSW, WNW, SW, N, NNW, NNE, N; Wind speed: 3.7, 0.7, 2.9, 2.7, 1.0, 1.4, 4.1, 3.5"	" 2021/6/4"	" 2021/6/4"
PRA000116	SAA008199	ST029				Tokyo_air1-4_2018	Air	"Outside air"	2018	9	26	2018-09-19T09:56/2018-09-26T10:07		"7days (Sep. 19_26)"	Fair/Cloudy	Asia	Japan	"Tokyo Metropolitan Research Institute for Environmental Protection, Koto Ward, Tokyo"	35.66833333		139.8241667														24.3/17.5																								59/98	NNE/NW	2.4/2.2	"1011 m^3"	"Air Sampler: Middle Volume; Weather during 7-day sampling: Fair, Cloudy, Rain, Rain, Cloudy, Cloudy, Cloudy, Cloudy; Wind direction: NNE, NW, NNW, NW, SE, NNW, ENE, NW; Wind speed: 2.4, 1.2, 3.2, 2.5, 1.5, 2.6, 2.1, 2.2"	" 2021/6/4"	" 2021/6/4"
PRA000116	SAA008203	ST029				Tokyo_air2-4_2018	Air	"Outside air"	2018	10	14	2018-10-07T10:02/2018-10-14T10:00		"7days (Oct. 07_14)"	Fair/Cloudy	Asia	Japan	"Ogasawara Chichijima, Ogasawara Village, Tokyo"	27.09361111		142.2161111														29.4/28.9																								78/75	SE/NW	4.1/2.0	"1015 m^3"	"Air Sampler: Middle Volume; Weather during 7-day sampling: Fair, Fair, Cloudy, Fair, Fair, Fair, Fair, Cloudy; Wind direction:SE, S, S, SE, ESE, SSE, S, NW ; Wind speed: 4.1, 3.5, 1.5, 4.3, 1.8, 5.2, 3.7, 2.0"	" 2021/6/4"	" 2021/6/4"
PRA000116	SAA008210	ST029				Kanagawa_air1-456_2018	Air	"Outside air"	2018	9						Asia	Japan	"Kanagawa Environmental Research Center, Hiratsuka City, Kanagawa"	35.3475		139.3513889																																										"Air Sampler: High Volume; n=3 pooled: SAA008207, SAA008208, SAA008209"	" 2021/6/4"	" 2021/6/4"
PRA000116	SAA008214	ST029				YokohamaCity_air1-4_2018	Air	"Outside air"	2018	10	9	2018-10-02T09:29/2018-10-09T09:40		"7days (Oct. 02_09)"	Fair/Fair	Asia	Japan	"Yokohama Environmental Research Institute, Yokohama city, Kanagawa"	35.48111111		139.6580556														25.2/24.8																								44/70	N/N	2.6/2.8	"1008 m^3"	"Air Sampler: Middle Volume; Weather during 7-day sampling: Fair, Cloudy, Cloudy, Rain, Cloudy, Fair, Cloudy, Fair; Wind direction: N, N, NNE, N, N, SW, NNE, N; Wind speed: 2.6, 3.3, 2.2, 4.4, 1.4, 6.0, 2.0, 2.8"	" 2021/6/4"	" 2021/6/4"
PRA000116	SAA008221	ST029				Niigata_air1-123_2018	Air	"Outside air"	2018	9						Asia	Japan	"Oyama Air Pollution Monitoring Station, Niigata city, Niigata"	37.93611111		139.0794444																																										"Air Sampler: High Volume; n=3 pooled: SAA008218, SAA008219, SAA008220"	" 2021/6/4"	" 2021/6/4"
PRA000116	SAA008228	ST029				Toyama_air1-123_2018	Air	"Outside air"	2018	9						Asia	Japan	"Tonami Air Pollution Monitoring Station, Tonami city, Toyama"	36.62888889		136.9886111																																										"Air Sampler: High Volume; n=3 pooled: SAA008225, SAA008226, SAA008227"	" 2021/6/4"	" 2021/6/4"
PRA000116	SAA008235	ST029				Ishikawa_air1-456_2018	Air	"Outside air"	2018	9						Asia	Japan	"Ishikawa Prefectural Institute of Public Health and Environmental Science, Kanazawa City, Ishikawa"	36.52722222		136.7055556																																										"Air Sampler: High Volume; n=3 pooled: SAA008232, SAA008233, SAA008234"	" 2021/6/4"	" 2021/6/4"
PRA000116	SAA008242	ST029				Yamanashi_air1-123_2018	Air	"Outside air"	2018	9						Asia	Japan	"Yamanashi Institute of Public Health and Environment, Kofu city, Yamanashi"	35.67194444		138.5497222																																										"Air Sampler: High Volume; n=3 pooled: SAA008239, SAA008240, SAA008241"	" 2021/6/4"	" 2021/6/4"
PRA000116	SAA008246	ST029				Nagano_air1-4_2018	Air	"Outside air"	2018	9	25	2018-09-18T10:00/2018-09-25T10:00		"7days (Sep. 18_25)"	Cloudy/Fair	Asia	Japan	"Nagano Environmental Conservation Research Institute, Nagano City, Nagano"	36.63555556		138.1786111														19.9/17.4																								77/100	ENE/E	1.3/2.6	"1008 m^3"	"Air Sampler: Middle Volume; Weather during 7-day sampling: Cloudy, Fair, Fair, Rain, Rain, Cloudy, Cloudy, Fair; Wind direction: ENE, S, SW, W, ENE, SSE, S, E; Wind speed: 1.3, 1.0, 2.6, 4.9, 0.9, 1.9, 2.5, 2.6"	" 2021/6/4"	" 2021/6/4"
PRA000116	SAA008253	ST029				Gifu_air1-123_2018	Air	"Outside air"	2018	9						Asia	Japan	"Gifu Prefectural Research Institute for Health and Environmental Sciences, Kakamigahara city, Gifu"	35.4075		136.8447222																																										"Air Sampler: High Volume; n=3 pooled: SAA008250, SAA008251, SAA008252"	" 2021/6/4"	" 2021/6/4"
PRA000116	SAA008257	ST029				NagoyaCity_air1-7_2018	Air	"Outside air"	2018	9	12	2018-09-05T10:56/2018-09-12T10:56		"7days (Sep. 05_12)"	"Fair/Rain occasionally cloudy"	Asia	Japan	"Chikusa-ku Heiwakoen Park, Nagoya City, Aichi"	35.17055556		136.9788889														27.5/21.3																								69/82	SSE/SSE	3.0/1.4	"1008 m^3"	"Air Sampler: Middle Volume; Weather during 7-day sampling: Fair, Fair, Cloudy, Cloudy, Cloudy, Rain, Cloudy, Rain occasionally cloudy; Wind direction: SSE, SSE, SSE, SSE, SSE, SE, S, SSE; Wind speed: 3.0, 2.3, 4.3, 3.1, 4.5, 3.0, 2.3, 1.4"	" 2021/6/4"	" 2021/6/4"
PRA000116	SAA008264	ST029				Mie_air1-789_2018	Air	"Outside air"	2018	9						Asia	Japan	"Mie Prefecture Health and Environment Research Institute, Yokkaichi city, Mie"	34.99166667		136.4855556																																										"Air Sampler: High Volume; n=3 pooled: SAA008261, SAA008262, SAA008263"	" 2021/6/4"	" 2021/6/4"
PRA000116	SAA008271	ST029				Kyoto_air1-123_2018	Air	"Outside air"	2018	10						Asia	Japan	"Kyoto Prefectural Joyo High School, Joyo city, Kyoto"	34.85305556		135.79																																										"Air Sampler: High Volume; n=3 pooled: SAA008268, SAA008269, SAA008270"	" 2021/6/4"	" 2021/6/4"
PRA000116	SAA008278	ST029				Osaka_air1-456_2018	Air	"Outside air"	2018	9						Asia	Japan	"Osaka Joint government building No.2 Annex, Osaka city, Osaka"	34.6825		135.5191667																																										"Air Sampler: High Volume; n=3 pooled: SAA008275, SAA008276, SAA008277"	" 2021/6/4"	" 2021/6/4"
PRA000116	SAA008285	ST029				Hyogo_air1-123_2018	Air	"Outside air"	2018	9						Asia	Japan	"Hyogo Prefectural Institute of Environmental Sciences, Kobe city, Hyogo"	34.64916667		135.1316667																																										"Air Sampler: High Volume; n=3 pooled: SAA008282, SAA008283, SAA008284"	" 2021/6/4"	" 2021/6/4"
PRA000116	SAA008292	ST029				KobeCity_air1-123_2018	Air	"Outside air"	2018	10						Asia	Japan	"Kobe City Hall, Kobe city, Hyogo"	34.68972222		135.195																																										"Air Sampler: High Volume; n=3 pooled: SAA008289, SAA008290, SAA008291"	" 2021/6/4"	" 2021/6/4"
PRA000116	SAA008299	ST029				Nara_air1-123_2018	Air	"Outside air"	2018	9						Asia	Japan	"Tenri Air Pollution Monitoring Station, Tenri city, Nara"	34.59333333		135.8291667																																										"Air Sampler: High Volume; n=3 pooled: SAA008296, SAA008297, SAA008298"	" 2021/6/4"	" 2021/6/4"
PRA000116	SAA008306	ST029				Shimane_air1-123_2018	Air	"Outside air"	2018	9						Asia	Japan	"Oki Acid Rain Monitoring Station, Okinoshima town, Shimane"	36.28833333		133.1825																																										"Air Sampler: High Volume; n=3 pooled: SAA008303, SAA008304, SAA008305"	" 2021/6/4"	" 2021/6/4"
PRA000116	SAA008313	ST029				HiroshimaCity_air1-123_2018	Air	"Outside air"	2018	9						Asia	Japan	"Kokutaiji Junior high school, Hiroshima city, Hiroshima"	34.38472222		132.4580556																																										"Air Sampler: High Volume; n=3 pooled: SAA008310, SAA008311, SAA008312"	" 2021/6/4"	" 2021/6/4"
PRA000116	SAA008317	ST029				Yamaguchi_air1-5_2018	Air	"Outside air"	2018	8	28	2018-08-21T10:00/2018-08-28T10:00		"7days (Aug. 21_28)"	Fair/Fair	Asia	Japan	"Yamaguchi Prefectural Institute of Public Health and Environment, Yamaguchi City, Yamaguchi"	34.15277778		131.4333333														32.0/32.8																								63/55	SSE/SW	3.9/3.5	"1008 m^3"	"Air Sampler: Middle Volume; Weather during 7-day sampling: Fair, Cloudy, Cloudy, Cloudy, Cloudy, Fair, Fair, Fair; Wind direction: SSE, SE, E, S, SSE, SSE, SW, SW; Wind speed: 3.9, 8.0, 5.3, 5.6, 2.8, 2.3, 2.6, 3.5"	" 2021/6/4"	" 2021/6/4"
PRA000116	SAA008321	ST029				Yamaguchi_air3-1_2018	Air	"Outside air"	2018	8	28	2018-08-21T10:01/2018-08-28T10:01		"7days (Aug. 21_28)"	Cloudy/Fair	Asia	Japan	"Hagi Health and Welfare Center, Hagi city, Yamaguchi"	34.40848		131.39581														30.8/31.0																								67/64	SE/NNW	3.3/2.4	"1008 m^3"	"Air Sampler: Middle Volume; Weather during 7-day sampling: Cloudy, Cloudy, Fair, Fair Fair, Fair, Fair, Fair; Wind direction: SE, ESE, NNW, S, SE, SE, S, NNW; Wind speed: 3.3, 2.9, 1.9, 5.8, 4.1, 4.2, 4.2, 2.4"	" 2021/6/4"	" 2021/6/4"
PRA000116	SAA008328	ST029				Tokushima_air1-456_2018	Air	"Outside air"	2018	9						Asia	Japan	"Tokushima Prefectural Public health, Pharmaceutical and Environmental Sciences Center, Tokushima city, Tokushima"	34.07		134.5608333																																										"Air Sampler: High Volume; n=3 pooled: SAA008325, SAA008326, SAA008327"	" 2021/6/4"	" 2021/6/4"
PRA000116	SAA008332	ST029				Kagawa_air1-4_2018	Air	"Outside air"	2018	10	17	2018-10-10T10:38/2018-10-17T10:38		"7days (Oct. 10_17)"	"Cloudy/Lightly cloudy"	Asia	Japan	"Kagawa Pref. Synthesis Swimming Pool, Takamatsu City, Kagawa"	34.30861111		133.9802778														20.7/20.0																								91/64	SSE/NNW	1.8/2.4	"1008 m^3"	"Air Sampler: Middle Volume; Weather during 7-day sampling: Cloudy, Rain, Lightly cloudy, Fair, Fair, Fair, Fair, Ligtly cloudy; Wind direction: SSE, WSW, NW, N, NW, NE, ENE, NNW; Wind speed: 1.8, 2.3, 2.7, 1.9, 2.0, 1.3, 4.4, 2.4"	" 2021/6/4"	" 2021/6/4"
PRA000116	SAA008339	ST029				Ehime_air1-123_2018	Air	"Outside air"	2018	9						Asia	Japan	"Nanyo General Subprefectural Bureau, Uwajima city, Ehime"	33.22722222		132.57																																										"Air Sampler: High Volume; n=3 pooled: SAA008336, SAA008337, SAA008338"	" 2021/6/4"	" 2021/6/4"
PRA000116	SAA008346	ST029				Fukuoka_air1-456_2018	Air	"Outside air"	2018	9						Asia	Japan	"Omuta municipal office, Omuta city, Fukuoka"	33.03027778		130.4458333																																										"Air Sampler: High Volume; n=3 pooled: SAA008343, SAA008344, SAA008345"	" 2021/6/4"	" 2021/6/4"
PRA000116	SAA008350	ST029				Saga_air1-7_2018	Air	"Outside air"	2018	9	18	2018-09-11T10:00/2018-09-18T10:00		"7days (Sep. 11_18)"	Fair/Cloudy	Asia	Japan	"Saga Prefectural Environmental Research Center, Saga city, Saga"	33.27333333		130.2727778														24.9/26.5																								66/70	ENE/SSW	7.1/1.0	"1007 m^3"	"Air Sampler: Middle Volume; Weather during 7-day sampling: Fair, Cloudy, Fair, Rain/Fair, Cloudy, Fair, Cloudy, Cloudy; Wind direction: ENE, ENE, ENE, SSW, W, SW, WNW, SSW; Wind speed: 7.1, 4.5, 2.8, 1.0, 1.3, 4.1, 0.7, 1.0"	" 2021/6/4"	" 2021/6/4"
PRA000116	SAA008357	ST029				Kumamoto_air1-123_2018	Air	"Outside air"	2018	10						Asia	Japan	"Kumamoto Prefectural Institute of Public-Health and Environmental Science, Uto city, Kumamoto"	32.66583333		130.6530556																																										"Air Sampler: High Volume; n=3 pooled: SAA008354, SAA008355, SAA008356"	" 2021/6/4"	" 2021/6/4"
PRA000116	SAA008361	ST029				Miyazaki_air1-1_2018	Air	"Outside air"	2018	9	18	2018-09-11T10:01/2018-09-18T10:01		"7days (Sep. 11_18)"	Cloudy/Fair	Asia	Japan	"Miyazaki Prefectural Institute for Public Health and Environment, Miyazaki city, Miyazaki"	31.83305556		131.4152778														25.0/27.6																								72/78	ENE/E	2.8/2.3	"1008 m^3"	"Air Sampler: Middle Volume; Weather during 7-day sampling: Cloudy, Rain, Fair, Cloudy, Fair, Fair, Fair, Fair; Wind direction: ENE, S, W, NNW, W, W, WNW, E; Wind speed: 2.8, 1.5, 1.5, 0.7, 1.7, 1.0, 1.2, 2.3"	" 2021/6/4"	" 2021/6/4"
PRA000116	SAA008368	ST029				Kagoshima_air1-123_2018	Air	"Outside air"	2018	9						Asia	Japan	"Kagoshima Prefectural Institute for Environmental Research and Public Health, Kagoshima city, Kagoshima"	31.58444444		130.5644444																																										"Air Sampler: High Volume; n=3 pooled: SAA008365, SAA008366, SAA008367"	" 2021/6/4"	" 2021/6/4"
PRA000116	SAA008375	ST029				Okinawa_air1-123_2018	Air	"Outside air"	2018	8						Asia	Japan	"Cape Hedo-misaki, Kunigami villedge, Okinawa"	26.87		128.25																																										"Air Sampler: High Volume; n=3 pooled: SAA008372, SAA008373, SAA008374"	" 2021/6/4"	" 2021/6/4"
PRA000120	SAA008434	ST015				Hokkaido_w3_2019	Water	"River water"	2019	11	21	2019-11-21T14:00			Cloudy	Asia	Japan	"Ishikarikakokyo Bridge, Mouth of Riv. Ishikari (Ishikari City), Hokkaido"	43.22861111		141.3519444														"2.1 "	"2.9 "	"8.2 "	"14 "	"26 "			"3 "			"Grayish brown"																			2022/6/2	2022/6/2
PRA000120	SAA008439	ST015				Iwate_w1-1_2019	Water	"River water"	2019	12	4	2019-12-04T10:25			Fair	Asia	Japan	"Toyosawa-bashi Bridge, Riv. Toyosawa (Hanamaki City), Iwate"	39.38166667		141.1191667														"6.0 "	"6.0 "	"7.4 "	"12 "	"0 "			"6 "			"Light green"																			2022/6/2	2022/6/2
PRA000120	SAA008736	ST014				Miyagi_w3_2019	Water	"Sea water"	2019	10	15	2019-10-15T10:18			Fair	Asia	Japan	"Sendai Bay (Matsushima Bay), Miyagi"	"38.3533333 "		"141.0975000 "														"16.7 "	"18.0 "	"7.5 "	"8 "	"3,100 "			"3 "		"0.6 "	Clear																			2022/6/2	2022/6/2
PRA000120	SAA008737	ST015				Akita_w3_2019	Water	"Lake water"	2019	10	21	2019-10-21T09:54			Fair	Asia	Japan	"Lake Hachiro, Akita"	"39.9227778 "		"139.9988889 "														"20.0 "	"16.4 "	"8.8 "	"13 "	"29 "			"22 "		"0.5 "	"Light Greenish brown"																			2022/6/2	2022/6/2
PRA000120	SAA008444	ST015				Yamagata_w1-1_2019	Water	"River water"	2019	12	11	2019-12-11T09:10			Fair	Asia	Japan	"Mouth of Riv. Mogami, Yamagata"	38.88722222		139.8433333														"8.7 "	"5.0 "	"7.0 "	"12 "	"11 "			"4 "			"Light yellow green"																			2022/6/2	2022/6/2
PRA000120	SAA008738	ST014				Fukushima_w1_2019	Water	"Sea water"	2019	11	12	2019-11-12T11:20			Fair	Asia	Japan	"Onahama Port, Fukushima"	"36.92472222 "		"140.87527780 "														"20.2 "	"18.0 "	"8.0 "	"7.6 "	"4,700 "			"5 "		"4.0 "	Clear																			2022/6/2	2022/6/2
PRA000120	SAA008447	ST015				Ibaraki_w2_2019	Water	"River water"	2019	12	10	2019-12-10T10:00			Cloudy	Asia	Japan	"Kamome-ohasi Bridge, Mouth of Riv. Tone (Kamisu City), Ibaraki"	35.77638889		140.7569444														"14.3 "	"12.4 "	"5.3 "	"8.6 "	"20 "			"2 "			Clear																			2022/6/2	2022/6/2
PRA000120	SAA008449	ST015				Tochigi_w1-2_2019	Water	"River water"	2019	10	30	2019-10-30T10:50			Cloudy	Asia	Japan	"Tagawa area-Toshuko Weir (Utsunomiya City), Tochigi"	"36.52805556 "		"139.88555560 "														"17.0 "	"16.0 "	"7.4 "	"9.9 "	"17 "			"4 "			Clear																			2022/6/2	2022/6/2
PRA000120	SAA008739	ST015				Gunma_w8_2019	Water	"River water"	2019	10	24	2019-10-24T11:50			Cloudy	Asia	Japan	"Upstream of Tone-Ozeki, Riv. Tone (Chiyoda machi), Gunma"	"36.20611111 "		"139.43416670 "														"17.5 "		"7.4 "	"8.9 "				"71 "			"Light Brown"																			2022/6/2	2022/6/2
PRA000120	SAA008451	ST015				Saitama_w2_2019	Water	"River water"	2019	11	27	2019-11-27T10:40			Cloudy	Asia	Japan	"Akigase-Shusuizeki Weir, Riv. Ara (Shiki City), Saitama"	35.84055556		139.6044444														"10.1 "	"13.3 "	"7.6 "	"10 "	"22 "			"8 "			"Light grayish green"																			2022/6/2	2022/6/2
PRA000120	SAA008740	ST015				ChibaCity_w1_2019	Water	"River water"	2019	11	7	2019-11-07T10:40			Fair	Asia	Japan	"Mouth of Riv. Hanami (Chiba City), Chiba"	35.63472222		140.04694440														"16.0 "	"19.2 "	"7.5 "	"6.8 "	"2,700 "			<1			Clear																			2022/6/2	2022/6/2
PRA000120	SAA008456	ST015				Tokyo_w1_2019	Water	"River water"	2019	12	18	2019-12-18T10:25			Fair	Asia	Japan	"Mouth of Riv. Arakawa (Koto Ward), Tokyo"	35.64583333		139.8463889														"12.8 "	"14.6 "	"7.5 "	"8.2 "	"4,480 "			"3 "		"1.9 "	"Yellow green"																			2022/6/2	2022/6/2
PRA000120	SAA008457	ST015				Tokyo_w2_2019	Water	"River water"	2019	12	18	2019-12-18T13:00			Cloudy	Asia	Japan	"Mouth of Riv. Sumida (Minato Ward), Tokyo"	35.66		139.7705556														"16.3 "	"15.9 "	"8.1 "	"6.1 "	"4,450 "			"1 "		"4 "	"Dark green"																			2022/6/2	2022/6/2
PRA000120	SAA008459	ST014				YokohamaCity_w3_2019	Water	"Sea water"	2019	11	27	2019-11-27T10:00			Rain	Asia	Japan	"Yokohama Port, Kanagawa"	35.45555556		139.6636111														"9.0 "	"16.5 "	"8.0 "	"6.8 "				"3 "		"5.5 "	Clear																			2022/6/2	2022/6/2
PRA000120	SAA008741	ST014				KawasakiCity_w2-2_2019	Water	"Sea water"	2019	11	27	2019-11-27T11:15			"Light rain"	Asia	Japan	"Keihin Canal, Kawasaki Port, Kanagawa (front of Ogimachi)"	35.49527778		139.7277778														"9.4 "	"17.2 "	"7.9 "	"7.3 "	"4,300 "			"6 "		"4.2 "	"Grayish green"																			2022/6/2	2022/6/2
PRA000120	SAA008463	ST015				Niigata_w2_2019	Water	"River water"	2019	12	4	2019-12-04T09:40			Rain	Asia	Japan	"Downstream of Riv. Shinano (Niigata City), Niigata"	37.88305556		139.0155556														"7.5 "	"8.0 "	"6.9 "	"11 "	"11 "			"30 "			"yellowish brown"																			2022/6/2	2022/6/2
PRA000120	SAA008742	ST015				Toyama_w2_2019	Water	"River water"	2019	12	10	2019-12-10T11:28			Fair	Asia	Japan	"Hagiura-bashi Bridge, Mouth of Riv. Jintsu (Toyama City), Toyama"	"36.745 "		"137.21805560 "														"15.5 "	"8.3 "	"7.5 "	"11 "	"42 "			"1 "			Clear																			2022/6/2	2022/6/2
PRA000120	SAA008743	ST015				Ishikawa_w1-2_2019	Water	"River water"	2019	10	23	2019-10-23T09:23			Fair	Asia	Japan	"Mouth of Riv. Sai (Kanazawa City), Ishikawa"	36.60027778		136.5888889														"21.9 "	"17.5 "	"7.3 "	"9.0 "	"110 "			"6 "			Green																			2022/6/2	2022/6/2
PRA000120	SAA008618	ST015				Fukui_w1_2019	Water	"River water"	2019	10	23	2019-10-23T10:50			Fair	Asia	Japan	"Mishima-bashi Bridge, Riv. Shono (Tsuruga City), Fukui"	35.6475		136.0627778														25.4	"22.5 "	"7.4 "	"9.4 "	8			"< 1.0"			Clear																			2022/6/2	2022/6/2
PRA000120	SAA008467	ST015				Nagano_w2_2019	Water	"Lake water"	2019	12	3	2019-12-03T09:30			Fair	Asia	Japan	"Center of Lake Suwa, Nagano"	36.05		138.0861111														"5.4 "	"8.0 "	"7.5 "	"9.6 "	"13 "			"3 "		"1.7 "	"Light yellow green"																			2022/6/2	2022/6/2
PRA000120	SAA008469	ST015				Shizuoka_w7_2019	Water	"River water"	2019	11	27	2019-11-27T10:30			Cloudy	Asia	Japan	"Kaketsuka-bashi Bridge, Riv. Tenryu (Iwata City), Shizuoka"	34.67888889		137.7958333														"17.5 "	"12.5 "	"7.6 "	"11 "	"13 "			"4 "			"Light white"																			2022/6/2	2022/6/2
PRA000120	SAA008744	ST014				Aichi_w2-2_2019	Water	"Sea water"	2019	12	11	2019-12-11T12:10			Fair	Asia	Japan	"Nagoya Port, West of Shiomi Wharf, Aichi"	35.07111111		136.8691667														"14.2 "	"16.6 "	"8.1 "	"8.4 "	"4,500 "			"2 "		"2.5 "	Clear																			2022/6/2	2022/6/2
PRA000120	SAA008474	ST014				Mie_w1_2019	Water	"Sea water"	2019	11	28	2019-11-28T10:10			Cloudy	Asia	Japan	"Yokkaichi Port, Mie"	34.94944444		136.6530556														"12.0 "	"17.0 "	"8.1 "	"7.2 "	"4,500 "			"2 "		"3.1 "	"Greenish brown"																			2022/6/2	2022/6/2
PRA000120	SAA008479	ST015				Shiga_w2-2_2019	Water	"Lake water"	2019	11	19	2019-11-19T09:50			Fair	Asia	Japan	"Lake Biwa (center, offshore of Karasaki), Shiga"	35.04611111		135.8955556														"18.7 "	"15.2 "	"8.0 "	"9.8 "	"13 "			"3 "		"3.0 "	"Yellow green"																			2022/6/2	2022/6/2
PRA000120	SAA008480	ST014				Kyoto_w1_2019	Water	"Sea water"	2020	1	8	2020-01-08T10:35			Cloudy	Asia	Japan	"Miyazu Port, Kyoto"	35.58305556		135.2138889														"17.0 "	"13.9 "	"8.5 "	"5.2 "				"2 "		"6.0 "	Clear																			2022/6/2	2022/6/2
PRA000120	SAA008482	ST015				KyotoCity_w1-1_2019	Water	"River water"	2019	11	28	2019-11-28T10:00			Cloudy	Asia	Japan	"Miyamae-bashi Bridge, Riv. Katsura (Kyoto City), Kyoto"	34.905		135.7125														"10.0 "	"15.2 "	"7.3 "	"9.0 "	"17 "			"4 "			Clear																			2022/6/2	2022/6/2
PRA000120	SAA008483	ST015				Osaka_w1_2019	Water	"River water"	2019	12	5	2019-12-05T09:38			Fair	Asia	Japan	"Mouth of Riv. Yamato (Sakai City), Osaka"	34.60833333		135.4325														"11.6 "	"12.5 "	"7.8 "	"8.1 "				"10 "		"1.5 "	"Light yellow"																			2022/6/2	2022/6/2
PRA000120	SAA008485	ST014				OsakaCity_w2_2019	Water	"Sea water"	2019	12	3	2019-12-03T08:11			Fair	Asia	Japan	"Osaka Port, Osaka"	34.65861111		135.4313889														"10.2 "	"13.8 "	"7.6 "	"8.1 "	"1,690 "			"2 "		"3.5 "	"Light grayish yellow"																			2022/6/2	2022/6/2
PRA000120	SAA008486	ST014				Hyogo_w3_2019	Water	"Sea water"	2019	11	13	2019-11-13T10:47			Fair	Asia	Japan	"Offshore of Himeji, Hyogo"	34.76194444		134.6697222														"17.4 "	"19.8 "	"8.3 "	"6.9 "	"2,300 "			"5 "		"8.0 "	"Dark green"																			2022/6/2	2022/6/2
PRA000120	SAA008487	ST014				Kobe_w1_2019	Water	"Sea water"	2019	12	10	2019-12-10T09:53			Fair	Asia	Japan	"Center of Kobe Port, Hyogo"	34.66444444		135.1944444														"15.2 "	"14.3 "	"7.6 "	"8.0 "				"1 "		"6.6 "	"Greenish brown"																			2022/6/2	2022/6/2
PRA000120	SAA008745	ST015				Wakayama_w1-2_2019	Water	"River water"	2019	10	31	2019-10-31T14:20			Fair	Asia	Japan	"Kinokawa-ohashi Bridge, Mouth of Riv. Kinokawa (Wakayama City), Wakayama"	34.23		135.1561111														"20.9 "	"19.2 "	"6.8 "	"8.2 "	"950 "			"7 "		"1.5 "	Green																			2022/6/2	2022/6/2
PRA000120	SAA008491	ST014				Okayama_w2_2019	Water	"Sea water"	2019	10	23	2019-10-23T10:35			Fair	Asia	Japan	"Offshore of Mizushima, Okayama"	34.48055556		133.665														"23.6 "	"22.0 "	"8.0 "	"6.7 "	"6,500 "			"6 "		"1.5 "	"Dark Yellow green"																			2022/6/2	2022/6/2
PRA000120	SAA008746	ST014				Hiroshima_w2_2019	Water	"Sea water"	2019	11	13	2019-11-13T09:58			Fair	Asia	Japan	"Kure Port, Hiroshima"	"34.23361111 "		"132.5391667 "														"17.2 "	"20.7 "	"8.1 "	"7.1 "				"1 "		"7.0 "	"Dark Bluish green"																			2022/6/2	2022/6/2
PRA000120	SAA008747	ST014				Hiroshima_w3_2019	Water	"Sea water"	2019	11	13	2019-11-13T12:23			Fair	Asia	Japan	"Hiroshima Bay (Hiroshima City), Hiroshima"	"34.34833333 "		"132.4225 "														"18.2 "	"21.0 "	"8.2 "	"7.9 "				"2 "		"5.0 "	"Dark Bluish green"																			2022/6/2	2022/6/2
PRA000120	SAA008492	ST014				Yamaguchi_w1-1_2019	Water	"Sea water"	2019	11	12	2019-11-12T12:25			Fair	Asia	Japan	"Tokuyama Bay, Yamaguchi"	33.99361111		131.7505556														"20.0 "	"22.4 "	"8.0 "	"5.9 "				"2 "		"7.0 "	"Bluish green"																			2022/6/2	2022/6/2
PRA000120	SAA008748	ST014				Yamaguchi_w3_2019	Water	"Sea water"	2019	11	13	2019-11-13T11:30			Fair	Asia	Japan	"Offshore of Ube, Yamaguchi"	33.915		131.1975														"20.9 "	"20.1 "	"8.2 "	"5.9 "				"2 "		"4.0 "	"Grayish green"																			2022/6/2	2022/6/2
PRA000120	SAA008494	ST014				Yamaguchi_w2-1_2019	Water	"Sea water"	2019	11	22	2019-11-22T11:20			Cloudy	Asia	Japan	"Offshore of Hagi, Yamaguchi"	34.43805556		131.3794444														"14.5 "	"19.5 "	"8.2 "	"7.0 "				"1 "		"15 "	"Bluish green"																			2022/6/2	2022/6/2
PRA000120	SAA008749	ST015				Tokushima_w1_2019	Water	"River water"	2019	11	12	2019-11-12T11:10			Fair	Asia	Japan	"Mouth of Riv. Yoshino (Tokushima City), Tokushima"	34.085		134.5913889														"21.0 "	"18.8 "	"8.0 "	"7.6 "	"3,900 "			"1 "		"3.2 "	Green																			2022/6/2	2022/6/2
PRA000120	SAA008497	ST014				Kagawa_w1_2019	Water	"Sea water"	2019	11	26	2019-11-26T08:55			Fair	Asia	Japan	"Takamatsu Port, Kagawa"	34.34972222		134.0788889														"13.4 "	"15.9 "	"8.1 "	"7.8 "				"7 "		"1.1 "	"Bluish green"																			2022/6/2	2022/6/2
PRA000120	SAA008750	ST015				Kochi_w2_2019	Water	"River water"	2019	10	15	2019-10-15T09:45			Fair	Asia	Japan	"Mouth of Riv. Shimanto (Shimanto City), Kochi"	32.93777778		132.8441667														"26.8 "	"22.2 "	"7.1 "	"8.4 "	"1,900 "			"4 "			Clear																			2022/6/2	2022/6/2
PRA000120	SAA008502	ST014				KitakyushuCity_w1_2019	Water	"Sea water"	2019	11	25	2019-11-25T09:30			Cloudy	Asia	Japan	"Dokai Bay (Kitakyushu City), Fukuoka"	33.90388889		130.8158333														"19.3 "	"17.8 "	"8.1 "	"7.7 "	"4,800 "			"3 "		"4.5 "	Clear																			2022/6/2	2022/6/2
PRA000120	SAA008504	ST014				Saga_w1_2019	Water	"Sea water"	2019	11	29	2019-11-29T10:40			Fair	Asia	Japan	"Imari Bay, Saga"	33.34		129.8208333														"13.0 "	"16.5 "	"8.5 "	"7.7 "	"4,200 "			"17 "		"2.5 "	Clear																			2022/6/2	2022/6/2
PRA000120	SAA008751	ST014				Nagasaki_w1_2019	Water	"Sea water"	2019	10	29	2019-10-29T10:42			Fair	Asia	Japan	"Omura Bay, Nagasaki"	32.98833333		129.8522222														"23.0 "	"22.6 "	"8.2 "	"7.2 "				"4 "		"7.6 "	"Light bluish green"																			2022/6/2	2022/6/2
PRA000120	SAA008752	ST015				Kumamoto_w1_2019	Water	"River water"	2019	10	24	2019-10-24T11:30			Cloudy	Asia	Japan	"Hiraki-bashi Bridge, Riv. Midori (Uto City), Kumamoto"	32.71638889		130.6422222														"23.8 "	"21.2 "	"7.0 "	"7.7 "	"530 "			"16 "			"Light Yellowish brown"																			2022/6/2	2022/6/2
PRA000120	SAA008753	ST015				Miyazaki_w3_2019	Water	"River water"	2019	10	15	2019-10-15T11:46			Fair	Asia	Japan	"Mouth of Riv. Oyodo (Miyazaki City), Miyazaki"	31.89611111		131.4402778														"26.5 "	"23.5 "	"7.6 "	"8.0 "	"980 "			"< 1"			Clear																			2022/6/2	2022/6/2
PRA000120	SAA008754	ST015				Kagoshima_w1_2019	Water	"River water"	2019	11	13	2019-11-13T11:44			Cloudy	Asia	Japan	"Shinkawa-bashi Bridge, Riv. Amori (Kirishima City), Kagoshima"	31.7225		130.7416667														"18.5 "	"18.5 "	"7.7 "	"9.5 "				"2 "			Clear																			2022/6/2	2022/6/2
PRA000120	SAA008755	ST015				Kagoshima_w2_2019	Water	"River water"	2019	11	11	2019-11-11T11:47			Fair	Asia	Japan	"Gotanda-bashi Bridge, Riv. Gotanda (Ichikikushikino City), Kagoshima"	31.72583333		130.2769444														"21.5 "	"18.2 "	"8.1 "	"10 "				"2 "			Clear																			2022/6/2	2022/6/2
PRA000120	SAA008621	ST014				Okinawa_w1_2019	Water	"Sea water"	2020	1	10	2020-01-10T11:40			Cloudy	Asia	Japan	"Naha Port, Okinawa"	26.21222222		127.665														22.4	22.5	"7.9 "	"4.3 "	"4,890 "			"20 "		1.5	Clear																			2022/6/2	2022/6/2
PRA000120	SAA008756	ST024				Hokkaido_sed2-123_2019	Sediment	"River sediment"	2019	11	21	"2019-11-21T14:00; T14:20; T14:40"			"Cloudy; Cloudy; Cloudy"	Asia	Japan	"Ishikarikakokyo Bridge, Mouth of Riv. Ishikari (Ishikari City), Hokkaido"	43.22861111		141.3519444														"2.1; 2.0; 2.1"	"2.9; 2.9; 2.9"										"3.3; 3.0; 3.2"			"Blackish brown; Blackish brown; Blackish brown"	"Gray brown; Gray brown; Gray brown"	"Odorless; Odorless; Odorless"		"47.0; 52.0; 48.0 (Each) / 48.6 (Mixed)"	"6.0; 7.4; 6.2 (Each) / 7.0 (Mixed)"									"n=3 pooled: SAA008622; SAA008623; SAA008624"	2022/7/12	2022/7/12
PRA000120	SAA008757	ST023				Hokkaido_sed3-123_2019	Sediment	"Marine sediment"	2019	9	12	"2019-09-12T10:45; T11:00; T11:10"			"Fair; Fair; Fair"	Asia	Japan	"Tomakomai Port, Hokkaido"	42.63138889		141.6288889														"21.0; 20.6; 21.7"	"21.9; 21.9; 22.0"								"3.5; 3.5; 3.5"		"18.9; 19.2; 19.0"	"16.0; 16.0; 16.0"		"Black; Black; Black"	"Greenish blue; Greenish blue; Greenish blue"	"Hydrogen sulfide odor; Hydrogen sulfide odor; Hydrogen sulfide odor"		"56.0; 41.0; 44.0 (Each) / 47.8 (Mixed)"	"6.4; 3.9; 4.4 (Each) / 5.3 (Mixed)"									n=3	2022/7/12	2022/7/12
PRA000120	SAA008758	ST024				Iwate_sed1-123_2019	Sediment	"River sediment"	2019	12	4	"2019-12-04T10:25; T11:51; T11:53"			"Fair; Cloudy; Cloudy"	Asia	Japan	"Toyosawa-bashi Bridge, Riv. Toyosawa (Hanamaki City), Iwate"	39.38166667		141.1191667														"6.0; 6.0; 6.0"	"6.0; 6.5; 6.5"										"6.0; 5.5; 6.0"	"0.1; 0.1; 0.1"	"Sand mixed with pebbles; Sand mixed with pebbles; Sand mixed with pebbles"	"Brown; Light brown; Light brown"	"Green_Light; Green_Light; Green_Light"	"Odorless; Odorless; Odorless"	"Vegetative pieces; None; Vegetative pieces"	"17.2; 20.0; 17.5 (Each) / 18.6 (Mixed)"	"1.7; 1.6; 1.7 (Each) / 1.5 (Mixed)"									"n=3 pooled: SAA008625; SAA008626; SAA008627"	2022/7/12	2022/7/12
PRA000120	SAA008759	ST023				Miyagi_sed1_123_2019	Sediment	"Marine sediment"	2019	10	15	"2019-10-15T10:18; T11:34; T11:52"			"Fair; Fair; Fair"	Asia	Japan	"Sendai Bay (Matsushima Bay), Miyagi"	38.3533333		141.0975														"16.7; 18.7; 16.6"	"18.0; 18.2; 18.3"								"0.6; 0.7; 0.5"		"18.4; 18.2; 17.5"	"3.4; 3.8; 3.6"	"Muddy; Muddy; Muddy"	"Grayish green; Grayish green; Grayish green"	"Clear; Clear; Clear"	"Seaweed odor_Faint; Seaweed odor_Faint; Seaweed odor_Faint"	"Shell; None; Shell"	"60.1; 49.2; 46.4 (Each) / 63.9 (Mixed)"	"10.8; 8.8; 8.7 (Each) / 8.7 (Mixed)"									n=3	2022/7/12	2022/7/12
PRA000120	SAA008760	ST024				Sendai_sed1_123_2019	Sediment	"River sediment"	2019	11	19	"2019-11-19T14:26; T13:39; T14:15"			"Fair; Fair; Fair"	Asia	Japan	"Hirose-ohashi Bridge, Riv. Hirose (Sendai City), Miyagi"	38.21333333		140.9088889														"17.4; 17.4; 17.4"	"11.9; 11.7; 11.7"										"13.0; 13.0; 13.0"	"25.0; 35.0; 46.0"	"Sandy; Sandy; Sandy"	"Grayish black; Grayish black; Grayish black"	"Clear; Clear; Clear"	"Swampy odor; Swampy odor; Swampy odor"	"None; None; None"	"9.2; 17.0; 16.7 (Each) / 19.1 (Mixed)"	"1.1; 1.0; 1.1 (Each) / 0.9 (Mixed)"									"n=3 pooled: SAA008628; SAA008629; SAA008630"	2022/7/12	2022/7/12
PRA000120	SAA008761	ST024				Akita_sed2-123_2019	Sediment	"Lake sediment"	2019	10	21	"2019-10-21T10:43; T10:21; T11:03"			"Fair; Fair; Fair"	Asia	Japan	"Lake Hachiro, Akita"	39.92277778		139.9988889														"20.5; 20.0; 22.5"	"15.5; 16.4; 16.7"								"0.5; 0.5; 0.5"		"15.4; 15.5; 15.4"	"6.8; 7.1; 7.2"	"Muddy; Muddy; Muddy"	"Grayish black; Grayish black; Grayish black"	"Greenish brown_Light; Greenish brown_Light; Greenish brown_Light"	"Odorless; Odorless; Odorless"	"None; None; None"	"78.8; 76.8; 78.2 (Each) / 76.9 (Mixed)"	"12.2; 12.5; 12.5 (Each) / 8.6 (Mixed)"									n=3	2022/7/12	2022/7/12
PRA000120	SAA008762	ST024				Yamagata_sed1-123_2019	Sediment	"River sediment"	2019	12	11	"2019-12-11T10:30; T10:30; T10:30"			"Fair; Fair; Fair"	Asia	Japan	"Mouth of Riv. Mogami (Sakata City), Yamagata"	38.88722222		139.8433333														"11.5; 11.5; 11.5"	"5.0; 5.0; 5.0"										"6.2; 6.2; 6.2"	"0.3; 0.3; 0.3"	"Fine sand; Fine sand; Fine sand"	"Grayish black; Grayish black; Grayish black"	"Yellow green_Light; Yellow green_Light; Yellow green_Light"	"Earthy odor; Earthy odor; Earthy odor"	"Vegetative pieces; Vegetative pieces; Vegetative pieces"	"38.0; 35.9; 37.4 (Each) / 40.2 (Mixed)"	"5.2; 4.1; 5.0 (Each) / 4.1 (Mixed)"									"n=3 pooled: SAA008632; SAA008633; SAA008634"	2022/7/12	2022/7/12
PRA000120	SAA008763	ST023				Fukushima_sed1-123_2019	Sediment	"Marine sediment"	2019	11	12	"2019-11-12T11:20; T12:20; T12:45"			"Fair; Fair; Fair"	Asia	Japan	"Onahama Port, Fukushima"	36.92472222		140.8752778														"20.2; 20.2; 21.1"	"18.0; 17.7; 17.8"								"4.0; 3.0; 3.5"		"16.8; 15.7; 16.5"	"17.3; 14.3; 14.4"	"Mud; Mud; Mud"	"Grayish green; Grayish green; Grayish green"	"Blue green; Blue green; Blue green"	"Seaweed odor_Faint; Seaweed odor_Faint; Seaweed odor_Faint"	"None; None; None"	"52.4; 52.1; 59.9 (Each) / 56.1 (Mixed)"	"10.0; 11.0; 14.0 (Each) / 8.7 (Mixed)"									n=3	2022/7/12	2022/7/12
PRA000120	SAA008764	ST024				Ibaraki_sed1-123_2019	Sediment	"River sediment"	2019	12	10	"2019-12-10T09:40; T10:00; T10:45"			"Cloudy; Cloudy; Fair"	Asia	Japan	"Kamome-ohasi Bridge, Mouth of Riv. Tone (Kamisu City), Ibaraki"	35.77638889		140.7569444														"12.1; 14.3; 17.7"	"11.2; 12.4; 11.7"											"1.3; 5.3; 2.5"	"Mud; Sandy mud; Mud"	"Black; Black; Black"	"Clear; Clear; Clear"	"Swampy odor_Faint; Swampy odor_Faint; Swampy odor_Faint"	"None; None; None"	"34.0; 24.0; 32.0 (Each) / 35.2 (Mixed)"	"3.9; 1.3; 3.9 (Each) / 3.3 (Mixed)"									"n=3 pooled: SAA008635; SAA008636; SAA008637"	2022/7/12	2022/7/12
PRA000120	SAA008765	ST024				Tochigi_sed1-123_2019	Sediment	"River sediment"	2019	10	30	"2019-10-30T10:00; T11:28; T12:05"			"Cloudy; Cloudy; Fair"	Asia	Japan	"Tagawa area-Toshuko Weir (Utsunomiya City), Tochigi"	36.52805556		139.8855556														"16.0; 19.0; 22.0"	"15.6; 16.0; 17.0"										"17.0; 17.0; 18.2"	"0.30; 0.53; 0.45"	"Gravel; Gravel; Gravel"	"Brown; Brown; Brown"	"Clear; Clear; Clear"	"Odorless; Odorless; Odorless"		"(Each) / 17.8 (Mixed)"	"(Each) / 0.8 (Mixed)"									n=3	2022/7/12	2022/7/12
PRA000120	SAA008766	ST023				Chiba_sed1-123_2019	Sediment	"Marine sediment"	2019	11	27	"2019-11-27T10:16; T10:53; T11:10"			"Rain; Rain; Rain"	Asia	Japan	"Ichihara-Anesaki Coast, Chiba"	35.52166667		140.0283333														"9.8; 10.0; 10.0"	"17.6; 17.6; 17.5"								"5.0; 5.0; 5.0"		"18.0; 17.8; 18.4"	"18.6; 18.8; 18.3"	"Silt; Silt; Silt"	"Olive_Dark; Olive_Dark; Olive_Dark"	"Dark green; Dark green; Dark green"	"Hydrogen sulfide odor; Hydrogen sulfide odor; Hydrogen sulfide odor"	"Few shellfish pieces; Few shellfish pieces; Few shellfish pieces"	"74.1; 74.3; 71.0 (Each) / 81.1 (Mixed)"	"11.8; 11.9; 10.4 (Each) / 10.7 (Mixed)"									"n=3 pooled: SAA008638; SAA008639; SAA008640"	2022/7/12	2022/7/12
PRA000120	SAA008767	ST024				ChibaCity_sed1-123_2019	Sediment	"River sediment"	2019	11	7	"2019-11-07T10:50; T11:15; T11:40"			"Fair; Fair; Fair"	Asia	Japan	"Mouth of Riv. Hanami (Chiba City), Chiba"	35.63472222		140.0469444														"16.0; 18.0; 18.5"	"19.2; 21.0; 20.5"										"19.8; 19.8; 19.6"	"2.0; 1.7; 1.8"	"Muddy; Muddy; Muddy"	"Grayish black; Grayish black; Grayish black"	"Clear; Clear; Clear"	"Seaweed odor; Seaweed odor; Seaweed odor"	"Shellfish; Shellfish; Shellfish"	"23.1; 23.5; 27.3 (Each) / 23.9 (Mixed)"	"1.9; 1.8; 3.3 (Each) / 1.7 (Mixed)"									n=3	2022/7/12	2022/7/12
PRA000120	SAA008768	ST024				Tokyo_sed1-123_2019	Sediment	"River sediment"	2019	12	18	"2019-12-18T10:25; T11:40; T12:05"			"Fair; Cloudy; Cloudy"	Asia	Japan	"Mouth of Riv. Arakawa (Koto Ward), Tokyo"	35.64583333		139.8463889														"12.8: 14.4: 14.6"	"14.6; 16.0; 15.0"								"1.9; 1.9; 1.7"		"15.5; 15.6; 15.4"	"4.6; 3.4; 2.8"	"Silt mixed with fine sand; Silt; Silt mixed with fine sand"	"Olive black; Blackish brown; Blackish brown"	"Yellow green; Dark green; Yellow green"	"Hydrogen sulfide odor; Hydrogen sulfide odor_Faint; Hydrogen sulfide odor_Faint"	"Polychaetes, Seashells; Gammaridea,  Vegetative pieces, Vinyl pieces, Seashells; Gammaridea, Polychaete, Vegetative pieces"	"41.8; 39.0; 34.2 (Each) / 50.4 (Mixed)"	"8.1; 8.0; 7.0 (Each) / 6.7 (Mixed)"									"n=3 pooled: SAA008641; SAA008642; SAA008643"	2022/7/12	2022/7/12
PRA000120	SAA008769	ST024				Tokyo_sed2-123_2019	Sediment	"River sediment"	2019	12	18	"2019-12-18T13:00; T14:00; T14:15"			"Cloudy; Fair; Fair"	Asia	Japan	"Mouth of Riv. Sumida (Minato Ward), Tokyo"	35.66		139.7705556														"16.3; 16.3; 15.5"	"15.9; 15.9; 15.9"								"4.0; 3.3; 2.8"		"17.2; 17.0; 17.2"	"5.1; 5.0; 3.8"	"Silt; Silt; Silt"	"Black; Black; Black"	"Dark green; Dark green; Dark green"	"Hydrogen sulfide odor_Strong; Hydrogen sulfide odor_Strong; Hydrogen sulfide odor_Strong"	"Seashells; Seashells; Seashells; Vegetative pieces"	"54.6; 52.4; 48.0 (Each) / 66.8 (Mixed)"	"12.0; 11.9; 10.4 (Each) / 11.2 (Mixed)"									"n=3 pooled: SAA008644; SAA008645; SAA008646"	2022/7/12	2022/7/12
PRA000120	SAA008770	ST023				Yokohama_sed1-123_2019	Sediment	"Marine sediment"	2019	11	27	"2019-11-27T11:00; T10:00; T11:30"			"Rain; Rain; Rain"	Asia	Japan	"Yokohama Port, Kanagawa"	35.45555556		139.6636111														"9.0; 9.0; 9.0"	"15.8; 16.5; 16.0"								"5.0; 5.5; 5.0"		"17.0; 17.2; 18.0"	"11.3; 12.3; 11.2"	"Muddy; Muddy, Muddy"	"Brown; Brown; Brown"	"Clear; Clear; Clear"	"Hydrogen sulfide odor_Faint; Hydrogen sulfide odor_Faint; Hydrogen sulfide odor_Faint"	"None; None; None"	"67.3; 75.7; 67.8 (Each) / 70.9 (Mixed)"	"11.9; 11.9; 12.0 (Each) / 9.9 (Mixed)"									"n=3 pooled: SAA008647; SAA008648; SAA008649"	2022/7/12	2022/7/12
PRA000120	SAA008771	ST024				KawasakiCity_sed1-123_2019	Sediment	"River sediment"	2019	11	27	"2019-11-27T14:20; T15:02;T14:44"			"Cloudy; Cloudy; Cloudy"	Asia	Japan	"Mouth of Riv. Tama (Kawasaki City), Kanagawa"	35.53		139.7836111														"11.2; 12.6; 11.7"	"14.8; 14.6; 14.6"								"0.4; 0.9; 0.9"		"17.0; 17.3; 17.0"	"3.5; 3.2; 3.5"	"Muddy sand; Muddy sand; Sand"	"Grayish brown; Grayish brown; Grayish brown"	"Gray green; Green_Dark; Green_Dark"	"Sewage odor; Sewage odor_Faint; Sewage odor_Faint"	"Seashells, Vegetative pieces; Seashells, Vegetative pieces; Seashells, Vegetative pieces"	"33.7; 29.3; 21.3 (Each) / 33.9 (Mixed)"	"6.4; 5.9; 2.7 (Each) / 4.8 (Mixed)"									"n=3 pooled: SAA008650; SAA008651; SAA008652"	2022/7/12	2022/7/12
PRA000120	SAA008772	ST023				KawasakiCity_sed2-123_2019	Sediment	"Marine sediment"	2019	11	27	"2019-11-27T11:15; T10:49; T10:27"			"Light rain; Light rain; Light rain"	Asia	Japan	"Keihin Canal, Kawasaki Port, Kanagawa (front of Ogimachi)"	35.49527778		139.7277778														"9.4; 9.1; 8.7"	"17.2; 16.8; 16.6"								"4.2; 3.5; 3.7"		"18.0; 18.6; 18.0"	"14.5; 14.5; 13.5"	"Mud; Mud; Mud"	"Grayish green; Grayish green; Green_Dark"	"Gray green; Gray green; Gray green"	"Hydrogen sulfide odor; Hydrogen sulfide odor; Hydrogen sulfide odor"	"Seashells, Vegetative pieces; Seashells, Vegetative pieces; Seashells, Vegetative pieces"	"53.2; 70.8; 61.8 (Each) / 68.2 (Mixed)"	"10.3; 15.6; 12.6 (Each) / 10.2 (Mixed)"									"n=3 pooled: SAA008653; SAA008654; SAA008655"	2022/7/12	2022/7/12
PRA000120	SAA008773	ST024				Niigata_sed1-12_2019	Sediment	"River sediment"	2019	12	11	"2019-12-11T14:00; T13:40"			"Cloudy; Cloudy"	Asia	Japan	"Downstream of Riv. Shinano (Niigata City), Niigata"	37.88305556		139.0155556														"14.5; 14.5"	"8.0; 8.0"										"8.5; 8.5"	"4.6; 4.6"	"Sandy; Sandy"	"Brown; Brown"	"Green; Green"	"Earthy odor; Earthy odor"	"Twigs, Leaves; Leaves"	"26.2; 23.0 (Each) / 22.3 (Mixed)"	"1.2; 1.1 (Each) / 1.1 (Mixed)"									"n=2 pooled: SAA008656; SAA008657"	2022/7/12	2022/7/12
PRA000120	SAA008774	ST024				Toyama_sed1-123_2019	Sediment	"River sediment"	2019	11	13	"2019-11-13T10:10; T10:50; T12:02"			"Fair; Fair; Fair"	Asia	Japan	"Hagiura-bashi Bridge, Mouth of Riv. Jintsu (Toyama City), Toyama"	36.745		137.2180556														"18.4; 18.4; 18.9"	"13.3; 13.3; 14.9"										"13.8; 13.6; 14.1"	"0.7; 0.4; 0.4"	"Muddy; Muddy sand; Sandy"	"Gray; Gray; Gray"	"Clear; Clear; Clear"	"Hydrogen sulfide odor_Faint; Hydrogen sulfide odor_Faint; Odorless"	"Leaves, Stems; Leaves, Stems; None"	"46.0; 31.0; 16.0 (Each) / 39.1 (Mixed)"	"9.6; 4.2; 1.2 (Each) / 4.3 (Mixed)"									n=3	2022/7/12	2022/7/12
PRA000120	SAA008775	ST024				Ishikawa_sed1-456_2019	Sediment	"River sediment"	2019	10	23	"2019-10-23T09:48; T11:11; T11:40"			"Fair; Fair; Fair"	Asia	Japan	"Mouth of Riv. Sai (Kanazawa City), Ishikawa"	36.60027778		136.5888889														"21.9; 19.9; 23.4"	"17.5; 17.4; 17.2"											"3.2; 1.3; 1.0"	"Silt; Sany silt; Silty sand"	"Grayish black; Grayish brown; Blackish brown"	"Green; Green; Green"	"Fish rotten odor; Fish rotten odor_Faint; Fish rotten odor_Faint"	"Pebbles, twigs, shell; Pebbles, twigs; Pebbles"	"32.1; 23.4; 22.6 (Each) / 30.7 (Mixed)"	"4.8; 2.2; 1.8 (Each) / 3.1 (Mixed)"									n=3	2022/7/12	2022/7/12
PRA000120	SAA008776	ST024				Fukui_sed1-123_2019	Sediment	"River sediment"	2019	10	23	"2019-10-23T10:50; T10:50; T10:50"			"Fair; Fair; Fair"	Asia	Japan	"Mishima-bashi Bridge, Riv. Shono (Tsuruga City), Fukui"	35.6475		136.0627778														"25.4; 25.4; 25.4"	"22.5; 22.5; 22.5"										"22.5; 22.5; 22.5"	"0.1; 0.1; 0.1"	"Sandy; Sandy; Sandy"	"Brown; Brown; Brown"	"Clear; Clear; Clear"	"Odorless; Odorless; Odorless"	"Stones; Stones; Stones"	"20.4; 20.6; 20.2 (Each) / 18.4 (Mixed)"	"0.9; 0.9; 0.9 (Each) / 0.7 (Mixed)"									n=3	2022/7/12	2022/7/12
PRA000120	SAA008777	ST024				Yamanashi_sed1-123_2019	Sediment	"River sediment"	2019	11	1	"2019-11-01T10:30; T09:58; T09:25"			"Fair; Fair; Fair"	Asia	Japan	"Chiaki-bashi Bridge, Riv. Ara (Kofu City), Yamanashi"	35.6475		138.5655556														"15.3; 17.5; 17.5"	"14.3; 14.0; 15.2"										"14.8; 15.0; 15.5"	"0.1; 0.2; 0.3"	"Sand; Pebble; Sand"	"Gray; Gray; Gray"	"Greenish brown; Greenish brown; Greenish brown"	"Odorless; Odorless; Odorless"	"None; Sand; Pebbles"	"18.5; 16.1; 15.2 (Each) / 16.7 (Mixed)"	"1.1; 1.3; 0.7 (Each) / 0.7 (Mixed)"									n=3	2022/7/12	2022/7/12
PRA000120	SAA008778	ST024				Nagano_sed1-123_2019	Sediment	"Lake sediment"	2019	12	3	"2019-12-03T09:30; T10:18; T10:42"			"Fair; Fair; Fair"	Asia	Japan	"Center of Lake Suwa, Nagano"	36.05		138.0861111														"5.4; 7.1; 8.1"	"8.0; 8.2; 8.2"								"1.8; 1.6; 1.4"		"7.8; 7.9; 7.8"	"5.5; 5.5; 5.5"	"Muddy; Muddy, Muddy"	"Blackish brown_Dark; Blackish brown_Dark; Blackish brown_Dark"	"Yellow green_Light; Yellow green_Light; Yellow green_Light"	"Swampy odor_Faint; Swampy odor_Faint; Swampy odor_Faint"	"None; None; None"	"79.6; 78.9; 79.6 (Each) / 84.6 (Mixed)"	"14.2; 13.7; 15.0 (Each) / 13.3 (Mixed)"									"n=3 pooled: SAA008661; SAA008662; SAA008663"	2022/7/12	2022/7/12
PRA000120	SAA008779	ST023				Shizuoka_sed1-123_2019	Sediment	"Marine sediment"	2019	12	4	"2019-12-04T09:35; T10:15; T10:30"			"Fair; Fair; Fair"	Asia	Japan	"Shimizu Port, Shizuoka"	35.02416667		138.5161111														"12.1; 12.9; 12.9"	"17.2; 17.9; 18.2"								"5.5; 5.5; 5.0"		"20.1; 20.5; 20.0"	"24.9; 20.1; 17.4"	"Sand, Clay; Sand, Clay; Sand, Clay"	"Grayish green_Dark; Grayish green_Dark; Grayish green_Dark"	"Clear; Clear; Clear"	"Odorless; Odorless; Odorless"	"Shellfish, pieces of wood; Shellfish, pieces of wood; Shellfish, pieces of wood"	"34.8; 30.7; 35.6 (Each) / 31.4 (Mixed)"	"5.0; 4.5; 5.1 (Each) / 4.0 (Mixed)"									"n=3 pooled: SAA008664; SAA008665; SAA008666"	2022/7/12	2022/7/12
PRA000120	SAA008780	ST024				Shizuoka_sed6-123_2019	Sediment	"River sediment"	2019	11	27	"2019-11-27T10:30; T11:30; T12:10"			"Cloudy; Cloudy; Cloudy"	Asia	Japan	"Kaketsuka-bashi Bridge, Riv. Tenryu (Iwata City), Shizuoka"	34.67888889		137.7958333														"17.5; 16.7; 17.4"	"12.5; 12.2; 12.2"										"13.5; 13.3; 13.0"	"0.3; 0.4; 0.3"	"Sand; Sand; Sand"	"Grayish brown_Dark; Grayish brown_Dark; Grayish brown_Dark"	"White_Light; White_Light; White_Light"	"Odorless; Odorless; Odorless"	"Pebbles; Pebbles; Pebbles"	"19.5; 17.4; 14.5 (Each) / 17.7 (Mixed)"	"1.9; 1.4; 1.5 (Each) / 1.4 (Mixed)"									"n=3 pooled: SAA008667; SAA008668; SAA008669"	2022/7/12	2022/7/12
PRA000120	SAA008781	ST023				Aichi_sed2-123_2019	Sediment	"Marine sediment"	2019	12	11	"2019-12-11T10:20; T10:25; T10:30"			"Fair; Fair; Fair"	Asia	Japan	"Kinuura Port, Aichi"	34.84166667		136.9486111														"12.7; 12.7; 12.7"	"16.9; 16.9; 16.9"								"3.2; 3.2; 3.2"		"15.0; 15.0; 15.5"	"15.1; 15.1; 15.1"	"Muddy; Muddy; Muddy"	"Grayish green; Grayish green; Grayish green"	"Clear; Clear; Clear"	"Hydrogen sulfide odor_Faint; Hydrogen sulfide odor_Faint; Odorless"	"Shell; Shell; Shell"	"65.0; 64.8; 65.4 (Each) / 64.8 (Mixed)"	"10.9; 10.6; 10.4 (Each) / 9.9 (Mixed)"									n=3	2022/7/12	2022/7/12
PRA000120	SAA008782	ST023				Aichi_sed1-456_2019	Sediment	"Marine sediment"	2019	12	11	"2019-12-11T12:10; T12:15; T12:20"			"Fair; Fair; Fair"	Asia	Japan	"Nagoya Port, West of Shiomi Wharf, Aichi"	35.07111111		136.8691667														"14.2; 14.2; 14.2"	"16.6; 16.6; 16.6"								"2.5; 2.5; 2.5"		"17.0; 17.0; 17.0"	"15.2; 15.2; 15.2"	"Muddy; Muddy; Muddy"	"Grayish green; Grayish green; Grayish green"	"Clear; Clear; Clear"	"Hydrogen sulfide odor_strong; Hydrogen sulfide odor_strong; Hydrogen sulfide odor_strong"	"None; None; None"	"63.0; 61.2; 60.1 (Each) / 60.9 (Mixed)"	"8.8; 10.0; 8.1 (Each) / 7.4 (Mixed)"									n=3	2022/7/12	2022/7/12
PRA000120	SAA008783	ST023				Mie_sed1-123_2019	Sediment	"Marine sediment"	2019	11	28	"2019-11-28T10:10; T10:47; T10:53"			"Cloudy; Cloudy; Cloudy"	Asia	Japan	"Yokkaichi Port, Mie"	34.94944444		136.6530556														"12.0; 11.0; 11.0"	"17.0; 16.5; 17.0"								"3.1; 3.5; 3.3"		"19.0; 19.0; 19.0"	"12.0; 7.2; 7.3"	"Muddy; Muddy, Muddy"	"Grayish black; Grayish black; Grayish black"	"Green brown; Green brown; Green brown"	"Hydrogen sulfide odor_Faint; Hydrogen sulfide odor_Faint; Hydrogen sulfide odor_Faint"	"Almost none; Almost none; Seashells"	"64.8; 53.9; 57.4 (Each) / 56.3 (Mixed)"	"8.2; 6.6; 7.1 (Each) / 6.9 (Mixed)"									"n=3 pooled: SAA008679; SAA008680; SAA008681"	2022/7/12	2022/7/12
PRA000120	SAA008784	ST023				Mie_sed2-456_2019	Sediment	"Marine sediment"	2019	11	25	"2019-11-25T11:00; T11:13; T11:19"			"Fair; Fair; Fair"	Asia	Japan	"Toba Port, Mie"	34.48083333		136.8486111														"22.0; 21.2; 21.2"	"18.0; 18.0; 18.0"								"2.5; 3.1; 3.3"		"19.0; 18.0; 18.0"	"5.7; 6.1; 6.0"	"Muddy; Muddy; Muddy"	"Grayish brown; Grayish brown; Grayish brown"	"Grayish green; Grayish green; Grayish green"	"Swampy odor_Faint; Swampy odor_Faint; Swampy odor_Faint"	"Shell, vegetative pieces; Shell, vegetative pieces; Shell, vegetative pieces"	"56.9; 44.9; 42.2 (Each) / 43.9 (Mixed)"	"10.5; 8.2; 6.0 (Each) / 7.9 (Mixed)"									n=3	2022/7/12	2022/7/12
PRA000120	SAA008785	ST024				Shiga_sed1-123_2019	Sediment	"Lake sediment"	2019	11	27	"2019-11-27T09:30; T09:55; T10:25"			"Cloudy; Cloudy; Cloudy"	Asia	Japan	"Lake Biwa (center, offshore of Minamihira), Shiga"	35.18527778		135.9733333														"13.5; 14.5l 14.2"	"15.8; 15.6; 15.3"								"5.2; 5.4; 5.8"		"8.9; 8.4; 8.5"	"60.9; 53.8; 49.3"	"Muddy; Muddy, Muddy"	"Grayish black; Grayish black; Grayish black"	"Greenish blue_Dark; Greenish blue_Dark; Greenish blue_Dark"	"Swampy odor; Swampy odor; Swampy odor"		"70.5; 68.9; 69.3 (Each) / 79.6 (Mixed)"	"11.0; 10.7; 10.8 (Each) / 10.9 (Mixed)"									"n=3 pooled: SAA008685; SAA008686; SAA008687"	2022/7/12	2022/7/12
PRA000120	SAA008786	ST024				Shiga_sed2-123_2019	Sediment	"Lake sediment"	2019	11	19	"2019-11-19T09:50; T10:30; T11:10"			"Fair; Fair; Fair"	Asia	Japan	"Lake Biwa (center, offshore of Karasaki), Shiga"	35.04611111		135.8955556														"18.7; 18.9; 18.6"	"15.2; 16.6; 15.2"								"3.0; 2.8; 2.7"		"16.0; 15.5; 15.0"	"3.8; 4.3; 4.0"	"Muddy; Muddy, Muddy"	"Grayish black; Grayish black; Grayish black"	"Yellow green; Yellow green; Yellow green"	"Swampy odor; Swampy odor; Swampy odor"	"Aquatic plants; Aquatic plants; Aquatic plants"	"65.6; 66.2; 63.6 (Each) / 74.1 (Mixed)"	"10.2; 10.8; 10.3 (Each) / 10.2 (Mixed)"									"n=3 pooled: SAA008688; SAA008689; SAA008690"	2022/7/12	2022/7/12
PRA000120	SAA008787	ST023				Kyoto_sed1-123_2019	Sediment	"Marine sediment"	2020	1	8	"2020-01-08T10:15; T10:35; T11:05"			"Cloudy; Cloudy; Cloudy"	Asia	Japan	"Miyazu Port, Kyoto"	35.58305556		135.2138889														"16.9; 17.0; 17.4"	"13.9; 13.9; 13.9"								"6.0; 6.0; 6.0"		"12.6; 13.0; 12.9"	"11.5; 23.1; 22.5"	"Muddy; Muddy, Muddy"	"Grayish black; Grayish black; Grayish black"	"Clear; Clear; Clear"	"Seaweed odor; Seaweed odor; Seaweed odor"	"None; None; None"	"26.9; 37.7; 42.2 (Each) / 45.9 (Mixed)"	"2.9; 11.9; 9.1 (Each) / 5.9 (Mixed)"									"n=3 pooled: SAA008691; SAA008692; SAA008693"	2022/7/12	2022/7/12
PRA000120	SAA008788	ST024				KyotoCity_sed1-456_2019	Sediment	"River sediment"	2019	11	28	"2019-11-28T10:20; T10:35; T10:45"			"Cloudy; Cloudy; Cloudy"	Asia	Japan	"Miyamae-bashi Bridge, Riv. Katsura (Kyoto City), Kyoto"	34.905		135.7125														"10.0; 10.0; 10.0"	"15.2; 15.2; 15.2"										"14.0; 14.0; 14.2"	"0.8; 0.8; 0.8"	"Sandy; Sandy; Sandy"	"Grayish brown; Grayish brown; Grayish brown"	"Clear; Clear; Clear"	"Odorless; Odorless; Odorless"	"None; None; None"	"19.7; 21.4; 17.4 (Each) / 20.7 (Mixed)"	"1.1; 1.2; 1.1 (Each) / 1.0 (Mixed)"									n=3	2022/7/12	2022/7/12
PRA000120	SAA008789	ST024				Osaka_sed1-123_2019	Sediment	"River sediment"	2019	12	5	"2019-12-05T13:00; T11:55; T12:30"			"Fair; Fair; Fair"	Asia	Japan	"Mouth of Riv. Yamato (Sakai City), Osaka"	34.60833333		135.4325														"12.4; 12.0; 12.2"	"13.0; 12.8; 12.8"								"1.8; 1.5; 1.3"		"15.3; 12.5; 13.9"	"2.3; 1.6; 1.6"	"Silt; Silt mixed with sand; Silt mixed with sand"	"Black; Grayish olive; Olive black"	"Yellow_Light; Yellow_Light; Yellow_Light"	"Fishy smell; Fishy smell; Fishy smell"	"Vegetative pieces; Vegetative pieces; Vegetative pieces"	"50.9; 31.8; 38.3 (Each) / 54.2 (Mixed)"	"13.6; 3.9; 7.4 (Each) / 7.9 (Mixed)"									"n=3 pooled: SAA008697; SAA008698; SAA008699"	2022/7/12	2022/7/12
PRA000120	SAA008790	ST023				OsakaCity_sed1-123_2019	Sediment	"Marine sediment"	2019	12	3	"2019-12-03T08:54; T08:11; T09:16"			"Fair; Fair; Fair"	Asia	Japan	"Osaka Port, Osaka"	34.65861111		135.4313889														"10.9; 10.2; 12.1"	"15.6; 13.8; 16.0"								"2.9; 3.5; 3.4"		"16.4; 16.5; 17.2"	"12.2; 11.7; 12.6"	"Silt; Silt; Silt"	"Black; Black; Black"	"Grayish yellow_Light; Grayish yellow_Light; Grayish yellow_Light"	"Hydrogen sulfide odor; Hydrogen sulfide odor; Hydrogen sulfide odor"	"None; None; None"	"54.3; 52.7; 60.6 (Each) / 66.9 (Mixed)"	"10.1; 9.4; 10.7 (Each) / 9.5 (Mixed)"									"n=3 pooled: SAA008703; SAA008704; SAA008705"	2022/7/12	2022/7/12
PRA000120	SAA008791	ST023				OsakaCity_sed4-123_2019	Sediment	"Marine sediment"	2019	12	3	"2019-12-03T09:48; T10:10; T10:32"			"Fair; Fair; Fair"	Asia	Japan	"Outside of Osaka Port, Osaka"	34.64027778		135.3858333														"13.4; 15.0; 12.4"	"17.7; 17.4; 16.9"								"3.5; 3.4; 3.4"		"16.1; 16.5; 17.5"	"15.2; 11.9; 12.6"	"Silt; Silt; Silt"	"Grayish black; Grayish black; Grayish black"	"Grayish yellow_Light; Grayish yellow_Light; Grayish yellow_Light"	"Hydrogen sulfide odor_Faint; Putrid odor; Putrid odor"	"None; None; None"	"53.8; 43.9; 39.1 (Each) / 60.0 (Mixed)"	"9.2; 6.0; 5.3 (Each) / 7.0 (Mixed)"									n=3	2022/7/12	2022/7/12
PRA000120	SAA008792	ST024				OsakaCity_sed3-123_2019	Sediment	"River sediment"	2019	12	3	"2019-12-03T11:02; T11:27; T11:44"			"Fair; Fair; Cloudy"	Asia	Japan	"Mouth of Riv. Yodo, Osaka"	34.67638889		135.3975														"13.8; 14.0; 13.4"	"17.9; 17.2; 17.2"								"2.3; 3.4; 2.5"		"16.6; 17.2; 17.1"	"6.4; 5.2; 4.0"	"Silt; Silt; Silt"	"Grayish black; Grayish black; Grayish black"	"Grayish yellow_Light; Grayish yellow_Light; Grayish yellow_Light"	"Putrid odor; Oily odor; Oily odor"	"Vegetative pieces; Vegetative pieces; Vegetative pieces"	"38.5; 37.4; 44.3 (Each) / 56.9 (Mixed)"	"7.9; 7.4; 9.9 (Each) / 9.6 (Mixed)"									n=3	2022/7/12	2022/7/12
PRA000120	SAA008793	ST024				OsakaCity_sed2-123_2019	Sediment	"River sediment"	2019	11	28	"2019-11-28T09:35; T11:20; T10:45"			"Cloudy; Cloudy; Cloudy"	Asia	Japan	"Kema-bashi Bridge, Riv. Oh (Osaka City), Osaka"	34.71776		135.51961														"10.8; 11.5; 11.6"	"14.4; 14.3; 14.0"										"13.0; 13.4; 13.5"	"3.0; 2.0; 3.5"	"Silt; Silt; Silt"	"Gray; Gray; Gray"	"Grayish yellow_Light; Grayish yellow_Light; Grayish yellow_Light"	"Sewage odor_Faint; Sewage odor_Faint; Sewage odor_Faint"	"Shellfish; Shellfish; Shellfish"	"45.2; 53.1; 44.6 (Each) / 59.4 (Mixed)"	"7.6; 10.2; 8.9 (Each) / 9.2 (Mixed)"									"n=3 pooled: SAA008700; SAA008701; SAA008702"	2022/7/12	2022/7/12
PRA000120	SAA008794	ST023				Hyogo_sed1-123_2019	Sediment	"Marine sediment"	2019	11	13	"2019-11-13T11:00; T11:15; T11:35"			"Fair; Fair; Fair"	Asia	Japan	"Offshore of Himeji, Hyogo"	34.76194444		134.6697222														"17.4; 17.4; 17.4"	"19.9; 19.9; 20.0"								"8.0; 8.0; 8.0"		"20.0; 20.0; 20.0"	"9.0; 10.0; 11.0"	"Silt; Silt; Silt"	"Grayish brown; Grayish brown; Grayish brown"	"Dark green; Dark green; Dark green"	"Hydrogen sulfide odor; Hydrogen sulfide odor;  Hydrogen sulfide odor"	"None; None; None"	"(each) / 70.7 (Mixed)"	"(Each) / 9.8 (Mixed)"									"n=3 pooled: including SAA008706"	2022/7/12	2022/7/12
PRA000120	SAA008795	ST023				Hyogo_sed2-123_2019	Sediment	"Marine sediment"	2019	12	10	"2019-12-10T09:53; T10:32; T10:48"			"Fair; Fair; Fair"	Asia	Japan	"Center of Kobe Port, Hyogo"	34.66444444		135.1944444														"45.2; 15.0; 15.1"	"14.3; 14.7; 14.5"								"6.6; 10.0; 9.1"		"15.0; 15.0; 15.0"	"10.9; 10.6; 12.8"	"Silt; Silt; Silt"	"Greenish brown; Greenish brown; Greenish brown"	"Green brown; Green brown; Green brown"	"Hydrogen sulfide odor; Hydrogen sulfide odor; Hydrogen sulfide odor"	"Pebbles; Seashells, Pebbles; - "	"55.5; 51.8; 56.4 (Each) / 62.1 (Mixed)"	"9.5; 11.5; 9.0 (Each) / 8.8 (Mixed)"									"n=3 pooled: SAA008707; SAA008708; SAA008709"	2022/7/12	2022/7/12
PRA000120	SAA008796	ST024				Nara_sed1_123_2019	Sediment	"River sediment"	2019	12	5	"2019-12-05T10:30; T10:45; T11:00"			"Fair; Fair; Fair"	Asia	Japan	"Taisho-bashi Bridge, Riv. Yamato (Oji town), Nara"	34.58583333		135.6833333														"13.0; 13.0; 13.0"	"11.0; 11.0; 11.0"										"11.0; 11.0; 11.0"	"0.3; 0.3; 0.3"	"Sandy; Sandy; Sandy"	"Brown; Brown; Brown"	"Grayish yellow green_Light; Grayish yellow green_Light; Grayish yellow green_Light"	"Sewage odor_Faint; Sewage odor_Faint; Sewage odor_Faint"	"None; None; None"	"24.0; 22.0; 22.0 (Each) / 19.8 (Mixed)"	"0.9; 0.5; 0.5 (Each) / 0.6 (Mixed)"									"n=3 pooled: SAA008710; SAA008711; SAA008712"	2022/7/12	2022/7/12
PRA000120	SAA008797	ST024				Wakayama_w1-456_2019	Sediment	"River sediment"	2019	10	31	"2019-10-31T12:45; T13:30; T13:10"			"Fair; Fair; Fair"	Asia	Japan	"Kinokawa-ohashi Bridge, Mouth of Riv. Kinokawa (Wakayama City), Wakayama"	34.23		135.1561111														"25.1; 20.9; 21.8"	"19.8; 19.2; 19.2"								"1.5; 1.5; 1.5"		"23.1; 23.1; 23.2"	"3.5; 3.5; 5.5"	"Sandy; Sandy; Sandy"	"Gray; Brown; Brown"	"Green; Green; Green"	"Seaweed odor; Seaweed odor; Seaweed odor"	"Shellfish; None; None"	"24.8; 18.6; 22.7 (Each) / 29.0 (Mixed)"	"5.1; 3.2; 4.5 (Each) / 3.5 (Mixed)"									n=3	2022/7/12	2022/7/12
PRA000120	SAA008798	ST023				Okayama_sed1-123_2019	Sediment	"Marine sediment"	2019	10	23	"2019-10-23T10:50; T11:25; T11:55"			"Fair; Fair; Fair"	Asia	Japan	"Offshore of Mizushima, Okayama"	34.48055556		133.665														"23.6; 24.0; 23.5"	"22.0; 22.5; 22.0"								"1.5; 2.0; 2.0"		"24.0; 24.5; 23.8"	"7.6; 9.1; 7.8"	"Ooze; Ooze; Ooze"	"Grayish green; Grayish green; Grayish green"	"Yellow green_Dark; Yellow green_Dark; Yellow green_Dark"	"Earthy odor; Earthy odor; Earthy odor"	"Small pieces of seashell; Small pieces of seashell; Small pieces of seashell"	"49.3; 45.2; 47.8 (Each) / 44.8 (Mixed)"	"5.9; 5.5; 5.9 (Each) / 5.3 (Mixed)"									"n=3 pooled: SAA008716; SAA008717; SAA008718"	2022/7/12	2022/7/12
PRA000120	SAA008799	ST023				Hiroshima_sed1-123_2019	Sediment	"Marine sediment"	2019	11	13	"2019-11-13T09:58; T10:18; T10:27"			"Fair; Fair; Fair"	Asia	Japan	"Kure Port, Hiroshima"	34.23361111		132.5391667														"17.2; 17.7; 17.4"	"20.7; 21.0; 20.7"								"7.0; 6.5; 7.0"		"20.6; 20.9; 20.9"	"21.0; 20.0; 20.0"	"Silt; Silt; Silt"	"Gray_Dark; Gray_Dark; Gray_Dark"	"Blue green_Dark; Blue green_Dark; Blue green_Dark"	"Hydrogen sulfide odor_Faint; Hydrogen sulfide odor_Faint; Odorless"	"None; None; None"	"59.9; 62.5; 60.4 (Each) / 70.2 (Mixed)"	"10.0; 10.1; 8.4 (Each) / 10.4 (Mixed)"									n=3	2022/7/12	2022/7/12
PRA000120	SAA008800	ST023				Hiroshima_sed2-123_2019	Sediment	"Marine sediment"	2019	11	13	"2019-11-13T12:23; T12:48; T12:56"			"Fair; Fair; Fair"	Asia	Japan	"Hiroshima Bay (Hiroshima City), Hiroshima"	34.34833333		132.4225														"18.2; 18.8; 19.2"	"21.0; 21.1; 20.9"								"5.0; 4.0; 4.5"		"21.8; 21.5; 21.4"	"15.0; 12.0; 14.0"	"Silt; Silt; Silt"	"Grayish green_Dark; Grayish green_Dark; Grayish green_Dark"	"Blue green_Dark; Blue green_Dark; Blue green_Dark"	"Odorless; Odorless; Odorless"	"None; None; None"	"58.6; 57.4; 60.0 (Each) / 68.4 (Mixed)"	"9.5; 10.0; 10.0 (Each) / 10.5 (Mixed)"									n=3	2022/7/12	2022/7/12
PRA000120	SAA008801	ST023				Yamaguchi_sed1-123_2019	Sediment	"Marine sediment"	2019	11	12	"2019-11-12T12:25; T12:33; T12:43"			"Fair; Fair; Fair"	Asia	Japan	"Tokuyama Bay, Yamaguchi"	33.99361111		131.7505556														"20.0; 20.0; 20.0"	"22.4; 22.4; 22.4"								"7.0; 7.0; 7.0"		"20.0; 20.0; 20.0"	"23.0; 23.0; 23.0"	"Silt; Silt; Silt"	"Grayish yellow green; Grayish yellow green; Grayish yellow green"	"Blue green; Blue green; Blue green"	"Hydrogen sulfide odor; Hydrogen sulfide odor;  Hydrogen sulfide odor"	"None; None; None"	"62.5; 58.6; 57.1 (Each) / 67.7 (Mixed)"	"10.4; 10.6; 9.7 (Each) / 8.5 (Mixed)"									n=3	2022/7/12	2022/7/12
PRA000120	SAA008802	ST023				Yamaguchi_sed2-123_2019	Sediment	"Marine sediment"	2019	11	13	"2019-11-13T11:30; T11:40; T11:51"			"Fair; Fair; Fair"	Asia	Japan	"Offshore of Ube, Yamaguchi"	33.915		131.1975														"20.9; 20.9; 20.9"	"20.1; 20.1; 20.1"								"4.0; 4.0; 4.0"		"19.5; 19.5; 19.5"	"9.8; 9.8; 9.8"	"Silt; Silt; Silt"	"Grayish green; Grayish green; Grayish green"	"Grayish green; Grayish green; Grayish green"	"Odorless; Odorless; Odorless"	"None; None; None"	"39.3; 31.2; 31.3 (Each) / 42.8 (Mixed)"	"6.3; 5.6; 5.8 (Each) / 5.4 (Mixed)"									n=3	2022/7/12	2022/7/12
PRA000120	SAA008803	ST023				Yamaguchi_sed3-123_2019	Sediment	"Marine sediment"	2019	11	22	"2019-11-22T11:10; T11:17; T11:25"			"Cloudy; Cloudy; Cloudy"	Asia	Japan	"Offshore of Hagi, Yamaguchi"	34.43805556		131.3794444														"14.5; 14.5; 14.5"	"19.5; 19.5; 19.5"								"15.0; 15.0; 15.0"		"17.0; 17.0; 17.0"	"26.4; 26.4; 26.4"	"Fine sand; Fine sand; Fine sand"	"Light gray; Light gray; Light gray"	"Blue green; Blue green; Blue green"	"Odorless; Odorless; Odorless"	"None; None; None"	"31.3; 28.7; 28.1 (Each) / 30.9 (Mixed)"	"6.3; 6.0; 6.0 (Each) / 4.1 (Mixed)"									n=3	2022/7/12	2022/7/12
PRA000120	SAA008804	ST024				Tokushima_sed1-123_2018	Sediment	"River sediment"	2019	11	12	"2019-11-12T10:55; T10:25; T11:30"			"Fair; Fair; Fair"	Asia	Japan	"Mouth of Riv. Yoshino (Tokushima City), Tokushima"	34.085		134.5913889														"21.0; 21.5; 22.0"	"18.8; 18.8; 19.0"								"3.2; 3.4; 3.8"		"18.3; 18.8; 18.6"	"3.7; 4.5; 5.6"	"Sandy; Sandy; Sandy"	"Blackish gray; Blackish gray; Blackish gray"	"Green; Greenish blue; Greenish blue"	"Odorless; Odorless; Odorless"	"None; None; None"	"21.0; 21.0; 18.0 (Each) / 20.7 (Mixed)"	"1.3; 1.2; 0.9 (Each) / 1.0 (Mixed)"									n=3	2022/7/12	2022/7/12
PRA000120	SAA008805	ST023				Kagawa_sed1-123_2019	Sediment	"Marine sediment"	2019	11	26	"2019-11-26T09:07; T09:14; T09:25"			"Cloudy; Cloudy; Cloudy"	Asia	Japan	"Takamatsu Port, Kagawa"	34.34972222		134.0788889														"13.5; 13.4; 12.8"	"15.9; 16.4; 16.0"								"1.1; 1.0; 2.2"		"17.0; 16.8; 17.2"	"2.6; 5.2; 5.3"	"Muddy; Sandy; Muddy"	"Black; Black; Black"	"Blue green; Blue green; Blue green"	"Hydrogen sulfide odor, Pine essential oil odor; Hydrogen sulfide odor_Faint; Hydrogen sulfide odor_Faint"	"Seashells (Unknown type), Vegetative pieces (Lawn; Fallen leaves, etc),  Vinyl pieces; Seashells (Unknown type), Vegetative pieces (Lawn; Fallen leaves, etc), Vinyl pieces; None"	"63.8; 28.5; 69.7 (Each) / 51.9 (Mixed)"	"15.5; 2.6; 16.1 (Each) / 6.5 (Mixed)"									"n=3 pooled: SAA008721; SAA008722; SAA008723"	2022/7/12	2022/7/12
PRA000120	SAA008806	ST023				Ehime_sed1-123_2019	Sediment	"Marine sediment"	2019	10	28	"2019-10-28T10:14; T10:24; T10:34"			"Fair; Fair; Fair"	Asia	Japan	"Niihama Port, Ehime"	33.98777778		133.3144444														"22.5; 22.5; 22.5"	"21.5; 21.5; 21.5"								"3.5; 3.5; 3.5"		"23.0; 23.0; 23.0"	"6.7; 6.7; 6.7"	"Fine sand; Fine sand; Fine sand"	"Grayish green_Dark; Grayish green_Dark; Grayish green_Dark"	"Dark yellow green; Dark yellow green; Dark yellow green"	"Odorless; Odorless; Odorless"	"None; None; None"	"29.9; 29.4; 30.0 (Each) / 21.7 (Mixed)"	"1.5; 1.5; 1.5 (Each) / 1.4 (Mixed)"									n=3	2022/7/12	2022/7/12
PRA000120	SAA008807	ST024				Kochi_sed1-123_2019	Sediment	"River sediment"	2019	10	15	"2019-10-15T09:45; T11:00; T12:20"			"Fair; Fair; Fair"	Asia	Japan	"Mouth of Riv. Shimanto (Shimanto City), Kochi"	32.93777778		132.8441667														"26.8; 27.2; 26.4"	"22.2; 23.5; 25.0"										"25.0; 27.0; 25.5"	"5.2; 2.6; 0.5"	"Sandy; Muddy; Sandy"	"Gray; Blackish gray; Grayish brown"	"Clear; Clear; Clear"	"Odorless; Hydrogen sulfide odor; Odorless"	"None; None; None"	"23.5; 35.3; 19.0 (Each) / 28.2 (Mixed)"	"2.3; 6.3; 2.3 (Each) / 2.8 (Mixed)"									n=3	2022/7/12	2022/7/12
PRA000120	SAA008808	ST023				KitakyushuCity_sed1-123_2019	Sediment	"Marine sediment"	2019	11	25	"2019-11-25T09:50; T10:35; T10:20"			"Cloudy; Cloudy; Cloudy"	Asia	Japan	"Dokai Bay (Kitakyushu City), Fukuoka"	33.90388889		130.8158333														"19.3; 19.3; 19.3"	"17.8; 17.9; 18.0"								"4.5; 4.5; 4.5"		"18.3; 18.2; 18.1"	"11.5; 11.3; 9.8"	"Mud; Mud; Mud"	"Black; Black; Black"	"Clear; Clear; Clear"	"Odorless; Odorless; Odorless"	"None; None; None"	"42.2; 46.0; 57.1 (Each) / 45.3 (Mixed)"	"8.0; 6.7; 11.2 (Each) / 7.8 (Mixed)"									"n=3 pooled: SAA008724; SAA008725; SAA008726"	2022/7/12	2022/7/12
PRA000120	SAA008809	ST023				FukuokaCity_sed1-123_2019	Sediment	"Marine sediment"	2019	12	5	"2019-12-05T08:55; T09:25; T09:40"			"Cloudy; Cloudy; Cloudy"	Asia	Japan	"Hakata Bay, Fukuoka"	33.60833333		130.3297222														"13.5; 14.1; 14.4"	"14.0; 14.0; 14.0"								"2.5; 3.0; 3.0"		"14.5; 14.0; 14.5"	"7.7; 7.4; 8.4"	"Silt; Silt; Silt"	"Gray; Gray; Gray"	"Green_Dark; Green_Dark; Green_Dark"	"Odorless; Odorless; Odorless"	"None; None; None"	"42.0; 42.0; 42.0 (Each) / 53.3 (Mixed)"	"9.0; 8.8; 8.9 (Each) / 9.2 (Mixed)"									"n=3 pooled: SAA008727; SAA008728; SAA008729"	2022/7/12	2022/7/12
PRA000120	SAA008810	ST023				Saga_sed1-123_2019	Sediment	"Marine sediment"	2019	11	29	"2019-11-29T11:00; T11:56; T12:10"			"Fair; Fair; Fair"	Asia	Japan	"Imari Bay, Saga"	33.34		129.8208333														"13.0; 13.0; 13.0"	"16.5; 16.5; 16.5"								"2.5; 2.5; 2.5"		"17.0; 17.0; 17.0"	"15.2; 15.5; 16.2"	"Muddy; Muddy; Muddy"	"Grayish black; Grayish black; Grayish black"	"Clear; Clear; Clear"	"Earthy odor; Earthy odor; Earthy odor"	"None; None; None"	"66.5; 66.4; 68.7 (Each) / 65.2 (Mixed)"	"11.8; 11.6; 12.6 (Each) / 9.6 (Mixed)"									"n=3 pooled: SAA008730; SAA008731; SAA008732"	2022/7/12	2022/7/12
PRA000120	SAA008811	ST023				Nagasaki_sed1-123_2019	Sediment	"Marine sediment"	2019	10	29	"2019-10-29T10:55; T11:17; T11:45"			"Fair; Fair; Fair"	Asia	Japan	"Omura Bay, Nagasaki"	32.98833333		129.8522222														"23.0; 22.9; 21.8"	"22.6; 22.7; 22.5"								"7.6; 7.7; 7.7"		"23.9; 23.5; 22.0"	"19.8; 19.7; 20.1"	"Silt; Silt; Silt"	"Grayish brown; Grayish brown; Grayish brown"	"Blue green_Light; Blue green_Light; Blue green_Light"	"Odorless; Hydrogen sulfide odor_Faint; Hydrogen sulfide odor_Faint"	"Small pieces of shell; Small pieces of shell; Small pieces of shell"	"55.8; 55.4; 54.2 (Each) / 66.3 (Mixed)"	"12.6; 12.5; 12.2 (Each) / 12.1 (Mixed)"									n=3	2022/7/12	2022/7/12
PRA000120	SAA008812	ST024				Oita_sed1-123_2019	Sediment	"River sediment"	2019	11	21	"2019-11-21T11:45; T11:05; T09:57"			"Fair; Fair; Fair"	Asia	Japan	"Mouth of Riv. Oita, Oita"	33.25722222		131.6175														"14.5; 13.4; 12.9"	"16.5; 14.7; 13.8"										"19.5; 19.8; 18.2"	"1.5; 2.9; 2.7"	"Muddy, sandy; Muddy, sandy; Sandy"	"Black; Black; Black"	"Gray green_Dark; Gray green_Dark; Gray green_Dark"	"Hydrogen sulfide odor, sewage odor; Hydrogen sulfide odor, sewage odor; Sewage odor"	"Seashell pieces, pieces of wood; Seashell pieces, seashells, gravels, pieces of wood;  Gravels, pieces of wood"	"17.9; 17.3; 20.6 (Each) / 22.4 (Mixed)"	"1.4; 1.6; 1.8 (Each) / 1.4 (Mixed)"									"n=3 pooled: SAA008733; SAA008734; SAA008735"	2022/7/12	2022/7/12
PRA000120	SAA008813	ST024				Miyazaki_sed1-123_2019	Sediment	"River sediment"	2019	10	15	"2019-10-15T12:03; T12:14; T12:27"			"Fair; Fair; Fair"	Asia	Japan	"Mouth of Riv. Oyodo (Miyazaki City), Miyazaki"	31.89611111		131.4402778														"25.5; 24.5; 21.0"	"23.0; 23.0; 22.0"										"23.0; 22.5; 22.5"	"0.3; 0.4; 0.8"	"Pebble, Sand; Pebble, Sand; Pebble, Sand "	"Grayish black_Light; Grayish black_Light; Grayish black_Light"	"Clear; Clear; Clear"	"Odorless; Odorless; Odorless"	"None; Shellfish; None"	"17.1; 22.2; 21.2 (Each) / 20.6 (Mixed)"	"1.2; 1.1; 1.2 (Each) / 1.1 (Mixed)"									n=3	2022/7/12	2022/7/12
PRA000120	SAA008814	ST024				Kagoshima_sed1-123_2019	Sediment	"River sediment"	2019	11	13	"2019-11-13T11:44; T10:52; T10:22"			"Cloudy; Cloudy; Cloudy"	Asia	Japan	"Riv. Amori (Kirishima City), Kagoshima"	31.7225		130.7416667														"18.5; 21.3; 20.2"	"18.5; 17.8; 18.2"										"18.1; 20.2; 21.2"	"0.3; 0.5; 0.5"	"Sandy gravel; Sandy gravel; Sandy gravel"	"Blackish brown; Blackish brown; Blackish brown"	"Clear; Clear; Clear"	"Sewage odor_Faint; Earthy odor_Faint; Odorless"	"Pebbles; Pebbles; Pebbles"	"31.0; 21.0; 20.0 (Each) / 29.5 (Mixed)"	"2.3; 0.8; 1.0 (Each) / 1.4 (Mixed)"									n=3	2022/7/12	2022/7/12
PRA000120	SAA008815	ST024				Kagoshima_sed2-123_2019	Sediment	"River sediment"	2019	11	11	"2019-11-11T11:47; T11:15; T10:45"			"Fair; Fair; Fair"	Asia	Japan	"Gotanda-bashi Bridge, Riv. Gotanda (Ichikikushikino City), Kagoshima"	31.72583333		130.2769444														"21.5; 20.5; 21.3"	"18.2; 17.0; 16.4"										"18.1; 17.0; 16.0"	"0.2; 0.3; 0.3"	"Sandy gravel; Sandy gravel; Sandy gravel"	"Dark brown; Dark brown; Dark brown"	"Clear; Clear; Clear"	"Earthy odor_Faint; Earthy odor_Faint; Earthy odor_Faint"	"Pebbles; Pebbles; Pebbles"	"18.0; 19.0; 25.0 (Each) / 25.5 (Mixed)"	"1.4; 1.5; 2.6 (Each) / 1.8 (Mixed)"									n=3	2022/7/12	2022/7/12
PRA000120	SAA008816	ST023				Okinawa_sed1-123_2019	Sediment	"Marine sediment"	2020	1	10	"2020-01-10T11:40; T11:00; T12:20"			"Cloudy; Cloudy; Cloudy"	Asia	Japan	"Naha Port, Okinawa"	26.21222222		127.665														"22.4; 22.1; 21.3"	"22.5; 21.9; 20.9"								"1.5; 2.0; 5.4"		"22.6; 22.2; 21.4"	"7.1; 7.1; 5.4"	"Sludge; Sludge; Sludge"	"Grayish black; Grayish black; Grayish black"	"Clear; Clear; Clear"	"Hydrogen sulfide odor, Sewage odor; Hydrogen sulfide odor, Sewage odor; Hydrogen sulfide odor, Sewage odor"	"Pebbles, twigs; Pieces of plastic; Leaves"	"43.8; 36.0; 38.8 (Each) / 50.5 (Mixed)"	"9.6; 9.6; 9.9 (Each) / 9.1 (Mixed)"									n=3	2022/7/12	2022/7/12
PRA000120	SAA008835	ST029				Hokkaido_air4-1_2019	Air	"Outside air"	2019	10	18	2019-10-11T12:12/2019-10-18T12:12		"7days (Oct. 11_18)"	Fair/Fair	Asia	Japan	"Hokkaido Kamikawa General Promotion Bureau, Asahikawa city, Hokkaido"	43.80777778		142.4394444														19.7/11.8																								58/53	S/E	1.9/0.9	"1008 m^3"	"Air Sampler: Middle Volume; Weather during 7-day sampling: Fair, -, -, -, Fair, Cloudy, Cloudy, Fair; Wind direction:S, -, -, -, W, WSW, W, E; Wind speed: 1.9, -, -, -, 4.9, 1.6, 2.0, 0.9"	2022/9/27	2022/9/27
PRA000120	SAA008842	ST029				SapporoCity_air1-123_2019H	Air	"Outside air"	2019	10		"2019-10-07/10-08; 10-08/10-09; 10-09/10-10"				Asia	Japan	"Sapporo Art Park, Sapporo city, Hokkaido"	42.93861111		141.3402778																																										"Air Sampler: High Volume; n=3 pooled: SAA008839, SAA008840, SAA008841"	2022/9/27	2022/9/27
PRA000120	SAA008849	ST029				Iwate_air1-123_2019H	Air	"Outside air"	2019	10		"2019-09-30/10-01; 10-01/10-02; 10-02/10-03"				Asia	Japan	"Sugo Air Pollution Monitoring Station, Takizawa city, Iwate"	39.78194444		141.1405556																																										"Air Sampler: High Volume; n=3 pooled: SAA008846, SAA008847, SAA008848"	2022/9/27	2022/9/27
PRA000120	SAA008853	ST029				Miyagi_air1-1_2019	Air	"Outside air"	2019	10	11	2019-10-04T10:10/2019-10-11T10:10		"7days (Oct. 04_11)"	"Cloudy/Light rain"	Asia	Japan	"Miyagi Prefectural Institute of Public Health and Environment, Sendai City, Miyagi"	38.2775		140.9052778														22.3/17.5																								89/97	S/N	5.2/3.4	"1008 m^3"	"Air Sampler: Middle Volume; Weather during 7-day sampling: Cloudy, -, -, Cloudy, occasionally light rain, Cloudy, Fair, Fair, Light rain; Wind direction:S, -, -, WSW, ESE, WNW, SSE N; Wind speed: 5.2, -, -, 0.6, 0.9, 5.8, 1.7, 3.4"	2022/9/27	2022/9/27
PRA000120	SAA008857	ST029				Yamagata_air1-4_2019	Air	"Outside air"	2019	10	1	2019-09-24T10:29/2019-10-01T10:29		"7days (Sep. 24_Oct. 01)"	Fair/Fair	Asia	Japan	"Environmental Science Research Center of Yamagata Prefecture, Murayama city, Yamagata"	38.47361111		140.3988889														23.4/22.4																								63/64	NE/S	1.7/1.0	"1008 m^3"	"Air Sampler: Middle Volume; Weather during 7-day sampling: Fair, Fair, Fair, Fair, Cloudy, Cloudy, Fair, Fair; Wind direction:NE, NNW, SSE, NNE, NNW, SSE, N, S; Wind speed: 1.7, 3.3, 0.6, 1.1, 0.3, 1.4, 0.7, 1.0"	2022/9/27	2022/9/27
PRA000120	SAA008861	ST029				Ibaraki_air1-4_2019	Air	"Outside air"	2019	11	1	2019-10-25T09:30/2019-11-01T09:30		"7days (Oct. 25_Nov. 01)"	Rain/Fair	Asia	Japan	"Ibaraki Kasumigaura Environmental Science Center, Tsuchiura city, Ibaraki"	36.07555556		140.2666667														15.8/18.3																								97/73	NNE/NW	5.6/3.2	"1008 m^3"	"Air Sampler: Middle Volume; Weather during 7-day sampling: Rain, Cloudy, Rain, Fair, Rain, Fair, Fair, Fair; Wind direction:NNE, WSW, SW, NE, NNE, WSW, ENE, NW; Wind speed: 5.6, 2.4, 0.8, 3.2, 2.2, 2.4, 1.9, 3.2"	2022/9/27	2022/9/27
PRA000120	SAA008865	ST029				Chiba_air1-1_2019	Air	"Outside air"	2019	11	5	2019-10-29T10:03/2019-11-05T10:03		"7days (Oct. 29_Nov. 05)"	Rain/Fair	Asia	Japan	"Ichihara Iwasaki Nishi Air pollution monitoring station, Ichihara city, Chiba"	35.52666667		140.0680556														15.2/16.1																								97/42	N/NNW	2.3/2.0	"1008 m^3"	"Air Sampler: Middle Volume; Weather during 7-day sampling: Rain, Fair, Fair, Fair, Fair, Cloudy, Fair, Fair; Wind direction:N, NNW, NE, WNW, NE, NW, E, NNW; Wind speed: 2.3, 0.7, 2.8, 1.2, 3.4, 2.3, 0.9, 2.0"	2022/9/27	2022/9/27
PRA000120	SAA008869	ST029				Tokyo_air1-4_2019	Air	"Outside air"	2019	11	1	2019-10-25T10:01/2019-11-01T10:00		"7days (Oct. 25_Nov. 01)"	Rain/Fair	Asia	Japan	"Tokyo Metropolitan Research Institute for Environmental Protection, Koto Ward, Tokyo"	35.66833333		139.8241667														17.7/20.8																								100/72	NNW/WNW	3.4/1.0	"1011 m^3"	"Air Sampler: Middle Volume; Weather during 7-day sampling: Rain, Fair, Fair, Fair, Fair, Cloudy, Fair, Fair; Wind direction:NNW, S, N, NE, NNW, N, NE, WNW; Wind speed: 3.4, 2.4, 2.1, 1.9, 3.5, 0.8, 1.3, 1.0"	2022/9/27	2022/9/27
PRA000120	SAA008873	ST029				Tokyo_air2-1_2019	Air	"Outside air"	2019	10	9	2019-10-03T10:00/2019-10-09T09:45		"6days (Oct. 03_09)"	Fair/Cloudy	Asia	Japan	"Ogasawara Chichijima, Ogasawara Village, Tokyo"	27.09361111		142.2161111														28.1/28.0																								63/77	NE/E	4.8/3.3	"865 m^3"	"Air Sampler: Middle Volume; Weather during 6-day sampling: Fair, Fair, Fair, Fair, Fair, Fair, Cloudy; Wind direction:NE, NE, E, ENE, NE, ENE, E; Wind speed: 4.8, 2.8, 2.0, 2.0, 3.8, 2.7, 3.3"	2022/9/27	2022/9/27
PRA000120	SAA008880	ST029				Kanagawa_air1-91011_2019H	Air	"Outside air"	2019	9		"2019-09-24/09-25; 09-25/09-26; 09-26/09-27"				Asia	Japan	"Kanagawa Environmental Research Center, Hiratsuka City, Kanagawa"	35.3475		139.3513889																																										"Air Sampler: High Volume; n=3 pooled: SAA008877, SAA008878, SAA008879"	2022/9/27	2022/9/27
PRA000120	SAA008884	ST029				YokohamaCity_air1-4_2019	Air	"Outside air"	2019	11	5	2019-10-29T09:54/2019-11-05T10:05		"7days (Oct. 29_Nov. 05)"	Rain/Fair	Asia	Japan	"Yokohama Environmental Research Institute, Yokohama city, Kanagawa"	35.48111111		139.6580556														15.7/24.7																								85/46	N/NE	6.0/2.0	"1007 m^3"	"Air Sampler: Middle Volume; Weather during 7-day sampling: Rain, Fair, Cloudy, Fair, Fair, Rain, Fair, Fair; Wind direction:N, NE, N, NE, ENE, NNE, NNE, NE; Wind speed: 6.0, 0.6, 2.2, 1.4, 2.4, 1.7, 1.6, 2.0"	2022/9/27	2022/9/27
PRA000120	SAA008891	ST029				Niigata_air1-123_2019H	Air	"Outside air"	2019	10		"2019-10-07/10-08; 10-08/10-09; 10-09/10-10"				Asia	Japan	"Oyama Air Pollution Monitoring Station, Niigata city, Niigata"	37.93611111		139.0794444																																										"Air Sampler: High Volume; n=3 pooled: SAA008888, SAA008889, SAA008890"	2022/9/27	2022/9/27
PRA000120	SAA008898	ST029				Toyama_air1-123_2019H	Air	"Outside air"	2019	10		"2019-10-15/10-16;10-16/10-17; 10-17/10-18"				Asia	Japan	"Tonami Air Pollution Monitoring Station, Tonami city, Toyama"	36.62888889		136.9886111																																										"Air Sampler: High Volume; n=3 pooled: SAA008895, SAA008896, SAA008897"	2022/9/27	2022/9/27
PRA000120	SAA008905	ST029				Ishikawa_air1-789_2019H	Air	"Outside air"	2019	10		"2019-10-15/10-16; 10-16/10-17; 10-17/10-18"				Asia	Japan	"Ishikawa Prefectural Institute of Public Health and Environmental Science, Kanazawa City, Ishikawa"	36.52722222		136.7055556																																										"Air Sampler: High Volume; n=3 pooled: SAA008902, SAA008903, SAA008904"	2022/9/27	2022/9/27
PRA000120	SAA008912	ST029				Yamanashi_air1-123_2019H	Air	"Outside air"	2019	10		"2019-10-28/10-29; 10-29/10-30; 10-30/10-31"				Asia	Japan	"Yamanashi Institute of Public Health and Environment, Kofu city, Yamanashi"	35.67194444		138.5497222																																										"Air Sampler: High Volume; n=3 pooled: SAA008909, SAA008910, SAA008911"	2022/9/27	2022/9/27
PRA000120	SAA008916	ST029				Nagano_air1-6_2019	Air	"Outside air"	2019	10	31	2019-10-24T10:00/2019-10-31T10:00		"7days (Oct. 24_31)"	Cloudy/Fair	Asia	Japan	"Nagano Environmental Conservation Research Institute, Nagano City, Nagano"	36.63555556		138.1786111														19.1/15.4																								65/66	W/SW	4.1/2.9	"1008 m^3"	"Air Sampler: Middle Volume; Weather during 7-day sampling: Cloudy, Rain, Cloudy, Cloudy, Fair, Rain, Fair, Fair; Wind direction:W, SW, ESE, E, S, WSW, SSW, SW; Wind speed: 4.1, 1.9, 1.5, 3.0, 1.9, 1.9, 2.1, 2.9"	2022/9/27	2022/9/27
PRA000120	SAA008923	ST029				Gifu_air1-123_2019H	Air	"Outside air"	2019	10		"2019-10-28/10-29; 10-29/10-30; 10-30/10-31"				Asia	Japan	"Gifu Prefectural Research Institute for Health and Environmental Sciences, Kakamigahara city, Gifu"	35.4075		136.8447222																																										"Air Sampler: High Volume; n=3 pooled: SAA008920, SAA008921, SAA008922"	2022/9/27	2022/9/27
PRA000120	SAA008927	ST029				NagoyaCity_air1-9_2019	Air	"Outside air"	2019	10	1	2019-09-24T11:07/2019-10-01T11:07		"7days (Sep. 24_Oct. 01)"	"Cloudy occasionally Fair/Fair occasionally Cloudy"	Asia	Japan	"Chikusa-ku Heiwakoen Park, Nagoya City, Aichi"	35.17055556		136.9788889														23.4/26.2																								71/74	WNW/S	3.2/2.3	"1007 m^3"	"Air Sampler: Middle Volume; Weather during 7-day sampling: Cloudy occasionally Fair, Fair occasionally cloudy, Fair, Cloudy, Cloudy, Slightly cloudy, Cloudy occasionally fair, Fair occasionally cloudy ; Wind direction:WNW, N, SW, SW, SSE, W, SSE, S; Wind speed: 3.2, 2.8, 2.6, 2.6, 2.5, 1.9, 2.8, 2.3"	2022/9/27	2022/9/27
PRA000120	SAA008934	ST029				Mie_air1-456_2019H	Air	"Outside air"	2019	10		"2019-09-30/10-01; 10-01/10-02; 10-02/10-03"				Asia	Japan	"Mie Prefecture Health and Environment Research Institute, Yokkaichi city, Mie"	34.99166667		136.4855556																																										"Air Sampler: High Volume; n=3 pooled: SAA008931, SAA008932, SAA008933"	2022/9/27	2022/9/27
PRA000120	SAA008941	ST029				Osaka_air1-456_2019H	Air	"Outside air"	2019	10		"2019-10-15/10-16; 10-16/10-17; 10-17/10-18"				Asia	Japan	"Osaka Joint government building No.2 Annex, Osaka city, Osaka"	34.6825		135.5191667																																										"Air Sampler: High Volume; n=3 pooled: SAA008938, SAA008939, SAA008940"	2022/9/27	2022/9/27
PRA000120	SAA008948	ST029				Hyogo_air1-123_2019H	Air	"Outside air"	2019	10		"2019-10-15/10-16; 10-16/10-17; 10-17/10-18"				Asia	Japan	"Hyogo Prefectural Institute of Environmental Sciences, Kobe city, Hyogo"	34.64916667		135.1316667																																										"Air Sampler: High Volume; n=3 pooled: SAA008945, SAA008946, SAA008947"	2022/9/27	2022/9/27
PRA000120	SAA008955	ST029				KobeCity_air1-123_2019H	Air	"Outside air"	2019	10		"2019-10-07/10-08; 10-08/10-09; 10-09/10-10"				Asia	Japan	"Public Health Research Institute of Kobe City, Kobe city, Hyogo"	34.67861111		135.2105556																																										"Air Sampler: High Volume; n=3 pooled: SAA008952, SAA008953, SAA008954"	2022/9/27	2022/9/27
PRA000120	SAA008962	ST029				Nara_air1-123_2019H	Air	"Outside air"	2019	11		"2019-11-05/11-06; 11-06/11-07; 11-07/11-08"				Asia	Japan	"Tenri Air Pollution Monitoring Station, Tenri city, Nara"	34.59333333		135.8291667																																										"Air Sampler: High Volume; n=3 pooled: SAA008959, SAA008960, SAA008961"	2022/9/27	2022/9/27
PRA000120	SAA008969	ST029				Shimane_air1-123_2019H	Air	"Outside air"	2019	10		"2019-10-28/10-29; 10-29/10-30; 10-30/10-31"				Asia	Japan	"Oki Acid Rain Monitoring Station, Okinoshima town, Shimane"	36.28833333		133.1825																																										"Air Sampler: High Volume; n=3 pooled: SAA008966, SAA008967, SAA008968"	2022/9/27	2022/9/27
PRA000120	SAA008976	ST029				HiroshimaCity_air1-123_2019H	Air	"Outside air"	2019	10		"2019-10-28/10-29; 10-29/10-30; 10-30/10-31"				Asia	Japan	"Kokutaiji Junior high school, Hiroshima city, Hiroshima"	34.38472222		132.4580556																																										"Air Sampler: High Volume; n=3 pooled: SAA008973, SAA008974, SAA008975"	2022/9/27	2022/9/27
PRA000120	SAA008980	ST029				Yamaguchi_air1-6_2019	Air	"Outside air"	2019	10	1	2019-09-24T10:00/2019-10-01T10:00		"7days (Sep. 24_Oct. 01)"	Fair/Cloudy	Asia	Japan	"Yamaguchi Prefectural Institute of Public Health and Environment, Yamaguchi City, Yamaguchi"	34.15277778		131.4333333														24.9/26.4																								57/80	NE/SE	3.1/1.1	"1008 m^3"	"Air Sampler: Middle Volume; Weather during 7-day sampling: Fair, Fair, Fair, Cloudy, Rain, Fair, Fair Cloudy; Wind direction:NE, SSE, SE, ENE, E, NE, S, SE; Wind speed: 3.1, 1.0, 0.6, 2.0, 1.9, 0.9, 1.5, 1.1"	2022/9/27	2022/9/27
PRA000120	SAA008984	ST029				Yamaguchi_air3-1_2019	Air	"Outside air"	2019	10	1	2019-09-24T10:00/2019-10-01T10:00		"7days (Sep. 24_Oct. 01)"	Fair/Cloudy	Asia	Japan	"Hagi Health and Welfare Center, Hagi city, Yamaguchi"	34.40848		131.39581														22.6/25.2																								66/87	NNE/N	2.3/1.7	"1008 m^3"	"Air Sampler: Middle Volume; Weather during 7-day sampling: Fair, Fair, Fair, Cloudy, Cloudy, Fair, Fair Cloudy; Wind direction:NNE, W, NE, ESE, S, NW, SW, N; Wind speed: 2.3, 0.7, 0.7, 1.0, 3.9, 2.8, 1.6, 1.7"	2022/9/27	2022/9/27
PRA000120	SAA008991	ST029				Tokushima_air1-123_2019H	Air	"Outside air"	2019	10		"2019-09-30/10-01; 10-01/10-02; 10-02/10-03"				Asia	Japan	"Tokushima Prefectural Public health, Pharmaceutical and Environmental Sciences Center, Tokushima city, Tokushima"	34.07		134.5608333																																										"Air Sampler: High Volume; n=3 pooled: SAA008988, SAA008989, SAA008990"	2022/9/27	2022/9/27
PRA000120	SAA008995	ST029				Kagawa_air1-9_2019	Air	"Outside air"	2019	11	1	2019-10-25T12:04/2019-11-01T12:04		"7days (Oct. 25_Nov. 01)"	Cloudy/Fair	Asia	Japan	"Kagawa Pref. Synthesis Swimming Pool, Takamatsu City, Kagawa"	34.30861111		133.9802778														20.4/21.5																								81/50	NNW/W	2.2/2.2	"1008 m^3"	"Air Sampler: Middle Volume; Weather during 7-day sampling: Cloudy, Cloudy, Fair, Slightly cloudy, Cloudy, Fair, Fair, Fair; Wind direction:NNW, WSW, WNW, ENE, WSW, W, WNW, W; Wind speed: 2.2, 3.1, 3.6, 3.3, 1.9, 2.7, 2.1, 2.2"	2022/9/27	2022/9/27
PRA000120	SAA009002	ST029				Ehime_air1-123_2019H	Air	"Outside air"	2019	10		"2019-10-07/10-08; 10-08/10-09; 10-09/10-10"				Asia	Japan	"Nanyo General Subprefectural Bureau, Uwajima city, Ehime"	33.22722222		132.57																																										"Air Sampler: High Volume; n=3 pooled: SAA008999, SAA009000, SAA009001"	2022/9/27	2022/9/27
PRA000120	SAA009009	ST029				Fukuoka_air1-123_2019H	Air	"Outside air"	2019	9		"2019-09-24/09-25; 09-25/09-26; 09-26/09-27"				Asia	Japan	"Omuta municipal office, Omuta city, Fukuoka"	33.03027778		130.4458333																																										"Air Sampler: High Volume; n=3 pooled: SAA009006, SAA009007, SAA009008"	2022/9/27	2022/9/27
PRA000120	SAA009013	ST029				Saga_air1-4_2019	Air	"Outside air"	2019	10	1	2019-09-24T09:52/2019-10-01T09:52		"7days (Sep. 24_Oct. 01)"	Fair/Cloudy	Asia	Japan	"Saga Prefectural Environmental Research Center, Saga city, Saga"	33.27333333		130.2727778														24.7/24.5																								61/80	ESE/WSW	2.0/1.7	"1008 m^3"	"Air Sampler: Middle Volume; Weather during 7-day sampling: Fair, Fair, Cloudy, Fair, Cloudy, Cloudy, Cloudy, Cloudy; Wind direction:ESE, N, NE, ENE, ENE,ESE, NE, WSW; Wind speed: 2.0, 0.9, 1.5, 3.6, 6.7, 1.6, 2.0, 1.7"	2022/9/27	2022/9/27
PRA000120	SAA009020	ST029				Kumamoto_air1-123_2019H	Air	"Outside air"	2019	9		"2019-09-24/09-25; 09-25/09-26; 09-26/09-27"				Asia	Japan	"Kumamoto Prefectural Institute of Public-Health and Environmental Science, Uto city, Kumamoto"	32.66583333		130.6530556																																										"Air Sampler: High Volume; n=3 pooled: SAA009017, SAA009018, SAA009019"	2022/9/27	2022/9/27
PRA000120	SAA009024	ST029				Miyazaki_air1-1_2019	Air	"Outside air"	2019	11	12	2019-11-05T10:02/2019-11-12T10:02		"7days (Nov. 05_12)"	Fair/Fair	Asia	Japan	"Miyazaki Prefectural Institute for Public Health and Environment, Miyazaki city, Miyazaki"	31.83305556		131.4152778														17.4/18.4																								56/63	NE/WNW	2.7/2.7	"1008 m^3"	"Air Sampler: Middle Volume; Weather during 7-day sampling: Fair, Fair, Cloudy, Fair, Fair, Fair, Fair, Fair; Wind direction:NE, W, WNW, WNW, WNW, W, W, WNW; Wind speed: 2.7, 1.7, 3.1, 2.5, 2.4, 1.2, 8.3, 2.7"	2022/9/27	2022/9/27
PRA000120	SAA009031	ST029				Kagoshima_air1-123_2019H	Air	"Outside air"	2019	10		"2019-10-28/10-29; 10-29/10-30; 10-30/10-31"				Asia	Japan	"Kagoshima Prefectural Institute for Environmental Research and Public Health, Kagoshima city, Kagoshima"	31.58444444		130.5644444																																										"Air Sampler: High Volume; n=3 pooled: SAA009028, SAA009029, SAA009030"	2022/9/27	2022/9/27
PRA000120	SAA009038	ST029				Okinawa_air1-123_2019H	Air	"Outside air"	2019	9		"2019-09-24/09-25; 09-25/09-26; 09-26/09-27"				Asia	Japan	"Cape Hedo-misaki, Kunigami villedge, Okinawa"	26.87		128.25																																										"Air Sampler: High Volume; n=3 pooled: SAA009035, SAA009036, SAA009037"	2022/9/27	2022/9/27
PRA000121	SAA008817	ST035				WR-1F	Air	"Floor dust"	2019	9						Asia	Vietnam	"Bui Dau Village, Hung Yen Province"	20.93361111		106.0947222																																										"This dust sample mainly contained soil, sand, biological fragments and debris from recycling activities; Homogenized by passing through 250 μm sieves and stored at -20℃ until analysis; E-recyling area (Main activities: Manual dismantling, pastic shredding, storing; Working area characteristics: Steel frame, corrugated wall/roof, concrete floor; Input materials: E-waste (TV, radio, DVD player, Printed circuit board[PCB]), consumer products, automotive plastic parts; Output products: Plastic pellets, metals)"	2022/8/8	2022/8/8
PRA000121	SAA008818	ST035				WR-1E	Air	"Dust on end-of-life equipment surface"	2019	9						Asia	Vietnam	"Bui Dau Village, Hung Yen Province"	20.93361111		106.0947222																																										"This dust sample mainly contained soil, sand, biological fragments and debris from recycling activities; Homogenized by passing through 250 μm sieves and stored at -20℃ until analysis; E-recyling area (Main activities: Manual dismantling, pastic shredding, storing; Working area characteristics: Steel frame, corrugated wall/roof, concrete floor; Input materials: E-waste (TV, radio, DVD player, Printed circuit board[PCB]), consumer products, automotive plastic parts; Output products: Plastic pellets, metals)"	2022/8/8	2022/8/8
PRA000121	SAA008819	ST035				WR-2F	Air	"Floor dust"	2019	9						Asia	Vietnam	"Bui Dau Village, Hung Yen Province"	20.93444444		106.0936111																																										"This dust sample mainly contained soil, sand, biological fragments and debris from recycling activities; Homogenized by passing through 250 μm sieves and stored at -20℃ until analysis; E-recyling area (Main activities: Manual dismantling, pastic shredding, acid leaching, storing; Working area characteristics: Steel frame, brick wall, corrugated roof, concrete floor; Input materials: E-waste (home appliance), consumer products; Output products: Plastic pellets, metals)"	2022/8/8	2022/8/8
PRA000121	SAA008820	ST035				WR-3F	Air	"Floor dust"	2019	9						Asia	Vietnam	"Bui Dau Village, Hung Yen Province"	20.93444444		106.0919444																																										"This dust sample mainly contained soil, sand, biological fragments and debris from recycling activities; Homogenized by passing through 250 μm sieves and stored at -20℃ until analysis; E-recyling area (Main activities: Manual dismantling, storing; Working area characteristics: Steel frame, brick wall/floor, corrugated roof; Input materials: E-waste (CRT TV, DVD player, printer, PCB, water pump, electric generator); Output products: Metals)"	2022/8/8	2022/8/8
PRA000121	SAA008821	ST035				WR-4F	Air	"Floor dust"	2019	9						Asia	Vietnam	"Bui Dau Village, Hung Yen Province"	20.93222222		106.0983333																																										"This dust sample mainly contained soil, sand, biological fragments and debris from recycling activities; Homogenized by passing through 250 μm sieves and stored at -20℃ until analysis; E-recyling area (Main activities: Manual dismantling, plastic shredding, storing; Working area characteristics: Steel frame, brick wall, corrugated roof, concrete floor; Input materials: E-waste (CRT TV case, PCB, cable, home appliance), consumer products; Output products: Plastic pellets, metals)"	2022/8/8	2022/8/8
PRA000121	SAA008822	ST035				WR-5F	Air	"Floor dust"	2019	9						Asia	Vietnam	"Bui Dau Village, Hung Yen Province"	20.93305556		106.0986111																																										"This dust sample mainly contained soil, sand, biological fragments and debris from recycling activities; Homogenized by passing through 250 μm sieves and stored at -20℃ until analysis; E-recyling area (Main activities: Manual dismantling, plastic crushing, storing; Working area characteristics: Steel frame, corrugated wall/roof, concrete floor; Input materials: E-waste (TV, refrigerator, home appliance), consumer products; Output products: Plastic pellets)"	2022/8/8	2022/8/8
PRA000121	SAA008823	ST035				WR-5E	Air	"Dust on end-of-life equipment surface"	2019	9						Asia	Vietnam	"Bui Dau Village, Hung Yen Province"	20.93305556		106.0986111																																										"This dust sample mainly contained soil, sand, biological fragments and debris from recycling activities; Homogenized by passing through 250 μm sieves and stored at -20℃ until analysis; E-recyling area (Main activities: Manual dismantling, plastic crushing, storing; Working area characteristics: Steel frame, corrugated wall/roof, concrete floor; Input materials: E-waste (TV, refrigerator, home appliance), consumer products; Output products: Plastic pellets)"	2022/8/8	2022/8/8
PRA000121	SAA008824	ST031				VP-1F	Air	"Floor dust"	2019	9						Asia	Vietnam	"Thuyen Village, Bac Giang Province"	21.14194444		106.0369444																																										"This dust sample mainly contained soil, sand, biological fragments and debris from recycling activities; Homogenized by passing through 250 μm sieves and stored at -20℃ until analysis; ELV processing area (Main activities: Dismantling, storing, open burning; Working area characteristics: Steel frame and floor, corrugated wall/roof, outdoor; Input materials: ELV (Truck, pickup truck, bus); Output products: Vehicle parts, scrap)"	2022/8/8	2022/8/8
PRA000121	SAA008825	ST031				VP-1E	Air	"Dust on end-of-life equipment surface"	2019	9						Asia	Vietnam	"Thuyen Village, Bac Giang Province"	21.14194444		106.0369444																																										"This dust sample mainly contained soil, sand, biological fragments and debris from recycling activities; Homogenized by passing through 250 μm sieves and stored at -20℃ until analysis; ELV processing area (Main activities: Dismantling, storing, open burning; Working area characteristics: Steel frame and floor, corrugated wall/roof, outdoor; Input materials: ELV (Truck, pickup truck, bus); Output products: Vehicle parts, scrap)"	2022/8/8	2022/8/8
PRA000121	SAA008826	ST031				VP-2F	Air	"Floor dust"	2019	9						Asia	Vietnam	"Thuyen Village, Bac Giang Province"	21.28166667		106.2313889																																										"This dust sample mainly contained soil, sand, biological fragments and debris from recycling activities; Homogenized by passing through 250 μm sieves and stored at -20℃ until analysis; ELV processing area (Main activities: Dismantling, storing; Working area characteristics: Steel frame, brick wall, corrugated roof, concrete floor, outdoor; Input materials: ELV (Truck, pickup truck, bus); Output products: Vehicle parts, scrap)"	2022/8/8	2022/8/8
PRA000121	SAA008827	ST031				VP-2E	Air	"Dust on end-of-life equipment surface"	2019	9						Asia	Vietnam	"Thuyen Village, Bac Giang Province"	21.28166667		106.2313889																																										"This dust sample mainly contained soil, sand, biological fragments and debris from recycling activities; Homogenized by passing through 250 μm sieves and stored at -20℃ until analysis; ELV processing area (Main activities: Dismantling, storing; Working area characteristics: Steel frame, brick wall, corrugated roof, concrete floor, outdoor; Input materials: ELV (Truck, pickup truck, bus); Output products: Vehicle parts, scrap)"	2022/8/8	2022/8/8
PRA000121	SAA008828	ST031				VP-3F	Air	"Floor dust"	2019	9						Asia	Vietnam	"Thuyen Village, Bac Giang Province"	21.28055556		106.2316667																																										"This dust sample mainly contained soil, sand, biological fragments and debris from recycling activities; Homogenized by passing through 250 μm sieves and stored at -20℃ until analysis; Used only for HFRs and PCBs analysis and not used for OPEs analysis due to limited sample amount; ELV processing area (Main activities: Dismantling, storing, open burning; Working area characteristics: Steel frame, no wall, tarpaulin cover, soil floor, outdoor; Input materials: ELV (bus); Output products: Vehicle parts, scrap"	2022/8/8	2022/8/8
PRA000121	SAA008829	ST031				VP-3E	Air	"Dust on end-of-life equipment surface"	2019	9						Asia	Vietnam	"Thuyen Village, Bac Giang Province"	21.28055556		106.2316667																																										"This dust sample mainly contained soil, sand, biological fragments and debris from recycling activities; Homogenized by passing through 250 μm sieves and stored at -20℃ until analysis; ELV processing area (Main activities: Dismantling, storing, open burning; Working area characteristics: Steel frame, no wall, tarpaulin cover, soil floor, outdoor; Input materials: ELV (bus); Output products: Vehicle parts, scrap)"	2022/8/8	2022/8/8
PRA000121	SAA008830	ST031				VP-4F	Air	"Floor dust"	2019	9						Asia	Vietnam	"Thuyen Village, Bac Giang Province"	21.2825		106.2311111																																										"This dust sample mainly contained soil, sand, biological fragments and debris from recycling activities; Homogenized by passing through 250 μm sieves and stored at -20℃ until analysis; ELV processing area (Main activities: Repair, maintenance; Working area characteristics: Steel frame, brick wall, corrugated roof, concrete floor, outdoor; Input materials: Truck, dump truck; Output products: No)"	2022/8/8	2022/8/8
PRA000121	SAA008831	ST031				VP-5F	Air	"Floor dust"	2019	9						Asia	Vietnam	"Thuyen Village, Bac Giang Province"	21.28222222		106.2308333																																										"This dust sample mainly contained soil, sand, biological fragments and debris from recycling activities; Homogenized by passing through 250 μm sieves and stored at -20℃ until analysis; ELV processing area (Main activities: Dismantling, storing; Working area characteristics: Steel frame, brick wall, corrugated roof, concrete floor, outdoor; Input materials: ELV(truck, pickup truck, bus, car); Output products: Vehicle parts, scrap)"	2022/8/8	2022/8/8
PRA000121	SAA008832	ST031				VP-5E	Air	"Dust on end-of-life equipment surface"	2019	9						Asia	Vietnam	"Thuyen Village, Bac Giang Province"	21.28222222		106.2308333																																										"This dust sample mainly contained soil, sand, biological fragments and debris from recycling activities; Homogenized by passing through 250 μm sieves and stored at -20℃ until analysis; ELV processing area (Main activities: Dismantling, storing; Working area characteristics: Steel frame, brick wall, corrugated roof, concrete floor, outdoor; Input materials: ELV(truck, pickup truck, bus, car); Output products: Vehicle parts, scrap)"	2022/8/8	2022/8/8
PRA000121	SAA008833	ST031				VP-6F	Air	"Floor dust"	2019	9						Asia	Vietnam	"Thuyen Village, Bac Giang Province"	21.2825		106.2302778																																										"This dust sample mainly contained soil, sand, biological fragments and debris from recycling activities; Homogenized by passing through 250 μm sieves and stored at -20℃ until analysis; ELV processing area (Main activities: Dismantling, storing; Working area characteristics: Steel frame/floor, brick wall, corrugated roof, outdoor; Input materials: ELV(truck, pickup truck, bus); Output products: Vehicle parts, scrap)"	2022/8/8	2022/8/8
PRA000121	SAA008834	ST031				VP-6F	Air	"Dust on end-of-life equipment surface"	2019	9						Asia	Vietnam	"Thuyen Village, Bac Giang Province"	21.2825		106.2302778																																										"This dust sample mainly contained soil, sand, biological fragments and debris from recycling activities; Homogenized by passing through 250 μm sieves and stored at -20℃ until analysis; ELV processing area (Main activities: Dismantling, storing; Working area characteristics: Steel frame/floor, brick wall, corrugated roof, outdoor; Input materials: ELV(truck, pickup truck, bus); Output products: Vehicle parts, scrap)"	2022/8/8	2022/8/8
PRA000127	SAA009950	ST009	29158			HR-1M	"Mytilus galloprovincialis"	"Blue mussel"	2017	11	7					Asia	Japan	"Otake city, Horoshima"	34.24083333		132.2330556			"Whole soft tissues"	0.88																																							2025/02/14	2025/02/14
PRA000127	SAA009951	ST009	29158			HR-2M	"Mytilus galloprovincialis"	"Blue mussel"	2017	11	7					Asia	Japan	"Hatsukaichi city, Horoshima"	34.30638889		132.32			"Whole soft tissues"	0.84																																							2025/02/14	2025/02/14
PRA000127	SAA009952	ST009	29158			HR-3M	"Mytilus galloprovincialis"	"Blue mussel"	2017	11	7					Asia	Japan	"Hatsukaichi city, Horoshima"	34.3575		132.3386111			"Whole soft tissues"	0.64																																							2025/02/14	2025/02/14
PRA000127	SAA009953	ST009	29158			HR-4M	"Mytilus galloprovincialis"	"Blue mussel"	2017	11	7					Asia	Japan	"Etajima city, Horoshima"	34.26666667		132.4088889			"Whole soft tissues"	0.77																																							2025/02/14	2025/02/14
PRA000127	SAA009954	ST009	29158			HR-5M	"Mytilus galloprovincialis"	"Blue mussel"	2017	11	7					Asia	Japan	"Hiroshima city, Horoshima"	34.34305556		132.465			"Whole soft tissues"	1.1																																							2025/02/14	2025/02/14
PRA000127	SAA009955	ST009	29158			EH-1M	"Mytilus galloprovincialis"	"Blue mussel"	2017	10	30					Asia	Japan	"Iyo City, Ehime"	33.75		132.6697222			"Whole soft tissues"	1.6																																							2025/02/14	2025/02/14
PRA000127	SAA009956	ST009	121615			EH-1O	"Crassostrea nippona"	Oyster	2017	10	30					Asia	Japan	"Iyo City, Ehime"	33.75		132.6697222			"Whole soft tissues"	1.6																																							2025/02/14	2025/02/14
PRA000127	SAA009957	ST009	29158			EH-2M	"Mytilus galloprovincialis"	"Blue mussel"	2017	11	8					Asia	Japan	"Matsuyama City, Ehime"	33.8525		132.7077778			"Whole soft tissues"	1.2																																							2025/02/14	2025/02/14
PRA000127	SAA009958	ST009	29158			EH-3M	"Mytilus galloprovincialis"	"Blue mussel"	2017	11	8					Asia	Japan	"Matsuyama City, Ehime"	33.89111111		132.7252778			"Whole soft tissues"	0.66																																							2025/02/14	2025/02/14
PRA000127	SAA009959	ST009	42192			EH-4M	"Mytilus coruscus"	Mussel	2017	11	8					Asia	Japan	"Imabari City, Ehime"	34.09277778		133.0197222			"Whole soft tissues"	0.68																																							2025/02/14	2025/02/14
PRA000127	SAA009960	ST009	42192			EH-5M	"Mytilus coruscus"	Mussel	2017	11	8					Asia	Japan	"Niihama City, Ehime"	33.97277778		133.2977778			"Whole soft tissues"	2.7																																							2025/02/14	2025/02/14
PRA000127	SAA009961	ST009	42192			EH-6M	"Mytilus coruscus"	Mussel	2017	11	8					Asia	Japan	"Shikokuchuo City, Ehime"	34.02444444		133.5805556			"Whole soft tissues"	2.7																																							2025/02/14	2025/02/14
PRA000127	SAA009962	ST009	121615			OK-1O	"Crassostrea nippona"	Oyster	2017	11	30					Asia	Japan	"Kurashiki City, Okayama"	34.52777778		133.6561111			"Whole soft tissues"	1.9																																							2025/02/14	2025/02/14
PRA000127	SAA009963	ST009	121615			OK-2O	"Crassostrea nippona"	Oyster	2017	11	30					Asia	Japan	"Kurashiki City, Okayama"	34.52138889		133.6938889			"Whole soft tissues"	0.38																																							2025/02/14	2025/02/14
PRA000127	SAA009964	ST009	121615			OK-3O	"Crassostrea nippona"	Oyster	2017	11	30					Asia	Japan	"Okayama City, Okayama"	34.60305556		133.9883333			"Whole soft tissues"	1.7																																							2025/02/14	2025/02/14
PRA000127	SAA009965	ST009	42192			KG-1M	"Mytilus coruscus"	Mussel	2017	11	29					Asia	Japan	"Utazu Town, Kagawa"	34.32833333		133.84			"Whole soft tissues"	1.8																																							2025/02/14	2025/02/14
PRA000127	SAA009966	ST009	42192			KG-2M	"Mytilus coruscus"	Mussel	2017	11	29					Asia	Japan	"Sakaide City, Kagawa"	34.37138889		133.8763889			"Whole soft tissues"	1.3																																							2025/02/14	2025/02/14
PRA000127	SAA009967	ST009	121615			KG-2O	"Crassostrea nippona"	Oyster	2017	11	29					Asia	Japan	"Sakaide City, Kagawa"	34.37138889		133.8763889			"Whole soft tissues"	1.3																																							2025/02/14	2025/02/14
PRA000127	SAA009968	ST009	121615			KG-3O	"Crassostrea nippona"	Oyster	2017	11	29					Asia	Japan	"Takamatsu City, Kagawa"	34.34777778		134.0711111			"Whole soft tissues"	0.87																																							2025/02/14	2025/02/14
PRA000127	SAA009969	ST009	29158			HY-1M	"Mytilus galloprovincialis"	"Blue mussel"	2017	11	29					Asia	Japan	"Himeji City, Hyogo"	34.77916667		134.5997222			"Whole soft tissues"	1.4																																							2025/02/14	2025/02/14
PRA000127	SAA009970	ST009	121615			HY-2O	"Crassostrea nippona"	Oyster	2017	11	29					Asia	Japan	"Himeji City, Hyogo"	34.79888889		134.6608333			"Whole soft tissues"	1.1																																							2025/02/14	2025/02/14
PRA000127	SAA009971	ST009	121615			HY-3O	"Crassostrea nippona"	Oyster	2017	11	29					Asia	Japan	"Minamiawaji City, Hyogo"	34.32027778		134.7183333			"Whole soft tissues"	0.65																																							2025/02/14	2025/02/14
PRA000127	SAA009972	ST009	29158			HY-5M	"Mytilus galloprovincialis"	"Blue mussel"	2017	11	30					Asia	Japan	"Kobe City, Hyogo"	34.62277778		135.0638889			"Whole soft tissues"	1.1																																							2025/02/14	2025/02/14
PRA000127	SAA009973	ST009	121615			HY-5O	"Crassostrea nippona"	Oyster	2017	11	30					Asia	Japan	"Kobe City, Hyogo"	34.62277778		135.0638889			"Whole soft tissues"	0.78																																							2025/02/14	2025/02/14
PRA000127	SAA009974	ST009	121615			HY-6O	"Crassostrea nippona"	Oyster	2017	11	29					Asia	Japan	"Kobe City, Hyogo"	34.67833333		135.1861111			"Whole soft tissues"	0.61																																							2025/02/14	2025/02/14
PRA000127	SAA009975	ST009	121615			OS-1O	"Crassostrea nippona"	Oyster	2017	11	30					Asia	Japan	"Osaka City, Osaka"	34.69305556		135.4075			"Whole soft tissues"	0.82																																							2025/02/14	2025/02/14
PRA000127	SAA009976	ST009	1289581			OS-2M	"Xenostrobus securis"	"Small brown mussel"	2017	11	30					Asia	Japan	"Osaka City, Osaka"	34.665		135.4483333			"Whole soft tissues"	0.55																																							2025/02/14	2025/02/14
PRA000127	SAA009977	ST009	121615			OS-3O	"Crassostrea nippona"	Oyster	2019	7	16					Asia	Japan	"Izumisano City, Osaka"	34.42944444		135.3194444			"Whole soft tissues"	0.99																																							2025/02/14	2025/02/14
PRA000127	SAA009978	ST009	121615			OS-4O	"Crassostrea nippona"	Oyster	2019	7	16					Asia	Japan	"Sennan City, Osaka"	34.32166667		135.1294444			"Whole soft tissues"	1.3																																							2025/02/14	2025/02/14
PRA000127	SAA009979	ST009	121615			OS-5O	"Crassostrea nippona"	Oyster	2019	7	17					Asia	Japan	"Osaka City, Osaka"	34.61361111		135.4441667			"Whole soft tissues"	2.4																																							2025/2/14	2025/2/14
